<?xml version="1.0" encoding="utf-8"?>
<gpx xmlns:xsi="http://www.w3.org/2001/XMLSchema-instance" xmlns:xsd="http://www.w3.org/2001/XMLSchema" version="1.1" creator="Shapelink.com" xmlns="http://www.topografix.com/GPX/1/1" xmlns:gpxtpx="http://www.garmin.com/xmlschemas/TrackPointExtension/v1">
  <metadata>
    <name>Ciclismo 21.56 km, 2019-12-04</name>
    <desc></desc>
    <author><name>Peter Littke</name></author> 
    <time>2019-12-04T15:58:24Z</time>
  </metadata>
  <trk>
    <name>Ciclismo 21.56 km, 2019-12-04</name>
    <trkseg>
      <trkpt lat="59.173498" lon="18.143416">
        <ele>0</ele>
        <time>2019-12-04T15:58:24Z</time>
      </trkpt>
      <trkpt lat="59.17355" lon="18.143405">
        <ele>56</ele>
        <time>2019-12-04T15:58:31Z</time>
      </trkpt>
      <trkpt lat="59.17357" lon="18.14341">
        <ele>59</ele>
        <time>2019-12-04T15:58:33Z</time>
      </trkpt>
      <trkpt lat="59.173594" lon="18.143416">
        <ele>60</ele>
        <time>2019-12-04T15:58:34Z</time>
      </trkpt>
      <trkpt lat="59.173617" lon="18.143428">
        <ele>61</ele>
        <time>2019-12-04T15:58:35Z</time>
      </trkpt>
      <trkpt lat="59.173645" lon="18.143439">
        <ele>63</ele>
        <time>2019-12-04T15:58:36Z</time>
      </trkpt>
      <trkpt lat="59.173672" lon="18.143453">
        <ele>64</ele>
        <time>2019-12-04T15:58:37Z</time>
      </trkpt>
      <trkpt lat="59.173698" lon="18.143466">
        <ele>65</ele>
        <time>2019-12-04T15:58:38Z</time>
      </trkpt>
      <trkpt lat="59.173724" lon="18.143479">
        <ele>66</ele>
        <time>2019-12-04T15:58:39Z</time>
      </trkpt>
      <trkpt lat="59.173749" lon="18.143488">
        <ele>66</ele>
        <time>2019-12-04T15:58:40Z</time>
      </trkpt>
      <trkpt lat="59.173776" lon="18.143491">
        <ele>67</ele>
        <time>2019-12-04T15:58:41Z</time>
      </trkpt>
      <trkpt lat="59.173804" lon="18.143468">
        <ele>68</ele>
        <time>2019-12-04T15:58:42Z</time>
      </trkpt>
      <trkpt lat="59.173835" lon="18.143415">
        <ele>68</ele>
        <time>2019-12-04T15:58:43Z</time>
      </trkpt>
      <trkpt lat="59.173857" lon="18.143357">
        <ele>67</ele>
        <time>2019-12-04T15:58:44Z</time>
      </trkpt>
      <trkpt lat="59.173864" lon="18.143288">
        <ele>66</ele>
        <time>2019-12-04T15:58:45Z</time>
      </trkpt>
      <trkpt lat="59.173864" lon="18.143215">
        <ele>66</ele>
        <time>2019-12-04T15:58:46Z</time>
      </trkpt>
      <trkpt lat="59.173871" lon="18.143144">
        <ele>65</ele>
        <time>2019-12-04T15:58:47Z</time>
      </trkpt>
      <trkpt lat="59.173884" lon="18.143075">
        <ele>65</ele>
        <time>2019-12-04T15:58:48Z</time>
      </trkpt>
      <trkpt lat="59.173899" lon="18.143019">
        <ele>64</ele>
        <time>2019-12-04T15:58:49Z</time>
      </trkpt>
      <trkpt lat="59.173914" lon="18.142966">
        <ele>64</ele>
        <time>2019-12-04T15:58:50Z</time>
      </trkpt>
      <trkpt lat="59.173928" lon="18.142923">
        <ele>63</ele>
        <time>2019-12-04T15:58:51Z</time>
      </trkpt>
      <trkpt lat="59.173946" lon="18.142887">
        <ele>62</ele>
        <time>2019-12-04T15:58:52Z</time>
      </trkpt>
      <trkpt lat="59.173976" lon="18.142855">
        <ele>61</ele>
        <time>2019-12-04T15:58:53Z</time>
      </trkpt>
      <trkpt lat="59.174007" lon="18.142838">
        <ele>61</ele>
        <time>2019-12-04T15:58:54Z</time>
      </trkpt>
      <trkpt lat="59.174046" lon="18.14284">
        <ele>60</ele>
        <time>2019-12-04T15:58:55Z</time>
      </trkpt>
      <trkpt lat="59.174088" lon="18.14285">
        <ele>60</ele>
        <time>2019-12-04T15:58:56Z</time>
      </trkpt>
      <trkpt lat="59.174132" lon="18.142863">
        <ele>59</ele>
        <time>2019-12-04T15:58:57Z</time>
      </trkpt>
      <trkpt lat="59.174176" lon="18.142877">
        <ele>59</ele>
        <time>2019-12-04T15:58:58Z</time>
      </trkpt>
      <trkpt lat="59.174226" lon="18.142894">
        <ele>59</ele>
        <time>2019-12-04T15:58:59Z</time>
      </trkpt>
      <trkpt lat="59.174283" lon="18.142907">
        <ele>59</ele>
        <time>2019-12-04T15:59:00Z</time>
      </trkpt>
      <trkpt lat="59.174339" lon="18.142923">
        <ele>58</ele>
        <time>2019-12-04T15:59:01Z</time>
      </trkpt>
      <trkpt lat="59.17439" lon="18.142942">
        <ele>58</ele>
        <time>2019-12-04T15:59:02Z</time>
      </trkpt>
      <trkpt lat="59.174441" lon="18.142962">
        <ele>57</ele>
        <time>2019-12-04T15:59:03Z</time>
      </trkpt>
      <trkpt lat="59.17449" lon="18.142983">
        <ele>56</ele>
        <time>2019-12-04T15:59:04Z</time>
      </trkpt>
      <trkpt lat="59.174535" lon="18.143003">
        <ele>56</ele>
        <time>2019-12-04T15:59:05Z</time>
      </trkpt>
      <trkpt lat="59.174576" lon="18.143019">
        <ele>55</ele>
        <time>2019-12-04T15:59:06Z</time>
      </trkpt>
      <trkpt lat="59.174616" lon="18.143035">
        <ele>54</ele>
        <time>2019-12-04T15:59:07Z</time>
      </trkpt>
      <trkpt lat="59.174648" lon="18.143036">
        <ele>54</ele>
        <time>2019-12-04T15:59:08Z</time>
      </trkpt>
      <trkpt lat="59.174671" lon="18.143005">
        <ele>53</ele>
        <time>2019-12-04T15:59:09Z</time>
      </trkpt>
      <trkpt lat="59.174683" lon="18.142947">
        <ele>53</ele>
        <time>2019-12-04T15:59:10Z</time>
      </trkpt>
      <trkpt lat="59.174689" lon="18.142878">
        <ele>52</ele>
        <time>2019-12-04T15:59:11Z</time>
      </trkpt>
      <trkpt lat="59.174702" lon="18.14281">
        <ele>52</ele>
        <time>2019-12-04T15:59:12Z</time>
      </trkpt>
      <trkpt lat="59.174728" lon="18.142759">
        <ele>52</ele>
        <time>2019-12-04T15:59:13Z</time>
      </trkpt>
      <trkpt lat="59.174764" lon="18.142728">
        <ele>51</ele>
        <time>2019-12-04T15:59:14Z</time>
      </trkpt>
      <trkpt lat="59.174802" lon="18.142704">
        <ele>51</ele>
        <time>2019-12-04T15:59:15Z</time>
      </trkpt>
      <trkpt lat="59.174836" lon="18.142681">
        <ele>51</ele>
        <time>2019-12-04T15:59:16Z</time>
      </trkpt>
      <trkpt lat="59.174867" lon="18.142656">
        <ele>50</ele>
        <time>2019-12-04T15:59:17Z</time>
      </trkpt>
      <trkpt lat="59.1749" lon="18.142629">
        <ele>50</ele>
        <time>2019-12-04T15:59:18Z</time>
      </trkpt>
      <trkpt lat="59.174933" lon="18.142602">
        <ele>50</ele>
        <time>2019-12-04T15:59:19Z</time>
      </trkpt>
      <trkpt lat="59.174965" lon="18.142581">
        <ele>50</ele>
        <time>2019-12-04T15:59:20Z</time>
      </trkpt>
      <trkpt lat="59.174997" lon="18.142565">
        <ele>50</ele>
        <time>2019-12-04T15:59:21Z</time>
      </trkpt>
      <trkpt lat="59.175029" lon="18.142543">
        <ele>50</ele>
        <time>2019-12-04T15:59:22Z</time>
      </trkpt>
      <trkpt lat="59.175058" lon="18.142507">
        <ele>50</ele>
        <time>2019-12-04T15:59:23Z</time>
      </trkpt>
      <trkpt lat="59.175084" lon="18.142458">
        <ele>50</ele>
        <time>2019-12-04T15:59:24Z</time>
      </trkpt>
      <trkpt lat="59.175103" lon="18.142408">
        <ele>50</ele>
        <time>2019-12-04T15:59:25Z</time>
      </trkpt>
      <trkpt lat="59.175118" lon="18.142358">
        <ele>49</ele>
        <time>2019-12-04T15:59:26Z</time>
      </trkpt>
      <trkpt lat="59.175128" lon="18.142305">
        <ele>49</ele>
        <time>2019-12-04T15:59:27Z</time>
      </trkpt>
      <trkpt lat="59.175138" lon="18.142253">
        <ele>0</ele>
        <time>2019-12-04T15:59:27Z</time>
      </trkpt>
      <trkpt lat="59.175159" lon="18.142187">
        <ele>50</ele>
        <time>2019-12-04T15:59:28Z</time>
      </trkpt>
      <trkpt lat="59.17519" lon="18.14211">
        <ele>50</ele>
        <time>2019-12-04T15:59:30Z</time>
      </trkpt>
      <trkpt lat="59.175228" lon="18.142036">
        <ele>49</ele>
        <time>2019-12-04T15:59:31Z</time>
      </trkpt>
      <trkpt lat="59.175257" lon="18.141971">
        <ele>49</ele>
        <time>2019-12-04T15:59:32Z</time>
      </trkpt>
      <trkpt lat="59.175281" lon="18.141918">
        <ele>49</ele>
        <time>2019-12-04T15:59:33Z</time>
      </trkpt>
      <trkpt lat="59.175303" lon="18.141873">
        <ele>49</ele>
        <time>2019-12-04T15:59:34Z</time>
      </trkpt>
      <trkpt lat="59.175329" lon="18.141826">
        <ele>49</ele>
        <time>2019-12-04T15:59:35Z</time>
      </trkpt>
      <trkpt lat="59.17535" lon="18.141782">
        <ele>49</ele>
        <time>2019-12-04T15:59:36Z</time>
      </trkpt>
      <trkpt lat="59.175367" lon="18.141744">
        <ele>48</ele>
        <time>2019-12-04T15:59:37Z</time>
      </trkpt>
      <trkpt lat="59.175387" lon="18.141707">
        <ele>48</ele>
        <time>2019-12-04T15:59:38Z</time>
      </trkpt>
      <trkpt lat="59.175402" lon="18.141677">
        <ele>48</ele>
        <time>2019-12-04T15:59:39Z</time>
      </trkpt>
      <trkpt lat="59.175415" lon="18.141649">
        <ele>48</ele>
        <time>2019-12-04T15:59:40Z</time>
      </trkpt>
      <trkpt lat="59.175431" lon="18.141606">
        <ele>47</ele>
        <time>2019-12-04T15:59:42Z</time>
      </trkpt>
      <trkpt lat="59.175452" lon="18.141562">
        <ele>47</ele>
        <time>2019-12-04T15:59:44Z</time>
      </trkpt>
      <trkpt lat="59.175473" lon="18.141529">
        <ele>47</ele>
        <time>2019-12-04T15:59:45Z</time>
      </trkpt>
      <trkpt lat="59.175496" lon="18.141491">
        <ele>46</ele>
        <time>2019-12-04T15:59:46Z</time>
      </trkpt>
      <trkpt lat="59.175512" lon="18.141462">
        <ele>46</ele>
        <time>2019-12-04T15:59:47Z</time>
      </trkpt>
      <trkpt lat="59.175524" lon="18.141434">
        <ele>46</ele>
        <time>2019-12-04T15:59:50Z</time>
      </trkpt>
      <trkpt lat="59.175539" lon="18.141384">
        <ele>46</ele>
        <time>2019-12-04T15:59:52Z</time>
      </trkpt>
      <trkpt lat="59.175555" lon="18.141333">
        <ele>46</ele>
        <time>2019-12-04T15:59:53Z</time>
      </trkpt>
      <trkpt lat="59.175581" lon="18.141279">
        <ele>46</ele>
        <time>2019-12-04T15:59:54Z</time>
      </trkpt>
      <trkpt lat="59.175618" lon="18.141237">
        <ele>45</ele>
        <time>2019-12-04T15:59:55Z</time>
      </trkpt>
      <trkpt lat="59.175661" lon="18.141209">
        <ele>45</ele>
        <time>2019-12-04T15:59:56Z</time>
      </trkpt>
      <trkpt lat="59.175706" lon="18.141192">
        <ele>45</ele>
        <time>2019-12-04T15:59:57Z</time>
      </trkpt>
      <trkpt lat="59.175751" lon="18.141189">
        <ele>45</ele>
        <time>2019-12-04T15:59:58Z</time>
      </trkpt>
      <trkpt lat="59.175796" lon="18.141199">
        <ele>45</ele>
        <time>2019-12-04T15:59:59Z</time>
      </trkpt>
      <trkpt lat="59.175839" lon="18.141217">
        <ele>45</ele>
        <time>2019-12-04T16:00:00Z</time>
      </trkpt>
      <trkpt lat="59.175882" lon="18.141232">
        <ele>45</ele>
        <time>2019-12-04T16:00:01Z</time>
      </trkpt>
      <trkpt lat="59.175918" lon="18.141242">
        <ele>45</ele>
        <time>2019-12-04T16:00:02Z</time>
      </trkpt>
      <trkpt lat="59.175945" lon="18.14125">
        <ele>44</ele>
        <time>2019-12-04T16:00:03Z</time>
      </trkpt>
      <trkpt lat="59.175966" lon="18.141262">
        <ele>44</ele>
        <time>2019-12-04T16:00:04Z</time>
      </trkpt>
      <trkpt lat="59.175983" lon="18.141279">
        <ele>44</ele>
        <time>2019-12-04T16:00:05Z</time>
      </trkpt>
      <trkpt lat="59.175998" lon="18.141301">
        <ele>44</ele>
        <time>2019-12-04T16:00:06Z</time>
      </trkpt>
      <trkpt lat="59.176017" lon="18.141341">
        <ele>44</ele>
        <time>2019-12-04T16:00:08Z</time>
      </trkpt>
      <trkpt lat="59.176034" lon="18.141396">
        <ele>44</ele>
        <time>2019-12-04T16:00:10Z</time>
      </trkpt>
      <trkpt lat="59.176042" lon="18.14144">
        <ele>44</ele>
        <time>2019-12-04T16:00:11Z</time>
      </trkpt>
      <trkpt lat="59.176048" lon="18.141487">
        <ele>44</ele>
        <time>2019-12-04T16:00:12Z</time>
      </trkpt>
      <trkpt lat="59.176053" lon="18.141526">
        <ele>44</ele>
        <time>2019-12-04T16:00:13Z</time>
      </trkpt>
      <trkpt lat="59.176064" lon="18.141599">
        <ele>44</ele>
        <time>2019-12-04T16:00:15Z</time>
      </trkpt>
      <trkpt lat="59.176077" lon="18.141655">
        <ele>43</ele>
        <time>2019-12-04T16:00:16Z</time>
      </trkpt>
      <trkpt lat="59.17609" lon="18.141723">
        <ele>43</ele>
        <time>2019-12-04T16:00:17Z</time>
      </trkpt>
      <trkpt lat="59.176099" lon="18.1418">
        <ele>43</ele>
        <time>2019-12-04T16:00:18Z</time>
      </trkpt>
      <trkpt lat="59.176106" lon="18.141886">
        <ele>43</ele>
        <time>2019-12-04T16:00:19Z</time>
      </trkpt>
      <trkpt lat="59.176112" lon="18.141975">
        <ele>43</ele>
        <time>2019-12-04T16:00:20Z</time>
      </trkpt>
      <trkpt lat="59.176121" lon="18.142066">
        <ele>43</ele>
        <time>2019-12-04T16:00:21Z</time>
      </trkpt>
      <trkpt lat="59.176137" lon="18.142154">
        <ele>43</ele>
        <time>2019-12-04T16:00:22Z</time>
      </trkpt>
      <trkpt lat="59.176161" lon="18.142237">
        <ele>43</ele>
        <time>2019-12-04T16:00:23Z</time>
      </trkpt>
      <trkpt lat="59.176194" lon="18.142312">
        <ele>43</ele>
        <time>2019-12-04T16:00:24Z</time>
      </trkpt>
      <trkpt lat="59.176235" lon="18.142373">
        <ele>43</ele>
        <time>2019-12-04T16:00:25Z</time>
      </trkpt>
      <trkpt lat="59.176281" lon="18.142422">
        <ele>43</ele>
        <time>2019-12-04T16:00:26Z</time>
      </trkpt>
      <trkpt lat="59.176331" lon="18.142462">
        <ele>43</ele>
        <time>2019-12-04T16:00:27Z</time>
      </trkpt>
      <trkpt lat="59.176385" lon="18.1425">
        <ele>43</ele>
        <time>2019-12-04T16:00:28Z</time>
      </trkpt>
      <trkpt lat="59.17644" lon="18.142538">
        <ele>43</ele>
        <time>2019-12-04T16:00:29Z</time>
      </trkpt>
      <trkpt lat="59.176496" lon="18.142574">
        <ele>43</ele>
        <time>2019-12-04T16:00:30Z</time>
      </trkpt>
      <trkpt lat="59.176553" lon="18.142607">
        <ele>43</ele>
        <time>2019-12-04T16:00:31Z</time>
      </trkpt>
      <trkpt lat="59.176612" lon="18.142638">
        <ele>43</ele>
        <time>2019-12-04T16:00:32Z</time>
      </trkpt>
      <trkpt lat="59.176672" lon="18.142665">
        <ele>43</ele>
        <time>2019-12-04T16:00:33Z</time>
      </trkpt>
      <trkpt lat="59.176737" lon="18.142691">
        <ele>43</ele>
        <time>2019-12-04T16:00:34Z</time>
      </trkpt>
      <trkpt lat="59.176801" lon="18.142714">
        <ele>43</ele>
        <time>2019-12-04T16:00:35Z</time>
      </trkpt>
      <trkpt lat="59.17687" lon="18.142733">
        <ele>42</ele>
        <time>2019-12-04T16:00:36Z</time>
      </trkpt>
      <trkpt lat="59.176941" lon="18.142747">
        <ele>42</ele>
        <time>2019-12-04T16:00:37Z</time>
      </trkpt>
      <trkpt lat="59.177013" lon="18.142756">
        <ele>41</ele>
        <time>2019-12-04T16:00:38Z</time>
      </trkpt>
      <trkpt lat="59.177083" lon="18.14276">
        <ele>41</ele>
        <time>2019-12-04T16:00:39Z</time>
      </trkpt>
      <trkpt lat="59.177148" lon="18.142762">
        <ele>41</ele>
        <time>2019-12-04T16:00:40Z</time>
      </trkpt>
      <trkpt lat="59.177212" lon="18.142764">
        <ele>40</ele>
        <time>2019-12-04T16:00:41Z</time>
      </trkpt>
      <trkpt lat="59.177275" lon="18.142762">
        <ele>40</ele>
        <time>2019-12-04T16:00:42Z</time>
      </trkpt>
      <trkpt lat="59.177339" lon="18.142755">
        <ele>39</ele>
        <time>2019-12-04T16:00:43Z</time>
      </trkpt>
      <trkpt lat="59.177407" lon="18.142751">
        <ele>39</ele>
        <time>2019-12-04T16:00:44Z</time>
      </trkpt>
      <trkpt lat="59.177473" lon="18.142746">
        <ele>39</ele>
        <time>2019-12-04T16:00:45Z</time>
      </trkpt>
      <trkpt lat="59.177539" lon="18.142741">
        <ele>38</ele>
        <time>2019-12-04T16:00:46Z</time>
      </trkpt>
      <trkpt lat="59.177606" lon="18.142733">
        <ele>38</ele>
        <time>2019-12-04T16:00:47Z</time>
      </trkpt>
      <trkpt lat="59.177673" lon="18.14272">
        <ele>38</ele>
        <time>2019-12-04T16:00:48Z</time>
      </trkpt>
      <trkpt lat="59.177741" lon="18.142705">
        <ele>38</ele>
        <time>2019-12-04T16:00:49Z</time>
      </trkpt>
      <trkpt lat="59.177807" lon="18.142689">
        <ele>38</ele>
        <time>2019-12-04T16:00:50Z</time>
      </trkpt>
      <trkpt lat="59.177871" lon="18.142673">
        <ele>37</ele>
        <time>2019-12-04T16:00:51Z</time>
      </trkpt>
      <trkpt lat="59.177931" lon="18.14266">
        <ele>37</ele>
        <time>2019-12-04T16:00:52Z</time>
      </trkpt>
      <trkpt lat="59.177989" lon="18.142655">
        <ele>37</ele>
        <time>2019-12-04T16:00:53Z</time>
      </trkpt>
      <trkpt lat="59.178049" lon="18.142663">
        <ele>37</ele>
        <time>2019-12-04T16:00:54Z</time>
      </trkpt>
      <trkpt lat="59.178107" lon="18.142686">
        <ele>36</ele>
        <time>2019-12-04T16:00:55Z</time>
      </trkpt>
      <trkpt lat="59.178166" lon="18.142718">
        <ele>36</ele>
        <time>2019-12-04T16:00:56Z</time>
      </trkpt>
      <trkpt lat="59.178225" lon="18.142757">
        <ele>36</ele>
        <time>2019-12-04T16:00:57Z</time>
      </trkpt>
      <trkpt lat="59.178287" lon="18.142798">
        <ele>36</ele>
        <time>2019-12-04T16:00:58Z</time>
      </trkpt>
      <trkpt lat="59.178349" lon="18.142844">
        <ele>36</ele>
        <time>2019-12-04T16:00:59Z</time>
      </trkpt>
      <trkpt lat="59.178414" lon="18.142891">
        <ele>35</ele>
        <time>2019-12-04T16:01:00Z</time>
      </trkpt>
      <trkpt lat="59.178479" lon="18.142939">
        <ele>35</ele>
        <time>2019-12-04T16:01:01Z</time>
      </trkpt>
      <trkpt lat="59.178545" lon="18.142984">
        <ele>35</ele>
        <time>2019-12-04T16:01:02Z</time>
      </trkpt>
      <trkpt lat="59.178611" lon="18.143027">
        <ele>34</ele>
        <time>2019-12-04T16:01:03Z</time>
      </trkpt>
      <trkpt lat="59.178675" lon="18.143071">
        <ele>34</ele>
        <time>2019-12-04T16:01:04Z</time>
      </trkpt>
      <trkpt lat="59.178733" lon="18.143112">
        <ele>34</ele>
        <time>2019-12-04T16:01:05Z</time>
      </trkpt>
      <trkpt lat="59.178786" lon="18.143145">
        <ele>34</ele>
        <time>2019-12-04T16:01:06Z</time>
      </trkpt>
      <trkpt lat="59.178832" lon="18.143173">
        <ele>34</ele>
        <time>2019-12-04T16:01:07Z</time>
      </trkpt>
      <trkpt lat="59.17887" lon="18.1432">
        <ele>33</ele>
        <time>2019-12-04T16:01:08Z</time>
      </trkpt>
      <trkpt lat="59.178901" lon="18.143223">
        <ele>33</ele>
        <time>2019-12-04T16:01:09Z</time>
      </trkpt>
      <trkpt lat="59.178926" lon="18.143242">
        <ele>33</ele>
        <time>2019-12-04T16:01:10Z</time>
      </trkpt>
      <trkpt lat="59.178946" lon="18.143257">
        <ele>33</ele>
        <time>2019-12-04T16:01:11Z</time>
      </trkpt>
      <trkpt lat="59.178965" lon="18.143272">
        <ele>33</ele>
        <time>2019-12-04T16:01:12Z</time>
      </trkpt>
      <trkpt lat="59.178989" lon="18.143287">
        <ele>33</ele>
        <time>2019-12-04T16:01:13Z</time>
      </trkpt>
      <trkpt lat="59.179018" lon="18.143307">
        <ele>33</ele>
        <time>2019-12-04T16:01:14Z</time>
      </trkpt>
      <trkpt lat="59.179053" lon="18.143338">
        <ele>33</ele>
        <time>2019-12-04T16:01:15Z</time>
      </trkpt>
      <trkpt lat="59.179091" lon="18.143382">
        <ele>33</ele>
        <time>2019-12-04T16:01:16Z</time>
      </trkpt>
      <trkpt lat="59.179129" lon="18.143438">
        <ele>33</ele>
        <time>2019-12-04T16:01:17Z</time>
      </trkpt>
      <trkpt lat="59.179169" lon="18.143503">
        <ele>33</ele>
        <time>2019-12-04T16:01:18Z</time>
      </trkpt>
      <trkpt lat="59.179208" lon="18.143572">
        <ele>33</ele>
        <time>2019-12-04T16:01:19Z</time>
      </trkpt>
      <trkpt lat="59.179245" lon="18.143639">
        <ele>33</ele>
        <time>2019-12-04T16:01:20Z</time>
      </trkpt>
      <trkpt lat="59.179282" lon="18.143683">
        <ele>33</ele>
        <time>2019-12-04T16:01:21Z</time>
      </trkpt>
      <trkpt lat="59.179322" lon="18.14371">
        <ele>0</ele>
        <time>2019-12-04T16:01:21Z</time>
      </trkpt>
      <trkpt lat="59.179366" lon="18.143709">
        <ele>33</ele>
        <time>2019-12-04T16:01:22Z</time>
      </trkpt>
      <trkpt lat="59.179411" lon="18.143692">
        <ele>33</ele>
        <time>2019-12-04T16:01:24Z</time>
      </trkpt>
      <trkpt lat="59.179458" lon="18.143675">
        <ele>33</ele>
        <time>2019-12-04T16:01:25Z</time>
      </trkpt>
      <trkpt lat="59.179506" lon="18.143658">
        <ele>33</ele>
        <time>2019-12-04T16:01:26Z</time>
      </trkpt>
      <trkpt lat="59.179556" lon="18.143643">
        <ele>33</ele>
        <time>2019-12-04T16:01:27Z</time>
      </trkpt>
      <trkpt lat="59.179605" lon="18.143633">
        <ele>33</ele>
        <time>2019-12-04T16:01:28Z</time>
      </trkpt>
      <trkpt lat="59.179651" lon="18.143635">
        <ele>34</ele>
        <time>2019-12-04T16:01:29Z</time>
      </trkpt>
      <trkpt lat="59.179695" lon="18.143652">
        <ele>34</ele>
        <time>2019-12-04T16:01:30Z</time>
      </trkpt>
      <trkpt lat="59.179736" lon="18.143675">
        <ele>34</ele>
        <time>2019-12-04T16:01:31Z</time>
      </trkpt>
      <trkpt lat="59.179776" lon="18.1437">
        <ele>34</ele>
        <time>2019-12-04T16:01:32Z</time>
      </trkpt>
      <trkpt lat="59.17982" lon="18.143733">
        <ele>34</ele>
        <time>2019-12-04T16:01:33Z</time>
      </trkpt>
      <trkpt lat="59.179863" lon="18.143763">
        <ele>35</ele>
        <time>2019-12-04T16:01:34Z</time>
      </trkpt>
      <trkpt lat="59.179908" lon="18.143795">
        <ele>35</ele>
        <time>2019-12-04T16:01:35Z</time>
      </trkpt>
      <trkpt lat="59.17995" lon="18.143827">
        <ele>35</ele>
        <time>2019-12-04T16:01:36Z</time>
      </trkpt>
      <trkpt lat="59.179994" lon="18.143865">
        <ele>35</ele>
        <time>2019-12-04T16:01:37Z</time>
      </trkpt>
      <trkpt lat="59.180037" lon="18.14391">
        <ele>35</ele>
        <time>2019-12-04T16:01:38Z</time>
      </trkpt>
      <trkpt lat="59.18008" lon="18.143955">
        <ele>35</ele>
        <time>2019-12-04T16:01:39Z</time>
      </trkpt>
      <trkpt lat="59.180122" lon="18.144002">
        <ele>35</ele>
        <time>2019-12-04T16:01:40Z</time>
      </trkpt>
      <trkpt lat="59.180165" lon="18.14405">
        <ele>35</ele>
        <time>2019-12-04T16:01:41Z</time>
      </trkpt>
      <trkpt lat="59.180209" lon="18.144103">
        <ele>35</ele>
        <time>2019-12-04T16:01:42Z</time>
      </trkpt>
      <trkpt lat="59.180255" lon="18.144155">
        <ele>35</ele>
        <time>2019-12-04T16:01:43Z</time>
      </trkpt>
      <trkpt lat="59.180301" lon="18.14421">
        <ele>35</ele>
        <time>2019-12-04T16:01:44Z</time>
      </trkpt>
      <trkpt lat="59.180346" lon="18.144262">
        <ele>35</ele>
        <time>2019-12-04T16:01:45Z</time>
      </trkpt>
      <trkpt lat="59.18039" lon="18.144314">
        <ele>35</ele>
        <time>2019-12-04T16:01:46Z</time>
      </trkpt>
      <trkpt lat="59.180435" lon="18.144367">
        <ele>35</ele>
        <time>2019-12-04T16:01:47Z</time>
      </trkpt>
      <trkpt lat="59.180479" lon="18.144421">
        <ele>35</ele>
        <time>2019-12-04T16:01:48Z</time>
      </trkpt>
      <trkpt lat="59.180523" lon="18.144481">
        <ele>35</ele>
        <time>2019-12-04T16:01:49Z</time>
      </trkpt>
      <trkpt lat="59.180567" lon="18.144546">
        <ele>35</ele>
        <time>2019-12-04T16:01:50Z</time>
      </trkpt>
      <trkpt lat="59.18061" lon="18.144611">
        <ele>35</ele>
        <time>2019-12-04T16:01:51Z</time>
      </trkpt>
      <trkpt lat="59.180652" lon="18.144675">
        <ele>35</ele>
        <time>2019-12-04T16:01:52Z</time>
      </trkpt>
      <trkpt lat="59.180696" lon="18.144738">
        <ele>35</ele>
        <time>2019-12-04T16:01:53Z</time>
      </trkpt>
      <trkpt lat="59.180742" lon="18.144799">
        <ele>35</ele>
        <time>2019-12-04T16:01:54Z</time>
      </trkpt>
      <trkpt lat="59.180791" lon="18.144855">
        <ele>36</ele>
        <time>2019-12-04T16:01:55Z</time>
      </trkpt>
      <trkpt lat="59.180841" lon="18.144909">
        <ele>36</ele>
        <time>2019-12-04T16:01:56Z</time>
      </trkpt>
      <trkpt lat="59.180892" lon="18.144961">
        <ele>36</ele>
        <time>2019-12-04T16:01:57Z</time>
      </trkpt>
      <trkpt lat="59.180943" lon="18.145014">
        <ele>36</ele>
        <time>2019-12-04T16:01:58Z</time>
      </trkpt>
      <trkpt lat="59.180994" lon="18.145069">
        <ele>36</ele>
        <time>2019-12-04T16:01:59Z</time>
      </trkpt>
      <trkpt lat="59.181044" lon="18.145127">
        <ele>36</ele>
        <time>2019-12-04T16:02:00Z</time>
      </trkpt>
      <trkpt lat="59.181094" lon="18.145183">
        <ele>36</ele>
        <time>2019-12-04T16:02:01Z</time>
      </trkpt>
      <trkpt lat="59.181144" lon="18.145238">
        <ele>36</ele>
        <time>2019-12-04T16:02:02Z</time>
      </trkpt>
      <trkpt lat="59.181195" lon="18.145294">
        <ele>36</ele>
        <time>2019-12-04T16:02:03Z</time>
      </trkpt>
      <trkpt lat="59.181246" lon="18.145351">
        <ele>36</ele>
        <time>2019-12-04T16:02:04Z</time>
      </trkpt>
      <trkpt lat="59.181298" lon="18.145406">
        <ele>36</ele>
        <time>2019-12-04T16:02:05Z</time>
      </trkpt>
      <trkpt lat="59.181349" lon="18.145463">
        <ele>36</ele>
        <time>2019-12-04T16:02:06Z</time>
      </trkpt>
      <trkpt lat="59.1814" lon="18.145519">
        <ele>36</ele>
        <time>2019-12-04T16:02:07Z</time>
      </trkpt>
      <trkpt lat="59.18145" lon="18.14557">
        <ele>37</ele>
        <time>2019-12-04T16:02:08Z</time>
      </trkpt>
      <trkpt lat="59.1815" lon="18.145617">
        <ele>37</ele>
        <time>2019-12-04T16:02:09Z</time>
      </trkpt>
      <trkpt lat="59.181552" lon="18.145668">
        <ele>37</ele>
        <time>2019-12-04T16:02:10Z</time>
      </trkpt>
      <trkpt lat="59.181605" lon="18.145725">
        <ele>36</ele>
        <time>2019-12-04T16:02:11Z</time>
      </trkpt>
      <trkpt lat="59.181657" lon="18.145785">
        <ele>36</ele>
        <time>2019-12-04T16:02:12Z</time>
      </trkpt>
      <trkpt lat="59.181719" lon="18.145862">
        <ele>37</ele>
        <time>2019-12-04T16:02:13Z</time>
      </trkpt>
      <trkpt lat="59.181779" lon="18.145931">
        <ele>37</ele>
        <time>2019-12-04T16:02:14Z</time>
      </trkpt>
      <trkpt lat="59.18184" lon="18.146001">
        <ele>37</ele>
        <time>2019-12-04T16:02:15Z</time>
      </trkpt>
      <trkpt lat="59.181902" lon="18.146073">
        <ele>37</ele>
        <time>2019-12-04T16:02:16Z</time>
      </trkpt>
      <trkpt lat="59.181962" lon="18.146144">
        <ele>37</ele>
        <time>2019-12-04T16:02:17Z</time>
      </trkpt>
      <trkpt lat="59.182023" lon="18.146217">
        <ele>37</ele>
        <time>2019-12-04T16:02:18Z</time>
      </trkpt>
      <trkpt lat="59.182086" lon="18.146292">
        <ele>37</ele>
        <time>2019-12-04T16:02:19Z</time>
      </trkpt>
      <trkpt lat="59.182148" lon="18.146368">
        <ele>37</ele>
        <time>2019-12-04T16:02:20Z</time>
      </trkpt>
      <trkpt lat="59.18221" lon="18.146441">
        <ele>37</ele>
        <time>2019-12-04T16:02:21Z</time>
      </trkpt>
      <trkpt lat="59.182271" lon="18.146504">
        <ele>37</ele>
        <time>2019-12-04T16:02:22Z</time>
      </trkpt>
      <trkpt lat="59.182333" lon="18.146568">
        <ele>37</ele>
        <time>2019-12-04T16:02:23Z</time>
      </trkpt>
      <trkpt lat="59.182396" lon="18.146635">
        <ele>37</ele>
        <time>2019-12-04T16:02:24Z</time>
      </trkpt>
      <trkpt lat="59.182462" lon="18.1467">
        <ele>37</ele>
        <time>2019-12-04T16:02:25Z</time>
      </trkpt>
      <trkpt lat="59.182532" lon="18.146765">
        <ele>36</ele>
        <time>2019-12-04T16:02:26Z</time>
      </trkpt>
      <trkpt lat="59.182602" lon="18.146824">
        <ele>36</ele>
        <time>2019-12-04T16:02:27Z</time>
      </trkpt>
      <trkpt lat="59.182671" lon="18.146881">
        <ele>36</ele>
        <time>2019-12-04T16:02:28Z</time>
      </trkpt>
      <trkpt lat="59.18274" lon="18.146936">
        <ele>35</ele>
        <time>2019-12-04T16:02:29Z</time>
      </trkpt>
      <trkpt lat="59.18281" lon="18.146986">
        <ele>35</ele>
        <time>2019-12-04T16:02:30Z</time>
      </trkpt>
      <trkpt lat="59.182879" lon="18.147028">
        <ele>35</ele>
        <time>2019-12-04T16:02:31Z</time>
      </trkpt>
      <trkpt lat="59.182946" lon="18.147065">
        <ele>35</ele>
        <time>2019-12-04T16:02:32Z</time>
      </trkpt>
      <trkpt lat="59.183012" lon="18.147098">
        <ele>35</ele>
        <time>2019-12-04T16:02:33Z</time>
      </trkpt>
      <trkpt lat="59.183076" lon="18.147126">
        <ele>35</ele>
        <time>2019-12-04T16:02:34Z</time>
      </trkpt>
      <trkpt lat="59.183137" lon="18.147147">
        <ele>35</ele>
        <time>2019-12-04T16:02:35Z</time>
      </trkpt>
      <trkpt lat="59.183193" lon="18.147167">
        <ele>35</ele>
        <time>2019-12-04T16:02:36Z</time>
      </trkpt>
      <trkpt lat="59.183245" lon="18.147185">
        <ele>35</ele>
        <time>2019-12-04T16:02:37Z</time>
      </trkpt>
      <trkpt lat="59.183292" lon="18.147214">
        <ele>35</ele>
        <time>2019-12-04T16:02:38Z</time>
      </trkpt>
      <trkpt lat="59.183339" lon="18.147253">
        <ele>34</ele>
        <time>2019-12-04T16:02:39Z</time>
      </trkpt>
      <trkpt lat="59.183384" lon="18.147293">
        <ele>34</ele>
        <time>2019-12-04T16:02:40Z</time>
      </trkpt>
      <trkpt lat="59.183429" lon="18.147317">
        <ele>34</ele>
        <time>2019-12-04T16:02:41Z</time>
      </trkpt>
      <trkpt lat="59.183475" lon="18.147327">
        <ele>34</ele>
        <time>2019-12-04T16:02:42Z</time>
      </trkpt>
      <trkpt lat="59.183519" lon="18.147324">
        <ele>34</ele>
        <time>2019-12-04T16:02:43Z</time>
      </trkpt>
      <trkpt lat="59.18356" lon="18.147312">
        <ele>34</ele>
        <time>2019-12-04T16:02:44Z</time>
      </trkpt>
      <trkpt lat="59.183599" lon="18.147292">
        <ele>34</ele>
        <time>2019-12-04T16:02:45Z</time>
      </trkpt>
      <trkpt lat="59.183639" lon="18.147273">
        <ele>34</ele>
        <time>2019-12-04T16:02:46Z</time>
      </trkpt>
      <trkpt lat="59.18368" lon="18.14726">
        <ele>33</ele>
        <time>2019-12-04T16:02:47Z</time>
      </trkpt>
      <trkpt lat="59.183722" lon="18.147255">
        <ele>33</ele>
        <time>2019-12-04T16:02:48Z</time>
      </trkpt>
      <trkpt lat="59.183765" lon="18.147249">
        <ele>33</ele>
        <time>2019-12-04T16:02:49Z</time>
      </trkpt>
      <trkpt lat="59.183809" lon="18.147243">
        <ele>33</ele>
        <time>2019-12-04T16:02:50Z</time>
      </trkpt>
      <trkpt lat="59.183852" lon="18.147238">
        <ele>33</ele>
        <time>2019-12-04T16:02:51Z</time>
      </trkpt>
      <trkpt lat="59.183898" lon="18.147231">
        <ele>32</ele>
        <time>2019-12-04T16:02:52Z</time>
      </trkpt>
      <trkpt lat="59.183945" lon="18.147226">
        <ele>32</ele>
        <time>2019-12-04T16:02:53Z</time>
      </trkpt>
      <trkpt lat="59.183995" lon="18.147219">
        <ele>32</ele>
        <time>2019-12-04T16:02:54Z</time>
      </trkpt>
      <trkpt lat="59.184048" lon="18.147207">
        <ele>32</ele>
        <time>2019-12-04T16:02:55Z</time>
      </trkpt>
      <trkpt lat="59.184106" lon="18.147193">
        <ele>32</ele>
        <time>2019-12-04T16:02:56Z</time>
      </trkpt>
      <trkpt lat="59.184168" lon="18.147177">
        <ele>32</ele>
        <time>2019-12-04T16:02:57Z</time>
      </trkpt>
      <trkpt lat="59.184233" lon="18.147162">
        <ele>32</ele>
        <time>2019-12-04T16:02:58Z</time>
      </trkpt>
      <trkpt lat="59.184301" lon="18.147145">
        <ele>32</ele>
        <time>2019-12-04T16:02:59Z</time>
      </trkpt>
      <trkpt lat="59.184373" lon="18.147127">
        <ele>31</ele>
        <time>2019-12-04T16:03:00Z</time>
      </trkpt>
      <trkpt lat="59.184448" lon="18.14711">
        <ele>31</ele>
        <time>2019-12-04T16:03:01Z</time>
      </trkpt>
      <trkpt lat="59.184525" lon="18.147091">
        <ele>31</ele>
        <time>2019-12-04T16:03:02Z</time>
      </trkpt>
      <trkpt lat="59.184604" lon="18.147071">
        <ele>31</ele>
        <time>2019-12-04T16:03:03Z</time>
      </trkpt>
      <trkpt lat="59.184684" lon="18.147051">
        <ele>30</ele>
        <time>2019-12-04T16:03:04Z</time>
      </trkpt>
      <trkpt lat="59.184763" lon="18.147031">
        <ele>30</ele>
        <time>2019-12-04T16:03:05Z</time>
      </trkpt>
      <trkpt lat="59.18484" lon="18.147003">
        <ele>30</ele>
        <time>2019-12-04T16:03:06Z</time>
      </trkpt>
      <trkpt lat="59.184913" lon="18.146962">
        <ele>30</ele>
        <time>2019-12-04T16:03:07Z</time>
      </trkpt>
      <trkpt lat="59.184982" lon="18.146908">
        <ele>29</ele>
        <time>2019-12-04T16:03:08Z</time>
      </trkpt>
      <trkpt lat="59.185048" lon="18.146849">
        <ele>29</ele>
        <time>2019-12-04T16:03:09Z</time>
      </trkpt>
      <trkpt lat="59.18511" lon="18.14679">
        <ele>29</ele>
        <time>2019-12-04T16:03:10Z</time>
      </trkpt>
      <trkpt lat="59.185163" lon="18.146743">
        <ele>28</ele>
        <time>2019-12-04T16:03:11Z</time>
      </trkpt>
      <trkpt lat="59.185211" lon="18.146713">
        <ele>28</ele>
        <time>2019-12-04T16:03:12Z</time>
      </trkpt>
      <trkpt lat="59.185255" lon="18.146705">
        <ele>28</ele>
        <time>2019-12-04T16:03:13Z</time>
      </trkpt>
      <trkpt lat="59.185297" lon="18.146721">
        <ele>27</ele>
        <time>2019-12-04T16:03:14Z</time>
      </trkpt>
      <trkpt lat="59.185334" lon="18.146762">
        <ele>28</ele>
        <time>2019-12-04T16:03:15Z</time>
      </trkpt>
      <trkpt lat="59.185363" lon="18.146821">
        <ele>28</ele>
        <time>2019-12-04T16:03:16Z</time>
      </trkpt>
      <trkpt lat="59.185392" lon="18.146878">
        <ele>27</ele>
        <time>2019-12-04T16:03:17Z</time>
      </trkpt>
      <trkpt lat="59.185428" lon="18.146917">
        <ele>27</ele>
        <time>2019-12-04T16:03:18Z</time>
      </trkpt>
      <trkpt lat="59.185473" lon="18.146929">
        <ele>27</ele>
        <time>2019-12-04T16:03:19Z</time>
      </trkpt>
      <trkpt lat="59.185521" lon="18.146924">
        <ele>27</ele>
        <time>2019-12-04T16:03:20Z</time>
      </trkpt>
      <trkpt lat="59.185573" lon="18.146917">
        <ele>27</ele>
        <time>2019-12-04T16:03:21Z</time>
      </trkpt>
      <trkpt lat="59.18563" lon="18.146912">
        <ele>26</ele>
        <time>2019-12-04T16:03:22Z</time>
      </trkpt>
      <trkpt lat="59.185689" lon="18.146906">
        <ele>26</ele>
        <time>2019-12-04T16:03:23Z</time>
      </trkpt>
      <trkpt lat="59.185749" lon="18.146892">
        <ele>26</ele>
        <time>2019-12-04T16:03:24Z</time>
      </trkpt>
      <trkpt lat="59.185808" lon="18.146876">
        <ele>26</ele>
        <time>2019-12-04T16:03:25Z</time>
      </trkpt>
      <trkpt lat="59.185866" lon="18.146863">
        <ele>26</ele>
        <time>2019-12-04T16:03:26Z</time>
      </trkpt>
      <trkpt lat="59.185924" lon="18.146851">
        <ele>26</ele>
        <time>2019-12-04T16:03:27Z</time>
      </trkpt>
      <trkpt lat="59.185982" lon="18.146841">
        <ele>26</ele>
        <time>2019-12-04T16:03:28Z</time>
      </trkpt>
      <trkpt lat="59.186041" lon="18.146834">
        <ele>25</ele>
        <time>2019-12-04T16:03:29Z</time>
      </trkpt>
      <trkpt lat="59.1861" lon="18.146828">
        <ele>25</ele>
        <time>2019-12-04T16:03:30Z</time>
      </trkpt>
      <trkpt lat="59.186159" lon="18.14682">
        <ele>25</ele>
        <time>2019-12-04T16:03:31Z</time>
      </trkpt>
      <trkpt lat="59.186219" lon="18.14681">
        <ele>25</ele>
        <time>2019-12-04T16:03:32Z</time>
      </trkpt>
      <trkpt lat="59.186278" lon="18.146798">
        <ele>25</ele>
        <time>2019-12-04T16:03:33Z</time>
      </trkpt>
      <trkpt lat="59.186332" lon="18.146785">
        <ele>25</ele>
        <time>2019-12-04T16:03:34Z</time>
      </trkpt>
      <trkpt lat="59.186381" lon="18.146772">
        <ele>24</ele>
        <time>2019-12-04T16:03:35Z</time>
      </trkpt>
      <trkpt lat="59.186426" lon="18.146763">
        <ele>24</ele>
        <time>2019-12-04T16:03:36Z</time>
      </trkpt>
      <trkpt lat="59.186468" lon="18.146761">
        <ele>24</ele>
        <time>2019-12-04T16:03:37Z</time>
      </trkpt>
      <trkpt lat="59.186509" lon="18.146764">
        <ele>24</ele>
        <time>2019-12-04T16:03:38Z</time>
      </trkpt>
      <trkpt lat="59.186553" lon="18.146756">
        <ele>24</ele>
        <time>2019-12-04T16:03:39Z</time>
      </trkpt>
      <trkpt lat="59.186599" lon="18.14674">
        <ele>24</ele>
        <time>2019-12-04T16:03:40Z</time>
      </trkpt>
      <trkpt lat="59.186647" lon="18.146727">
        <ele>24</ele>
        <time>2019-12-04T16:03:41Z</time>
      </trkpt>
      <trkpt lat="59.186694" lon="18.146712">
        <ele>24</ele>
        <time>2019-12-04T16:03:42Z</time>
      </trkpt>
      <trkpt lat="59.186743" lon="18.146696">
        <ele>24</ele>
        <time>2019-12-04T16:03:43Z</time>
      </trkpt>
      <trkpt lat="59.186792" lon="18.146682">
        <ele>24</ele>
        <time>2019-12-04T16:03:44Z</time>
      </trkpt>
      <trkpt lat="59.186843" lon="18.146669">
        <ele>24</ele>
        <time>2019-12-04T16:03:45Z</time>
      </trkpt>
      <trkpt lat="59.186894" lon="18.146655">
        <ele>24</ele>
        <time>2019-12-04T16:03:46Z</time>
      </trkpt>
      <trkpt lat="59.186945" lon="18.146642">
        <ele>24</ele>
        <time>2019-12-04T16:03:47Z</time>
      </trkpt>
      <trkpt lat="59.186996" lon="18.146629">
        <ele>24</ele>
        <time>2019-12-04T16:03:48Z</time>
      </trkpt>
      <trkpt lat="59.187048" lon="18.146615">
        <ele>24</ele>
        <time>2019-12-04T16:03:49Z</time>
      </trkpt>
      <trkpt lat="59.187099" lon="18.1466">
        <ele>24</ele>
        <time>2019-12-04T16:03:50Z</time>
      </trkpt>
      <trkpt lat="59.18715" lon="18.146586">
        <ele>24</ele>
        <time>2019-12-04T16:03:51Z</time>
      </trkpt>
      <trkpt lat="59.187201" lon="18.146573">
        <ele>24</ele>
        <time>2019-12-04T16:03:52Z</time>
      </trkpt>
      <trkpt lat="59.187251" lon="18.146559">
        <ele>24</ele>
        <time>2019-12-04T16:03:53Z</time>
      </trkpt>
      <trkpt lat="59.187302" lon="18.146544">
        <ele>24</ele>
        <time>2019-12-04T16:03:54Z</time>
      </trkpt>
      <trkpt lat="59.187355" lon="18.146532">
        <ele>24</ele>
        <time>2019-12-04T16:03:55Z</time>
      </trkpt>
      <trkpt lat="59.187408" lon="18.146517">
        <ele>24</ele>
        <time>2019-12-04T16:03:56Z</time>
      </trkpt>
      <trkpt lat="59.187461" lon="18.146497">
        <ele>24</ele>
        <time>2019-12-04T16:03:57Z</time>
      </trkpt>
      <trkpt lat="59.187514" lon="18.146476">
        <ele>24</ele>
        <time>2019-12-04T16:03:58Z</time>
      </trkpt>
      <trkpt lat="59.187567" lon="18.146454">
        <ele>24</ele>
        <time>2019-12-04T16:03:59Z</time>
      </trkpt>
      <trkpt lat="59.187618" lon="18.146428">
        <ele>24</ele>
        <time>2019-12-04T16:04:00Z</time>
      </trkpt>
      <trkpt lat="59.187668" lon="18.146399">
        <ele>24</ele>
        <time>2019-12-04T16:04:01Z</time>
      </trkpt>
      <trkpt lat="59.187716" lon="18.146366">
        <ele>24</ele>
        <time>2019-12-04T16:04:02Z</time>
      </trkpt>
      <trkpt lat="59.187764" lon="18.14633">
        <ele>24</ele>
        <time>2019-12-04T16:04:03Z</time>
      </trkpt>
      <trkpt lat="59.187811" lon="18.146294">
        <ele>24</ele>
        <time>2019-12-04T16:04:04Z</time>
      </trkpt>
      <trkpt lat="59.187858" lon="18.146259">
        <ele>24</ele>
        <time>2019-12-04T16:04:05Z</time>
      </trkpt>
      <trkpt lat="59.187904" lon="18.146221">
        <ele>24</ele>
        <time>2019-12-04T16:04:06Z</time>
      </trkpt>
      <trkpt lat="59.187951" lon="18.146183">
        <ele>25</ele>
        <time>2019-12-04T16:04:07Z</time>
      </trkpt>
      <trkpt lat="59.187998" lon="18.146145">
        <ele>25</ele>
        <time>2019-12-04T16:04:08Z</time>
      </trkpt>
      <trkpt lat="59.188046" lon="18.146109">
        <ele>25</ele>
        <time>2019-12-04T16:04:09Z</time>
      </trkpt>
      <trkpt lat="59.188091" lon="18.146075">
        <ele>25</ele>
        <time>2019-12-04T16:04:10Z</time>
      </trkpt>
      <trkpt lat="59.188136" lon="18.146039">
        <ele>25</ele>
        <time>2019-12-04T16:04:11Z</time>
      </trkpt>
      <trkpt lat="59.18818" lon="18.146">
        <ele>25</ele>
        <time>2019-12-04T16:04:12Z</time>
      </trkpt>
      <trkpt lat="59.188224" lon="18.145965">
        <ele>0</ele>
        <time>2019-12-04T16:04:12Z</time>
      </trkpt>
      <trkpt lat="59.188271" lon="18.145929">
        <ele>25</ele>
        <time>2019-12-04T16:04:13Z</time>
      </trkpt>
      <trkpt lat="59.18832" lon="18.145896">
        <ele>25</ele>
        <time>2019-12-04T16:04:15Z</time>
      </trkpt>
      <trkpt lat="59.188371" lon="18.145859">
        <ele>25</ele>
        <time>2019-12-04T16:04:16Z</time>
      </trkpt>
      <trkpt lat="59.188422" lon="18.145824">
        <ele>25</ele>
        <time>2019-12-04T16:04:17Z</time>
      </trkpt>
      <trkpt lat="59.188473" lon="18.14579">
        <ele>25</ele>
        <time>2019-12-04T16:04:18Z</time>
      </trkpt>
      <trkpt lat="59.188525" lon="18.145752">
        <ele>25</ele>
        <time>2019-12-04T16:04:19Z</time>
      </trkpt>
      <trkpt lat="59.188575" lon="18.145712">
        <ele>25</ele>
        <time>2019-12-04T16:04:20Z</time>
      </trkpt>
      <trkpt lat="59.188624" lon="18.145666">
        <ele>25</ele>
        <time>2019-12-04T16:04:21Z</time>
      </trkpt>
      <trkpt lat="59.188671" lon="18.14562">
        <ele>25</ele>
        <time>2019-12-04T16:04:22Z</time>
      </trkpt>
      <trkpt lat="59.188714" lon="18.145573">
        <ele>25</ele>
        <time>2019-12-04T16:04:23Z</time>
      </trkpt>
      <trkpt lat="59.188755" lon="18.145526">
        <ele>25</ele>
        <time>2019-12-04T16:04:24Z</time>
      </trkpt>
      <trkpt lat="59.188794" lon="18.14548">
        <ele>25</ele>
        <time>2019-12-04T16:04:25Z</time>
      </trkpt>
      <trkpt lat="59.188834" lon="18.145433">
        <ele>25</ele>
        <time>2019-12-04T16:04:26Z</time>
      </trkpt>
      <trkpt lat="59.188873" lon="18.145386">
        <ele>25</ele>
        <time>2019-12-04T16:04:27Z</time>
      </trkpt>
      <trkpt lat="59.188911" lon="18.145339">
        <ele>25</ele>
        <time>2019-12-04T16:04:28Z</time>
      </trkpt>
      <trkpt lat="59.188948" lon="18.145288">
        <ele>25</ele>
        <time>2019-12-04T16:04:29Z</time>
      </trkpt>
      <trkpt lat="59.188985" lon="18.145236">
        <ele>25</ele>
        <time>2019-12-04T16:04:30Z</time>
      </trkpt>
      <trkpt lat="59.18902" lon="18.145184">
        <ele>25</ele>
        <time>2019-12-04T16:04:31Z</time>
      </trkpt>
      <trkpt lat="59.189055" lon="18.145127">
        <ele>25</ele>
        <time>2019-12-04T16:04:32Z</time>
      </trkpt>
      <trkpt lat="59.189091" lon="18.145069">
        <ele>26</ele>
        <time>2019-12-04T16:04:33Z</time>
      </trkpt>
      <trkpt lat="59.189129" lon="18.14501">
        <ele>26</ele>
        <time>2019-12-04T16:04:34Z</time>
      </trkpt>
      <trkpt lat="59.189169" lon="18.144952">
        <ele>26</ele>
        <time>2019-12-04T16:04:35Z</time>
      </trkpt>
      <trkpt lat="59.189212" lon="18.144898">
        <ele>26</ele>
        <time>2019-12-04T16:04:36Z</time>
      </trkpt>
      <trkpt lat="59.189255" lon="18.144844">
        <ele>26</ele>
        <time>2019-12-04T16:04:37Z</time>
      </trkpt>
      <trkpt lat="59.189298" lon="18.144792">
        <ele>26</ele>
        <time>2019-12-04T16:04:38Z</time>
      </trkpt>
      <trkpt lat="59.189342" lon="18.144746">
        <ele>26</ele>
        <time>2019-12-04T16:04:39Z</time>
      </trkpt>
      <trkpt lat="59.189387" lon="18.144708">
        <ele>26</ele>
        <time>2019-12-04T16:04:40Z</time>
      </trkpt>
      <trkpt lat="59.189432" lon="18.144671">
        <ele>26</ele>
        <time>2019-12-04T16:04:41Z</time>
      </trkpt>
      <trkpt lat="59.189477" lon="18.144636">
        <ele>26</ele>
        <time>2019-12-04T16:04:42Z</time>
      </trkpt>
      <trkpt lat="59.189523" lon="18.144601">
        <ele>26</ele>
        <time>2019-12-04T16:04:43Z</time>
      </trkpt>
      <trkpt lat="59.189571" lon="18.144567">
        <ele>26</ele>
        <time>2019-12-04T16:04:44Z</time>
      </trkpt>
      <trkpt lat="59.189621" lon="18.144534">
        <ele>26</ele>
        <time>2019-12-04T16:04:45Z</time>
      </trkpt>
      <trkpt lat="59.189672" lon="18.1445">
        <ele>26</ele>
        <time>2019-12-04T16:04:46Z</time>
      </trkpt>
      <trkpt lat="59.189724" lon="18.144463">
        <ele>26</ele>
        <time>2019-12-04T16:04:47Z</time>
      </trkpt>
      <trkpt lat="59.189776" lon="18.144426">
        <ele>26</ele>
        <time>2019-12-04T16:04:48Z</time>
      </trkpt>
      <trkpt lat="59.189828" lon="18.144394">
        <ele>26</ele>
        <time>2019-12-04T16:04:49Z</time>
      </trkpt>
      <trkpt lat="59.18988" lon="18.14436">
        <ele>26</ele>
        <time>2019-12-04T16:04:50Z</time>
      </trkpt>
      <trkpt lat="59.189935" lon="18.144317">
        <ele>26</ele>
        <time>2019-12-04T16:04:51Z</time>
      </trkpt>
      <trkpt lat="59.189988" lon="18.14426">
        <ele>26</ele>
        <time>2019-12-04T16:04:52Z</time>
      </trkpt>
      <trkpt lat="59.190036" lon="18.14419">
        <ele>26</ele>
        <time>2019-12-04T16:04:53Z</time>
      </trkpt>
      <trkpt lat="59.190076" lon="18.144132">
        <ele>26</ele>
        <time>2019-12-04T16:04:54Z</time>
      </trkpt>
      <trkpt lat="59.190182" lon="18.144145">
        <ele>26</ele>
        <time>2019-12-04T16:04:56Z</time>
      </trkpt>
      <trkpt lat="59.190275" lon="18.144263">
        <ele>26</ele>
        <time>2019-12-04T16:04:58Z</time>
      </trkpt>
      <trkpt lat="59.190386" lon="18.144295">
        <ele>26</ele>
        <time>2019-12-04T16:05:00Z</time>
      </trkpt>
      <trkpt lat="59.190528" lon="18.144225">
        <ele>27</ele>
        <time>2019-12-04T16:05:02Z</time>
      </trkpt>
      <trkpt lat="59.190593" lon="18.144191">
        <ele>28</ele>
        <time>2019-12-04T16:05:03Z</time>
      </trkpt>
      <trkpt lat="59.190665" lon="18.144174">
        <ele>28</ele>
        <time>2019-12-04T16:05:04Z</time>
      </trkpt>
      <trkpt lat="59.190732" lon="18.144174">
        <ele>28</ele>
        <time>2019-12-04T16:05:05Z</time>
      </trkpt>
      <trkpt lat="59.190793" lon="18.144173">
        <ele>29</ele>
        <time>2019-12-04T16:05:06Z</time>
      </trkpt>
      <trkpt lat="59.190848" lon="18.144168">
        <ele>29</ele>
        <time>2019-12-04T16:05:07Z</time>
      </trkpt>
      <trkpt lat="59.190901" lon="18.144162">
        <ele>29</ele>
        <time>2019-12-04T16:05:08Z</time>
      </trkpt>
      <trkpt lat="59.190953" lon="18.144156">
        <ele>29</ele>
        <time>2019-12-04T16:05:09Z</time>
      </trkpt>
      <trkpt lat="59.191002" lon="18.144152">
        <ele>30</ele>
        <time>2019-12-04T16:05:10Z</time>
      </trkpt>
      <trkpt lat="59.19105" lon="18.144146">
        <ele>30</ele>
        <time>2019-12-04T16:05:11Z</time>
      </trkpt>
      <trkpt lat="59.191095" lon="18.144136">
        <ele>30</ele>
        <time>2019-12-04T16:05:12Z</time>
      </trkpt>
      <trkpt lat="59.19114" lon="18.144124">
        <ele>30</ele>
        <time>2019-12-04T16:05:13Z</time>
      </trkpt>
      <trkpt lat="59.191183" lon="18.144114">
        <ele>30</ele>
        <time>2019-12-04T16:05:14Z</time>
      </trkpt>
      <trkpt lat="59.191218" lon="18.144104">
        <ele>30</ele>
        <time>2019-12-04T16:05:15Z</time>
      </trkpt>
      <trkpt lat="59.191261" lon="18.144092">
        <ele>30</ele>
        <time>2019-12-04T16:05:16Z</time>
      </trkpt>
      <trkpt lat="59.191308" lon="18.144078">
        <ele>30</ele>
        <time>2019-12-04T16:05:17Z</time>
      </trkpt>
      <trkpt lat="59.191348" lon="18.144062">
        <ele>30</ele>
        <time>2019-12-04T16:05:18Z</time>
      </trkpt>
      <trkpt lat="59.191387" lon="18.144044">
        <ele>30</ele>
        <time>2019-12-04T16:05:19Z</time>
      </trkpt>
      <trkpt lat="59.191422" lon="18.144025">
        <ele>30</ele>
        <time>2019-12-04T16:05:20Z</time>
      </trkpt>
      <trkpt lat="59.191456" lon="18.144007">
        <ele>30</ele>
        <time>2019-12-04T16:05:21Z</time>
      </trkpt>
      <trkpt lat="59.191491" lon="18.143987">
        <ele>30</ele>
        <time>2019-12-04T16:05:22Z</time>
      </trkpt>
      <trkpt lat="59.191526" lon="18.143962">
        <ele>30</ele>
        <time>2019-12-04T16:05:23Z</time>
      </trkpt>
      <trkpt lat="59.191563" lon="18.143936">
        <ele>31</ele>
        <time>2019-12-04T16:05:24Z</time>
      </trkpt>
      <trkpt lat="59.191601" lon="18.143914">
        <ele>31</ele>
        <time>2019-12-04T16:05:25Z</time>
      </trkpt>
      <trkpt lat="59.191637" lon="18.143893">
        <ele>31</ele>
        <time>2019-12-04T16:05:26Z</time>
      </trkpt>
      <trkpt lat="59.191675" lon="18.143872">
        <ele>31</ele>
        <time>2019-12-04T16:05:27Z</time>
      </trkpt>
      <trkpt lat="59.191712" lon="18.14385">
        <ele>31</ele>
        <time>2019-12-04T16:05:28Z</time>
      </trkpt>
      <trkpt lat="59.191749" lon="18.143828">
        <ele>32</ele>
        <time>2019-12-04T16:05:29Z</time>
      </trkpt>
      <trkpt lat="59.191784" lon="18.143808">
        <ele>32</ele>
        <time>2019-12-04T16:05:30Z</time>
      </trkpt>
      <trkpt lat="59.191815" lon="18.143781">
        <ele>32</ele>
        <time>2019-12-04T16:05:31Z</time>
      </trkpt>
      <trkpt lat="59.191847" lon="18.143751">
        <ele>33</ele>
        <time>2019-12-04T16:05:32Z</time>
      </trkpt>
      <trkpt lat="59.191881" lon="18.143721">
        <ele>33</ele>
        <time>2019-12-04T16:05:33Z</time>
      </trkpt>
      <trkpt lat="59.191914" lon="18.143691">
        <ele>33</ele>
        <time>2019-12-04T16:05:34Z</time>
      </trkpt>
      <trkpt lat="59.19195" lon="18.143663">
        <ele>33</ele>
        <time>2019-12-04T16:05:35Z</time>
      </trkpt>
      <trkpt lat="59.191983" lon="18.143631">
        <ele>34</ele>
        <time>2019-12-04T16:05:36Z</time>
      </trkpt>
      <trkpt lat="59.192014" lon="18.143599">
        <ele>34</ele>
        <time>2019-12-04T16:05:37Z</time>
      </trkpt>
      <trkpt lat="59.192046" lon="18.143565">
        <ele>34</ele>
        <time>2019-12-04T16:05:38Z</time>
      </trkpt>
      <trkpt lat="59.192081" lon="18.143532">
        <ele>34</ele>
        <time>2019-12-04T16:05:39Z</time>
      </trkpt>
      <trkpt lat="59.192117" lon="18.1435">
        <ele>34</ele>
        <time>2019-12-04T16:05:40Z</time>
      </trkpt>
      <trkpt lat="59.192153" lon="18.14347">
        <ele>34</ele>
        <time>2019-12-04T16:05:41Z</time>
      </trkpt>
      <trkpt lat="59.192187" lon="18.143439">
        <ele>34</ele>
        <time>2019-12-04T16:05:42Z</time>
      </trkpt>
      <trkpt lat="59.19222" lon="18.143404">
        <ele>34</ele>
        <time>2019-12-04T16:05:43Z</time>
      </trkpt>
      <trkpt lat="59.192253" lon="18.143368">
        <ele>34</ele>
        <time>2019-12-04T16:05:44Z</time>
      </trkpt>
      <trkpt lat="59.192284" lon="18.143332">
        <ele>34</ele>
        <time>2019-12-04T16:05:45Z</time>
      </trkpt>
      <trkpt lat="59.192316" lon="18.143301">
        <ele>34</ele>
        <time>2019-12-04T16:05:46Z</time>
      </trkpt>
      <trkpt lat="59.192346" lon="18.143271">
        <ele>34</ele>
        <time>2019-12-04T16:05:47Z</time>
      </trkpt>
      <trkpt lat="59.192375" lon="18.143241">
        <ele>34</ele>
        <time>2019-12-04T16:05:48Z</time>
      </trkpt>
      <trkpt lat="59.192405" lon="18.143212">
        <ele>34</ele>
        <time>2019-12-04T16:05:49Z</time>
      </trkpt>
      <trkpt lat="59.192436" lon="18.143182">
        <ele>34</ele>
        <time>2019-12-04T16:05:50Z</time>
      </trkpt>
      <trkpt lat="59.192467" lon="18.143148">
        <ele>34</ele>
        <time>2019-12-04T16:05:51Z</time>
      </trkpt>
      <trkpt lat="59.192498" lon="18.143114">
        <ele>35</ele>
        <time>2019-12-04T16:05:52Z</time>
      </trkpt>
      <trkpt lat="59.192529" lon="18.143079">
        <ele>35</ele>
        <time>2019-12-04T16:05:53Z</time>
      </trkpt>
      <trkpt lat="59.19256" lon="18.143044">
        <ele>35</ele>
        <time>2019-12-04T16:05:54Z</time>
      </trkpt>
      <trkpt lat="59.19259" lon="18.143008">
        <ele>35</ele>
        <time>2019-12-04T16:05:55Z</time>
      </trkpt>
      <trkpt lat="59.192621" lon="18.142975">
        <ele>35</ele>
        <time>2019-12-04T16:05:56Z</time>
      </trkpt>
      <trkpt lat="59.192651" lon="18.142939">
        <ele>36</ele>
        <time>2019-12-04T16:05:57Z</time>
      </trkpt>
      <trkpt lat="59.192682" lon="18.142906">
        <ele>36</ele>
        <time>2019-12-04T16:05:58Z</time>
      </trkpt>
      <trkpt lat="59.192714" lon="18.142872">
        <ele>36</ele>
        <time>2019-12-04T16:05:59Z</time>
      </trkpt>
      <trkpt lat="59.192745" lon="18.142838">
        <ele>37</ele>
        <time>2019-12-04T16:06:00Z</time>
      </trkpt>
      <trkpt lat="59.192778" lon="18.142806">
        <ele>0</ele>
        <time>2019-12-04T16:06:00Z</time>
      </trkpt>
      <trkpt lat="59.192812" lon="18.142775">
        <ele>37</ele>
        <time>2019-12-04T16:06:01Z</time>
      </trkpt>
      <trkpt lat="59.192848" lon="18.142745">
        <ele>37</ele>
        <time>2019-12-04T16:06:03Z</time>
      </trkpt>
      <trkpt lat="59.192884" lon="18.142708">
        <ele>38</ele>
        <time>2019-12-04T16:06:04Z</time>
      </trkpt>
      <trkpt lat="59.19292" lon="18.142669">
        <ele>38</ele>
        <time>2019-12-04T16:06:05Z</time>
      </trkpt>
      <trkpt lat="59.192956" lon="18.142632">
        <ele>38</ele>
        <time>2019-12-04T16:06:06Z</time>
      </trkpt>
      <trkpt lat="59.192993" lon="18.142595">
        <ele>38</ele>
        <time>2019-12-04T16:06:07Z</time>
      </trkpt>
      <trkpt lat="59.19303" lon="18.142558">
        <ele>38</ele>
        <time>2019-12-04T16:06:08Z</time>
      </trkpt>
      <trkpt lat="59.193067" lon="18.142521">
        <ele>38</ele>
        <time>2019-12-04T16:06:09Z</time>
      </trkpt>
      <trkpt lat="59.193104" lon="18.142485">
        <ele>38</ele>
        <time>2019-12-04T16:06:10Z</time>
      </trkpt>
      <trkpt lat="59.193139" lon="18.142447">
        <ele>39</ele>
        <time>2019-12-04T16:06:11Z</time>
      </trkpt>
      <trkpt lat="59.193173" lon="18.142411">
        <ele>39</ele>
        <time>2019-12-04T16:06:12Z</time>
      </trkpt>
      <trkpt lat="59.193207" lon="18.142379">
        <ele>39</ele>
        <time>2019-12-04T16:06:13Z</time>
      </trkpt>
      <trkpt lat="59.193242" lon="18.142351">
        <ele>39</ele>
        <time>2019-12-04T16:06:14Z</time>
      </trkpt>
      <trkpt lat="59.193276" lon="18.14233">
        <ele>40</ele>
        <time>2019-12-04T16:06:15Z</time>
      </trkpt>
      <trkpt lat="59.19331" lon="18.142306">
        <ele>40</ele>
        <time>2019-12-04T16:06:16Z</time>
      </trkpt>
      <trkpt lat="59.193343" lon="18.142284">
        <ele>40</ele>
        <time>2019-12-04T16:06:17Z</time>
      </trkpt>
      <trkpt lat="59.193374" lon="18.142263">
        <ele>40</ele>
        <time>2019-12-04T16:06:18Z</time>
      </trkpt>
      <trkpt lat="59.193404" lon="18.142243">
        <ele>40</ele>
        <time>2019-12-04T16:06:19Z</time>
      </trkpt>
      <trkpt lat="59.193432" lon="18.142224">
        <ele>40</ele>
        <time>2019-12-04T16:06:20Z</time>
      </trkpt>
      <trkpt lat="59.193457" lon="18.142205">
        <ele>40</ele>
        <time>2019-12-04T16:06:21Z</time>
      </trkpt>
      <trkpt lat="59.193481" lon="18.142187">
        <ele>40</ele>
        <time>2019-12-04T16:06:22Z</time>
      </trkpt>
      <trkpt lat="59.193502" lon="18.142169">
        <ele>41</ele>
        <time>2019-12-04T16:06:23Z</time>
      </trkpt>
      <trkpt lat="59.193521" lon="18.142154">
        <ele>40</ele>
        <time>2019-12-04T16:06:24Z</time>
      </trkpt>
      <trkpt lat="59.193537" lon="18.142146">
        <ele>0</ele>
        <time>2019-12-04T16:06:30Z</time>
      </trkpt>
      <trkpt lat="59.193611" lon="18.142083">
        <ele>40</ele>
        <time>2019-12-04T16:07:24Z</time>
      </trkpt>
      <trkpt lat="59.193635" lon="18.142054">
        <ele>40</ele>
        <time>2019-12-04T16:07:25Z</time>
      </trkpt>
      <trkpt lat="59.193662" lon="18.142028">
        <ele>40</ele>
        <time>2019-12-04T16:07:26Z</time>
      </trkpt>
      <trkpt lat="59.193689" lon="18.142001">
        <ele>40</ele>
        <time>2019-12-04T16:07:27Z</time>
      </trkpt>
      <trkpt lat="59.193716" lon="18.14197">
        <ele>40</ele>
        <time>2019-12-04T16:07:28Z</time>
      </trkpt>
      <trkpt lat="59.193745" lon="18.141937">
        <ele>40</ele>
        <time>2019-12-04T16:07:29Z</time>
      </trkpt>
      <trkpt lat="59.193775" lon="18.141908">
        <ele>40</ele>
        <time>2019-12-04T16:07:30Z</time>
      </trkpt>
      <trkpt lat="59.193802" lon="18.141887">
        <ele>40</ele>
        <time>2019-12-04T16:07:31Z</time>
      </trkpt>
      <trkpt lat="59.193819" lon="18.141869">
        <ele>40</ele>
        <time>2019-12-04T16:07:33Z</time>
      </trkpt>
      <trkpt lat="59.193819" lon="18.141869">
        <ele>0</ele>
        <time>2019-12-04T16:07:35Z</time>
      </trkpt>
      <trkpt lat="59.193892" lon="18.141779">
        <ele>40</ele>
        <time>2019-12-04T16:09:03Z</time>
      </trkpt>
      <trkpt lat="59.193927" lon="18.141743">
        <ele>40</ele>
        <time>2019-12-04T16:09:04Z</time>
      </trkpt>
      <trkpt lat="59.193969" lon="18.141704">
        <ele>40</ele>
        <time>2019-12-04T16:09:05Z</time>
      </trkpt>
      <trkpt lat="59.194016" lon="18.141665">
        <ele>39</ele>
        <time>2019-12-04T16:09:06Z</time>
      </trkpt>
      <trkpt lat="59.194066" lon="18.141625">
        <ele>39</ele>
        <time>2019-12-04T16:09:07Z</time>
      </trkpt>
      <trkpt lat="59.194119" lon="18.141582">
        <ele>39</ele>
        <time>2019-12-04T16:09:08Z</time>
      </trkpt>
      <trkpt lat="59.194172" lon="18.141538">
        <ele>39</ele>
        <time>2019-12-04T16:09:09Z</time>
      </trkpt>
      <trkpt lat="59.194226" lon="18.141493">
        <ele>39</ele>
        <time>2019-12-04T16:09:10Z</time>
      </trkpt>
      <trkpt lat="59.194279" lon="18.141447">
        <ele>39</ele>
        <time>2019-12-04T16:09:11Z</time>
      </trkpt>
      <trkpt lat="59.194333" lon="18.141398">
        <ele>39</ele>
        <time>2019-12-04T16:09:12Z</time>
      </trkpt>
      <trkpt lat="59.194387" lon="18.141349">
        <ele>39</ele>
        <time>2019-12-04T16:09:13Z</time>
      </trkpt>
      <trkpt lat="59.19444" lon="18.141299">
        <ele>39</ele>
        <time>2019-12-04T16:09:14Z</time>
      </trkpt>
      <trkpt lat="59.194496" lon="18.141245">
        <ele>39</ele>
        <time>2019-12-04T16:09:15Z</time>
      </trkpt>
      <trkpt lat="59.194552" lon="18.141194">
        <ele>39</ele>
        <time>2019-12-04T16:09:16Z</time>
      </trkpt>
      <trkpt lat="59.194609" lon="18.141141">
        <ele>38</ele>
        <time>2019-12-04T16:09:17Z</time>
      </trkpt>
      <trkpt lat="59.19467" lon="18.141086">
        <ele>38</ele>
        <time>2019-12-04T16:09:18Z</time>
      </trkpt>
      <trkpt lat="59.19473" lon="18.141028">
        <ele>38</ele>
        <time>2019-12-04T16:09:19Z</time>
      </trkpt>
      <trkpt lat="59.194792" lon="18.140971">
        <ele>38</ele>
        <time>2019-12-04T16:09:20Z</time>
      </trkpt>
      <trkpt lat="59.194859" lon="18.140915">
        <ele>38</ele>
        <time>2019-12-04T16:09:21Z</time>
      </trkpt>
      <trkpt lat="59.194926" lon="18.140859">
        <ele>37</ele>
        <time>2019-12-04T16:09:22Z</time>
      </trkpt>
      <trkpt lat="59.194998" lon="18.140806">
        <ele>37</ele>
        <time>2019-12-04T16:09:23Z</time>
      </trkpt>
      <trkpt lat="59.195072" lon="18.140758">
        <ele>37</ele>
        <time>2019-12-04T16:09:24Z</time>
      </trkpt>
      <trkpt lat="59.195149" lon="18.140722">
        <ele>37</ele>
        <time>2019-12-04T16:09:25Z</time>
      </trkpt>
      <trkpt lat="59.19523" lon="18.140702">
        <ele>37</ele>
        <time>2019-12-04T16:09:26Z</time>
      </trkpt>
      <trkpt lat="59.195312" lon="18.140697">
        <ele>36</ele>
        <time>2019-12-04T16:09:27Z</time>
      </trkpt>
      <trkpt lat="59.195395" lon="18.140697">
        <ele>36</ele>
        <time>2019-12-04T16:09:28Z</time>
      </trkpt>
      <trkpt lat="59.195478" lon="18.140703">
        <ele>35</ele>
        <time>2019-12-04T16:09:29Z</time>
      </trkpt>
      <trkpt lat="59.195566" lon="18.140717">
        <ele>34</ele>
        <time>2019-12-04T16:09:30Z</time>
      </trkpt>
      <trkpt lat="59.195654" lon="18.140732">
        <ele>33</ele>
        <time>2019-12-04T16:09:31Z</time>
      </trkpt>
      <trkpt lat="59.195741" lon="18.14075">
        <ele>33</ele>
        <time>2019-12-04T16:09:32Z</time>
      </trkpt>
      <trkpt lat="59.195823" lon="18.140764">
        <ele>33</ele>
        <time>2019-12-04T16:09:33Z</time>
      </trkpt>
      <trkpt lat="59.195904" lon="18.140776">
        <ele>32</ele>
        <time>2019-12-04T16:09:34Z</time>
      </trkpt>
      <trkpt lat="59.195984" lon="18.140789">
        <ele>32</ele>
        <time>2019-12-04T16:09:35Z</time>
      </trkpt>
      <trkpt lat="59.196062" lon="18.1408">
        <ele>32</ele>
        <time>2019-12-04T16:09:36Z</time>
      </trkpt>
      <trkpt lat="59.196141" lon="18.140812">
        <ele>31</ele>
        <time>2019-12-04T16:09:37Z</time>
      </trkpt>
      <trkpt lat="59.196217" lon="18.140832">
        <ele>31</ele>
        <time>2019-12-04T16:09:38Z</time>
      </trkpt>
      <trkpt lat="59.19629" lon="18.140861">
        <ele>31</ele>
        <time>2019-12-04T16:09:39Z</time>
      </trkpt>
      <trkpt lat="59.196357" lon="18.140899">
        <ele>31</ele>
        <time>2019-12-04T16:09:40Z</time>
      </trkpt>
      <trkpt lat="59.19642" lon="18.140939">
        <ele>31</ele>
        <time>2019-12-04T16:09:41Z</time>
      </trkpt>
      <trkpt lat="59.196479" lon="18.140978">
        <ele>31</ele>
        <time>2019-12-04T16:09:42Z</time>
      </trkpt>
      <trkpt lat="59.196534" lon="18.14102">
        <ele>31</ele>
        <time>2019-12-04T16:09:43Z</time>
      </trkpt>
      <trkpt lat="59.196588" lon="18.141066">
        <ele>30</ele>
        <time>2019-12-04T16:09:44Z</time>
      </trkpt>
      <trkpt lat="59.196644" lon="18.141121">
        <ele>30</ele>
        <time>2019-12-04T16:09:45Z</time>
      </trkpt>
      <trkpt lat="59.196702" lon="18.141184">
        <ele>30</ele>
        <time>2019-12-04T16:09:46Z</time>
      </trkpt>
      <trkpt lat="59.19676" lon="18.141254">
        <ele>30</ele>
        <time>2019-12-04T16:09:47Z</time>
      </trkpt>
      <trkpt lat="59.196818" lon="18.141328">
        <ele>29</ele>
        <time>2019-12-04T16:09:48Z</time>
      </trkpt>
      <trkpt lat="59.196877" lon="18.141403">
        <ele>29</ele>
        <time>2019-12-04T16:09:49Z</time>
      </trkpt>
      <trkpt lat="59.196933" lon="18.141486">
        <ele>29</ele>
        <time>2019-12-04T16:09:50Z</time>
      </trkpt>
      <trkpt lat="59.196989" lon="18.141578">
        <ele>29</ele>
        <time>2019-12-04T16:09:51Z</time>
      </trkpt>
      <trkpt lat="59.197046" lon="18.141673">
        <ele>29</ele>
        <time>2019-12-04T16:09:52Z</time>
      </trkpt>
      <trkpt lat="59.197106" lon="18.141765">
        <ele>29</ele>
        <time>2019-12-04T16:09:53Z</time>
      </trkpt>
      <trkpt lat="59.197166" lon="18.141856">
        <ele>29</ele>
        <time>2019-12-04T16:09:54Z</time>
      </trkpt>
      <trkpt lat="59.197229" lon="18.141948">
        <ele>29</ele>
        <time>2019-12-04T16:09:55Z</time>
      </trkpt>
      <trkpt lat="59.197297" lon="18.142039">
        <ele>28</ele>
        <time>2019-12-04T16:09:56Z</time>
      </trkpt>
      <trkpt lat="59.19737" lon="18.142124">
        <ele>28</ele>
        <time>2019-12-04T16:09:57Z</time>
      </trkpt>
      <trkpt lat="59.197444" lon="18.142205">
        <ele>28</ele>
        <time>2019-12-04T16:09:58Z</time>
      </trkpt>
      <trkpt lat="59.19752" lon="18.142276">
        <ele>27</ele>
        <time>2019-12-04T16:09:59Z</time>
      </trkpt>
      <trkpt lat="59.197596" lon="18.142333">
        <ele>27</ele>
        <time>2019-12-04T16:10:00Z</time>
      </trkpt>
      <trkpt lat="59.197673" lon="18.142386">
        <ele>26</ele>
        <time>2019-12-04T16:10:01Z</time>
      </trkpt>
      <trkpt lat="59.197751" lon="18.14244">
        <ele>26</ele>
        <time>2019-12-04T16:10:02Z</time>
      </trkpt>
      <trkpt lat="59.197827" lon="18.142493">
        <ele>26</ele>
        <time>2019-12-04T16:10:03Z</time>
      </trkpt>
      <trkpt lat="59.197901" lon="18.142547">
        <ele>26</ele>
        <time>2019-12-04T16:10:04Z</time>
      </trkpt>
      <trkpt lat="59.197974" lon="18.142601">
        <ele>26</ele>
        <time>2019-12-04T16:10:05Z</time>
      </trkpt>
      <trkpt lat="59.198045" lon="18.142657">
        <ele>25</ele>
        <time>2019-12-04T16:10:06Z</time>
      </trkpt>
      <trkpt lat="59.198116" lon="18.142715">
        <ele>25</ele>
        <time>2019-12-04T16:10:07Z</time>
      </trkpt>
      <trkpt lat="59.198187" lon="18.142773">
        <ele>25</ele>
        <time>2019-12-04T16:10:08Z</time>
      </trkpt>
      <trkpt lat="59.198256" lon="18.142826">
        <ele>25</ele>
        <time>2019-12-04T16:10:09Z</time>
      </trkpt>
      <trkpt lat="59.198325" lon="18.142874">
        <ele>25</ele>
        <time>2019-12-04T16:10:10Z</time>
      </trkpt>
      <trkpt lat="59.198393" lon="18.142918">
        <ele>24</ele>
        <time>2019-12-04T16:10:11Z</time>
      </trkpt>
      <trkpt lat="59.198462" lon="18.142958">
        <ele>24</ele>
        <time>2019-12-04T16:10:12Z</time>
      </trkpt>
      <trkpt lat="59.198529" lon="18.142991">
        <ele>24</ele>
        <time>2019-12-04T16:10:13Z</time>
      </trkpt>
      <trkpt lat="59.198598" lon="18.143013">
        <ele>24</ele>
        <time>2019-12-04T16:10:14Z</time>
      </trkpt>
      <trkpt lat="59.198667" lon="18.143028">
        <ele>24</ele>
        <time>2019-12-04T16:10:15Z</time>
      </trkpt>
      <trkpt lat="59.198737" lon="18.143036">
        <ele>24</ele>
        <time>2019-12-04T16:10:16Z</time>
      </trkpt>
      <trkpt lat="59.198807" lon="18.143042">
        <ele>24</ele>
        <time>2019-12-04T16:10:17Z</time>
      </trkpt>
      <trkpt lat="59.198877" lon="18.143045">
        <ele>24</ele>
        <time>2019-12-04T16:10:18Z</time>
      </trkpt>
      <trkpt lat="59.198947" lon="18.143047">
        <ele>0</ele>
        <time>2019-12-04T16:10:18Z</time>
      </trkpt>
      <trkpt lat="59.199018" lon="18.143051">
        <ele>24</ele>
        <time>2019-12-04T16:10:19Z</time>
      </trkpt>
      <trkpt lat="59.199088" lon="18.143056">
        <ele>23</ele>
        <time>2019-12-04T16:10:21Z</time>
      </trkpt>
      <trkpt lat="59.199157" lon="18.143062">
        <ele>23</ele>
        <time>2019-12-04T16:10:22Z</time>
      </trkpt>
      <trkpt lat="59.199225" lon="18.143066">
        <ele>23</ele>
        <time>2019-12-04T16:10:23Z</time>
      </trkpt>
      <trkpt lat="59.199293" lon="18.143069">
        <ele>23</ele>
        <time>2019-12-04T16:10:24Z</time>
      </trkpt>
      <trkpt lat="59.199361" lon="18.143069">
        <ele>23</ele>
        <time>2019-12-04T16:10:25Z</time>
      </trkpt>
      <trkpt lat="59.199428" lon="18.143053">
        <ele>23</ele>
        <time>2019-12-04T16:10:26Z</time>
      </trkpt>
      <trkpt lat="59.199492" lon="18.143014">
        <ele>23</ele>
        <time>2019-12-04T16:10:27Z</time>
      </trkpt>
      <trkpt lat="59.199551" lon="18.142953">
        <ele>22</ele>
        <time>2019-12-04T16:10:28Z</time>
      </trkpt>
      <trkpt lat="59.199604" lon="18.142874">
        <ele>22</ele>
        <time>2019-12-04T16:10:29Z</time>
      </trkpt>
      <trkpt lat="59.199653" lon="18.142784">
        <ele>22</ele>
        <time>2019-12-04T16:10:30Z</time>
      </trkpt>
      <trkpt lat="59.199694" lon="18.142685">
        <ele>22</ele>
        <time>2019-12-04T16:10:31Z</time>
      </trkpt>
      <trkpt lat="59.199733" lon="18.142584">
        <ele>22</ele>
        <time>2019-12-04T16:10:32Z</time>
      </trkpt>
      <trkpt lat="59.199769" lon="18.142484">
        <ele>22</ele>
        <time>2019-12-04T16:10:33Z</time>
      </trkpt>
      <trkpt lat="59.199804" lon="18.142391">
        <ele>22</ele>
        <time>2019-12-04T16:10:34Z</time>
      </trkpt>
      <trkpt lat="59.199844" lon="18.142309">
        <ele>23</ele>
        <time>2019-12-04T16:10:35Z</time>
      </trkpt>
      <trkpt lat="59.199886" lon="18.142236">
        <ele>23</ele>
        <time>2019-12-04T16:10:36Z</time>
      </trkpt>
      <trkpt lat="59.199929" lon="18.142169">
        <ele>23</ele>
        <time>2019-12-04T16:10:37Z</time>
      </trkpt>
      <trkpt lat="59.199972" lon="18.142108">
        <ele>23</ele>
        <time>2019-12-04T16:10:38Z</time>
      </trkpt>
      <trkpt lat="59.200014" lon="18.142054">
        <ele>23</ele>
        <time>2019-12-04T16:10:39Z</time>
      </trkpt>
      <trkpt lat="59.200057" lon="18.142003">
        <ele>23</ele>
        <time>2019-12-04T16:10:40Z</time>
      </trkpt>
      <trkpt lat="59.200099" lon="18.141953">
        <ele>23</ele>
        <time>2019-12-04T16:10:41Z</time>
      </trkpt>
      <trkpt lat="59.200142" lon="18.141906">
        <ele>23</ele>
        <time>2019-12-04T16:10:42Z</time>
      </trkpt>
      <trkpt lat="59.200184" lon="18.14186">
        <ele>23</ele>
        <time>2019-12-04T16:10:43Z</time>
      </trkpt>
      <trkpt lat="59.200226" lon="18.141815">
        <ele>24</ele>
        <time>2019-12-04T16:10:44Z</time>
      </trkpt>
      <trkpt lat="59.200268" lon="18.141771">
        <ele>24</ele>
        <time>2019-12-04T16:10:45Z</time>
      </trkpt>
      <trkpt lat="59.200308" lon="18.141729">
        <ele>24</ele>
        <time>2019-12-04T16:10:46Z</time>
      </trkpt>
      <trkpt lat="59.200348" lon="18.141689">
        <ele>24</ele>
        <time>2019-12-04T16:10:47Z</time>
      </trkpt>
      <trkpt lat="59.200388" lon="18.14165">
        <ele>24</ele>
        <time>2019-12-04T16:10:48Z</time>
      </trkpt>
      <trkpt lat="59.200427" lon="18.14161">
        <ele>24</ele>
        <time>2019-12-04T16:10:49Z</time>
      </trkpt>
      <trkpt lat="59.200466" lon="18.141571">
        <ele>24</ele>
        <time>2019-12-04T16:10:50Z</time>
      </trkpt>
      <trkpt lat="59.200504" lon="18.141531">
        <ele>25</ele>
        <time>2019-12-04T16:10:51Z</time>
      </trkpt>
      <trkpt lat="59.20054" lon="18.14149">
        <ele>25</ele>
        <time>2019-12-04T16:10:52Z</time>
      </trkpt>
      <trkpt lat="59.200575" lon="18.141451">
        <ele>25</ele>
        <time>2019-12-04T16:10:53Z</time>
      </trkpt>
      <trkpt lat="59.200611" lon="18.141413">
        <ele>25</ele>
        <time>2019-12-04T16:10:54Z</time>
      </trkpt>
      <trkpt lat="59.200648" lon="18.14138">
        <ele>25</ele>
        <time>2019-12-04T16:10:55Z</time>
      </trkpt>
      <trkpt lat="59.200687" lon="18.141357">
        <ele>26</ele>
        <time>2019-12-04T16:10:56Z</time>
      </trkpt>
      <trkpt lat="59.200728" lon="18.141351">
        <ele>26</ele>
        <time>2019-12-04T16:10:57Z</time>
      </trkpt>
      <trkpt lat="59.20077" lon="18.141355">
        <ele>26</ele>
        <time>2019-12-04T16:10:58Z</time>
      </trkpt>
      <trkpt lat="59.200809" lon="18.141368">
        <ele>26</ele>
        <time>2019-12-04T16:10:59Z</time>
      </trkpt>
      <trkpt lat="59.200846" lon="18.141384">
        <ele>26</ele>
        <time>2019-12-04T16:11:00Z</time>
      </trkpt>
      <trkpt lat="59.200882" lon="18.141405">
        <ele>26</ele>
        <time>2019-12-04T16:11:01Z</time>
      </trkpt>
      <trkpt lat="59.200918" lon="18.141432">
        <ele>26</ele>
        <time>2019-12-04T16:11:02Z</time>
      </trkpt>
      <trkpt lat="59.200956" lon="18.141461">
        <ele>27</ele>
        <time>2019-12-04T16:11:03Z</time>
      </trkpt>
      <trkpt lat="59.201" lon="18.141493">
        <ele>27</ele>
        <time>2019-12-04T16:11:04Z</time>
      </trkpt>
      <trkpt lat="59.201039" lon="18.141524">
        <ele>27</ele>
        <time>2019-12-04T16:11:05Z</time>
      </trkpt>
      <trkpt lat="59.201077" lon="18.141557">
        <ele>27</ele>
        <time>2019-12-04T16:11:06Z</time>
      </trkpt>
      <trkpt lat="59.201115" lon="18.141593">
        <ele>27</ele>
        <time>2019-12-04T16:11:07Z</time>
      </trkpt>
      <trkpt lat="59.201155" lon="18.141627">
        <ele>27</ele>
        <time>2019-12-04T16:11:08Z</time>
      </trkpt>
      <trkpt lat="59.201196" lon="18.141662">
        <ele>27</ele>
        <time>2019-12-04T16:11:09Z</time>
      </trkpt>
      <trkpt lat="59.201239" lon="18.141699">
        <ele>27</ele>
        <time>2019-12-04T16:11:10Z</time>
      </trkpt>
      <trkpt lat="59.201279" lon="18.141738">
        <ele>27</ele>
        <time>2019-12-04T16:11:11Z</time>
      </trkpt>
      <trkpt lat="59.201318" lon="18.141773">
        <ele>28</ele>
        <time>2019-12-04T16:11:12Z</time>
      </trkpt>
      <trkpt lat="59.201356" lon="18.141806">
        <ele>28</ele>
        <time>2019-12-04T16:11:13Z</time>
      </trkpt>
      <trkpt lat="59.201397" lon="18.141839">
        <ele>28</ele>
        <time>2019-12-04T16:11:14Z</time>
      </trkpt>
      <trkpt lat="59.201438" lon="18.141869">
        <ele>28</ele>
        <time>2019-12-04T16:11:15Z</time>
      </trkpt>
      <trkpt lat="59.201479" lon="18.141896">
        <ele>28</ele>
        <time>2019-12-04T16:11:16Z</time>
      </trkpt>
      <trkpt lat="59.201519" lon="18.14192">
        <ele>29</ele>
        <time>2019-12-04T16:11:17Z</time>
      </trkpt>
      <trkpt lat="59.201561" lon="18.14194">
        <ele>29</ele>
        <time>2019-12-04T16:11:18Z</time>
      </trkpt>
      <trkpt lat="59.201605" lon="18.141966">
        <ele>29</ele>
        <time>2019-12-04T16:11:19Z</time>
      </trkpt>
      <trkpt lat="59.201649" lon="18.14199">
        <ele>29</ele>
        <time>2019-12-04T16:11:20Z</time>
      </trkpt>
      <trkpt lat="59.201692" lon="18.142013">
        <ele>29</ele>
        <time>2019-12-04T16:11:21Z</time>
      </trkpt>
      <trkpt lat="59.201737" lon="18.142036">
        <ele>29</ele>
        <time>2019-12-04T16:11:22Z</time>
      </trkpt>
      <trkpt lat="59.201783" lon="18.142058">
        <ele>30</ele>
        <time>2019-12-04T16:11:23Z</time>
      </trkpt>
      <trkpt lat="59.201828" lon="18.142079">
        <ele>30</ele>
        <time>2019-12-04T16:11:24Z</time>
      </trkpt>
      <trkpt lat="59.201871" lon="18.142102">
        <ele>30</ele>
        <time>2019-12-04T16:11:25Z</time>
      </trkpt>
      <trkpt lat="59.201914" lon="18.142126">
        <ele>30</ele>
        <time>2019-12-04T16:11:26Z</time>
      </trkpt>
      <trkpt lat="59.201959" lon="18.142149">
        <ele>30</ele>
        <time>2019-12-04T16:11:27Z</time>
      </trkpt>
      <trkpt lat="59.202003" lon="18.142167">
        <ele>31</ele>
        <time>2019-12-04T16:11:28Z</time>
      </trkpt>
      <trkpt lat="59.202048" lon="18.142184">
        <ele>31</ele>
        <time>2019-12-04T16:11:29Z</time>
      </trkpt>
      <trkpt lat="59.202092" lon="18.142202">
        <ele>31</ele>
        <time>2019-12-04T16:11:30Z</time>
      </trkpt>
      <trkpt lat="59.202137" lon="18.14222">
        <ele>31</ele>
        <time>2019-12-04T16:11:31Z</time>
      </trkpt>
      <trkpt lat="59.202182" lon="18.14224">
        <ele>31</ele>
        <time>2019-12-04T16:11:32Z</time>
      </trkpt>
      <trkpt lat="59.202225" lon="18.142258">
        <ele>31</ele>
        <time>2019-12-04T16:11:33Z</time>
      </trkpt>
      <trkpt lat="59.202269" lon="18.142274">
        <ele>32</ele>
        <time>2019-12-04T16:11:34Z</time>
      </trkpt>
      <trkpt lat="59.202312" lon="18.142287">
        <ele>32</ele>
        <time>2019-12-04T16:11:35Z</time>
      </trkpt>
      <trkpt lat="59.202354" lon="18.1423">
        <ele>32</ele>
        <time>2019-12-04T16:11:36Z</time>
      </trkpt>
      <trkpt lat="59.202396" lon="18.142307">
        <ele>32</ele>
        <time>2019-12-04T16:11:37Z</time>
      </trkpt>
      <trkpt lat="59.202434" lon="18.142307">
        <ele>32</ele>
        <time>2019-12-04T16:11:38Z</time>
      </trkpt>
      <trkpt lat="59.202471" lon="18.1423">
        <ele>32</ele>
        <time>2019-12-04T16:11:39Z</time>
      </trkpt>
      <trkpt lat="59.20251" lon="18.14229">
        <ele>32</ele>
        <time>2019-12-04T16:11:40Z</time>
      </trkpt>
      <trkpt lat="59.202549" lon="18.14228">
        <ele>32</ele>
        <time>2019-12-04T16:11:41Z</time>
      </trkpt>
      <trkpt lat="59.202588" lon="18.142271">
        <ele>32</ele>
        <time>2019-12-04T16:11:42Z</time>
      </trkpt>
      <trkpt lat="59.202629" lon="18.142264">
        <ele>33</ele>
        <time>2019-12-04T16:11:43Z</time>
      </trkpt>
      <trkpt lat="59.202669" lon="18.142259">
        <ele>33</ele>
        <time>2019-12-04T16:11:44Z</time>
      </trkpt>
      <trkpt lat="59.202708" lon="18.142253">
        <ele>33</ele>
        <time>2019-12-04T16:11:45Z</time>
      </trkpt>
      <trkpt lat="59.202749" lon="18.14225">
        <ele>33</ele>
        <time>2019-12-04T16:11:46Z</time>
      </trkpt>
      <trkpt lat="59.202792" lon="18.142251">
        <ele>33</ele>
        <time>2019-12-04T16:11:47Z</time>
      </trkpt>
      <trkpt lat="59.202835" lon="18.14225">
        <ele>33</ele>
        <time>2019-12-04T16:11:48Z</time>
      </trkpt>
      <trkpt lat="59.202878" lon="18.142249">
        <ele>34</ele>
        <time>2019-12-04T16:11:49Z</time>
      </trkpt>
      <trkpt lat="59.202922" lon="18.142253">
        <ele>34</ele>
        <time>2019-12-04T16:11:50Z</time>
      </trkpt>
      <trkpt lat="59.202966" lon="18.142258">
        <ele>34</ele>
        <time>2019-12-04T16:11:51Z</time>
      </trkpt>
      <trkpt lat="59.20301" lon="18.142263">
        <ele>34</ele>
        <time>2019-12-04T16:11:52Z</time>
      </trkpt>
      <trkpt lat="59.203054" lon="18.142269">
        <ele>34</ele>
        <time>2019-12-04T16:11:53Z</time>
      </trkpt>
      <trkpt lat="59.203101" lon="18.142276">
        <ele>0</ele>
        <time>2019-12-04T16:11:53Z</time>
      </trkpt>
      <trkpt lat="59.203148" lon="18.142284">
        <ele>34</ele>
        <time>2019-12-04T16:11:54Z</time>
      </trkpt>
      <trkpt lat="59.203196" lon="18.14229">
        <ele>35</ele>
        <time>2019-12-04T16:11:56Z</time>
      </trkpt>
      <trkpt lat="59.203244" lon="18.142296">
        <ele>35</ele>
        <time>2019-12-04T16:11:57Z</time>
      </trkpt>
      <trkpt lat="59.203293" lon="18.142301">
        <ele>35</ele>
        <time>2019-12-04T16:11:58Z</time>
      </trkpt>
      <trkpt lat="59.203343" lon="18.142308">
        <ele>35</ele>
        <time>2019-12-04T16:11:59Z</time>
      </trkpt>
      <trkpt lat="59.203392" lon="18.142314">
        <ele>35</ele>
        <time>2019-12-04T16:12:00Z</time>
      </trkpt>
      <trkpt lat="59.203443" lon="18.142321">
        <ele>35</ele>
        <time>2019-12-04T16:12:01Z</time>
      </trkpt>
      <trkpt lat="59.203494" lon="18.142325">
        <ele>35</ele>
        <time>2019-12-04T16:12:02Z</time>
      </trkpt>
      <trkpt lat="59.203546" lon="18.142326">
        <ele>35</ele>
        <time>2019-12-04T16:12:03Z</time>
      </trkpt>
      <trkpt lat="59.203599" lon="18.14232">
        <ele>35</ele>
        <time>2019-12-04T16:12:04Z</time>
      </trkpt>
      <trkpt lat="59.203651" lon="18.142309">
        <ele>35</ele>
        <time>2019-12-04T16:12:05Z</time>
      </trkpt>
      <trkpt lat="59.203703" lon="18.142294">
        <ele>35</ele>
        <time>2019-12-04T16:12:06Z</time>
      </trkpt>
      <trkpt lat="59.203756" lon="18.142278">
        <ele>36</ele>
        <time>2019-12-04T16:12:07Z</time>
      </trkpt>
      <trkpt lat="59.203808" lon="18.14226">
        <ele>36</ele>
        <time>2019-12-04T16:12:08Z</time>
      </trkpt>
      <trkpt lat="59.203861" lon="18.14224">
        <ele>36</ele>
        <time>2019-12-04T16:12:09Z</time>
      </trkpt>
      <trkpt lat="59.203915" lon="18.14222">
        <ele>36</ele>
        <time>2019-12-04T16:12:10Z</time>
      </trkpt>
      <trkpt lat="59.203968" lon="18.142199">
        <ele>36</ele>
        <time>2019-12-04T16:12:11Z</time>
      </trkpt>
      <trkpt lat="59.204022" lon="18.142177">
        <ele>36</ele>
        <time>2019-12-04T16:12:12Z</time>
      </trkpt>
      <trkpt lat="59.204076" lon="18.142157">
        <ele>0</ele>
        <time>2019-12-04T16:12:12Z</time>
      </trkpt>
      <trkpt lat="59.20413" lon="18.142136">
        <ele>36</ele>
        <time>2019-12-04T16:12:13Z</time>
      </trkpt>
      <trkpt lat="59.204183" lon="18.142113">
        <ele>36</ele>
        <time>2019-12-04T16:12:15Z</time>
      </trkpt>
      <trkpt lat="59.204236" lon="18.142092">
        <ele>36</ele>
        <time>2019-12-04T16:12:16Z</time>
      </trkpt>
      <trkpt lat="59.204288" lon="18.142072">
        <ele>36</ele>
        <time>2019-12-04T16:12:17Z</time>
      </trkpt>
      <trkpt lat="59.20434" lon="18.142051">
        <ele>36</ele>
        <time>2019-12-04T16:12:18Z</time>
      </trkpt>
      <trkpt lat="59.204391" lon="18.14203">
        <ele>36</ele>
        <time>2019-12-04T16:12:19Z</time>
      </trkpt>
      <trkpt lat="59.204442" lon="18.142007">
        <ele>36</ele>
        <time>2019-12-04T16:12:20Z</time>
      </trkpt>
      <trkpt lat="59.204491" lon="18.141983">
        <ele>36</ele>
        <time>2019-12-04T16:12:21Z</time>
      </trkpt>
      <trkpt lat="59.20454" lon="18.14196">
        <ele>36</ele>
        <time>2019-12-04T16:12:22Z</time>
      </trkpt>
      <trkpt lat="59.204589" lon="18.141938">
        <ele>37</ele>
        <time>2019-12-04T16:12:23Z</time>
      </trkpt>
      <trkpt lat="59.204637" lon="18.141913">
        <ele>37</ele>
        <time>2019-12-04T16:12:24Z</time>
      </trkpt>
      <trkpt lat="59.204683" lon="18.141887">
        <ele>37</ele>
        <time>2019-12-04T16:12:25Z</time>
      </trkpt>
      <trkpt lat="59.204728" lon="18.14186">
        <ele>37</ele>
        <time>2019-12-04T16:12:26Z</time>
      </trkpt>
      <trkpt lat="59.204773" lon="18.141833">
        <ele>37</ele>
        <time>2019-12-04T16:12:27Z</time>
      </trkpt>
      <trkpt lat="59.204818" lon="18.141805">
        <ele>38</ele>
        <time>2019-12-04T16:12:28Z</time>
      </trkpt>
      <trkpt lat="59.204866" lon="18.141776">
        <ele>38</ele>
        <time>2019-12-04T16:12:29Z</time>
      </trkpt>
      <trkpt lat="59.204917" lon="18.141747">
        <ele>38</ele>
        <time>2019-12-04T16:12:30Z</time>
      </trkpt>
      <trkpt lat="59.204967" lon="18.141718">
        <ele>38</ele>
        <time>2019-12-04T16:12:31Z</time>
      </trkpt>
      <trkpt lat="59.205016" lon="18.141685">
        <ele>38</ele>
        <time>2019-12-04T16:12:32Z</time>
      </trkpt>
      <trkpt lat="59.205064" lon="18.141651">
        <ele>38</ele>
        <time>2019-12-04T16:12:33Z</time>
      </trkpt>
      <trkpt lat="59.205113" lon="18.141619">
        <ele>38</ele>
        <time>2019-12-04T16:12:34Z</time>
      </trkpt>
      <trkpt lat="59.205161" lon="18.141585">
        <ele>38</ele>
        <time>2019-12-04T16:12:35Z</time>
      </trkpt>
      <trkpt lat="59.205208" lon="18.141549">
        <ele>38</ele>
        <time>2019-12-04T16:12:36Z</time>
      </trkpt>
      <trkpt lat="59.205253" lon="18.141512">
        <ele>38</ele>
        <time>2019-12-04T16:12:37Z</time>
      </trkpt>
      <trkpt lat="59.205295" lon="18.141476">
        <ele>38</ele>
        <time>2019-12-04T16:12:38Z</time>
      </trkpt>
      <trkpt lat="59.205336" lon="18.141444">
        <ele>38</ele>
        <time>2019-12-04T16:12:39Z</time>
      </trkpt>
      <trkpt lat="59.205375" lon="18.141411">
        <ele>39</ele>
        <time>2019-12-04T16:12:40Z</time>
      </trkpt>
      <trkpt lat="59.205414" lon="18.141376">
        <ele>39</ele>
        <time>2019-12-04T16:12:41Z</time>
      </trkpt>
      <trkpt lat="59.205451" lon="18.141342">
        <ele>39</ele>
        <time>2019-12-04T16:12:42Z</time>
      </trkpt>
      <trkpt lat="59.20549" lon="18.141307">
        <ele>39</ele>
        <time>2019-12-04T16:12:43Z</time>
      </trkpt>
      <trkpt lat="59.205532" lon="18.141271">
        <ele>39</ele>
        <time>2019-12-04T16:12:44Z</time>
      </trkpt>
      <trkpt lat="59.205575" lon="18.141235">
        <ele>39</ele>
        <time>2019-12-04T16:12:45Z</time>
      </trkpt>
      <trkpt lat="59.20562" lon="18.141198">
        <ele>39</ele>
        <time>2019-12-04T16:12:46Z</time>
      </trkpt>
      <trkpt lat="59.205665" lon="18.141159">
        <ele>39</ele>
        <time>2019-12-04T16:12:47Z</time>
      </trkpt>
      <trkpt lat="59.205711" lon="18.141119">
        <ele>39</ele>
        <time>2019-12-04T16:12:48Z</time>
      </trkpt>
      <trkpt lat="59.205759" lon="18.141077">
        <ele>39</ele>
        <time>2019-12-04T16:12:49Z</time>
      </trkpt>
      <trkpt lat="59.205807" lon="18.141037">
        <ele>39</ele>
        <time>2019-12-04T16:12:50Z</time>
      </trkpt>
      <trkpt lat="59.205857" lon="18.140999">
        <ele>39</ele>
        <time>2019-12-04T16:12:51Z</time>
      </trkpt>
      <trkpt lat="59.205907" lon="18.140965">
        <ele>39</ele>
        <time>2019-12-04T16:12:52Z</time>
      </trkpt>
      <trkpt lat="59.205957" lon="18.140934">
        <ele>39</ele>
        <time>2019-12-04T16:12:53Z</time>
      </trkpt>
      <trkpt lat="59.206006" lon="18.140906">
        <ele>39</ele>
        <time>2019-12-04T16:12:54Z</time>
      </trkpt>
      <trkpt lat="59.206053" lon="18.140884">
        <ele>39</ele>
        <time>2019-12-04T16:12:55Z</time>
      </trkpt>
      <trkpt lat="59.2061" lon="18.140864">
        <ele>39</ele>
        <time>2019-12-04T16:12:56Z</time>
      </trkpt>
      <trkpt lat="59.206144" lon="18.140836">
        <ele>40</ele>
        <time>2019-12-04T16:12:57Z</time>
      </trkpt>
      <trkpt lat="59.206184" lon="18.140799">
        <ele>40</ele>
        <time>2019-12-04T16:12:58Z</time>
      </trkpt>
      <trkpt lat="59.20622" lon="18.140746">
        <ele>40</ele>
        <time>2019-12-04T16:12:59Z</time>
      </trkpt>
      <trkpt lat="59.206246" lon="18.140677">
        <ele>40</ele>
        <time>2019-12-04T16:13:00Z</time>
      </trkpt>
      <trkpt lat="59.206265" lon="18.140603">
        <ele>40</ele>
        <time>2019-12-04T16:13:01Z</time>
      </trkpt>
      <trkpt lat="59.206288" lon="18.140535">
        <ele>40</ele>
        <time>2019-12-04T16:13:02Z</time>
      </trkpt>
      <trkpt lat="59.206318" lon="18.140479">
        <ele>40</ele>
        <time>2019-12-04T16:13:03Z</time>
      </trkpt>
      <trkpt lat="59.206351" lon="18.140437">
        <ele>40</ele>
        <time>2019-12-04T16:13:04Z</time>
      </trkpt>
      <trkpt lat="59.206388" lon="18.140405">
        <ele>40</ele>
        <time>2019-12-04T16:13:05Z</time>
      </trkpt>
      <trkpt lat="59.206429" lon="18.140385">
        <ele>40</ele>
        <time>2019-12-04T16:13:06Z</time>
      </trkpt>
      <trkpt lat="59.206472" lon="18.14037">
        <ele>40</ele>
        <time>2019-12-04T16:13:07Z</time>
      </trkpt>
      <trkpt lat="59.206515" lon="18.140358">
        <ele>40</ele>
        <time>2019-12-04T16:13:08Z</time>
      </trkpt>
      <trkpt lat="59.206559" lon="18.140351">
        <ele>41</ele>
        <time>2019-12-04T16:13:09Z</time>
      </trkpt>
      <trkpt lat="59.206602" lon="18.140346">
        <ele>41</ele>
        <time>2019-12-04T16:13:10Z</time>
      </trkpt>
      <trkpt lat="59.206646" lon="18.140346">
        <ele>41</ele>
        <time>2019-12-04T16:13:11Z</time>
      </trkpt>
      <trkpt lat="59.206689" lon="18.140347">
        <ele>41</ele>
        <time>2019-12-04T16:13:12Z</time>
      </trkpt>
      <trkpt lat="59.206733" lon="18.140347">
        <ele>41</ele>
        <time>2019-12-04T16:13:13Z</time>
      </trkpt>
      <trkpt lat="59.206776" lon="18.140351">
        <ele>41</ele>
        <time>2019-12-04T16:13:14Z</time>
      </trkpt>
      <trkpt lat="59.206819" lon="18.140359">
        <ele>41</ele>
        <time>2019-12-04T16:13:15Z</time>
      </trkpt>
      <trkpt lat="59.20686" lon="18.140371">
        <ele>42</ele>
        <time>2019-12-04T16:13:16Z</time>
      </trkpt>
      <trkpt lat="59.206896" lon="18.140386">
        <ele>42</ele>
        <time>2019-12-04T16:13:17Z</time>
      </trkpt>
      <trkpt lat="59.206932" lon="18.140404">
        <ele>42</ele>
        <time>2019-12-04T16:13:18Z</time>
      </trkpt>
      <trkpt lat="59.206966" lon="18.14042">
        <ele>42</ele>
        <time>2019-12-04T16:13:19Z</time>
      </trkpt>
      <trkpt lat="59.206999" lon="18.140433">
        <ele>42</ele>
        <time>2019-12-04T16:13:20Z</time>
      </trkpt>
      <trkpt lat="59.207037" lon="18.140446">
        <ele>43</ele>
        <time>2019-12-04T16:13:21Z</time>
      </trkpt>
      <trkpt lat="59.207079" lon="18.14046">
        <ele>43</ele>
        <time>2019-12-04T16:13:22Z</time>
      </trkpt>
      <trkpt lat="59.20712" lon="18.14046">
        <ele>43</ele>
        <time>2019-12-04T16:13:23Z</time>
      </trkpt>
      <trkpt lat="59.207158" lon="18.140458">
        <ele>44</ele>
        <time>2019-12-04T16:13:24Z</time>
      </trkpt>
      <trkpt lat="59.207196" lon="18.140468">
        <ele>44</ele>
        <time>2019-12-04T16:13:25Z</time>
      </trkpt>
      <trkpt lat="59.207235" lon="18.140486">
        <ele>44</ele>
        <time>2019-12-04T16:13:26Z</time>
      </trkpt>
      <trkpt lat="59.207275" lon="18.140505">
        <ele>44</ele>
        <time>2019-12-04T16:13:27Z</time>
      </trkpt>
      <trkpt lat="59.207318" lon="18.140535">
        <ele>45</ele>
        <time>2019-12-04T16:13:28Z</time>
      </trkpt>
      <trkpt lat="59.207359" lon="18.140564">
        <ele>0</ele>
        <time>2019-12-04T16:13:28Z</time>
      </trkpt>
      <trkpt lat="59.207403" lon="18.140597">
        <ele>45</ele>
        <time>2019-12-04T16:13:29Z</time>
      </trkpt>
      <trkpt lat="59.20745" lon="18.140624">
        <ele>45</ele>
        <time>2019-12-04T16:13:31Z</time>
      </trkpt>
      <trkpt lat="59.207496" lon="18.140655">
        <ele>45</ele>
        <time>2019-12-04T16:13:32Z</time>
      </trkpt>
      <trkpt lat="59.207545" lon="18.140691">
        <ele>46</ele>
        <time>2019-12-04T16:13:33Z</time>
      </trkpt>
      <trkpt lat="59.207593" lon="18.140728">
        <ele>46</ele>
        <time>2019-12-04T16:13:34Z</time>
      </trkpt>
      <trkpt lat="59.207642" lon="18.140765">
        <ele>46</ele>
        <time>2019-12-04T16:13:35Z</time>
      </trkpt>
      <trkpt lat="59.207688" lon="18.140805">
        <ele>46</ele>
        <time>2019-12-04T16:13:36Z</time>
      </trkpt>
      <trkpt lat="59.207731" lon="18.140851">
        <ele>46</ele>
        <time>2019-12-04T16:13:37Z</time>
      </trkpt>
      <trkpt lat="59.207773" lon="18.140895">
        <ele>47</ele>
        <time>2019-12-04T16:13:38Z</time>
      </trkpt>
      <trkpt lat="59.207815" lon="18.140939">
        <ele>47</ele>
        <time>2019-12-04T16:13:39Z</time>
      </trkpt>
      <trkpt lat="59.207857" lon="18.140985">
        <ele>47</ele>
        <time>2019-12-04T16:13:40Z</time>
      </trkpt>
      <trkpt lat="59.2079" lon="18.141038">
        <ele>47</ele>
        <time>2019-12-04T16:13:41Z</time>
      </trkpt>
      <trkpt lat="59.207943" lon="18.141091">
        <ele>47</ele>
        <time>2019-12-04T16:13:42Z</time>
      </trkpt>
      <trkpt lat="59.207983" lon="18.141143">
        <ele>47</ele>
        <time>2019-12-04T16:13:43Z</time>
      </trkpt>
      <trkpt lat="59.208023" lon="18.141194">
        <ele>47</ele>
        <time>2019-12-04T16:13:44Z</time>
      </trkpt>
      <trkpt lat="59.208062" lon="18.141243">
        <ele>47</ele>
        <time>2019-12-04T16:13:45Z</time>
      </trkpt>
      <trkpt lat="59.2081" lon="18.141297">
        <ele>48</ele>
        <time>2019-12-04T16:13:46Z</time>
      </trkpt>
      <trkpt lat="59.208137" lon="18.141352">
        <ele>48</ele>
        <time>2019-12-04T16:13:47Z</time>
      </trkpt>
      <trkpt lat="59.208172" lon="18.141407">
        <ele>48</ele>
        <time>2019-12-04T16:13:48Z</time>
      </trkpt>
      <trkpt lat="59.208202" lon="18.141452">
        <ele>48</ele>
        <time>2019-12-04T16:13:49Z</time>
      </trkpt>
      <trkpt lat="59.208233" lon="18.141495">
        <ele>48</ele>
        <time>2019-12-04T16:13:50Z</time>
      </trkpt>
      <trkpt lat="59.208263" lon="18.141537">
        <ele>48</ele>
        <time>2019-12-04T16:13:51Z</time>
      </trkpt>
      <trkpt lat="59.208288" lon="18.141579">
        <ele>48</ele>
        <time>2019-12-04T16:13:52Z</time>
      </trkpt>
      <trkpt lat="59.208317" lon="18.141632">
        <ele>48</ele>
        <time>2019-12-04T16:13:53Z</time>
      </trkpt>
      <trkpt lat="59.208349" lon="18.141685">
        <ele>48</ele>
        <time>2019-12-04T16:13:54Z</time>
      </trkpt>
      <trkpt lat="59.208378" lon="18.141741">
        <ele>49</ele>
        <time>2019-12-04T16:13:55Z</time>
      </trkpt>
      <trkpt lat="59.208406" lon="18.141797">
        <ele>49</ele>
        <time>2019-12-04T16:13:56Z</time>
      </trkpt>
      <trkpt lat="59.208435" lon="18.141854">
        <ele>49</ele>
        <time>2019-12-04T16:13:57Z</time>
      </trkpt>
      <trkpt lat="59.208466" lon="18.141913">
        <ele>49</ele>
        <time>2019-12-04T16:13:58Z</time>
      </trkpt>
      <trkpt lat="59.208497" lon="18.141975">
        <ele>49</ele>
        <time>2019-12-04T16:13:59Z</time>
      </trkpt>
      <trkpt lat="59.208527" lon="18.142035">
        <ele>50</ele>
        <time>2019-12-04T16:14:00Z</time>
      </trkpt>
      <trkpt lat="59.208557" lon="18.142096">
        <ele>50</ele>
        <time>2019-12-04T16:14:01Z</time>
      </trkpt>
      <trkpt lat="59.208584" lon="18.142156">
        <ele>50</ele>
        <time>2019-12-04T16:14:02Z</time>
      </trkpt>
      <trkpt lat="59.208613" lon="18.142218">
        <ele>50</ele>
        <time>2019-12-04T16:14:03Z</time>
      </trkpt>
      <trkpt lat="59.208642" lon="18.142281">
        <ele>50</ele>
        <time>2019-12-04T16:14:04Z</time>
      </trkpt>
      <trkpt lat="59.208672" lon="18.142347">
        <ele>51</ele>
        <time>2019-12-04T16:14:05Z</time>
      </trkpt>
      <trkpt lat="59.2087" lon="18.142414">
        <ele>51</ele>
        <time>2019-12-04T16:14:06Z</time>
      </trkpt>
      <trkpt lat="59.208728" lon="18.142481">
        <ele>51</ele>
        <time>2019-12-04T16:14:07Z</time>
      </trkpt>
      <trkpt lat="59.208756" lon="18.142549">
        <ele>51</ele>
        <time>2019-12-04T16:14:08Z</time>
      </trkpt>
      <trkpt lat="59.208785" lon="18.142618">
        <ele>51</ele>
        <time>2019-12-04T16:14:09Z</time>
      </trkpt>
      <trkpt lat="59.208814" lon="18.142687">
        <ele>51</ele>
        <time>2019-12-04T16:14:10Z</time>
      </trkpt>
      <trkpt lat="59.208844" lon="18.142758">
        <ele>51</ele>
        <time>2019-12-04T16:14:11Z</time>
      </trkpt>
      <trkpt lat="59.208875" lon="18.142832">
        <ele>51</ele>
        <time>2019-12-04T16:14:12Z</time>
      </trkpt>
      <trkpt lat="59.208907" lon="18.142908">
        <ele>51</ele>
        <time>2019-12-04T16:14:13Z</time>
      </trkpt>
      <trkpt lat="59.208939" lon="18.142986">
        <ele>51</ele>
        <time>2019-12-04T16:14:14Z</time>
      </trkpt>
      <trkpt lat="59.20897" lon="18.143062">
        <ele>52</ele>
        <time>2019-12-04T16:14:15Z</time>
      </trkpt>
      <trkpt lat="59.209002" lon="18.143141">
        <ele>52</ele>
        <time>2019-12-04T16:14:16Z</time>
      </trkpt>
      <trkpt lat="59.209033" lon="18.143224">
        <ele>52</ele>
        <time>2019-12-04T16:14:17Z</time>
      </trkpt>
      <trkpt lat="59.209067" lon="18.143309">
        <ele>52</ele>
        <time>2019-12-04T16:14:18Z</time>
      </trkpt>
      <trkpt lat="59.209101" lon="18.143396">
        <ele>52</ele>
        <time>2019-12-04T16:14:19Z</time>
      </trkpt>
      <trkpt lat="59.209137" lon="18.143483">
        <ele>52</ele>
        <time>2019-12-04T16:14:20Z</time>
      </trkpt>
      <trkpt lat="59.209173" lon="18.14357">
        <ele>52</ele>
        <time>2019-12-04T16:14:21Z</time>
      </trkpt>
      <trkpt lat="59.209209" lon="18.143658">
        <ele>52</ele>
        <time>2019-12-04T16:14:22Z</time>
      </trkpt>
      <trkpt lat="59.209246" lon="18.143749">
        <ele>52</ele>
        <time>2019-12-04T16:14:23Z</time>
      </trkpt>
      <trkpt lat="59.209282" lon="18.143839">
        <ele>52</ele>
        <time>2019-12-04T16:14:24Z</time>
      </trkpt>
      <trkpt lat="59.209319" lon="18.143929">
        <ele>52</ele>
        <time>2019-12-04T16:14:25Z</time>
      </trkpt>
      <trkpt lat="59.209357" lon="18.144017">
        <ele>52</ele>
        <time>2019-12-04T16:14:26Z</time>
      </trkpt>
      <trkpt lat="59.209393" lon="18.144108">
        <ele>52</ele>
        <time>2019-12-04T16:14:27Z</time>
      </trkpt>
      <trkpt lat="59.209427" lon="18.144201">
        <ele>52</ele>
        <time>2019-12-04T16:14:28Z</time>
      </trkpt>
      <trkpt lat="59.209455" lon="18.144297">
        <ele>52</ele>
        <time>2019-12-04T16:14:29Z</time>
      </trkpt>
      <trkpt lat="59.209478" lon="18.144396">
        <ele>52</ele>
        <time>2019-12-04T16:14:30Z</time>
      </trkpt>
      <trkpt lat="59.209493" lon="18.144494">
        <ele>52</ele>
        <time>2019-12-04T16:14:31Z</time>
      </trkpt>
      <trkpt lat="59.209498" lon="18.144585">
        <ele>51</ele>
        <time>2019-12-04T16:14:32Z</time>
      </trkpt>
      <trkpt lat="59.209499" lon="18.144668">
        <ele>51</ele>
        <time>2019-12-04T16:14:33Z</time>
      </trkpt>
      <trkpt lat="59.209513" lon="18.144743">
        <ele>51</ele>
        <time>2019-12-04T16:14:34Z</time>
      </trkpt>
      <trkpt lat="59.209541" lon="18.14481">
        <ele>51</ele>
        <time>2019-12-04T16:14:35Z</time>
      </trkpt>
      <trkpt lat="59.209577" lon="18.144873">
        <ele>51</ele>
        <time>2019-12-04T16:14:36Z</time>
      </trkpt>
      <trkpt lat="59.20962" lon="18.144921">
        <ele>51</ele>
        <time>2019-12-04T16:14:37Z</time>
      </trkpt>
      <trkpt lat="59.209666" lon="18.144958">
        <ele>51</ele>
        <time>2019-12-04T16:14:38Z</time>
      </trkpt>
      <trkpt lat="59.209712" lon="18.145001">
        <ele>51</ele>
        <time>2019-12-04T16:14:39Z</time>
      </trkpt>
      <trkpt lat="59.209758" lon="18.145054">
        <ele>51</ele>
        <time>2019-12-04T16:14:40Z</time>
      </trkpt>
      <trkpt lat="59.209802" lon="18.145114">
        <ele>51</ele>
        <time>2019-12-04T16:14:41Z</time>
      </trkpt>
      <trkpt lat="59.209843" lon="18.145187">
        <ele>51</ele>
        <time>2019-12-04T16:14:42Z</time>
      </trkpt>
      <trkpt lat="59.209881" lon="18.145268">
        <ele>51</ele>
        <time>2019-12-04T16:14:43Z</time>
      </trkpt>
      <trkpt lat="59.209916" lon="18.145357">
        <ele>51</ele>
        <time>2019-12-04T16:14:44Z</time>
      </trkpt>
      <trkpt lat="59.209949" lon="18.145449">
        <ele>51</ele>
        <time>2019-12-04T16:14:45Z</time>
      </trkpt>
      <trkpt lat="59.209983" lon="18.145543">
        <ele>51</ele>
        <time>2019-12-04T16:14:46Z</time>
      </trkpt>
      <trkpt lat="59.21002" lon="18.145637">
        <ele>51</ele>
        <time>2019-12-04T16:14:47Z</time>
      </trkpt>
      <trkpt lat="59.21006" lon="18.145726">
        <ele>51</ele>
        <time>2019-12-04T16:14:48Z</time>
      </trkpt>
      <trkpt lat="59.210105" lon="18.145806">
        <ele>51</ele>
        <time>2019-12-04T16:14:49Z</time>
      </trkpt>
      <trkpt lat="59.210157" lon="18.145875">
        <ele>51</ele>
        <time>2019-12-04T16:14:50Z</time>
      </trkpt>
      <trkpt lat="59.210215" lon="18.145933">
        <ele>51</ele>
        <time>2019-12-04T16:14:51Z</time>
      </trkpt>
      <trkpt lat="59.210279" lon="18.145987">
        <ele>51</ele>
        <time>2019-12-04T16:14:52Z</time>
      </trkpt>
      <trkpt lat="59.210343" lon="18.146048">
        <ele>51</ele>
        <time>2019-12-04T16:14:53Z</time>
      </trkpt>
      <trkpt lat="59.21041" lon="18.14612">
        <ele>51</ele>
        <time>2019-12-04T16:14:54Z</time>
      </trkpt>
      <trkpt lat="59.210477" lon="18.1462">
        <ele>51</ele>
        <time>2019-12-04T16:14:55Z</time>
      </trkpt>
      <trkpt lat="59.210546" lon="18.146283">
        <ele>51</ele>
        <time>2019-12-04T16:14:56Z</time>
      </trkpt>
      <trkpt lat="59.210618" lon="18.146365">
        <ele>51</ele>
        <time>2019-12-04T16:14:57Z</time>
      </trkpt>
      <trkpt lat="59.210694" lon="18.146443">
        <ele>51</ele>
        <time>2019-12-04T16:14:58Z</time>
      </trkpt>
      <trkpt lat="59.21077" lon="18.146517">
        <ele>51</ele>
        <time>2019-12-04T16:14:59Z</time>
      </trkpt>
      <trkpt lat="59.210844" lon="18.146587">
        <ele>51</ele>
        <time>2019-12-04T16:15:00Z</time>
      </trkpt>
      <trkpt lat="59.21092" lon="18.146657">
        <ele>50</ele>
        <time>2019-12-04T16:15:01Z</time>
      </trkpt>
      <trkpt lat="59.210999" lon="18.146723">
        <ele>50</ele>
        <time>2019-12-04T16:15:02Z</time>
      </trkpt>
      <trkpt lat="59.211086" lon="18.14679">
        <ele>49</ele>
        <time>2019-12-04T16:15:03Z</time>
      </trkpt>
      <trkpt lat="59.211185" lon="18.146856">
        <ele>48</ele>
        <time>2019-12-04T16:15:04Z</time>
      </trkpt>
      <trkpt lat="59.211287" lon="18.14692">
        <ele>48</ele>
        <time>2019-12-04T16:15:05Z</time>
      </trkpt>
      <trkpt lat="59.211386" lon="18.146982">
        <ele>47</ele>
        <time>2019-12-04T16:15:06Z</time>
      </trkpt>
      <trkpt lat="59.211483" lon="18.147031">
        <ele>47</ele>
        <time>2019-12-04T16:15:07Z</time>
      </trkpt>
      <trkpt lat="59.211578" lon="18.147067">
        <ele>46</ele>
        <time>2019-12-04T16:15:08Z</time>
      </trkpt>
      <trkpt lat="59.211669" lon="18.147091">
        <ele>46</ele>
        <time>2019-12-04T16:15:09Z</time>
      </trkpt>
      <trkpt lat="59.211755" lon="18.147106">
        <ele>46</ele>
        <time>2019-12-04T16:15:10Z</time>
      </trkpt>
      <trkpt lat="59.211845" lon="18.147113">
        <ele>46</ele>
        <time>2019-12-04T16:15:11Z</time>
      </trkpt>
      <trkpt lat="59.21194" lon="18.14712">
        <ele>46</ele>
        <time>2019-12-04T16:15:12Z</time>
      </trkpt>
      <trkpt lat="59.212041" lon="18.147128">
        <ele>46</ele>
        <time>2019-12-04T16:15:13Z</time>
      </trkpt>
      <trkpt lat="59.212142" lon="18.147141">
        <ele>45</ele>
        <time>2019-12-04T16:15:14Z</time>
      </trkpt>
      <trkpt lat="59.212242" lon="18.147147">
        <ele>44</ele>
        <time>2019-12-04T16:15:15Z</time>
      </trkpt>
      <trkpt lat="59.212344" lon="18.147146">
        <ele>43</ele>
        <time>2019-12-04T16:15:16Z</time>
      </trkpt>
      <trkpt lat="59.212449" lon="18.14714">
        <ele>42</ele>
        <time>2019-12-04T16:15:17Z</time>
      </trkpt>
      <trkpt lat="59.212555" lon="18.147127">
        <ele>42</ele>
        <time>2019-12-04T16:15:18Z</time>
      </trkpt>
      <trkpt lat="59.212661" lon="18.14711">
        <ele>41</ele>
        <time>2019-12-04T16:15:19Z</time>
      </trkpt>
      <trkpt lat="59.212767" lon="18.147091">
        <ele>40</ele>
        <time>2019-12-04T16:15:20Z</time>
      </trkpt>
      <trkpt lat="59.212875" lon="18.147069">
        <ele>39</ele>
        <time>2019-12-04T16:15:21Z</time>
      </trkpt>
      <trkpt lat="59.212981" lon="18.147041">
        <ele>38</ele>
        <time>2019-12-04T16:15:22Z</time>
      </trkpt>
      <trkpt lat="59.213085" lon="18.147005">
        <ele>37</ele>
        <time>2019-12-04T16:15:23Z</time>
      </trkpt>
      <trkpt lat="59.213186" lon="18.146961">
        <ele>36</ele>
        <time>2019-12-04T16:15:24Z</time>
      </trkpt>
      <trkpt lat="59.213285" lon="18.146909">
        <ele>36</ele>
        <time>2019-12-04T16:15:25Z</time>
      </trkpt>
      <trkpt lat="59.213381" lon="18.146849">
        <ele>35</ele>
        <time>2019-12-04T16:15:26Z</time>
      </trkpt>
      <trkpt lat="59.213473" lon="18.146786">
        <ele>35</ele>
        <time>2019-12-04T16:15:27Z</time>
      </trkpt>
      <trkpt lat="59.213562" lon="18.14672">
        <ele>34</ele>
        <time>2019-12-04T16:15:28Z</time>
      </trkpt>
      <trkpt lat="59.213647" lon="18.146645">
        <ele>34</ele>
        <time>2019-12-04T16:15:29Z</time>
      </trkpt>
      <trkpt lat="59.213731" lon="18.146564">
        <ele>34</ele>
        <time>2019-12-04T16:15:30Z</time>
      </trkpt>
      <trkpt lat="59.213812" lon="18.14648">
        <ele>33</ele>
        <time>2019-12-04T16:15:31Z</time>
      </trkpt>
      <trkpt lat="59.213891" lon="18.146389">
        <ele>33</ele>
        <time>2019-12-04T16:15:32Z</time>
      </trkpt>
      <trkpt lat="59.213967" lon="18.146296">
        <ele>33</ele>
        <time>2019-12-04T16:15:33Z</time>
      </trkpt>
      <trkpt lat="59.214044" lon="18.146204">
        <ele>32</ele>
        <time>2019-12-04T16:15:34Z</time>
      </trkpt>
      <trkpt lat="59.214121" lon="18.146112">
        <ele>32</ele>
        <time>2019-12-04T16:15:35Z</time>
      </trkpt>
      <trkpt lat="59.214198" lon="18.146016">
        <ele>32</ele>
        <time>2019-12-04T16:15:36Z</time>
      </trkpt>
      <trkpt lat="59.214275" lon="18.145922">
        <ele>31</ele>
        <time>2019-12-04T16:15:37Z</time>
      </trkpt>
      <trkpt lat="59.214351" lon="18.14583">
        <ele>31</ele>
        <time>2019-12-04T16:15:38Z</time>
      </trkpt>
      <trkpt lat="59.214425" lon="18.145741">
        <ele>31</ele>
        <time>2019-12-04T16:15:39Z</time>
      </trkpt>
      <trkpt lat="59.214499" lon="18.14565">
        <ele>31</ele>
        <time>2019-12-04T16:15:40Z</time>
      </trkpt>
      <trkpt lat="59.214573" lon="18.14556">
        <ele>31</ele>
        <time>2019-12-04T16:15:41Z</time>
      </trkpt>
      <trkpt lat="59.214647" lon="18.145473">
        <ele>30</ele>
        <time>2019-12-04T16:15:42Z</time>
      </trkpt>
      <trkpt lat="59.214722" lon="18.145389">
        <ele>30</ele>
        <time>2019-12-04T16:15:43Z</time>
      </trkpt>
      <trkpt lat="59.214795" lon="18.145303">
        <ele>30</ele>
        <time>2019-12-04T16:15:44Z</time>
      </trkpt>
      <trkpt lat="59.214867" lon="18.145213">
        <ele>29</ele>
        <time>2019-12-04T16:15:45Z</time>
      </trkpt>
      <trkpt lat="59.21494" lon="18.145128">
        <ele>29</ele>
        <time>2019-12-04T16:15:46Z</time>
      </trkpt>
      <trkpt lat="59.215013" lon="18.145045">
        <ele>29</ele>
        <time>2019-12-04T16:15:47Z</time>
      </trkpt>
      <trkpt lat="59.215084" lon="18.144961">
        <ele>29</ele>
        <time>2019-12-04T16:15:48Z</time>
      </trkpt>
      <trkpt lat="59.215155" lon="18.144874">
        <ele>28</ele>
        <time>2019-12-04T16:15:49Z</time>
      </trkpt>
      <trkpt lat="59.215226" lon="18.144787">
        <ele>28</ele>
        <time>2019-12-04T16:15:50Z</time>
      </trkpt>
      <trkpt lat="59.215296" lon="18.144701">
        <ele>28</ele>
        <time>2019-12-04T16:15:51Z</time>
      </trkpt>
      <trkpt lat="59.215367" lon="18.144618">
        <ele>28</ele>
        <time>2019-12-04T16:15:52Z</time>
      </trkpt>
      <trkpt lat="59.215437" lon="18.144536">
        <ele>28</ele>
        <time>2019-12-04T16:15:53Z</time>
      </trkpt>
      <trkpt lat="59.215506" lon="18.14445">
        <ele>28</ele>
        <time>2019-12-04T16:15:54Z</time>
      </trkpt>
      <trkpt lat="59.215573" lon="18.144364">
        <ele>28</ele>
        <time>2019-12-04T16:15:55Z</time>
      </trkpt>
      <trkpt lat="59.21564" lon="18.144283">
        <ele>27</ele>
        <time>2019-12-04T16:15:56Z</time>
      </trkpt>
      <trkpt lat="59.215709" lon="18.144208">
        <ele>27</ele>
        <time>2019-12-04T16:15:57Z</time>
      </trkpt>
      <trkpt lat="59.215777" lon="18.144131">
        <ele>27</ele>
        <time>2019-12-04T16:15:58Z</time>
      </trkpt>
      <trkpt lat="59.215845" lon="18.144053">
        <ele>27</ele>
        <time>2019-12-04T16:15:59Z</time>
      </trkpt>
      <trkpt lat="59.215913" lon="18.14397">
        <ele>27</ele>
        <time>2019-12-04T16:16:00Z</time>
      </trkpt>
      <trkpt lat="59.215983" lon="18.143886">
        <ele>27</ele>
        <time>2019-12-04T16:16:01Z</time>
      </trkpt>
      <trkpt lat="59.216053" lon="18.143803">
        <ele>26</ele>
        <time>2019-12-04T16:16:02Z</time>
      </trkpt>
      <trkpt lat="59.216126" lon="18.143722">
        <ele>26</ele>
        <time>2019-12-04T16:16:03Z</time>
      </trkpt>
      <trkpt lat="59.216196" lon="18.143642">
        <ele>26</ele>
        <time>2019-12-04T16:16:04Z</time>
      </trkpt>
      <trkpt lat="59.216266" lon="18.143559">
        <ele>26</ele>
        <time>2019-12-04T16:16:05Z</time>
      </trkpt>
      <trkpt lat="59.216337" lon="18.143476">
        <ele>25</ele>
        <time>2019-12-04T16:16:06Z</time>
      </trkpt>
      <trkpt lat="59.216408" lon="18.143394">
        <ele>25</ele>
        <time>2019-12-04T16:16:07Z</time>
      </trkpt>
      <trkpt lat="59.216477" lon="18.143314">
        <ele>25</ele>
        <time>2019-12-04T16:16:08Z</time>
      </trkpt>
      <trkpt lat="59.216546" lon="18.143234">
        <ele>25</ele>
        <time>2019-12-04T16:16:09Z</time>
      </trkpt>
      <trkpt lat="59.216615" lon="18.143157">
        <ele>25</ele>
        <time>2019-12-04T16:16:10Z</time>
      </trkpt>
      <trkpt lat="59.216683" lon="18.14308">
        <ele>25</ele>
        <time>2019-12-04T16:16:11Z</time>
      </trkpt>
      <trkpt lat="59.216748" lon="18.143004">
        <ele>25</ele>
        <time>2019-12-04T16:16:12Z</time>
      </trkpt>
      <trkpt lat="59.216811" lon="18.142931">
        <ele>25</ele>
        <time>2019-12-04T16:16:13Z</time>
      </trkpt>
      <trkpt lat="59.216874" lon="18.14286">
        <ele>24</ele>
        <time>2019-12-04T16:16:14Z</time>
      </trkpt>
      <trkpt lat="59.216936" lon="18.142795">
        <ele>24</ele>
        <time>2019-12-04T16:16:15Z</time>
      </trkpt>
      <trkpt lat="59.216996" lon="18.142732">
        <ele>24</ele>
        <time>2019-12-04T16:16:16Z</time>
      </trkpt>
      <trkpt lat="59.217054" lon="18.142669">
        <ele>24</ele>
        <time>2019-12-04T16:16:17Z</time>
      </trkpt>
      <trkpt lat="59.21711" lon="18.142604">
        <ele>24</ele>
        <time>2019-12-04T16:16:18Z</time>
      </trkpt>
      <trkpt lat="59.217164" lon="18.14254">
        <ele>24</ele>
        <time>2019-12-04T16:16:19Z</time>
      </trkpt>
      <trkpt lat="59.217218" lon="18.142477">
        <ele>24</ele>
        <time>2019-12-04T16:16:20Z</time>
      </trkpt>
      <trkpt lat="59.217271" lon="18.142417">
        <ele>23</ele>
        <time>2019-12-04T16:16:21Z</time>
      </trkpt>
      <trkpt lat="59.217324" lon="18.142357">
        <ele>23</ele>
        <time>2019-12-04T16:16:22Z</time>
      </trkpt>
      <trkpt lat="59.217378" lon="18.142294">
        <ele>23</ele>
        <time>2019-12-04T16:16:23Z</time>
      </trkpt>
      <trkpt lat="59.217432" lon="18.142231">
        <ele>23</ele>
        <time>2019-12-04T16:16:24Z</time>
      </trkpt>
      <trkpt lat="59.217487" lon="18.142169">
        <ele>23</ele>
        <time>2019-12-04T16:16:25Z</time>
      </trkpt>
      <trkpt lat="59.217541" lon="18.142107">
        <ele>23</ele>
        <time>2019-12-04T16:16:26Z</time>
      </trkpt>
      <trkpt lat="59.217595" lon="18.142044">
        <ele>23</ele>
        <time>2019-12-04T16:16:27Z</time>
      </trkpt>
      <trkpt lat="59.21765" lon="18.141985">
        <ele>23</ele>
        <time>2019-12-04T16:16:28Z</time>
      </trkpt>
      <trkpt lat="59.217705" lon="18.141927">
        <ele>23</ele>
        <time>2019-12-04T16:16:29Z</time>
      </trkpt>
      <trkpt lat="59.217761" lon="18.14187">
        <ele>23</ele>
        <time>2019-12-04T16:16:30Z</time>
      </trkpt>
      <trkpt lat="59.217816" lon="18.141814">
        <ele>23</ele>
        <time>2019-12-04T16:16:31Z</time>
      </trkpt>
      <trkpt lat="59.217868" lon="18.141755">
        <ele>22</ele>
        <time>2019-12-04T16:16:32Z</time>
      </trkpt>
      <trkpt lat="59.217919" lon="18.141695">
        <ele>22</ele>
        <time>2019-12-04T16:16:33Z</time>
      </trkpt>
      <trkpt lat="59.217972" lon="18.141636">
        <ele>22</ele>
        <time>2019-12-04T16:16:34Z</time>
      </trkpt>
      <trkpt lat="59.218021" lon="18.141577">
        <ele>22</ele>
        <time>2019-12-04T16:16:35Z</time>
      </trkpt>
      <trkpt lat="59.218068" lon="18.141522">
        <ele>22</ele>
        <time>2019-12-04T16:16:36Z</time>
      </trkpt>
      <trkpt lat="59.218114" lon="18.14148">
        <ele>22</ele>
        <time>2019-12-04T16:16:37Z</time>
      </trkpt>
      <trkpt lat="59.218155" lon="18.141458">
        <ele>22</ele>
        <time>2019-12-04T16:16:38Z</time>
      </trkpt>
      <trkpt lat="59.21819" lon="18.14146">
        <ele>22</ele>
        <time>2019-12-04T16:16:39Z</time>
      </trkpt>
      <trkpt lat="59.218224" lon="18.141484">
        <ele>22</ele>
        <time>2019-12-04T16:16:40Z</time>
      </trkpt>
      <trkpt lat="59.218262" lon="18.141527">
        <ele>22</ele>
        <time>2019-12-04T16:16:41Z</time>
      </trkpt>
      <trkpt lat="59.218301" lon="18.141577">
        <ele>22</ele>
        <time>2019-12-04T16:16:42Z</time>
      </trkpt>
      <trkpt lat="59.218346" lon="18.141607">
        <ele>22</ele>
        <time>2019-12-04T16:16:43Z</time>
      </trkpt>
      <trkpt lat="59.218391" lon="18.141602">
        <ele>22</ele>
        <time>2019-12-04T16:16:44Z</time>
      </trkpt>
      <trkpt lat="59.218438" lon="18.14158">
        <ele>22</ele>
        <time>2019-12-04T16:16:45Z</time>
      </trkpt>
      <trkpt lat="59.218487" lon="18.14156">
        <ele>22</ele>
        <time>2019-12-04T16:16:46Z</time>
      </trkpt>
      <trkpt lat="59.218534" lon="18.141543">
        <ele>21</ele>
        <time>2019-12-04T16:16:47Z</time>
      </trkpt>
      <trkpt lat="59.218577" lon="18.141513">
        <ele>21</ele>
        <time>2019-12-04T16:16:48Z</time>
      </trkpt>
      <trkpt lat="59.218608" lon="18.14145">
        <ele>21</ele>
        <time>2019-12-04T16:16:49Z</time>
      </trkpt>
      <trkpt lat="59.21862" lon="18.141362">
        <ele>21</ele>
        <time>2019-12-04T16:16:50Z</time>
      </trkpt>
      <trkpt lat="59.218628" lon="18.141263">
        <ele>21</ele>
        <time>2019-12-04T16:16:51Z</time>
      </trkpt>
      <trkpt lat="59.218638" lon="18.14116">
        <ele>21</ele>
        <time>2019-12-04T16:16:52Z</time>
      </trkpt>
      <trkpt lat="59.218649" lon="18.141056">
        <ele>21</ele>
        <time>2019-12-04T16:16:53Z</time>
      </trkpt>
      <trkpt lat="59.218664" lon="18.140953">
        <ele>21</ele>
        <time>2019-12-04T16:16:54Z</time>
      </trkpt>
      <trkpt lat="59.218688" lon="18.140856">
        <ele>21</ele>
        <time>2019-12-04T16:16:55Z</time>
      </trkpt>
      <trkpt lat="59.218721" lon="18.140768">
        <ele>21</ele>
        <time>2019-12-04T16:16:56Z</time>
      </trkpt>
      <trkpt lat="59.218763" lon="18.14069">
        <ele>21</ele>
        <time>2019-12-04T16:16:57Z</time>
      </trkpt>
      <trkpt lat="59.218811" lon="18.140622">
        <ele>21</ele>
        <time>2019-12-04T16:16:58Z</time>
      </trkpt>
      <trkpt lat="59.218862" lon="18.140562">
        <ele>21</ele>
        <time>2019-12-04T16:16:59Z</time>
      </trkpt>
      <trkpt lat="59.218915" lon="18.140502">
        <ele>21</ele>
        <time>2019-12-04T16:17:00Z</time>
      </trkpt>
      <trkpt lat="59.218964" lon="18.140441">
        <ele>21</ele>
        <time>2019-12-04T16:17:01Z</time>
      </trkpt>
      <trkpt lat="59.219015" lon="18.140379">
        <ele>21</ele>
        <time>2019-12-04T16:17:02Z</time>
      </trkpt>
      <trkpt lat="59.219067" lon="18.140317">
        <ele>21</ele>
        <time>2019-12-04T16:17:03Z</time>
      </trkpt>
      <trkpt lat="59.219119" lon="18.140255">
        <ele>21</ele>
        <time>2019-12-04T16:17:04Z</time>
      </trkpt>
      <trkpt lat="59.219173" lon="18.140192">
        <ele>21</ele>
        <time>2019-12-04T16:17:05Z</time>
      </trkpt>
      <trkpt lat="59.219226" lon="18.140129">
        <ele>21</ele>
        <time>2019-12-04T16:17:06Z</time>
      </trkpt>
      <trkpt lat="59.21928" lon="18.140067">
        <ele>21</ele>
        <time>2019-12-04T16:17:07Z</time>
      </trkpt>
      <trkpt lat="59.219334" lon="18.140004">
        <ele>21</ele>
        <time>2019-12-04T16:17:08Z</time>
      </trkpt>
      <trkpt lat="59.219387" lon="18.13994">
        <ele>21</ele>
        <time>2019-12-04T16:17:09Z</time>
      </trkpt>
      <trkpt lat="59.21944" lon="18.139876">
        <ele>21</ele>
        <time>2019-12-04T16:17:10Z</time>
      </trkpt>
      <trkpt lat="59.219492" lon="18.139814">
        <ele>21</ele>
        <time>2019-12-04T16:17:11Z</time>
      </trkpt>
      <trkpt lat="59.219546" lon="18.139753">
        <ele>21</ele>
        <time>2019-12-04T16:17:12Z</time>
      </trkpt>
      <trkpt lat="59.219599" lon="18.139693">
        <ele>21</ele>
        <time>2019-12-04T16:17:13Z</time>
      </trkpt>
      <trkpt lat="59.219651" lon="18.139634">
        <ele>21</ele>
        <time>2019-12-04T16:17:14Z</time>
      </trkpt>
      <trkpt lat="59.219702" lon="18.139576">
        <ele>22</ele>
        <time>2019-12-04T16:17:15Z</time>
      </trkpt>
      <trkpt lat="59.219752" lon="18.13952">
        <ele>22</ele>
        <time>2019-12-04T16:17:16Z</time>
      </trkpt>
      <trkpt lat="59.219801" lon="18.139466">
        <ele>22</ele>
        <time>2019-12-04T16:17:17Z</time>
      </trkpt>
      <trkpt lat="59.219844" lon="18.139407">
        <ele>22</ele>
        <time>2019-12-04T16:17:18Z</time>
      </trkpt>
      <trkpt lat="59.219886" lon="18.139349">
        <ele>22</ele>
        <time>2019-12-04T16:17:19Z</time>
      </trkpt>
      <trkpt lat="59.219923" lon="18.139287">
        <ele>22</ele>
        <time>2019-12-04T16:17:20Z</time>
      </trkpt>
      <trkpt lat="59.219963" lon="18.139232">
        <ele>22</ele>
        <time>2019-12-04T16:17:21Z</time>
      </trkpt>
      <trkpt lat="59.219999" lon="18.139173">
        <ele>22</ele>
        <time>2019-12-04T16:17:22Z</time>
      </trkpt>
      <trkpt lat="59.220037" lon="18.139114">
        <ele>23</ele>
        <time>2019-12-04T16:17:23Z</time>
      </trkpt>
      <trkpt lat="59.220079" lon="18.139064">
        <ele>23</ele>
        <time>2019-12-04T16:17:24Z</time>
      </trkpt>
      <trkpt lat="59.220123" lon="18.139017">
        <ele>23</ele>
        <time>2019-12-04T16:17:25Z</time>
      </trkpt>
      <trkpt lat="59.220165" lon="18.138967">
        <ele>23</ele>
        <time>2019-12-04T16:17:26Z</time>
      </trkpt>
      <trkpt lat="59.220209" lon="18.138922">
        <ele>23</ele>
        <time>2019-12-04T16:17:27Z</time>
      </trkpt>
      <trkpt lat="59.220255" lon="18.13888">
        <ele>23</ele>
        <time>2019-12-04T16:17:28Z</time>
      </trkpt>
      <trkpt lat="59.220299" lon="18.138841">
        <ele>23</ele>
        <time>2019-12-04T16:17:29Z</time>
      </trkpt>
      <trkpt lat="59.220342" lon="18.138805">
        <ele>24</ele>
        <time>2019-12-04T16:17:30Z</time>
      </trkpt>
      <trkpt lat="59.220385" lon="18.138774">
        <ele>24</ele>
        <time>2019-12-04T16:17:31Z</time>
      </trkpt>
      <trkpt lat="59.220429" lon="18.138746">
        <ele>24</ele>
        <time>2019-12-04T16:17:32Z</time>
      </trkpt>
      <trkpt lat="59.220472" lon="18.13872">
        <ele>24</ele>
        <time>2019-12-04T16:17:33Z</time>
      </trkpt>
      <trkpt lat="59.220515" lon="18.138696">
        <ele>24</ele>
        <time>2019-12-04T16:17:34Z</time>
      </trkpt>
      <trkpt lat="59.220556" lon="18.138673">
        <ele>25</ele>
        <time>2019-12-04T16:17:35Z</time>
      </trkpt>
      <trkpt lat="59.220597" lon="18.138652">
        <ele>25</ele>
        <time>2019-12-04T16:17:36Z</time>
      </trkpt>
      <trkpt lat="59.220638" lon="18.138628">
        <ele>25</ele>
        <time>2019-12-04T16:17:37Z</time>
      </trkpt>
      <trkpt lat="59.220679" lon="18.138603">
        <ele>25</ele>
        <time>2019-12-04T16:17:38Z</time>
      </trkpt>
      <trkpt lat="59.22072" lon="18.13858">
        <ele>25</ele>
        <time>2019-12-04T16:17:39Z</time>
      </trkpt>
      <trkpt lat="59.220761" lon="18.13856">
        <ele>25</ele>
        <time>2019-12-04T16:17:40Z</time>
      </trkpt>
      <trkpt lat="59.220803" lon="18.138543">
        <ele>25</ele>
        <time>2019-12-04T16:17:41Z</time>
      </trkpt>
      <trkpt lat="59.220845" lon="18.138525">
        <ele>26</ele>
        <time>2019-12-04T16:17:42Z</time>
      </trkpt>
      <trkpt lat="59.220888" lon="18.138507">
        <ele>26</ele>
        <time>2019-12-04T16:17:43Z</time>
      </trkpt>
      <trkpt lat="59.220929" lon="18.138487">
        <ele>26</ele>
        <time>2019-12-04T16:17:44Z</time>
      </trkpt>
      <trkpt lat="59.220972" lon="18.138465">
        <ele>26</ele>
        <time>2019-12-04T16:17:45Z</time>
      </trkpt>
      <trkpt lat="59.221015" lon="18.138447">
        <ele>26</ele>
        <time>2019-12-04T16:17:46Z</time>
      </trkpt>
      <trkpt lat="59.221058" lon="18.13843">
        <ele>27</ele>
        <time>2019-12-04T16:17:47Z</time>
      </trkpt>
      <trkpt lat="59.221101" lon="18.138412">
        <ele>27</ele>
        <time>2019-12-04T16:17:48Z</time>
      </trkpt>
      <trkpt lat="59.221144" lon="18.138393">
        <ele>27</ele>
        <time>2019-12-04T16:17:49Z</time>
      </trkpt>
      <trkpt lat="59.221188" lon="18.138375">
        <ele>27</ele>
        <time>2019-12-04T16:17:50Z</time>
      </trkpt>
      <trkpt lat="59.221233" lon="18.138357">
        <ele>27</ele>
        <time>2019-12-04T16:17:51Z</time>
      </trkpt>
      <trkpt lat="59.221278" lon="18.138338">
        <ele>28</ele>
        <time>2019-12-04T16:17:52Z</time>
      </trkpt>
      <trkpt lat="59.221325" lon="18.138318">
        <ele>28</ele>
        <time>2019-12-04T16:17:53Z</time>
      </trkpt>
      <trkpt lat="59.221374" lon="18.138299">
        <ele>28</ele>
        <time>2019-12-04T16:17:54Z</time>
      </trkpt>
      <trkpt lat="59.221421" lon="18.13828">
        <ele>28</ele>
        <time>2019-12-04T16:17:55Z</time>
      </trkpt>
      <trkpt lat="59.22147" lon="18.138258">
        <ele>28</ele>
        <time>2019-12-04T16:17:56Z</time>
      </trkpt>
      <trkpt lat="59.221517" lon="18.138237">
        <ele>28</ele>
        <time>2019-12-04T16:17:57Z</time>
      </trkpt>
      <trkpt lat="59.221564" lon="18.138216">
        <ele>29</ele>
        <time>2019-12-04T16:17:58Z</time>
      </trkpt>
      <trkpt lat="59.221614" lon="18.138192">
        <ele>29</ele>
        <time>2019-12-04T16:17:59Z</time>
      </trkpt>
      <trkpt lat="59.221666" lon="18.138168">
        <ele>29</ele>
        <time>2019-12-04T16:18:00Z</time>
      </trkpt>
      <trkpt lat="59.221718" lon="18.138146">
        <ele>29</ele>
        <time>2019-12-04T16:18:01Z</time>
      </trkpt>
      <trkpt lat="59.22177" lon="18.138125">
        <ele>29</ele>
        <time>2019-12-04T16:18:02Z</time>
      </trkpt>
      <trkpt lat="59.221822" lon="18.138103">
        <ele>29</ele>
        <time>2019-12-04T16:18:03Z</time>
      </trkpt>
      <trkpt lat="59.221874" lon="18.138079">
        <ele>29</ele>
        <time>2019-12-04T16:18:04Z</time>
      </trkpt>
      <trkpt lat="59.221927" lon="18.138055">
        <ele>29</ele>
        <time>2019-12-04T16:18:05Z</time>
      </trkpt>
      <trkpt lat="59.22198" lon="18.138027">
        <ele>30</ele>
        <time>2019-12-04T16:18:06Z</time>
      </trkpt>
      <trkpt lat="59.222033" lon="18.137999">
        <ele>30</ele>
        <time>2019-12-04T16:18:07Z</time>
      </trkpt>
      <trkpt lat="59.222089" lon="18.137972">
        <ele>30</ele>
        <time>2019-12-04T16:18:08Z</time>
      </trkpt>
      <trkpt lat="59.222144" lon="18.137945">
        <ele>29</ele>
        <time>2019-12-04T16:18:09Z</time>
      </trkpt>
      <trkpt lat="59.222205" lon="18.137919">
        <ele>29</ele>
        <time>2019-12-04T16:18:10Z</time>
      </trkpt>
      <trkpt lat="59.222262" lon="18.13789">
        <ele>29</ele>
        <time>2019-12-04T16:18:11Z</time>
      </trkpt>
      <trkpt lat="59.222321" lon="18.137857">
        <ele>29</ele>
        <time>2019-12-04T16:18:12Z</time>
      </trkpt>
      <trkpt lat="59.222379" lon="18.137824">
        <ele>29</ele>
        <time>2019-12-04T16:18:13Z</time>
      </trkpt>
      <trkpt lat="59.222437" lon="18.137788">
        <ele>29</ele>
        <time>2019-12-04T16:18:14Z</time>
      </trkpt>
      <trkpt lat="59.222496" lon="18.137754">
        <ele>29</ele>
        <time>2019-12-04T16:18:15Z</time>
      </trkpt>
      <trkpt lat="59.222556" lon="18.137719">
        <ele>29</ele>
        <time>2019-12-04T16:18:16Z</time>
      </trkpt>
      <trkpt lat="59.222616" lon="18.137681">
        <ele>29</ele>
        <time>2019-12-04T16:18:17Z</time>
      </trkpt>
      <trkpt lat="59.222676" lon="18.137638">
        <ele>29</ele>
        <time>2019-12-04T16:18:18Z</time>
      </trkpt>
      <trkpt lat="59.222733" lon="18.13759">
        <ele>29</ele>
        <time>2019-12-04T16:18:19Z</time>
      </trkpt>
      <trkpt lat="59.222788" lon="18.137537">
        <ele>29</ele>
        <time>2019-12-04T16:18:20Z</time>
      </trkpt>
      <trkpt lat="59.222843" lon="18.137483">
        <ele>29</ele>
        <time>2019-12-04T16:18:21Z</time>
      </trkpt>
      <trkpt lat="59.222899" lon="18.137429">
        <ele>29</ele>
        <time>2019-12-04T16:18:22Z</time>
      </trkpt>
      <trkpt lat="59.222955" lon="18.137371">
        <ele>29</ele>
        <time>2019-12-04T16:18:23Z</time>
      </trkpt>
      <trkpt lat="59.223009" lon="18.137307">
        <ele>29</ele>
        <time>2019-12-04T16:18:24Z</time>
      </trkpt>
      <trkpt lat="59.223061" lon="18.137241">
        <ele>29</ele>
        <time>2019-12-04T16:18:25Z</time>
      </trkpt>
      <trkpt lat="59.223115" lon="18.137175">
        <ele>29</ele>
        <time>2019-12-04T16:18:26Z</time>
      </trkpt>
      <trkpt lat="59.223168" lon="18.137104">
        <ele>29</ele>
        <time>2019-12-04T16:18:27Z</time>
      </trkpt>
      <trkpt lat="59.22322" lon="18.13703">
        <ele>29</ele>
        <time>2019-12-04T16:18:28Z</time>
      </trkpt>
      <trkpt lat="59.223273" lon="18.136955">
        <ele>29</ele>
        <time>2019-12-04T16:18:29Z</time>
      </trkpt>
      <trkpt lat="59.223326" lon="18.136875">
        <ele>29</ele>
        <time>2019-12-04T16:18:30Z</time>
      </trkpt>
      <trkpt lat="59.223379" lon="18.136791">
        <ele>29</ele>
        <time>2019-12-04T16:18:31Z</time>
      </trkpt>
      <trkpt lat="59.22343" lon="18.136706">
        <ele>29</ele>
        <time>2019-12-04T16:18:32Z</time>
      </trkpt>
      <trkpt lat="59.223479" lon="18.136617">
        <ele>29</ele>
        <time>2019-12-04T16:18:33Z</time>
      </trkpt>
      <trkpt lat="59.223528" lon="18.136526">
        <ele>29</ele>
        <time>2019-12-04T16:18:34Z</time>
      </trkpt>
      <trkpt lat="59.223575" lon="18.136432">
        <ele>29</ele>
        <time>2019-12-04T16:18:35Z</time>
      </trkpt>
      <trkpt lat="59.223623" lon="18.136338">
        <ele>29</ele>
        <time>2019-12-04T16:18:36Z</time>
      </trkpt>
      <trkpt lat="59.223668" lon="18.136241">
        <ele>29</ele>
        <time>2019-12-04T16:18:37Z</time>
      </trkpt>
      <trkpt lat="59.223712" lon="18.13614">
        <ele>29</ele>
        <time>2019-12-04T16:18:38Z</time>
      </trkpt>
      <trkpt lat="59.223754" lon="18.136036">
        <ele>29</ele>
        <time>2019-12-04T16:18:39Z</time>
      </trkpt>
      <trkpt lat="59.223795" lon="18.13593">
        <ele>29</ele>
        <time>2019-12-04T16:18:40Z</time>
      </trkpt>
      <trkpt lat="59.223838" lon="18.135825">
        <ele>29</ele>
        <time>2019-12-04T16:18:41Z</time>
      </trkpt>
      <trkpt lat="59.223881" lon="18.135721">
        <ele>29</ele>
        <time>2019-12-04T16:18:42Z</time>
      </trkpt>
      <trkpt lat="59.223923" lon="18.135612">
        <ele>29</ele>
        <time>2019-12-04T16:18:43Z</time>
      </trkpt>
      <trkpt lat="59.223965" lon="18.135499">
        <ele>29</ele>
        <time>2019-12-04T16:18:44Z</time>
      </trkpt>
      <trkpt lat="59.224008" lon="18.135385">
        <ele>29</ele>
        <time>2019-12-04T16:18:45Z</time>
      </trkpt>
      <trkpt lat="59.224052" lon="18.135271">
        <ele>28</ele>
        <time>2019-12-04T16:18:46Z</time>
      </trkpt>
      <trkpt lat="59.224097" lon="18.135157">
        <ele>29</ele>
        <time>2019-12-04T16:18:47Z</time>
      </trkpt>
      <trkpt lat="59.224144" lon="18.135044">
        <ele>29</ele>
        <time>2019-12-04T16:18:48Z</time>
      </trkpt>
      <trkpt lat="59.224194" lon="18.134934">
        <ele>29</ele>
        <time>2019-12-04T16:18:49Z</time>
      </trkpt>
      <trkpt lat="59.224239" lon="18.134819">
        <ele>29</ele>
        <time>2019-12-04T16:18:50Z</time>
      </trkpt>
      <trkpt lat="59.22428" lon="18.134702">
        <ele>28</ele>
        <time>2019-12-04T16:18:51Z</time>
      </trkpt>
      <trkpt lat="59.224319" lon="18.134585">
        <ele>28</ele>
        <time>2019-12-04T16:18:52Z</time>
      </trkpt>
      <trkpt lat="59.224362" lon="18.134475">
        <ele>28</ele>
        <time>2019-12-04T16:18:53Z</time>
      </trkpt>
      <trkpt lat="59.224403" lon="18.134364">
        <ele>28</ele>
        <time>2019-12-04T16:18:54Z</time>
      </trkpt>
      <trkpt lat="59.224447" lon="18.134257">
        <ele>28</ele>
        <time>2019-12-04T16:18:55Z</time>
      </trkpt>
      <trkpt lat="59.224493" lon="18.134154">
        <ele>28</ele>
        <time>2019-12-04T16:18:56Z</time>
      </trkpt>
      <trkpt lat="59.224536" lon="18.134052">
        <ele>28</ele>
        <time>2019-12-04T16:18:57Z</time>
      </trkpt>
      <trkpt lat="59.224579" lon="18.133951">
        <ele>28</ele>
        <time>2019-12-04T16:18:58Z</time>
      </trkpt>
      <trkpt lat="59.224621" lon="18.133853">
        <ele>28</ele>
        <time>2019-12-04T16:18:59Z</time>
      </trkpt>
      <trkpt lat="59.224662" lon="18.133758">
        <ele>28</ele>
        <time>2019-12-04T16:19:00Z</time>
      </trkpt>
      <trkpt lat="59.224702" lon="18.133668">
        <ele>28</ele>
        <time>2019-12-04T16:19:01Z</time>
      </trkpt>
      <trkpt lat="59.224737" lon="18.133583">
        <ele>28</ele>
        <time>2019-12-04T16:19:02Z</time>
      </trkpt>
      <trkpt lat="59.224772" lon="18.133502">
        <ele>28</ele>
        <time>2019-12-04T16:19:03Z</time>
      </trkpt>
      <trkpt lat="59.224806" lon="18.133426">
        <ele>28</ele>
        <time>2019-12-04T16:19:04Z</time>
      </trkpt>
      <trkpt lat="59.224838" lon="18.133355">
        <ele>28</ele>
        <time>2019-12-04T16:19:05Z</time>
      </trkpt>
      <trkpt lat="59.224869" lon="18.133288">
        <ele>28</ele>
        <time>2019-12-04T16:19:06Z</time>
      </trkpt>
      <trkpt lat="59.224902" lon="18.133226">
        <ele>28</ele>
        <time>2019-12-04T16:19:07Z</time>
      </trkpt>
      <trkpt lat="59.224932" lon="18.133165">
        <ele>29</ele>
        <time>2019-12-04T16:19:08Z</time>
      </trkpt>
      <trkpt lat="59.224961" lon="18.133107">
        <ele>29</ele>
        <time>2019-12-04T16:19:09Z</time>
      </trkpt>
      <trkpt lat="59.224988" lon="18.133051">
        <ele>29</ele>
        <time>2019-12-04T16:19:10Z</time>
      </trkpt>
      <trkpt lat="59.225009" lon="18.132991">
        <ele>0</ele>
        <time>2019-12-04T16:19:10Z</time>
      </trkpt>
      <trkpt lat="59.225033" lon="18.132937">
        <ele>29</ele>
        <time>2019-12-04T16:19:11Z</time>
      </trkpt>
      <trkpt lat="59.225055" lon="18.132883">
        <ele>29</ele>
        <time>2019-12-04T16:19:13Z</time>
      </trkpt>
      <trkpt lat="59.225074" lon="18.132823">
        <ele>30</ele>
        <time>2019-12-04T16:19:14Z</time>
      </trkpt>
      <trkpt lat="59.225094" lon="18.132766">
        <ele>30</ele>
        <time>2019-12-04T16:19:15Z</time>
      </trkpt>
      <trkpt lat="59.225113" lon="18.132709">
        <ele>30</ele>
        <time>2019-12-04T16:19:16Z</time>
      </trkpt>
      <trkpt lat="59.225133" lon="18.132656">
        <ele>30</ele>
        <time>2019-12-04T16:19:17Z</time>
      </trkpt>
      <trkpt lat="59.225161" lon="18.132617">
        <ele>31</ele>
        <time>2019-12-04T16:19:18Z</time>
      </trkpt>
      <trkpt lat="59.225188" lon="18.132572">
        <ele>31</ele>
        <time>2019-12-04T16:19:19Z</time>
      </trkpt>
      <trkpt lat="59.22522" lon="18.132529">
        <ele>31</ele>
        <time>2019-12-04T16:19:20Z</time>
      </trkpt>
      <trkpt lat="59.225252" lon="18.132485">
        <ele>31</ele>
        <time>2019-12-04T16:19:21Z</time>
      </trkpt>
      <trkpt lat="59.225281" lon="18.132436">
        <ele>32</ele>
        <time>2019-12-04T16:19:22Z</time>
      </trkpt>
      <trkpt lat="59.225309" lon="18.132387">
        <ele>32</ele>
        <time>2019-12-04T16:19:23Z</time>
      </trkpt>
      <trkpt lat="59.22534" lon="18.132348">
        <ele>32</ele>
        <time>2019-12-04T16:19:24Z</time>
      </trkpt>
      <trkpt lat="59.225372" lon="18.132307">
        <ele>32</ele>
        <time>2019-12-04T16:19:25Z</time>
      </trkpt>
      <trkpt lat="59.225402" lon="18.132256">
        <ele>33</ele>
        <time>2019-12-04T16:19:26Z</time>
      </trkpt>
      <trkpt lat="59.225437" lon="18.132208">
        <ele>33</ele>
        <time>2019-12-04T16:19:27Z</time>
      </trkpt>
      <trkpt lat="59.225465" lon="18.132141">
        <ele>33</ele>
        <time>2019-12-04T16:19:28Z</time>
      </trkpt>
      <trkpt lat="59.225498" lon="18.132086">
        <ele>33</ele>
        <time>2019-12-04T16:19:29Z</time>
      </trkpt>
      <trkpt lat="59.225536" lon="18.132042">
        <ele>32</ele>
        <time>2019-12-04T16:19:30Z</time>
      </trkpt>
      <trkpt lat="59.225575" lon="18.132003">
        <ele>32</ele>
        <time>2019-12-04T16:19:31Z</time>
      </trkpt>
      <trkpt lat="59.225612" lon="18.131955">
        <ele>32</ele>
        <time>2019-12-04T16:19:32Z</time>
      </trkpt>
      <trkpt lat="59.225646" lon="18.131898">
        <ele>32</ele>
        <time>2019-12-04T16:19:33Z</time>
      </trkpt>
      <trkpt lat="59.225676" lon="18.131829">
        <ele>32</ele>
        <time>2019-12-04T16:19:34Z</time>
      </trkpt>
      <trkpt lat="59.2257" lon="18.131753">
        <ele>32</ele>
        <time>2019-12-04T16:19:35Z</time>
      </trkpt>
      <trkpt lat="59.225719" lon="18.131672">
        <ele>32</ele>
        <time>2019-12-04T16:19:36Z</time>
      </trkpt>
      <trkpt lat="59.225732" lon="18.131588">
        <ele>32</ele>
        <time>2019-12-04T16:19:37Z</time>
      </trkpt>
      <trkpt lat="59.225753" lon="18.131513">
        <ele>32</ele>
        <time>2019-12-04T16:19:38Z</time>
      </trkpt>
      <trkpt lat="59.225779" lon="18.131445">
        <ele>33</ele>
        <time>2019-12-04T16:19:39Z</time>
      </trkpt>
      <trkpt lat="59.225809" lon="18.131385">
        <ele>33</ele>
        <time>2019-12-04T16:19:40Z</time>
      </trkpt>
      <trkpt lat="59.225842" lon="18.131336">
        <ele>33</ele>
        <time>2019-12-04T16:19:41Z</time>
      </trkpt>
      <trkpt lat="59.225875" lon="18.13129">
        <ele>33</ele>
        <time>2019-12-04T16:19:42Z</time>
      </trkpt>
      <trkpt lat="59.225909" lon="18.131244">
        <ele>33</ele>
        <time>2019-12-04T16:19:43Z</time>
      </trkpt>
      <trkpt lat="59.225943" lon="18.131199">
        <ele>33</ele>
        <time>2019-12-04T16:19:44Z</time>
      </trkpt>
      <trkpt lat="59.225974" lon="18.131151">
        <ele>33</ele>
        <time>2019-12-04T16:19:45Z</time>
      </trkpt>
      <trkpt lat="59.226007" lon="18.131106">
        <ele>33</ele>
        <time>2019-12-04T16:19:46Z</time>
      </trkpt>
      <trkpt lat="59.226042" lon="18.131061">
        <ele>33</ele>
        <time>2019-12-04T16:19:47Z</time>
      </trkpt>
      <trkpt lat="59.226076" lon="18.131017">
        <ele>33</ele>
        <time>2019-12-04T16:19:48Z</time>
      </trkpt>
      <trkpt lat="59.22611" lon="18.130973">
        <ele>33</ele>
        <time>2019-12-04T16:19:49Z</time>
      </trkpt>
      <trkpt lat="59.226142" lon="18.130928">
        <ele>33</ele>
        <time>2019-12-04T16:19:50Z</time>
      </trkpt>
      <trkpt lat="59.226173" lon="18.130878">
        <ele>33</ele>
        <time>2019-12-04T16:19:51Z</time>
      </trkpt>
      <trkpt lat="59.226202" lon="18.130828">
        <ele>33</ele>
        <time>2019-12-04T16:19:52Z</time>
      </trkpt>
      <trkpt lat="59.226233" lon="18.130778">
        <ele>33</ele>
        <time>2019-12-04T16:19:53Z</time>
      </trkpt>
      <trkpt lat="59.226264" lon="18.130729">
        <ele>33</ele>
        <time>2019-12-04T16:19:54Z</time>
      </trkpt>
      <trkpt lat="59.226294" lon="18.130675">
        <ele>33</ele>
        <time>2019-12-04T16:19:55Z</time>
      </trkpt>
      <trkpt lat="59.226321" lon="18.130618">
        <ele>33</ele>
        <time>2019-12-04T16:19:56Z</time>
      </trkpt>
      <trkpt lat="59.226348" lon="18.130561">
        <ele>33</ele>
        <time>2019-12-04T16:19:57Z</time>
      </trkpt>
      <trkpt lat="59.226378" lon="18.130506">
        <ele>33</ele>
        <time>2019-12-04T16:19:58Z</time>
      </trkpt>
      <trkpt lat="59.226412" lon="18.130458">
        <ele>34</ele>
        <time>2019-12-04T16:19:59Z</time>
      </trkpt>
      <trkpt lat="59.226446" lon="18.130413">
        <ele>34</ele>
        <time>2019-12-04T16:20:00Z</time>
      </trkpt>
      <trkpt lat="59.226478" lon="18.130361">
        <ele>34</ele>
        <time>2019-12-04T16:20:01Z</time>
      </trkpt>
      <trkpt lat="59.22651" lon="18.130309">
        <ele>34</ele>
        <time>2019-12-04T16:20:02Z</time>
      </trkpt>
      <trkpt lat="59.22654" lon="18.130251">
        <ele>34</ele>
        <time>2019-12-04T16:20:03Z</time>
      </trkpt>
      <trkpt lat="59.22657" lon="18.130193">
        <ele>35</ele>
        <time>2019-12-04T16:20:04Z</time>
      </trkpt>
      <trkpt lat="59.226601" lon="18.130131">
        <ele>35</ele>
        <time>2019-12-04T16:20:05Z</time>
      </trkpt>
      <trkpt lat="59.226631" lon="18.130062">
        <ele>35</ele>
        <time>2019-12-04T16:20:06Z</time>
      </trkpt>
      <trkpt lat="59.226663" lon="18.129995">
        <ele>35</ele>
        <time>2019-12-04T16:20:07Z</time>
      </trkpt>
      <trkpt lat="59.226693" lon="18.129928">
        <ele>35</ele>
        <time>2019-12-04T16:20:08Z</time>
      </trkpt>
      <trkpt lat="59.226722" lon="18.129858">
        <ele>36</ele>
        <time>2019-12-04T16:20:09Z</time>
      </trkpt>
      <trkpt lat="59.226747" lon="18.129786">
        <ele>36</ele>
        <time>2019-12-04T16:20:10Z</time>
      </trkpt>
      <trkpt lat="59.226773" lon="18.129717">
        <ele>36</ele>
        <time>2019-12-04T16:20:11Z</time>
      </trkpt>
      <trkpt lat="59.226798" lon="18.129644">
        <ele>36</ele>
        <time>2019-12-04T16:20:12Z</time>
      </trkpt>
      <trkpt lat="59.226822" lon="18.129571">
        <ele>36</ele>
        <time>2019-12-04T16:20:13Z</time>
      </trkpt>
      <trkpt lat="59.226846" lon="18.129498">
        <ele>36</ele>
        <time>2019-12-04T16:20:14Z</time>
      </trkpt>
      <trkpt lat="59.226872" lon="18.129426">
        <ele>36</ele>
        <time>2019-12-04T16:20:15Z</time>
      </trkpt>
      <trkpt lat="59.226897" lon="18.129354">
        <ele>36</ele>
        <time>2019-12-04T16:20:16Z</time>
      </trkpt>
      <trkpt lat="59.22692" lon="18.12928">
        <ele>37</ele>
        <time>2019-12-04T16:20:17Z</time>
      </trkpt>
      <trkpt lat="59.226943" lon="18.129206">
        <ele>37</ele>
        <time>2019-12-04T16:20:18Z</time>
      </trkpt>
      <trkpt lat="59.226967" lon="18.129132">
        <ele>37</ele>
        <time>2019-12-04T16:20:19Z</time>
      </trkpt>
      <trkpt lat="59.22699" lon="18.129056">
        <ele>37</ele>
        <time>2019-12-04T16:20:20Z</time>
      </trkpt>
      <trkpt lat="59.227013" lon="18.128982">
        <ele>37</ele>
        <time>2019-12-04T16:20:21Z</time>
      </trkpt>
      <trkpt lat="59.227036" lon="18.128908">
        <ele>37</ele>
        <time>2019-12-04T16:20:22Z</time>
      </trkpt>
      <trkpt lat="59.22706" lon="18.128833">
        <ele>37</ele>
        <time>2019-12-04T16:20:23Z</time>
      </trkpt>
      <trkpt lat="59.227089" lon="18.128764">
        <ele>37</ele>
        <time>2019-12-04T16:20:24Z</time>
      </trkpt>
      <trkpt lat="59.227114" lon="18.128689">
        <ele>37</ele>
        <time>2019-12-04T16:20:25Z</time>
      </trkpt>
      <trkpt lat="59.227139" lon="18.128612">
        <ele>37</ele>
        <time>2019-12-04T16:20:26Z</time>
      </trkpt>
      <trkpt lat="59.227165" lon="18.128537">
        <ele>37</ele>
        <time>2019-12-04T16:20:27Z</time>
      </trkpt>
      <trkpt lat="59.22719" lon="18.128459">
        <ele>37</ele>
        <time>2019-12-04T16:20:28Z</time>
      </trkpt>
      <trkpt lat="59.22722" lon="18.128387">
        <ele>37</ele>
        <time>2019-12-04T16:20:29Z</time>
      </trkpt>
      <trkpt lat="59.227246" lon="18.128309">
        <ele>37</ele>
        <time>2019-12-04T16:20:30Z</time>
      </trkpt>
      <trkpt lat="59.227272" lon="18.128232">
        <ele>37</ele>
        <time>2019-12-04T16:20:31Z</time>
      </trkpt>
      <trkpt lat="59.227297" lon="18.128153">
        <ele>37</ele>
        <time>2019-12-04T16:20:32Z</time>
      </trkpt>
      <trkpt lat="59.227325" lon="18.128076">
        <ele>37</ele>
        <time>2019-12-04T16:20:33Z</time>
      </trkpt>
      <trkpt lat="59.227351" lon="18.127997">
        <ele>37</ele>
        <time>2019-12-04T16:20:34Z</time>
      </trkpt>
      <trkpt lat="59.227381" lon="18.127921">
        <ele>37</ele>
        <time>2019-12-04T16:20:35Z</time>
      </trkpt>
      <trkpt lat="59.227409" lon="18.127844">
        <ele>37</ele>
        <time>2019-12-04T16:20:36Z</time>
      </trkpt>
      <trkpt lat="59.227437" lon="18.127771">
        <ele>37</ele>
        <time>2019-12-04T16:20:37Z</time>
      </trkpt>
      <trkpt lat="59.227465" lon="18.127697">
        <ele>37</ele>
        <time>2019-12-04T16:20:38Z</time>
      </trkpt>
      <trkpt lat="59.227495" lon="18.127625">
        <ele>37</ele>
        <time>2019-12-04T16:20:39Z</time>
      </trkpt>
      <trkpt lat="59.227524" lon="18.127555">
        <ele>37</ele>
        <time>2019-12-04T16:20:40Z</time>
      </trkpt>
      <trkpt lat="59.227552" lon="18.127485">
        <ele>37</ele>
        <time>2019-12-04T16:20:41Z</time>
      </trkpt>
      <trkpt lat="59.227579" lon="18.127414">
        <ele>37</ele>
        <time>2019-12-04T16:20:42Z</time>
      </trkpt>
      <trkpt lat="59.227606" lon="18.127346">
        <ele>37</ele>
        <time>2019-12-04T16:20:43Z</time>
      </trkpt>
      <trkpt lat="59.227632" lon="18.127277">
        <ele>37</ele>
        <time>2019-12-04T16:20:44Z</time>
      </trkpt>
      <trkpt lat="59.227658" lon="18.127208">
        <ele>37</ele>
        <time>2019-12-04T16:20:45Z</time>
      </trkpt>
      <trkpt lat="59.227683" lon="18.127141">
        <ele>37</ele>
        <time>2019-12-04T16:20:46Z</time>
      </trkpt>
      <trkpt lat="59.227703" lon="18.127069">
        <ele>37</ele>
        <time>2019-12-04T16:20:47Z</time>
      </trkpt>
      <trkpt lat="59.227721" lon="18.126993">
        <ele>37</ele>
        <time>2019-12-04T16:20:48Z</time>
      </trkpt>
      <trkpt lat="59.227734" lon="18.126913">
        <ele>37</ele>
        <time>2019-12-04T16:20:49Z</time>
      </trkpt>
      <trkpt lat="59.227746" lon="18.126833">
        <ele>37</ele>
        <time>2019-12-04T16:20:50Z</time>
      </trkpt>
      <trkpt lat="59.227759" lon="18.126752">
        <ele>37</ele>
        <time>2019-12-04T16:20:51Z</time>
      </trkpt>
      <trkpt lat="59.22777" lon="18.126672">
        <ele>37</ele>
        <time>2019-12-04T16:20:52Z</time>
      </trkpt>
      <trkpt lat="59.227783" lon="18.126596">
        <ele>37</ele>
        <time>2019-12-04T16:20:53Z</time>
      </trkpt>
      <trkpt lat="59.227806" lon="18.126532">
        <ele>37</ele>
        <time>2019-12-04T16:20:54Z</time>
      </trkpt>
      <trkpt lat="59.227839" lon="18.126489">
        <ele>37</ele>
        <time>2019-12-04T16:20:55Z</time>
      </trkpt>
      <trkpt lat="59.227879" lon="18.126469">
        <ele>37</ele>
        <time>2019-12-04T16:20:56Z</time>
      </trkpt>
      <trkpt lat="59.227923" lon="18.12646">
        <ele>37</ele>
        <time>2019-12-04T16:20:57Z</time>
      </trkpt>
      <trkpt lat="59.227967" lon="18.126452">
        <ele>36</ele>
        <time>2019-12-04T16:20:58Z</time>
      </trkpt>
      <trkpt lat="59.228013" lon="18.126446">
        <ele>37</ele>
        <time>2019-12-04T16:20:59Z</time>
      </trkpt>
      <trkpt lat="59.228061" lon="18.126438">
        <ele>37</ele>
        <time>2019-12-04T16:21:00Z</time>
      </trkpt>
      <trkpt lat="59.228112" lon="18.126428">
        <ele>37</ele>
        <time>2019-12-04T16:21:01Z</time>
      </trkpt>
      <trkpt lat="59.228166" lon="18.126417">
        <ele>37</ele>
        <time>2019-12-04T16:21:02Z</time>
      </trkpt>
      <trkpt lat="59.228222" lon="18.126408">
        <ele>36</ele>
        <time>2019-12-04T16:21:03Z</time>
      </trkpt>
      <trkpt lat="59.228281" lon="18.1264">
        <ele>36</ele>
        <time>2019-12-04T16:21:04Z</time>
      </trkpt>
      <trkpt lat="59.228343" lon="18.126394">
        <ele>36</ele>
        <time>2019-12-04T16:21:05Z</time>
      </trkpt>
      <trkpt lat="59.228408" lon="18.126393">
        <ele>36</ele>
        <time>2019-12-04T16:21:06Z</time>
      </trkpt>
      <trkpt lat="59.228475" lon="18.126399">
        <ele>36</ele>
        <time>2019-12-04T16:21:07Z</time>
      </trkpt>
      <trkpt lat="59.228541" lon="18.126392">
        <ele>36</ele>
        <time>2019-12-04T16:21:08Z</time>
      </trkpt>
      <trkpt lat="59.228602" lon="18.126354">
        <ele>36</ele>
        <time>2019-12-04T16:21:09Z</time>
      </trkpt>
      <trkpt lat="59.228659" lon="18.126282">
        <ele>36</ele>
        <time>2019-12-04T16:21:10Z</time>
      </trkpt>
      <trkpt lat="59.228707" lon="18.126191">
        <ele>36</ele>
        <time>2019-12-04T16:21:11Z</time>
      </trkpt>
      <trkpt lat="59.228757" lon="18.12609">
        <ele>36</ele>
        <time>2019-12-04T16:21:12Z</time>
      </trkpt>
      <trkpt lat="59.228806" lon="18.125985">
        <ele>36</ele>
        <time>2019-12-04T16:21:13Z</time>
      </trkpt>
      <trkpt lat="59.228861" lon="18.125877">
        <ele>36</ele>
        <time>2019-12-04T16:21:14Z</time>
      </trkpt>
      <trkpt lat="59.228915" lon="18.125762">
        <ele>36</ele>
        <time>2019-12-04T16:21:15Z</time>
      </trkpt>
      <trkpt lat="59.228972" lon="18.12565">
        <ele>36</ele>
        <time>2019-12-04T16:21:16Z</time>
      </trkpt>
      <trkpt lat="59.229027" lon="18.125539">
        <ele>36</ele>
        <time>2019-12-04T16:21:17Z</time>
      </trkpt>
      <trkpt lat="59.229082" lon="18.12543">
        <ele>36</ele>
        <time>2019-12-04T16:21:18Z</time>
      </trkpt>
      <trkpt lat="59.229134" lon="18.125324">
        <ele>36</ele>
        <time>2019-12-04T16:21:19Z</time>
      </trkpt>
      <trkpt lat="59.229177" lon="18.125221">
        <ele>35</ele>
        <time>2019-12-04T16:21:20Z</time>
      </trkpt>
      <trkpt lat="59.229206" lon="18.125114">
        <ele>35</ele>
        <time>2019-12-04T16:21:21Z</time>
      </trkpt>
      <trkpt lat="59.229239" lon="18.125015">
        <ele>35</ele>
        <time>2019-12-04T16:21:22Z</time>
      </trkpt>
      <trkpt lat="59.229281" lon="18.124913">
        <ele>35</ele>
        <time>2019-12-04T16:21:23Z</time>
      </trkpt>
      <trkpt lat="59.229312" lon="18.124816">
        <ele>35</ele>
        <time>2019-12-04T16:21:24Z</time>
      </trkpt>
      <trkpt lat="59.229327" lon="18.124713">
        <ele>35</ele>
        <time>2019-12-04T16:21:25Z</time>
      </trkpt>
      <trkpt lat="59.229327" lon="18.124589">
        <ele>35</ele>
        <time>2019-12-04T16:21:26Z</time>
      </trkpt>
      <trkpt lat="59.22932" lon="18.124463">
        <ele>35</ele>
        <time>2019-12-04T16:21:27Z</time>
      </trkpt>
      <trkpt lat="59.229353" lon="18.124199">
        <ele>35</ele>
        <time>2019-12-04T16:21:29Z</time>
      </trkpt>
      <trkpt lat="59.229388" lon="18.124104">
        <ele>35</ele>
        <time>2019-12-04T16:21:30Z</time>
      </trkpt>
      <trkpt lat="59.229433" lon="18.124037">
        <ele>35</ele>
        <time>2019-12-04T16:21:31Z</time>
      </trkpt>
      <trkpt lat="59.229482" lon="18.123986">
        <ele>35</ele>
        <time>2019-12-04T16:21:32Z</time>
      </trkpt>
      <trkpt lat="59.229529" lon="18.123934">
        <ele>35</ele>
        <time>2019-12-04T16:21:33Z</time>
      </trkpt>
      <trkpt lat="59.229579" lon="18.123884">
        <ele>35</ele>
        <time>2019-12-04T16:21:34Z</time>
      </trkpt>
      <trkpt lat="59.229627" lon="18.123833">
        <ele>35</ele>
        <time>2019-12-04T16:21:35Z</time>
      </trkpt>
      <trkpt lat="59.229678" lon="18.123783">
        <ele>35</ele>
        <time>2019-12-04T16:21:36Z</time>
      </trkpt>
      <trkpt lat="59.229731" lon="18.123733">
        <ele>35</ele>
        <time>2019-12-04T16:21:37Z</time>
      </trkpt>
      <trkpt lat="59.229783" lon="18.123681">
        <ele>35</ele>
        <time>2019-12-04T16:21:38Z</time>
      </trkpt>
      <trkpt lat="59.229837" lon="18.123634">
        <ele>35</ele>
        <time>2019-12-04T16:21:39Z</time>
      </trkpt>
      <trkpt lat="59.229891" lon="18.123588">
        <ele>35</ele>
        <time>2019-12-04T16:21:40Z</time>
      </trkpt>
      <trkpt lat="59.229943" lon="18.123537">
        <ele>35</ele>
        <time>2019-12-04T16:21:41Z</time>
      </trkpt>
      <trkpt lat="59.229989" lon="18.123472">
        <ele>35</ele>
        <time>2019-12-04T16:21:42Z</time>
      </trkpt>
      <trkpt lat="59.230028" lon="18.123387">
        <ele>35</ele>
        <time>2019-12-04T16:21:43Z</time>
      </trkpt>
      <trkpt lat="59.230053" lon="18.123283">
        <ele>34</ele>
        <time>2019-12-04T16:21:44Z</time>
      </trkpt>
      <trkpt lat="59.23006" lon="18.123164">
        <ele>34</ele>
        <time>2019-12-04T16:21:45Z</time>
      </trkpt>
      <trkpt lat="59.23006" lon="18.123039">
        <ele>34</ele>
        <time>2019-12-04T16:21:46Z</time>
      </trkpt>
      <trkpt lat="59.23005" lon="18.122909">
        <ele>34</ele>
        <time>2019-12-04T16:21:47Z</time>
      </trkpt>
      <trkpt lat="59.230027" lon="18.122778">
        <ele>33</ele>
        <time>2019-12-04T16:21:48Z</time>
      </trkpt>
      <trkpt lat="59.229995" lon="18.122649">
        <ele>33</ele>
        <time>2019-12-04T16:21:49Z</time>
      </trkpt>
      <trkpt lat="59.22996" lon="18.122523">
        <ele>33</ele>
        <time>2019-12-04T16:21:50Z</time>
      </trkpt>
      <trkpt lat="59.229922" lon="18.122398">
        <ele>33</ele>
        <time>2019-12-04T16:21:51Z</time>
      </trkpt>
      <trkpt lat="59.22988" lon="18.122276">
        <ele>32</ele>
        <time>2019-12-04T16:21:52Z</time>
      </trkpt>
      <trkpt lat="59.22984" lon="18.122154">
        <ele>32</ele>
        <time>2019-12-04T16:21:53Z</time>
      </trkpt>
      <trkpt lat="59.229804" lon="18.122028">
        <ele>31</ele>
        <time>2019-12-04T16:21:54Z</time>
      </trkpt>
      <trkpt lat="59.229777" lon="18.121905">
        <ele>31</ele>
        <time>2019-12-04T16:21:55Z</time>
      </trkpt>
      <trkpt lat="59.229768" lon="18.121788">
        <ele>31</ele>
        <time>2019-12-04T16:21:56Z</time>
      </trkpt>
      <trkpt lat="59.229778" lon="18.121677">
        <ele>31</ele>
        <time>2019-12-04T16:21:57Z</time>
      </trkpt>
      <trkpt lat="59.229806" lon="18.121588">
        <ele>31</ele>
        <time>2019-12-04T16:21:58Z</time>
      </trkpt>
      <trkpt lat="59.229847" lon="18.121524">
        <ele>31</ele>
        <time>2019-12-04T16:21:59Z</time>
      </trkpt>
      <trkpt lat="59.229889" lon="18.121478">
        <ele>31</ele>
        <time>2019-12-04T16:22:00Z</time>
      </trkpt>
      <trkpt lat="59.229932" lon="18.121445">
        <ele>31</ele>
        <time>2019-12-04T16:22:01Z</time>
      </trkpt>
      <trkpt lat="59.229976" lon="18.12141">
        <ele>31</ele>
        <time>2019-12-04T16:22:02Z</time>
      </trkpt>
      <trkpt lat="59.230017" lon="18.12137">
        <ele>32</ele>
        <time>2019-12-04T16:22:03Z</time>
      </trkpt>
      <trkpt lat="59.230055" lon="18.121332">
        <ele>32</ele>
        <time>2019-12-04T16:22:04Z</time>
      </trkpt>
      <trkpt lat="59.230088" lon="18.121296">
        <ele>32</ele>
        <time>2019-12-04T16:22:05Z</time>
      </trkpt>
      <trkpt lat="59.230127" lon="18.121256">
        <ele>32</ele>
        <time>2019-12-04T16:22:06Z</time>
      </trkpt>
      <trkpt lat="59.230172" lon="18.121218">
        <ele>32</ele>
        <time>2019-12-04T16:22:07Z</time>
      </trkpt>
      <trkpt lat="59.230217" lon="18.121184">
        <ele>32</ele>
        <time>2019-12-04T16:22:08Z</time>
      </trkpt>
      <trkpt lat="59.230263" lon="18.121158">
        <ele>32</ele>
        <time>2019-12-04T16:22:09Z</time>
      </trkpt>
      <trkpt lat="59.230308" lon="18.121142">
        <ele>32</ele>
        <time>2019-12-04T16:22:10Z</time>
      </trkpt>
      <trkpt lat="59.230352" lon="18.121129">
        <ele>32</ele>
        <time>2019-12-04T16:22:11Z</time>
      </trkpt>
      <trkpt lat="59.230391" lon="18.121125">
        <ele>32</ele>
        <time>2019-12-04T16:22:12Z</time>
      </trkpt>
      <trkpt lat="59.230483" lon="18.12112">
        <ele>32</ele>
        <time>2019-12-04T16:22:14Z</time>
      </trkpt>
      <trkpt lat="59.230526" lon="18.12112">
        <ele>32</ele>
        <time>2019-12-04T16:22:15Z</time>
      </trkpt>
      <trkpt lat="59.230569" lon="18.121118">
        <ele>33</ele>
        <time>2019-12-04T16:22:16Z</time>
      </trkpt>
      <trkpt lat="59.230693" lon="18.121078">
        <ele>33</ele>
        <time>2019-12-04T16:22:19Z</time>
      </trkpt>
      <trkpt lat="59.23078" lon="18.121032">
        <ele>33</ele>
        <time>2019-12-04T16:22:21Z</time>
      </trkpt>
      <trkpt lat="59.230857" lon="18.12098">
        <ele>33</ele>
        <time>2019-12-04T16:22:23Z</time>
      </trkpt>
      <trkpt lat="59.23095" lon="18.12092">
        <ele>34</ele>
        <time>2019-12-04T16:22:25Z</time>
      </trkpt>
      <trkpt lat="59.230995" lon="18.12089">
        <ele>34</ele>
        <time>2019-12-04T16:22:26Z</time>
      </trkpt>
      <trkpt lat="59.231037" lon="18.120866">
        <ele>34</ele>
        <time>2019-12-04T16:22:27Z</time>
      </trkpt>
      <trkpt lat="59.231078" lon="18.120842">
        <ele>34</ele>
        <time>2019-12-04T16:22:28Z</time>
      </trkpt>
      <trkpt lat="59.231107" lon="18.120822">
        <ele>35</ele>
        <time>2019-12-04T16:22:29Z</time>
      </trkpt>
      <trkpt lat="59.231137" lon="18.120802">
        <ele>35</ele>
        <time>2019-12-04T16:22:30Z</time>
      </trkpt>
      <trkpt lat="59.231169" lon="18.120776">
        <ele>35</ele>
        <time>2019-12-04T16:22:31Z</time>
      </trkpt>
      <trkpt lat="59.231199" lon="18.120748">
        <ele>35</ele>
        <time>2019-12-04T16:22:32Z</time>
      </trkpt>
      <trkpt lat="59.231239" lon="18.120722">
        <ele>36</ele>
        <time>2019-12-04T16:22:33Z</time>
      </trkpt>
      <trkpt lat="59.231288" lon="18.120692">
        <ele>36</ele>
        <time>2019-12-04T16:22:34Z</time>
      </trkpt>
      <trkpt lat="59.231332" lon="18.120654">
        <ele>36</ele>
        <time>2019-12-04T16:22:35Z</time>
      </trkpt>
      <trkpt lat="59.231373" lon="18.120618">
        <ele>36</ele>
        <time>2019-12-04T16:22:36Z</time>
      </trkpt>
      <trkpt lat="59.231415" lon="18.120579">
        <ele>36</ele>
        <time>2019-12-04T16:22:37Z</time>
      </trkpt>
      <trkpt lat="59.231461" lon="18.120548">
        <ele>36</ele>
        <time>2019-12-04T16:22:38Z</time>
      </trkpt>
      <trkpt lat="59.231505" lon="18.120526">
        <ele>36</ele>
        <time>2019-12-04T16:22:39Z</time>
      </trkpt>
      <trkpt lat="59.231545" lon="18.120498">
        <ele>36</ele>
        <time>2019-12-04T16:22:40Z</time>
      </trkpt>
      <trkpt lat="59.231581" lon="18.120468">
        <ele>36</ele>
        <time>2019-12-04T16:22:41Z</time>
      </trkpt>
      <trkpt lat="59.231626" lon="18.120442">
        <ele>37</ele>
        <time>2019-12-04T16:22:42Z</time>
      </trkpt>
      <trkpt lat="59.231673" lon="18.12042">
        <ele>37</ele>
        <time>2019-12-04T16:22:43Z</time>
      </trkpt>
      <trkpt lat="59.231724" lon="18.12039">
        <ele>37</ele>
        <time>2019-12-04T16:22:44Z</time>
      </trkpt>
      <trkpt lat="59.231775" lon="18.12036">
        <ele>37</ele>
        <time>2019-12-04T16:22:45Z</time>
      </trkpt>
      <trkpt lat="59.231826" lon="18.120326">
        <ele>37</ele>
        <time>2019-12-04T16:22:46Z</time>
      </trkpt>
      <trkpt lat="59.231875" lon="18.120288">
        <ele>37</ele>
        <time>2019-12-04T16:22:47Z</time>
      </trkpt>
      <trkpt lat="59.231918" lon="18.120252">
        <ele>37</ele>
        <time>2019-12-04T16:22:48Z</time>
      </trkpt>
      <trkpt lat="59.231972" lon="18.120238">
        <ele>38</ele>
        <time>2019-12-04T16:22:49Z</time>
      </trkpt>
      <trkpt lat="59.232029" lon="18.120236">
        <ele>38</ele>
        <time>2019-12-04T16:22:50Z</time>
      </trkpt>
      <trkpt lat="59.232094" lon="18.120238">
        <ele>38</ele>
        <time>2019-12-04T16:22:51Z</time>
      </trkpt>
      <trkpt lat="59.232155" lon="18.120247">
        <ele>38</ele>
        <time>2019-12-04T16:22:52Z</time>
      </trkpt>
      <trkpt lat="59.23221" lon="18.120261">
        <ele>38</ele>
        <time>2019-12-04T16:22:53Z</time>
      </trkpt>
      <trkpt lat="59.232261" lon="18.120288">
        <ele>38</ele>
        <time>2019-12-04T16:22:54Z</time>
      </trkpt>
      <trkpt lat="59.232297" lon="18.120316">
        <ele>38</ele>
        <time>2019-12-04T16:22:55Z</time>
      </trkpt>
      <trkpt lat="59.232329" lon="18.120364">
        <ele>38</ele>
        <time>2019-12-04T16:22:56Z</time>
      </trkpt>
      <trkpt lat="59.232367" lon="18.120436">
        <ele>38</ele>
        <time>2019-12-04T16:22:57Z</time>
      </trkpt>
      <trkpt lat="59.232397" lon="18.120508">
        <ele>38</ele>
        <time>2019-12-04T16:22:58Z</time>
      </trkpt>
      <trkpt lat="59.232417" lon="18.120566">
        <ele>38</ele>
        <time>2019-12-04T16:22:59Z</time>
      </trkpt>
      <trkpt lat="59.23243" lon="18.120608">
        <ele>39</ele>
        <time>2019-12-04T16:23:00Z</time>
      </trkpt>
      <trkpt lat="59.23244" lon="18.120638">
        <ele>39</ele>
        <time>2019-12-04T16:23:01Z</time>
      </trkpt>
      <trkpt lat="59.232452" lon="18.12067">
        <ele>39</ele>
        <time>2019-12-04T16:23:03Z</time>
      </trkpt>
      <trkpt lat="59.232458" lon="18.120688">
        <ele>0</ele>
        <time>2019-12-04T16:23:08Z</time>
      </trkpt>
      <trkpt lat="59.232494" lon="18.120743">
        <ele>40</ele>
        <time>2019-12-04T16:24:02Z</time>
      </trkpt>
      <trkpt lat="59.232508" lon="18.120777">
        <ele>40</ele>
        <time>2019-12-04T16:24:03Z</time>
      </trkpt>
      <trkpt lat="59.232527" lon="18.120822">
        <ele>40</ele>
        <time>2019-12-04T16:24:04Z</time>
      </trkpt>
      <trkpt lat="59.232547" lon="18.120871">
        <ele>40</ele>
        <time>2019-12-04T16:24:05Z</time>
      </trkpt>
      <trkpt lat="59.232567" lon="18.120923">
        <ele>40</ele>
        <time>2019-12-04T16:24:06Z</time>
      </trkpt>
      <trkpt lat="59.232589" lon="18.120969">
        <ele>40</ele>
        <time>2019-12-04T16:24:07Z</time>
      </trkpt>
      <trkpt lat="59.232612" lon="18.121006">
        <ele>40</ele>
        <time>2019-12-04T16:24:08Z</time>
      </trkpt>
      <trkpt lat="59.232638" lon="18.121034">
        <ele>40</ele>
        <time>2019-12-04T16:24:09Z</time>
      </trkpt>
      <trkpt lat="59.232664" lon="18.121052">
        <ele>40</ele>
        <time>2019-12-04T16:24:10Z</time>
      </trkpt>
      <trkpt lat="59.23269" lon="18.121072">
        <ele>40</ele>
        <time>2019-12-04T16:24:11Z</time>
      </trkpt>
      <trkpt lat="59.232716" lon="18.121099">
        <ele>40</ele>
        <time>2019-12-04T16:24:12Z</time>
      </trkpt>
      <trkpt lat="59.232739" lon="18.121131">
        <ele>40</ele>
        <time>2019-12-04T16:24:13Z</time>
      </trkpt>
      <trkpt lat="59.232761" lon="18.121167">
        <ele>40</ele>
        <time>2019-12-04T16:24:14Z</time>
      </trkpt>
      <trkpt lat="59.232786" lon="18.121204">
        <ele>40</ele>
        <time>2019-12-04T16:24:15Z</time>
      </trkpt>
      <trkpt lat="59.232809" lon="18.121239">
        <ele>40</ele>
        <time>2019-12-04T16:24:16Z</time>
      </trkpt>
      <trkpt lat="59.232834" lon="18.121273">
        <ele>40</ele>
        <time>2019-12-04T16:24:17Z</time>
      </trkpt>
      <trkpt lat="59.232857" lon="18.121302">
        <ele>40</ele>
        <time>2019-12-04T16:24:18Z</time>
      </trkpt>
      <trkpt lat="59.232885" lon="18.121328">
        <ele>40</ele>
        <time>2019-12-04T16:24:19Z</time>
      </trkpt>
      <trkpt lat="59.23291" lon="18.12135">
        <ele>40</ele>
        <time>2019-12-04T16:24:20Z</time>
      </trkpt>
      <trkpt lat="59.232938" lon="18.12137">
        <ele>40</ele>
        <time>2019-12-04T16:24:21Z</time>
      </trkpt>
      <trkpt lat="59.23296" lon="18.121381">
        <ele>40</ele>
        <time>2019-12-04T16:24:22Z</time>
      </trkpt>
      <trkpt lat="59.232966" lon="18.121385">
        <ele>0</ele>
        <time>2019-12-04T16:24:27Z</time>
      </trkpt>
      <trkpt lat="59.233015" lon="18.121387">
        <ele>41</ele>
        <time>2019-12-04T16:24:41Z</time>
      </trkpt>
      <trkpt lat="59.233048" lon="18.12138">
        <ele>41</ele>
        <time>2019-12-04T16:24:42Z</time>
      </trkpt>
      <trkpt lat="59.233086" lon="18.121367">
        <ele>41</ele>
        <time>2019-12-04T16:24:43Z</time>
      </trkpt>
      <trkpt lat="59.233132" lon="18.121343">
        <ele>41</ele>
        <time>2019-12-04T16:24:44Z</time>
      </trkpt>
      <trkpt lat="59.233182" lon="18.121307">
        <ele>41</ele>
        <time>2019-12-04T16:24:45Z</time>
      </trkpt>
      <trkpt lat="59.233234" lon="18.121259">
        <ele>41</ele>
        <time>2019-12-04T16:24:46Z</time>
      </trkpt>
      <trkpt lat="59.233292" lon="18.121208">
        <ele>41</ele>
        <time>2019-12-04T16:24:47Z</time>
      </trkpt>
      <trkpt lat="59.233354" lon="18.121157">
        <ele>41</ele>
        <time>2019-12-04T16:24:48Z</time>
      </trkpt>
      <trkpt lat="59.23342" lon="18.121112">
        <ele>41</ele>
        <time>2019-12-04T16:24:49Z</time>
      </trkpt>
      <trkpt lat="59.233487" lon="18.121063">
        <ele>41</ele>
        <time>2019-12-04T16:24:50Z</time>
      </trkpt>
      <trkpt lat="59.233557" lon="18.121009">
        <ele>41</ele>
        <time>2019-12-04T16:24:51Z</time>
      </trkpt>
      <trkpt lat="59.233636" lon="18.120956">
        <ele>41</ele>
        <time>2019-12-04T16:24:52Z</time>
      </trkpt>
      <trkpt lat="59.233715" lon="18.120904">
        <ele>41</ele>
        <time>2019-12-04T16:24:53Z</time>
      </trkpt>
      <trkpt lat="59.233796" lon="18.120849">
        <ele>40</ele>
        <time>2019-12-04T16:24:54Z</time>
      </trkpt>
      <trkpt lat="59.233877" lon="18.1208">
        <ele>40</ele>
        <time>2019-12-04T16:24:55Z</time>
      </trkpt>
      <trkpt lat="59.23396" lon="18.120753">
        <ele>40</ele>
        <time>2019-12-04T16:24:56Z</time>
      </trkpt>
      <trkpt lat="59.234047" lon="18.120699">
        <ele>39</ele>
        <time>2019-12-04T16:24:57Z</time>
      </trkpt>
      <trkpt lat="59.234134" lon="18.120645">
        <ele>39</ele>
        <time>2019-12-04T16:24:58Z</time>
      </trkpt>
      <trkpt lat="59.234224" lon="18.120582">
        <ele>38</ele>
        <time>2019-12-04T16:24:59Z</time>
      </trkpt>
      <trkpt lat="59.234317" lon="18.120518">
        <ele>37</ele>
        <time>2019-12-04T16:25:00Z</time>
      </trkpt>
      <trkpt lat="59.234404" lon="18.12046">
        <ele>36</ele>
        <time>2019-12-04T16:25:01Z</time>
      </trkpt>
      <trkpt lat="59.234495" lon="18.120401">
        <ele>34</ele>
        <time>2019-12-04T16:25:02Z</time>
      </trkpt>
      <trkpt lat="59.234585" lon="18.120344">
        <ele>33</ele>
        <time>2019-12-04T16:25:03Z</time>
      </trkpt>
      <trkpt lat="59.234675" lon="18.120284">
        <ele>33</ele>
        <time>2019-12-04T16:25:04Z</time>
      </trkpt>
      <trkpt lat="59.234765" lon="18.120223">
        <ele>32</ele>
        <time>2019-12-04T16:25:05Z</time>
      </trkpt>
      <trkpt lat="59.234855" lon="18.120165">
        <ele>31</ele>
        <time>2019-12-04T16:25:06Z</time>
      </trkpt>
      <trkpt lat="59.234946" lon="18.12011">
        <ele>31</ele>
        <time>2019-12-04T16:25:07Z</time>
      </trkpt>
      <trkpt lat="59.235038" lon="18.120067">
        <ele>30</ele>
        <time>2019-12-04T16:25:08Z</time>
      </trkpt>
      <trkpt lat="59.235128" lon="18.12004">
        <ele>30</ele>
        <time>2019-12-04T16:25:09Z</time>
      </trkpt>
      <trkpt lat="59.235217" lon="18.120018">
        <ele>30</ele>
        <time>2019-12-04T16:25:10Z</time>
      </trkpt>
      <trkpt lat="59.235304" lon="18.119991">
        <ele>29</ele>
        <time>2019-12-04T16:25:11Z</time>
      </trkpt>
      <trkpt lat="59.23539" lon="18.119954">
        <ele>29</ele>
        <time>2019-12-04T16:25:12Z</time>
      </trkpt>
      <trkpt lat="59.235473" lon="18.119912">
        <ele>29</ele>
        <time>2019-12-04T16:25:13Z</time>
      </trkpt>
      <trkpt lat="59.235553" lon="18.119865">
        <ele>29</ele>
        <time>2019-12-04T16:25:14Z</time>
      </trkpt>
      <trkpt lat="59.23563" lon="18.119816">
        <ele>29</ele>
        <time>2019-12-04T16:25:15Z</time>
      </trkpt>
      <trkpt lat="59.235705" lon="18.119765">
        <ele>29</ele>
        <time>2019-12-04T16:25:16Z</time>
      </trkpt>
      <trkpt lat="59.235778" lon="18.119718">
        <ele>29</ele>
        <time>2019-12-04T16:25:17Z</time>
      </trkpt>
      <trkpt lat="59.235851" lon="18.119678">
        <ele>28</ele>
        <time>2019-12-04T16:25:18Z</time>
      </trkpt>
      <trkpt lat="59.235925" lon="18.119646">
        <ele>28</ele>
        <time>2019-12-04T16:25:19Z</time>
      </trkpt>
      <trkpt lat="59.235999" lon="18.119622">
        <ele>28</ele>
        <time>2019-12-04T16:25:20Z</time>
      </trkpt>
      <trkpt lat="59.236073" lon="18.119604">
        <ele>28</ele>
        <time>2019-12-04T16:25:21Z</time>
      </trkpt>
      <trkpt lat="59.236147" lon="18.119586">
        <ele>28</ele>
        <time>2019-12-04T16:25:22Z</time>
      </trkpt>
      <trkpt lat="59.236221" lon="18.119573">
        <ele>28</ele>
        <time>2019-12-04T16:25:23Z</time>
      </trkpt>
      <trkpt lat="59.236296" lon="18.119563">
        <ele>27</ele>
        <time>2019-12-04T16:25:24Z</time>
      </trkpt>
      <trkpt lat="59.236369" lon="18.119551">
        <ele>27</ele>
        <time>2019-12-04T16:25:25Z</time>
      </trkpt>
      <trkpt lat="59.236443" lon="18.119543">
        <ele>27</ele>
        <time>2019-12-04T16:25:26Z</time>
      </trkpt>
      <trkpt lat="59.236515" lon="18.119535">
        <ele>27</ele>
        <time>2019-12-04T16:25:27Z</time>
      </trkpt>
      <trkpt lat="59.236587" lon="18.119529">
        <ele>27</ele>
        <time>2019-12-04T16:25:28Z</time>
      </trkpt>
      <trkpt lat="59.236658" lon="18.119525">
        <ele>27</ele>
        <time>2019-12-04T16:25:29Z</time>
      </trkpt>
      <trkpt lat="59.236728" lon="18.119525">
        <ele>27</ele>
        <time>2019-12-04T16:25:30Z</time>
      </trkpt>
      <trkpt lat="59.236798" lon="18.119528">
        <ele>27</ele>
        <time>2019-12-04T16:25:31Z</time>
      </trkpt>
      <trkpt lat="59.236867" lon="18.119531">
        <ele>27</ele>
        <time>2019-12-04T16:25:32Z</time>
      </trkpt>
      <trkpt lat="59.236936" lon="18.119537">
        <ele>27</ele>
        <time>2019-12-04T16:25:33Z</time>
      </trkpt>
      <trkpt lat="59.237004" lon="18.119546">
        <ele>27</ele>
        <time>2019-12-04T16:25:34Z</time>
      </trkpt>
      <trkpt lat="59.237072" lon="18.119556">
        <ele>27</ele>
        <time>2019-12-04T16:25:35Z</time>
      </trkpt>
      <trkpt lat="59.237141" lon="18.119568">
        <ele>27</ele>
        <time>2019-12-04T16:25:36Z</time>
      </trkpt>
      <trkpt lat="59.237209" lon="18.11958">
        <ele>27</ele>
        <time>2019-12-04T16:25:37Z</time>
      </trkpt>
      <trkpt lat="59.237278" lon="18.119592">
        <ele>27</ele>
        <time>2019-12-04T16:25:38Z</time>
      </trkpt>
      <trkpt lat="59.237347" lon="18.119602">
        <ele>26</ele>
        <time>2019-12-04T16:25:39Z</time>
      </trkpt>
      <trkpt lat="59.237417" lon="18.119614">
        <ele>26</ele>
        <time>2019-12-04T16:25:40Z</time>
      </trkpt>
      <trkpt lat="59.237487" lon="18.119625">
        <ele>26</ele>
        <time>2019-12-04T16:25:41Z</time>
      </trkpt>
      <trkpt lat="59.237555" lon="18.119633">
        <ele>26</ele>
        <time>2019-12-04T16:25:42Z</time>
      </trkpt>
      <trkpt lat="59.237625" lon="18.119643">
        <ele>26</ele>
        <time>2019-12-04T16:25:43Z</time>
      </trkpt>
      <trkpt lat="59.237695" lon="18.119655">
        <ele>26</ele>
        <time>2019-12-04T16:25:44Z</time>
      </trkpt>
      <trkpt lat="59.237765" lon="18.11967">
        <ele>26</ele>
        <time>2019-12-04T16:25:45Z</time>
      </trkpt>
      <trkpt lat="59.237836" lon="18.119684">
        <ele>26</ele>
        <time>2019-12-04T16:25:46Z</time>
      </trkpt>
      <trkpt lat="59.237907" lon="18.119695">
        <ele>26</ele>
        <time>2019-12-04T16:25:47Z</time>
      </trkpt>
      <trkpt lat="59.237979" lon="18.119705">
        <ele>26</ele>
        <time>2019-12-04T16:25:48Z</time>
      </trkpt>
      <trkpt lat="59.238052" lon="18.119716">
        <ele>26</ele>
        <time>2019-12-04T16:25:49Z</time>
      </trkpt>
      <trkpt lat="59.238126" lon="18.119727">
        <ele>26</ele>
        <time>2019-12-04T16:25:50Z</time>
      </trkpt>
      <trkpt lat="59.238201" lon="18.119738">
        <ele>26</ele>
        <time>2019-12-04T16:25:51Z</time>
      </trkpt>
      <trkpt lat="59.238276" lon="18.119751">
        <ele>26</ele>
        <time>2019-12-04T16:25:52Z</time>
      </trkpt>
      <trkpt lat="59.238351" lon="18.119764">
        <ele>26</ele>
        <time>2019-12-04T16:25:53Z</time>
      </trkpt>
      <trkpt lat="59.238426" lon="18.119776">
        <ele>26</ele>
        <time>2019-12-04T16:25:54Z</time>
      </trkpt>
      <trkpt lat="59.2385" lon="18.119788">
        <ele>26</ele>
        <time>2019-12-04T16:25:55Z</time>
      </trkpt>
      <trkpt lat="59.238575" lon="18.119801">
        <ele>26</ele>
        <time>2019-12-04T16:25:56Z</time>
      </trkpt>
      <trkpt lat="59.238649" lon="18.119813">
        <ele>26</ele>
        <time>2019-12-04T16:25:57Z</time>
      </trkpt>
      <trkpt lat="59.238723" lon="18.119825">
        <ele>26</ele>
        <time>2019-12-04T16:25:58Z</time>
      </trkpt>
      <trkpt lat="59.238797" lon="18.119834">
        <ele>26</ele>
        <time>2019-12-04T16:25:59Z</time>
      </trkpt>
      <trkpt lat="59.23887" lon="18.119841">
        <ele>25</ele>
        <time>2019-12-04T16:26:00Z</time>
      </trkpt>
      <trkpt lat="59.238941" lon="18.119848">
        <ele>25</ele>
        <time>2019-12-04T16:26:01Z</time>
      </trkpt>
      <trkpt lat="59.239012" lon="18.119848">
        <ele>25</ele>
        <time>2019-12-04T16:26:02Z</time>
      </trkpt>
      <trkpt lat="59.23908" lon="18.119844">
        <ele>25</ele>
        <time>2019-12-04T16:26:03Z</time>
      </trkpt>
      <trkpt lat="59.23915" lon="18.119837">
        <ele>25</ele>
        <time>2019-12-04T16:26:04Z</time>
      </trkpt>
      <trkpt lat="59.239219" lon="18.119826">
        <ele>25</ele>
        <time>2019-12-04T16:26:05Z</time>
      </trkpt>
      <trkpt lat="59.239288" lon="18.119811">
        <ele>25</ele>
        <time>2019-12-04T16:26:06Z</time>
      </trkpt>
      <trkpt lat="59.239354" lon="18.119792">
        <ele>25</ele>
        <time>2019-12-04T16:26:07Z</time>
      </trkpt>
      <trkpt lat="59.239421" lon="18.119771">
        <ele>25</ele>
        <time>2019-12-04T16:26:08Z</time>
      </trkpt>
      <trkpt lat="59.23949" lon="18.119747">
        <ele>25</ele>
        <time>2019-12-04T16:26:09Z</time>
      </trkpt>
      <trkpt lat="59.239555" lon="18.119719">
        <ele>25</ele>
        <time>2019-12-04T16:26:10Z</time>
      </trkpt>
      <trkpt lat="59.23962" lon="18.11969">
        <ele>25</ele>
        <time>2019-12-04T16:26:11Z</time>
      </trkpt>
      <trkpt lat="59.239684" lon="18.119662">
        <ele>26</ele>
        <time>2019-12-04T16:26:12Z</time>
      </trkpt>
      <trkpt lat="59.239749" lon="18.119633">
        <ele>26</ele>
        <time>2019-12-04T16:26:13Z</time>
      </trkpt>
      <trkpt lat="59.239817" lon="18.119605">
        <ele>26</ele>
        <time>2019-12-04T16:26:14Z</time>
      </trkpt>
      <trkpt lat="59.239884" lon="18.119577">
        <ele>26</ele>
        <time>2019-12-04T16:26:15Z</time>
      </trkpt>
      <trkpt lat="59.239952" lon="18.11955">
        <ele>26</ele>
        <time>2019-12-04T16:26:16Z</time>
      </trkpt>
      <trkpt lat="59.240021" lon="18.119523">
        <ele>25</ele>
        <time>2019-12-04T16:26:17Z</time>
      </trkpt>
      <trkpt lat="59.240088" lon="18.119497">
        <ele>25</ele>
        <time>2019-12-04T16:26:18Z</time>
      </trkpt>
      <trkpt lat="59.240153" lon="18.11947">
        <ele>25</ele>
        <time>2019-12-04T16:26:19Z</time>
      </trkpt>
      <trkpt lat="59.240216" lon="18.119444">
        <ele>25</ele>
        <time>2019-12-04T16:26:20Z</time>
      </trkpt>
      <trkpt lat="59.240275" lon="18.119421">
        <ele>25</ele>
        <time>2019-12-04T16:26:21Z</time>
      </trkpt>
      <trkpt lat="59.240332" lon="18.119404">
        <ele>25</ele>
        <time>2019-12-04T16:26:22Z</time>
      </trkpt>
      <trkpt lat="59.240383" lon="18.119395">
        <ele>25</ele>
        <time>2019-12-04T16:26:23Z</time>
      </trkpt>
      <trkpt lat="59.240427" lon="18.119401">
        <ele>25</ele>
        <time>2019-12-04T16:26:24Z</time>
      </trkpt>
      <trkpt lat="59.240462" lon="18.119431">
        <ele>25</ele>
        <time>2019-12-04T16:26:25Z</time>
      </trkpt>
      <trkpt lat="59.240492" lon="18.11948">
        <ele>25</ele>
        <time>2019-12-04T16:26:26Z</time>
      </trkpt>
      <trkpt lat="59.240528" lon="18.119528">
        <ele>26</ele>
        <time>2019-12-04T16:26:27Z</time>
      </trkpt>
      <trkpt lat="59.24057" lon="18.119557">
        <ele>25</ele>
        <time>2019-12-04T16:26:28Z</time>
      </trkpt>
      <trkpt lat="59.240618" lon="18.119565">
        <ele>25</ele>
        <time>2019-12-04T16:26:29Z</time>
      </trkpt>
      <trkpt lat="59.240666" lon="18.119559">
        <ele>25</ele>
        <time>2019-12-04T16:26:30Z</time>
      </trkpt>
      <trkpt lat="59.240714" lon="18.119553">
        <ele>25</ele>
        <time>2019-12-04T16:26:31Z</time>
      </trkpt>
      <trkpt lat="59.240764" lon="18.119556">
        <ele>24</ele>
        <time>2019-12-04T16:26:32Z</time>
      </trkpt>
      <trkpt lat="59.240814" lon="18.119571">
        <ele>24</ele>
        <time>2019-12-04T16:26:33Z</time>
      </trkpt>
      <trkpt lat="59.240863" lon="18.119605">
        <ele>24</ele>
        <time>2019-12-04T16:26:34Z</time>
      </trkpt>
      <trkpt lat="59.240911" lon="18.119648">
        <ele>24</ele>
        <time>2019-12-04T16:26:35Z</time>
      </trkpt>
      <trkpt lat="59.240958" lon="18.119694">
        <ele>24</ele>
        <time>2019-12-04T16:26:36Z</time>
      </trkpt>
      <trkpt lat="59.240998" lon="18.119733">
        <ele>24</ele>
        <time>2019-12-04T16:26:37Z</time>
      </trkpt>
      <trkpt lat="59.24104" lon="18.119777">
        <ele>24</ele>
        <time>2019-12-04T16:26:38Z</time>
      </trkpt>
      <trkpt lat="59.241081" lon="18.11983">
        <ele>24</ele>
        <time>2019-12-04T16:26:39Z</time>
      </trkpt>
      <trkpt lat="59.241072" lon="18.119526">
        <ele>24</ele>
        <time>2019-12-04T16:26:46Z</time>
      </trkpt>
      <trkpt lat="59.24113" lon="18.119275">
        <ele>24</ele>
        <time>2019-12-04T16:26:48Z</time>
      </trkpt>
      <trkpt lat="59.241176" lon="18.11922">
        <ele>24</ele>
        <time>2019-12-04T16:26:49Z</time>
      </trkpt>
      <trkpt lat="59.24122" lon="18.119195">
        <ele>24</ele>
        <time>2019-12-04T16:26:50Z</time>
      </trkpt>
      <trkpt lat="59.241266" lon="18.11918">
        <ele>24</ele>
        <time>2019-12-04T16:26:51Z</time>
      </trkpt>
      <trkpt lat="59.241313" lon="18.119169">
        <ele>24</ele>
        <time>2019-12-04T16:26:52Z</time>
      </trkpt>
      <trkpt lat="59.24136" lon="18.11916">
        <ele>24</ele>
        <time>2019-12-04T16:26:53Z</time>
      </trkpt>
      <trkpt lat="59.241396" lon="18.119162">
        <ele>24</ele>
        <time>2019-12-04T16:26:54Z</time>
      </trkpt>
      <trkpt lat="59.241486" lon="18.119194">
        <ele>24</ele>
        <time>2019-12-04T16:26:56Z</time>
      </trkpt>
      <trkpt lat="59.2416" lon="18.11926">
        <ele>23</ele>
        <time>2019-12-04T16:26:58Z</time>
      </trkpt>
      <trkpt lat="59.241651" lon="18.119292">
        <ele>23</ele>
        <time>2019-12-04T16:26:59Z</time>
      </trkpt>
      <trkpt lat="59.241694" lon="18.11932">
        <ele>24</ele>
        <time>2019-12-04T16:27:00Z</time>
      </trkpt>
      <trkpt lat="59.241739" lon="18.119347">
        <ele>23</ele>
        <time>2019-12-04T16:27:01Z</time>
      </trkpt>
      <trkpt lat="59.24179" lon="18.119364">
        <ele>23</ele>
        <time>2019-12-04T16:27:02Z</time>
      </trkpt>
      <trkpt lat="59.241841" lon="18.119366">
        <ele>23</ele>
        <time>2019-12-04T16:27:03Z</time>
      </trkpt>
      <trkpt lat="59.241889" lon="18.119355">
        <ele>23</ele>
        <time>2019-12-04T16:27:04Z</time>
      </trkpt>
      <trkpt lat="59.241934" lon="18.119336">
        <ele>23</ele>
        <time>2019-12-04T16:27:05Z</time>
      </trkpt>
      <trkpt lat="59.241981" lon="18.119316">
        <ele>23</ele>
        <time>2019-12-04T16:27:06Z</time>
      </trkpt>
      <trkpt lat="59.24203" lon="18.119297">
        <ele>23</ele>
        <time>2019-12-04T16:27:07Z</time>
      </trkpt>
      <trkpt lat="59.24208" lon="18.119276">
        <ele>23</ele>
        <time>2019-12-04T16:27:08Z</time>
      </trkpt>
      <trkpt lat="59.242129" lon="18.119253">
        <ele>23</ele>
        <time>2019-12-04T16:27:09Z</time>
      </trkpt>
      <trkpt lat="59.242179" lon="18.119223">
        <ele>23</ele>
        <time>2019-12-04T16:27:10Z</time>
      </trkpt>
      <trkpt lat="59.242226" lon="18.119188">
        <ele>23</ele>
        <time>2019-12-04T16:27:11Z</time>
      </trkpt>
      <trkpt lat="59.242273" lon="18.11915">
        <ele>22</ele>
        <time>2019-12-04T16:27:12Z</time>
      </trkpt>
      <trkpt lat="59.242321" lon="18.119105">
        <ele>22</ele>
        <time>2019-12-04T16:27:13Z</time>
      </trkpt>
      <trkpt lat="59.24237" lon="18.119055">
        <ele>22</ele>
        <time>2019-12-04T16:27:14Z</time>
      </trkpt>
      <trkpt lat="59.242417" lon="18.119005">
        <ele>22</ele>
        <time>2019-12-04T16:27:15Z</time>
      </trkpt>
      <trkpt lat="59.242464" lon="18.118944">
        <ele>22</ele>
        <time>2019-12-04T16:27:16Z</time>
      </trkpt>
      <trkpt lat="59.242508" lon="18.118872">
        <ele>22</ele>
        <time>2019-12-04T16:27:17Z</time>
      </trkpt>
      <trkpt lat="59.242546" lon="18.118784">
        <ele>22</ele>
        <time>2019-12-04T16:27:18Z</time>
      </trkpt>
      <trkpt lat="59.242581" lon="18.118692">
        <ele>22</ele>
        <time>2019-12-04T16:27:19Z</time>
      </trkpt>
      <trkpt lat="59.242612" lon="18.118593">
        <ele>22</ele>
        <time>2019-12-04T16:27:20Z</time>
      </trkpt>
      <trkpt lat="59.242641" lon="18.118494">
        <ele>22</ele>
        <time>2019-12-04T16:27:21Z</time>
      </trkpt>
      <trkpt lat="59.242671" lon="18.118395">
        <ele>22</ele>
        <time>2019-12-04T16:27:22Z</time>
      </trkpt>
      <trkpt lat="59.242699" lon="18.118297">
        <ele>22</ele>
        <time>2019-12-04T16:27:23Z</time>
      </trkpt>
      <trkpt lat="59.242727" lon="18.118197">
        <ele>22</ele>
        <time>2019-12-04T16:27:24Z</time>
      </trkpt>
      <trkpt lat="59.242754" lon="18.118096">
        <ele>22</ele>
        <time>2019-12-04T16:27:25Z</time>
      </trkpt>
      <trkpt lat="59.242782" lon="18.117994">
        <ele>22</ele>
        <time>2019-12-04T16:27:26Z</time>
      </trkpt>
      <trkpt lat="59.24281" lon="18.117895">
        <ele>22</ele>
        <time>2019-12-04T16:27:27Z</time>
      </trkpt>
      <trkpt lat="59.24284" lon="18.117797">
        <ele>22</ele>
        <time>2019-12-04T16:27:28Z</time>
      </trkpt>
      <trkpt lat="59.242871" lon="18.117698">
        <ele>22</ele>
        <time>2019-12-04T16:27:29Z</time>
      </trkpt>
      <trkpt lat="59.2429" lon="18.1176">
        <ele>22</ele>
        <time>2019-12-04T16:27:30Z</time>
      </trkpt>
      <trkpt lat="59.242931" lon="18.117502">
        <ele>22</ele>
        <time>2019-12-04T16:27:31Z</time>
      </trkpt>
      <trkpt lat="59.24296" lon="18.117406">
        <ele>22</ele>
        <time>2019-12-04T16:27:32Z</time>
      </trkpt>
      <trkpt lat="59.24299" lon="18.117315">
        <ele>22</ele>
        <time>2019-12-04T16:27:33Z</time>
      </trkpt>
      <trkpt lat="59.243022" lon="18.117227">
        <ele>22</ele>
        <time>2019-12-04T16:27:34Z</time>
      </trkpt>
      <trkpt lat="59.243051" lon="18.117139">
        <ele>22</ele>
        <time>2019-12-04T16:27:35Z</time>
      </trkpt>
      <trkpt lat="59.243079" lon="18.117046">
        <ele>22</ele>
        <time>2019-12-04T16:27:36Z</time>
      </trkpt>
      <trkpt lat="59.243108" lon="18.116957">
        <ele>21</ele>
        <time>2019-12-04T16:27:37Z</time>
      </trkpt>
      <trkpt lat="59.243138" lon="18.116868">
        <ele>21</ele>
        <time>2019-12-04T16:27:38Z</time>
      </trkpt>
      <trkpt lat="59.243166" lon="18.116778">
        <ele>22</ele>
        <time>2019-12-04T16:27:39Z</time>
      </trkpt>
      <trkpt lat="59.243195" lon="18.116691">
        <ele>22</ele>
        <time>2019-12-04T16:27:40Z</time>
      </trkpt>
      <trkpt lat="59.243223" lon="18.116607">
        <ele>22</ele>
        <time>2019-12-04T16:27:41Z</time>
      </trkpt>
      <trkpt lat="59.243249" lon="18.116518">
        <ele>21</ele>
        <time>2019-12-04T16:27:42Z</time>
      </trkpt>
      <trkpt lat="59.243276" lon="18.116432">
        <ele>21</ele>
        <time>2019-12-04T16:27:43Z</time>
      </trkpt>
      <trkpt lat="59.243305" lon="18.116345">
        <ele>21</ele>
        <time>2019-12-04T16:27:44Z</time>
      </trkpt>
      <trkpt lat="59.243333" lon="18.11626">
        <ele>21</ele>
        <time>2019-12-04T16:27:45Z</time>
      </trkpt>
      <trkpt lat="59.243362" lon="18.116176">
        <ele>21</ele>
        <time>2019-12-04T16:27:46Z</time>
      </trkpt>
      <trkpt lat="59.24339" lon="18.116092">
        <ele>21</ele>
        <time>2019-12-04T16:27:47Z</time>
      </trkpt>
      <trkpt lat="59.243418" lon="18.116009">
        <ele>20</ele>
        <time>2019-12-04T16:27:48Z</time>
      </trkpt>
      <trkpt lat="59.243445" lon="18.115926">
        <ele>20</ele>
        <time>2019-12-04T16:27:49Z</time>
      </trkpt>
      <trkpt lat="59.243471" lon="18.115844">
        <ele>20</ele>
        <time>2019-12-04T16:27:50Z</time>
      </trkpt>
      <trkpt lat="59.243496" lon="18.115762">
        <ele>20</ele>
        <time>2019-12-04T16:27:51Z</time>
      </trkpt>
      <trkpt lat="59.243522" lon="18.115678">
        <ele>20</ele>
        <time>2019-12-04T16:27:52Z</time>
      </trkpt>
      <trkpt lat="59.243547" lon="18.115593">
        <ele>20</ele>
        <time>2019-12-04T16:27:53Z</time>
      </trkpt>
      <trkpt lat="59.243567" lon="18.115504">
        <ele>20</ele>
        <time>2019-12-04T16:27:54Z</time>
      </trkpt>
      <trkpt lat="59.243582" lon="18.115412">
        <ele>20</ele>
        <time>2019-12-04T16:27:55Z</time>
      </trkpt>
      <trkpt lat="59.243591" lon="18.115317">
        <ele>20</ele>
        <time>2019-12-04T16:27:56Z</time>
      </trkpt>
      <trkpt lat="59.243597" lon="18.115223">
        <ele>20</ele>
        <time>2019-12-04T16:27:57Z</time>
      </trkpt>
      <trkpt lat="59.243604" lon="18.11513">
        <ele>20</ele>
        <time>2019-12-04T16:27:58Z</time>
      </trkpt>
      <trkpt lat="59.243612" lon="18.115041">
        <ele>20</ele>
        <time>2019-12-04T16:27:59Z</time>
      </trkpt>
      <trkpt lat="59.243625" lon="18.114954">
        <ele>20</ele>
        <time>2019-12-04T16:28:00Z</time>
      </trkpt>
      <trkpt lat="59.243645" lon="18.114871">
        <ele>20</ele>
        <time>2019-12-04T16:28:01Z</time>
      </trkpt>
      <trkpt lat="59.243663" lon="18.114786">
        <ele>20</ele>
        <time>2019-12-04T16:28:02Z</time>
      </trkpt>
      <trkpt lat="59.243681" lon="18.114702">
        <ele>21</ele>
        <time>2019-12-04T16:28:03Z</time>
      </trkpt>
      <trkpt lat="59.243695" lon="18.114613">
        <ele>21</ele>
        <time>2019-12-04T16:28:04Z</time>
      </trkpt>
      <trkpt lat="59.243712" lon="18.114524">
        <ele>21</ele>
        <time>2019-12-04T16:28:05Z</time>
      </trkpt>
      <trkpt lat="59.243733" lon="18.114439">
        <ele>21</ele>
        <time>2019-12-04T16:28:06Z</time>
      </trkpt>
      <trkpt lat="59.24375" lon="18.114349">
        <ele>21</ele>
        <time>2019-12-04T16:28:07Z</time>
      </trkpt>
      <trkpt lat="59.24376" lon="18.114252">
        <ele>21</ele>
        <time>2019-12-04T16:28:08Z</time>
      </trkpt>
      <trkpt lat="59.243769" lon="18.114152">
        <ele>22</ele>
        <time>2019-12-04T16:28:09Z</time>
      </trkpt>
      <trkpt lat="59.243777" lon="18.114053">
        <ele>22</ele>
        <time>2019-12-04T16:28:10Z</time>
      </trkpt>
      <trkpt lat="59.243786" lon="18.113957">
        <ele>22</ele>
        <time>2019-12-04T16:28:11Z</time>
      </trkpt>
      <trkpt lat="59.243797" lon="18.113861">
        <ele>22</ele>
        <time>2019-12-04T16:28:12Z</time>
      </trkpt>
      <trkpt lat="59.243811" lon="18.113769">
        <ele>22</ele>
        <time>2019-12-04T16:28:13Z</time>
      </trkpt>
      <trkpt lat="59.24382" lon="18.113673">
        <ele>22</ele>
        <time>2019-12-04T16:28:14Z</time>
      </trkpt>
      <trkpt lat="59.243831" lon="18.113581">
        <ele>22</ele>
        <time>2019-12-04T16:28:15Z</time>
      </trkpt>
      <trkpt lat="59.243844" lon="18.113491">
        <ele>22</ele>
        <time>2019-12-04T16:28:16Z</time>
      </trkpt>
      <trkpt lat="59.243854" lon="18.1134">
        <ele>22</ele>
        <time>2019-12-04T16:28:17Z</time>
      </trkpt>
      <trkpt lat="59.243861" lon="18.113305">
        <ele>22</ele>
        <time>2019-12-04T16:28:18Z</time>
      </trkpt>
      <trkpt lat="59.24387" lon="18.113213">
        <ele>22</ele>
        <time>2019-12-04T16:28:19Z</time>
      </trkpt>
      <trkpt lat="59.243876" lon="18.113119">
        <ele>22</ele>
        <time>2019-12-04T16:28:20Z</time>
      </trkpt>
      <trkpt lat="59.243882" lon="18.113025">
        <ele>22</ele>
        <time>2019-12-04T16:28:21Z</time>
      </trkpt>
      <trkpt lat="59.243889" lon="18.112932">
        <ele>22</ele>
        <time>2019-12-04T16:28:22Z</time>
      </trkpt>
      <trkpt lat="59.243894" lon="18.112838">
        <ele>22</ele>
        <time>2019-12-04T16:28:23Z</time>
      </trkpt>
      <trkpt lat="59.243898" lon="18.112743">
        <ele>22</ele>
        <time>2019-12-04T16:28:24Z</time>
      </trkpt>
      <trkpt lat="59.243902" lon="18.112647">
        <ele>22</ele>
        <time>2019-12-04T16:28:25Z</time>
      </trkpt>
      <trkpt lat="59.243904" lon="18.112549">
        <ele>22</ele>
        <time>2019-12-04T16:28:26Z</time>
      </trkpt>
      <trkpt lat="59.243906" lon="18.11245">
        <ele>22</ele>
        <time>2019-12-04T16:28:27Z</time>
      </trkpt>
      <trkpt lat="59.243907" lon="18.112353">
        <ele>22</ele>
        <time>2019-12-04T16:28:28Z</time>
      </trkpt>
      <trkpt lat="59.243908" lon="18.112257">
        <ele>22</ele>
        <time>2019-12-04T16:28:29Z</time>
      </trkpt>
      <trkpt lat="59.24391" lon="18.112165">
        <ele>22</ele>
        <time>2019-12-04T16:28:30Z</time>
      </trkpt>
      <trkpt lat="59.243911" lon="18.112072">
        <ele>22</ele>
        <time>2019-12-04T16:28:31Z</time>
      </trkpt>
      <trkpt lat="59.243912" lon="18.111981">
        <ele>22</ele>
        <time>2019-12-04T16:28:32Z</time>
      </trkpt>
      <trkpt lat="59.243914" lon="18.111891">
        <ele>22</ele>
        <time>2019-12-04T16:28:33Z</time>
      </trkpt>
      <trkpt lat="59.243915" lon="18.111804">
        <ele>22</ele>
        <time>2019-12-04T16:28:34Z</time>
      </trkpt>
      <trkpt lat="59.243917" lon="18.111718">
        <ele>22</ele>
        <time>2019-12-04T16:28:35Z</time>
      </trkpt>
      <trkpt lat="59.243918" lon="18.111635">
        <ele>22</ele>
        <time>2019-12-04T16:28:36Z</time>
      </trkpt>
      <trkpt lat="59.24392" lon="18.111551">
        <ele>22</ele>
        <time>2019-12-04T16:28:37Z</time>
      </trkpt>
      <trkpt lat="59.243921" lon="18.111469">
        <ele>23</ele>
        <time>2019-12-04T16:28:38Z</time>
      </trkpt>
      <trkpt lat="59.243923" lon="18.111388">
        <ele>23</ele>
        <time>2019-12-04T16:28:39Z</time>
      </trkpt>
      <trkpt lat="59.243924" lon="18.111308">
        <ele>23</ele>
        <time>2019-12-04T16:28:40Z</time>
      </trkpt>
      <trkpt lat="59.243927" lon="18.11123">
        <ele>23</ele>
        <time>2019-12-04T16:28:41Z</time>
      </trkpt>
      <trkpt lat="59.243929" lon="18.111153">
        <ele>23</ele>
        <time>2019-12-04T16:28:42Z</time>
      </trkpt>
      <trkpt lat="59.24393" lon="18.111078">
        <ele>23</ele>
        <time>2019-12-04T16:28:43Z</time>
      </trkpt>
      <trkpt lat="59.24393" lon="18.111003">
        <ele>23</ele>
        <time>2019-12-04T16:28:44Z</time>
      </trkpt>
      <trkpt lat="59.24393" lon="18.110926">
        <ele>23</ele>
        <time>2019-12-04T16:28:45Z</time>
      </trkpt>
      <trkpt lat="59.24393" lon="18.110848">
        <ele>23</ele>
        <time>2019-12-04T16:28:46Z</time>
      </trkpt>
      <trkpt lat="59.243935" lon="18.110775">
        <ele>23</ele>
        <time>2019-12-04T16:28:47Z</time>
      </trkpt>
      <trkpt lat="59.243939" lon="18.1107">
        <ele>23</ele>
        <time>2019-12-04T16:28:48Z</time>
      </trkpt>
      <trkpt lat="59.243942" lon="18.110624">
        <ele>23</ele>
        <time>2019-12-04T16:28:49Z</time>
      </trkpt>
      <trkpt lat="59.243944" lon="18.110548">
        <ele>23</ele>
        <time>2019-12-04T16:28:50Z</time>
      </trkpt>
      <trkpt lat="59.243946" lon="18.11047">
        <ele>23</ele>
        <time>2019-12-04T16:28:51Z</time>
      </trkpt>
      <trkpt lat="59.243947" lon="18.11039">
        <ele>23</ele>
        <time>2019-12-04T16:28:52Z</time>
      </trkpt>
      <trkpt lat="59.243947" lon="18.110308">
        <ele>24</ele>
        <time>2019-12-04T16:28:53Z</time>
      </trkpt>
      <trkpt lat="59.243946" lon="18.110226">
        <ele>24</ele>
        <time>2019-12-04T16:28:54Z</time>
      </trkpt>
      <trkpt lat="59.243947" lon="18.110147">
        <ele>24</ele>
        <time>2019-12-04T16:28:55Z</time>
      </trkpt>
      <trkpt lat="59.243949" lon="18.11007">
        <ele>24</ele>
        <time>2019-12-04T16:28:56Z</time>
      </trkpt>
      <trkpt lat="59.243952" lon="18.109993">
        <ele>24</ele>
        <time>2019-12-04T16:28:57Z</time>
      </trkpt>
      <trkpt lat="59.243955" lon="18.109916">
        <ele>24</ele>
        <time>2019-12-04T16:28:58Z</time>
      </trkpt>
      <trkpt lat="59.24396" lon="18.109838">
        <ele>24</ele>
        <time>2019-12-04T16:28:59Z</time>
      </trkpt>
      <trkpt lat="59.243966" lon="18.109762">
        <ele>25</ele>
        <time>2019-12-04T16:29:00Z</time>
      </trkpt>
      <trkpt lat="59.243973" lon="18.109685">
        <ele>25</ele>
        <time>2019-12-04T16:29:01Z</time>
      </trkpt>
      <trkpt lat="59.243981" lon="18.10961">
        <ele>25</ele>
        <time>2019-12-04T16:29:02Z</time>
      </trkpt>
      <trkpt lat="59.243991" lon="18.109535">
        <ele>25</ele>
        <time>2019-12-04T16:29:03Z</time>
      </trkpt>
      <trkpt lat="59.244003" lon="18.10946">
        <ele>25</ele>
        <time>2019-12-04T16:29:04Z</time>
      </trkpt>
      <trkpt lat="59.244017" lon="18.109388">
        <ele>26</ele>
        <time>2019-12-04T16:29:05Z</time>
      </trkpt>
      <trkpt lat="59.244034" lon="18.109316">
        <ele>26</ele>
        <time>2019-12-04T16:29:06Z</time>
      </trkpt>
      <trkpt lat="59.244053" lon="18.109247">
        <ele>26</ele>
        <time>2019-12-04T16:29:07Z</time>
      </trkpt>
      <trkpt lat="59.244074" lon="18.109183">
        <ele>26</ele>
        <time>2019-12-04T16:29:08Z</time>
      </trkpt>
      <trkpt lat="59.244096" lon="18.109118">
        <ele>26</ele>
        <time>2019-12-04T16:29:09Z</time>
      </trkpt>
      <trkpt lat="59.244119" lon="18.109054">
        <ele>26</ele>
        <time>2019-12-04T16:29:10Z</time>
      </trkpt>
      <trkpt lat="59.244144" lon="18.108991">
        <ele>26</ele>
        <time>2019-12-04T16:29:11Z</time>
      </trkpt>
      <trkpt lat="59.244169" lon="18.10893">
        <ele>26</ele>
        <time>2019-12-04T16:29:12Z</time>
      </trkpt>
      <trkpt lat="59.244196" lon="18.108871">
        <ele>26</ele>
        <time>2019-12-04T16:29:13Z</time>
      </trkpt>
      <trkpt lat="59.244223" lon="18.108811">
        <ele>26</ele>
        <time>2019-12-04T16:29:14Z</time>
      </trkpt>
      <trkpt lat="59.244252" lon="18.108754">
        <ele>27</ele>
        <time>2019-12-04T16:29:15Z</time>
      </trkpt>
      <trkpt lat="59.24428" lon="18.108696">
        <ele>27</ele>
        <time>2019-12-04T16:29:16Z</time>
      </trkpt>
      <trkpt lat="59.244309" lon="18.108639">
        <ele>27</ele>
        <time>2019-12-04T16:29:17Z</time>
      </trkpt>
      <trkpt lat="59.244339" lon="18.108582">
        <ele>27</ele>
        <time>2019-12-04T16:29:18Z</time>
      </trkpt>
      <trkpt lat="59.244368" lon="18.108524">
        <ele>27</ele>
        <time>2019-12-04T16:29:19Z</time>
      </trkpt>
      <trkpt lat="59.244398" lon="18.108469">
        <ele>27</ele>
        <time>2019-12-04T16:29:20Z</time>
      </trkpt>
      <trkpt lat="59.244427" lon="18.108415">
        <ele>27</ele>
        <time>2019-12-04T16:29:21Z</time>
      </trkpt>
      <trkpt lat="59.244459" lon="18.108363">
        <ele>27</ele>
        <time>2019-12-04T16:29:22Z</time>
      </trkpt>
      <trkpt lat="59.24449" lon="18.108309">
        <ele>27</ele>
        <time>2019-12-04T16:29:23Z</time>
      </trkpt>
      <trkpt lat="59.244523" lon="18.108253">
        <ele>27</ele>
        <time>2019-12-04T16:29:24Z</time>
      </trkpt>
      <trkpt lat="59.244553" lon="18.108196">
        <ele>27</ele>
        <time>2019-12-04T16:29:25Z</time>
      </trkpt>
      <trkpt lat="59.244583" lon="18.108138">
        <ele>27</ele>
        <time>2019-12-04T16:29:26Z</time>
      </trkpt>
      <trkpt lat="59.244613" lon="18.108084">
        <ele>27</ele>
        <time>2019-12-04T16:29:27Z</time>
      </trkpt>
      <trkpt lat="59.244642" lon="18.108029">
        <ele>27</ele>
        <time>2019-12-04T16:29:28Z</time>
      </trkpt>
      <trkpt lat="59.24467" lon="18.107971">
        <ele>27</ele>
        <time>2019-12-04T16:29:29Z</time>
      </trkpt>
      <trkpt lat="59.244698" lon="18.107913">
        <ele>28</ele>
        <time>2019-12-04T16:29:30Z</time>
      </trkpt>
      <trkpt lat="59.244728" lon="18.107859">
        <ele>28</ele>
        <time>2019-12-04T16:29:31Z</time>
      </trkpt>
      <trkpt lat="59.244758" lon="18.107802">
        <ele>28</ele>
        <time>2019-12-04T16:29:32Z</time>
      </trkpt>
      <trkpt lat="59.244788" lon="18.107745">
        <ele>28</ele>
        <time>2019-12-04T16:29:33Z</time>
      </trkpt>
      <trkpt lat="59.24482" lon="18.107687">
        <ele>28</ele>
        <time>2019-12-04T16:29:34Z</time>
      </trkpt>
      <trkpt lat="59.244855" lon="18.107634">
        <ele>28</ele>
        <time>2019-12-04T16:29:35Z</time>
      </trkpt>
      <trkpt lat="59.244888" lon="18.107574">
        <ele>28</ele>
        <time>2019-12-04T16:29:36Z</time>
      </trkpt>
      <trkpt lat="59.244922" lon="18.107513">
        <ele>28</ele>
        <time>2019-12-04T16:29:37Z</time>
      </trkpt>
      <trkpt lat="59.24496" lon="18.107457">
        <ele>28</ele>
        <time>2019-12-04T16:29:38Z</time>
      </trkpt>
      <trkpt lat="59.244997" lon="18.107397">
        <ele>28</ele>
        <time>2019-12-04T16:29:39Z</time>
      </trkpt>
      <trkpt lat="59.245035" lon="18.107337">
        <ele>28</ele>
        <time>2019-12-04T16:29:40Z</time>
      </trkpt>
      <trkpt lat="59.245075" lon="18.107275">
        <ele>28</ele>
        <time>2019-12-04T16:29:41Z</time>
      </trkpt>
      <trkpt lat="59.245113" lon="18.107206">
        <ele>28</ele>
        <time>2019-12-04T16:29:42Z</time>
      </trkpt>
      <trkpt lat="59.24515" lon="18.107134">
        <ele>28</ele>
        <time>2019-12-04T16:29:43Z</time>
      </trkpt>
      <trkpt lat="59.245188" lon="18.107059">
        <ele>29</ele>
        <time>2019-12-04T16:29:44Z</time>
      </trkpt>
      <trkpt lat="59.245229" lon="18.106981">
        <ele>29</ele>
        <time>2019-12-04T16:29:45Z</time>
      </trkpt>
      <trkpt lat="59.245272" lon="18.106905">
        <ele>28</ele>
        <time>2019-12-04T16:29:46Z</time>
      </trkpt>
      <trkpt lat="59.245316" lon="18.106827">
        <ele>28</ele>
        <time>2019-12-04T16:29:47Z</time>
      </trkpt>
      <trkpt lat="59.245359" lon="18.106745">
        <ele>28</ele>
        <time>2019-12-04T16:29:48Z</time>
      </trkpt>
      <trkpt lat="59.245405" lon="18.106661">
        <ele>28</ele>
        <time>2019-12-04T16:29:49Z</time>
      </trkpt>
      <trkpt lat="59.24545" lon="18.106577">
        <ele>28</ele>
        <time>2019-12-04T16:29:50Z</time>
      </trkpt>
      <trkpt lat="59.245497" lon="18.10649">
        <ele>28</ele>
        <time>2019-12-04T16:29:51Z</time>
      </trkpt>
      <trkpt lat="59.245545" lon="18.106401">
        <ele>28</ele>
        <time>2019-12-04T16:29:52Z</time>
      </trkpt>
      <trkpt lat="59.245597" lon="18.106313">
        <ele>28</ele>
        <time>2019-12-04T16:29:53Z</time>
      </trkpt>
      <trkpt lat="59.245651" lon="18.106222">
        <ele>28</ele>
        <time>2019-12-04T16:29:54Z</time>
      </trkpt>
      <trkpt lat="59.245705" lon="18.10614">
        <ele>28</ele>
        <time>2019-12-04T16:29:55Z</time>
      </trkpt>
      <trkpt lat="59.24576" lon="18.106059">
        <ele>28</ele>
        <time>2019-12-04T16:29:56Z</time>
      </trkpt>
      <trkpt lat="59.245815" lon="18.105974">
        <ele>27</ele>
        <time>2019-12-04T16:29:57Z</time>
      </trkpt>
      <trkpt lat="59.245873" lon="18.105886">
        <ele>27</ele>
        <time>2019-12-04T16:29:58Z</time>
      </trkpt>
      <trkpt lat="59.24593" lon="18.1058">
        <ele>27</ele>
        <time>2019-12-04T16:29:59Z</time>
      </trkpt>
      <trkpt lat="59.245987" lon="18.105716">
        <ele>27</ele>
        <time>2019-12-04T16:30:00Z</time>
      </trkpt>
      <trkpt lat="59.246041" lon="18.105632">
        <ele>27</ele>
        <time>2019-12-04T16:30:01Z</time>
      </trkpt>
      <trkpt lat="59.246097" lon="18.10555">
        <ele>27</ele>
        <time>2019-12-04T16:30:02Z</time>
      </trkpt>
      <trkpt lat="59.246157" lon="18.105471">
        <ele>27</ele>
        <time>2019-12-04T16:30:03Z</time>
      </trkpt>
      <trkpt lat="59.246223" lon="18.10541">
        <ele>27</ele>
        <time>2019-12-04T16:30:04Z</time>
      </trkpt>
      <trkpt lat="59.246295" lon="18.105372">
        <ele>27</ele>
        <time>2019-12-04T16:30:05Z</time>
      </trkpt>
      <trkpt lat="59.246367" lon="18.105346">
        <ele>27</ele>
        <time>2019-12-04T16:30:06Z</time>
      </trkpt>
      <trkpt lat="59.246442" lon="18.10532">
        <ele>26</ele>
        <time>2019-12-04T16:30:07Z</time>
      </trkpt>
      <trkpt lat="59.246516" lon="18.105291">
        <ele>26</ele>
        <time>2019-12-04T16:30:08Z</time>
      </trkpt>
      <trkpt lat="59.246589" lon="18.10524">
        <ele>26</ele>
        <time>2019-12-04T16:30:09Z</time>
      </trkpt>
      <trkpt lat="59.246657" lon="18.105157">
        <ele>25</ele>
        <time>2019-12-04T16:30:10Z</time>
      </trkpt>
      <trkpt lat="59.246723" lon="18.105062">
        <ele>25</ele>
        <time>2019-12-04T16:30:11Z</time>
      </trkpt>
      <trkpt lat="59.246788" lon="18.104968">
        <ele>25</ele>
        <time>2019-12-04T16:30:12Z</time>
      </trkpt>
      <trkpt lat="59.246848" lon="18.104886">
        <ele>24</ele>
        <time>2019-12-04T16:30:13Z</time>
      </trkpt>
      <trkpt lat="59.246902" lon="18.104813">
        <ele>24</ele>
        <time>2019-12-04T16:30:14Z</time>
      </trkpt>
      <trkpt lat="59.246938" lon="18.104725">
        <ele>24</ele>
        <time>2019-12-04T16:30:15Z</time>
      </trkpt>
      <trkpt lat="59.246953" lon="18.104623">
        <ele>24</ele>
        <time>2019-12-04T16:30:16Z</time>
      </trkpt>
      <trkpt lat="59.246955" lon="18.104523">
        <ele>24</ele>
        <time>2019-12-04T16:30:17Z</time>
      </trkpt>
      <trkpt lat="59.246948" lon="18.104426">
        <ele>24</ele>
        <time>2019-12-04T16:30:18Z</time>
      </trkpt>
      <trkpt lat="59.246938" lon="18.104333">
        <ele>24</ele>
        <time>2019-12-04T16:30:19Z</time>
      </trkpt>
      <trkpt lat="59.246935" lon="18.104235">
        <ele>24</ele>
        <time>2019-12-04T16:30:20Z</time>
      </trkpt>
      <trkpt lat="59.246943" lon="18.104129">
        <ele>24</ele>
        <time>2019-12-04T16:30:21Z</time>
      </trkpt>
      <trkpt lat="59.246956" lon="18.10401">
        <ele>24</ele>
        <time>2019-12-04T16:30:22Z</time>
      </trkpt>
      <trkpt lat="59.246974" lon="18.103901">
        <ele>24</ele>
        <time>2019-12-04T16:30:23Z</time>
      </trkpt>
      <trkpt lat="59.246991" lon="18.103795">
        <ele>24</ele>
        <time>2019-12-04T16:30:24Z</time>
      </trkpt>
      <trkpt lat="59.247013" lon="18.1037">
        <ele>24</ele>
        <time>2019-12-04T16:30:25Z</time>
      </trkpt>
      <trkpt lat="59.24704" lon="18.103618">
        <ele>24</ele>
        <time>2019-12-04T16:30:26Z</time>
      </trkpt>
      <trkpt lat="59.247067" lon="18.103545">
        <ele>24</ele>
        <time>2019-12-04T16:30:27Z</time>
      </trkpt>
      <trkpt lat="59.247098" lon="18.103482">
        <ele>24</ele>
        <time>2019-12-04T16:30:28Z</time>
      </trkpt>
      <trkpt lat="59.247135" lon="18.10343">
        <ele>24</ele>
        <time>2019-12-04T16:30:29Z</time>
      </trkpt>
      <trkpt lat="59.247168" lon="18.103379">
        <ele>24</ele>
        <time>2019-12-04T16:30:30Z</time>
      </trkpt>
      <trkpt lat="59.247203" lon="18.103327">
        <ele>24</ele>
        <time>2019-12-04T16:30:31Z</time>
      </trkpt>
      <trkpt lat="59.24728" lon="18.103222">
        <ele>24</ele>
        <time>2019-12-04T16:30:33Z</time>
      </trkpt>
      <trkpt lat="59.247316" lon="18.103168">
        <ele>24</ele>
        <time>2019-12-04T16:30:34Z</time>
      </trkpt>
      <trkpt lat="59.24735" lon="18.103113">
        <ele>24</ele>
        <time>2019-12-04T16:30:35Z</time>
      </trkpt>
      <trkpt lat="59.247383" lon="18.103059">
        <ele>24</ele>
        <time>2019-12-04T16:30:36Z</time>
      </trkpt>
      <trkpt lat="59.247414" lon="18.103004">
        <ele>24</ele>
        <time>2019-12-04T16:30:37Z</time>
      </trkpt>
      <trkpt lat="59.247443" lon="18.102949">
        <ele>25</ele>
        <time>2019-12-04T16:30:38Z</time>
      </trkpt>
      <trkpt lat="59.247471" lon="18.102892">
        <ele>25</ele>
        <time>2019-12-04T16:30:39Z</time>
      </trkpt>
      <trkpt lat="59.247498" lon="18.102829">
        <ele>25</ele>
        <time>2019-12-04T16:30:40Z</time>
      </trkpt>
      <trkpt lat="59.247522" lon="18.102761">
        <ele>25</ele>
        <time>2019-12-04T16:30:41Z</time>
      </trkpt>
      <trkpt lat="59.247541" lon="18.102691">
        <ele>25</ele>
        <time>2019-12-04T16:30:42Z</time>
      </trkpt>
      <trkpt lat="59.247559" lon="18.102618">
        <ele>25</ele>
        <time>2019-12-04T16:30:43Z</time>
      </trkpt>
      <trkpt lat="59.247578" lon="18.102544">
        <ele>25</ele>
        <time>2019-12-04T16:30:44Z</time>
      </trkpt>
      <trkpt lat="59.2476" lon="18.102473">
        <ele>26</ele>
        <time>2019-12-04T16:30:45Z</time>
      </trkpt>
      <trkpt lat="59.247618" lon="18.102397">
        <ele>26</ele>
        <time>2019-12-04T16:30:46Z</time>
      </trkpt>
      <trkpt lat="59.247636" lon="18.102317">
        <ele>26</ele>
        <time>2019-12-04T16:30:47Z</time>
      </trkpt>
      <trkpt lat="59.247655" lon="18.102237">
        <ele>26</ele>
        <time>2019-12-04T16:30:48Z</time>
      </trkpt>
      <trkpt lat="59.247673" lon="18.102156">
        <ele>26</ele>
        <time>2019-12-04T16:30:49Z</time>
      </trkpt>
      <trkpt lat="59.24769" lon="18.102075">
        <ele>26</ele>
        <time>2019-12-04T16:30:50Z</time>
      </trkpt>
      <trkpt lat="59.247706" lon="18.101994">
        <ele>26</ele>
        <time>2019-12-04T16:30:51Z</time>
      </trkpt>
      <trkpt lat="59.247722" lon="18.101912">
        <ele>26</ele>
        <time>2019-12-04T16:30:52Z</time>
      </trkpt>
      <trkpt lat="59.247739" lon="18.10183">
        <ele>27</ele>
        <time>2019-12-04T16:30:53Z</time>
      </trkpt>
      <trkpt lat="59.247758" lon="18.101748">
        <ele>27</ele>
        <time>2019-12-04T16:30:54Z</time>
      </trkpt>
      <trkpt lat="59.247779" lon="18.101666">
        <ele>27</ele>
        <time>2019-12-04T16:30:55Z</time>
      </trkpt>
      <trkpt lat="59.247801" lon="18.101586">
        <ele>27</ele>
        <time>2019-12-04T16:30:56Z</time>
      </trkpt>
      <trkpt lat="59.247831" lon="18.101511">
        <ele>27</ele>
        <time>2019-12-04T16:30:57Z</time>
      </trkpt>
      <trkpt lat="59.247866" lon="18.101437">
        <ele>27</ele>
        <time>2019-12-04T16:30:58Z</time>
      </trkpt>
      <trkpt lat="59.2479" lon="18.101363">
        <ele>27</ele>
        <time>2019-12-04T16:30:59Z</time>
      </trkpt>
      <trkpt lat="59.247926" lon="18.101282">
        <ele>27</ele>
        <time>2019-12-04T16:31:00Z</time>
      </trkpt>
      <trkpt lat="59.247951" lon="18.1012">
        <ele>27</ele>
        <time>2019-12-04T16:31:01Z</time>
      </trkpt>
      <trkpt lat="59.247977" lon="18.101119">
        <ele>27</ele>
        <time>2019-12-04T16:31:02Z</time>
      </trkpt>
      <trkpt lat="59.248003" lon="18.101037">
        <ele>27</ele>
        <time>2019-12-04T16:31:03Z</time>
      </trkpt>
      <trkpt lat="59.248034" lon="18.100956">
        <ele>27</ele>
        <time>2019-12-04T16:31:04Z</time>
      </trkpt>
      <trkpt lat="59.248068" lon="18.100873">
        <ele>27</ele>
        <time>2019-12-04T16:31:05Z</time>
      </trkpt>
      <trkpt lat="59.2481" lon="18.100791">
        <ele>27</ele>
        <time>2019-12-04T16:31:06Z</time>
      </trkpt>
      <trkpt lat="59.248138" lon="18.100721">
        <ele>27</ele>
        <time>2019-12-04T16:31:07Z</time>
      </trkpt>
      <trkpt lat="59.248177" lon="18.100655">
        <ele>27</ele>
        <time>2019-12-04T16:31:08Z</time>
      </trkpt>
      <trkpt lat="59.248216" lon="18.100594">
        <ele>26</ele>
        <time>2019-12-04T16:31:09Z</time>
      </trkpt>
      <trkpt lat="59.248259" lon="18.100538">
        <ele>26</ele>
        <time>2019-12-04T16:31:10Z</time>
      </trkpt>
      <trkpt lat="59.248305" lon="18.100486">
        <ele>26</ele>
        <time>2019-12-04T16:31:11Z</time>
      </trkpt>
      <trkpt lat="59.248359" lon="18.100442">
        <ele>25</ele>
        <time>2019-12-04T16:31:12Z</time>
      </trkpt>
      <trkpt lat="59.248419" lon="18.100397">
        <ele>25</ele>
        <time>2019-12-04T16:31:13Z</time>
      </trkpt>
      <trkpt lat="59.248479" lon="18.100343">
        <ele>25</ele>
        <time>2019-12-04T16:31:14Z</time>
      </trkpt>
      <trkpt lat="59.248536" lon="18.100284">
        <ele>25</ele>
        <time>2019-12-04T16:31:15Z</time>
      </trkpt>
      <trkpt lat="59.248588" lon="18.100217">
        <ele>24</ele>
        <time>2019-12-04T16:31:16Z</time>
      </trkpt>
      <trkpt lat="59.248637" lon="18.100148">
        <ele>24</ele>
        <time>2019-12-04T16:31:17Z</time>
      </trkpt>
      <trkpt lat="59.248686" lon="18.100081">
        <ele>24</ele>
        <time>2019-12-04T16:31:18Z</time>
      </trkpt>
      <trkpt lat="59.248733" lon="18.100015">
        <ele>24</ele>
        <time>2019-12-04T16:31:19Z</time>
      </trkpt>
      <trkpt lat="59.24878" lon="18.099951">
        <ele>24</ele>
        <time>2019-12-04T16:31:20Z</time>
      </trkpt>
      <trkpt lat="59.248828" lon="18.099894">
        <ele>24</ele>
        <time>2019-12-04T16:31:21Z</time>
      </trkpt>
      <trkpt lat="59.248877" lon="18.099835">
        <ele>24</ele>
        <time>2019-12-04T16:31:22Z</time>
      </trkpt>
      <trkpt lat="59.248929" lon="18.099782">
        <ele>24</ele>
        <time>2019-12-04T16:31:23Z</time>
      </trkpt>
      <trkpt lat="59.248982" lon="18.09973">
        <ele>24</ele>
        <time>2019-12-04T16:31:24Z</time>
      </trkpt>
      <trkpt lat="59.249038" lon="18.099683">
        <ele>24</ele>
        <time>2019-12-04T16:31:25Z</time>
      </trkpt>
      <trkpt lat="59.249095" lon="18.099639">
        <ele>24</ele>
        <time>2019-12-04T16:31:26Z</time>
      </trkpt>
      <trkpt lat="59.249155" lon="18.099606">
        <ele>23</ele>
        <time>2019-12-04T16:31:27Z</time>
      </trkpt>
      <trkpt lat="59.249217" lon="18.099583">
        <ele>23</ele>
        <time>2019-12-04T16:31:28Z</time>
      </trkpt>
      <trkpt lat="59.249279" lon="18.09956">
        <ele>23</ele>
        <time>2019-12-04T16:31:29Z</time>
      </trkpt>
      <trkpt lat="59.249341" lon="18.099533">
        <ele>23</ele>
        <time>2019-12-04T16:31:30Z</time>
      </trkpt>
      <trkpt lat="59.249404" lon="18.099506">
        <ele>23</ele>
        <time>2019-12-04T16:31:31Z</time>
      </trkpt>
      <trkpt lat="59.249468" lon="18.09948">
        <ele>23</ele>
        <time>2019-12-04T16:31:32Z</time>
      </trkpt>
      <trkpt lat="59.249533" lon="18.099458">
        <ele>23</ele>
        <time>2019-12-04T16:31:33Z</time>
      </trkpt>
      <trkpt lat="59.249599" lon="18.099443">
        <ele>23</ele>
        <time>2019-12-04T16:31:34Z</time>
      </trkpt>
      <trkpt lat="59.249665" lon="18.099445">
        <ele>23</ele>
        <time>2019-12-04T16:31:35Z</time>
      </trkpt>
      <trkpt lat="59.249731" lon="18.099462">
        <ele>23</ele>
        <time>2019-12-04T16:31:36Z</time>
      </trkpt>
      <trkpt lat="59.249791" lon="18.099483">
        <ele>23</ele>
        <time>2019-12-04T16:31:37Z</time>
      </trkpt>
      <trkpt lat="59.249848" lon="18.09951">
        <ele>23</ele>
        <time>2019-12-04T16:31:38Z</time>
      </trkpt>
      <trkpt lat="59.2499" lon="18.099533">
        <ele>24</ele>
        <time>2019-12-04T16:31:39Z</time>
      </trkpt>
      <trkpt lat="59.249951" lon="18.099557">
        <ele>24</ele>
        <time>2019-12-04T16:31:40Z</time>
      </trkpt>
      <trkpt lat="59.250001" lon="18.099582">
        <ele>24</ele>
        <time>2019-12-04T16:31:41Z</time>
      </trkpt>
      <trkpt lat="59.250052" lon="18.099607">
        <ele>24</ele>
        <time>2019-12-04T16:31:42Z</time>
      </trkpt>
      <trkpt lat="59.250099" lon="18.099626">
        <ele>24</ele>
        <time>2019-12-04T16:31:43Z</time>
      </trkpt>
      <trkpt lat="59.250142" lon="18.099641">
        <ele>24</ele>
        <time>2019-12-04T16:31:44Z</time>
      </trkpt>
      <trkpt lat="59.250185" lon="18.099657">
        <ele>24</ele>
        <time>2019-12-04T16:31:45Z</time>
      </trkpt>
      <trkpt lat="59.250227" lon="18.099675">
        <ele>24</ele>
        <time>2019-12-04T16:31:46Z</time>
      </trkpt>
      <trkpt lat="59.250268" lon="18.099694">
        <ele>24</ele>
        <time>2019-12-04T16:31:47Z</time>
      </trkpt>
      <trkpt lat="59.250309" lon="18.099713">
        <ele>24</ele>
        <time>2019-12-04T16:31:48Z</time>
      </trkpt>
      <trkpt lat="59.250349" lon="18.099733">
        <ele>24</ele>
        <time>2019-12-04T16:31:49Z</time>
      </trkpt>
      <trkpt lat="59.250387" lon="18.099756">
        <ele>25</ele>
        <time>2019-12-04T16:31:50Z</time>
      </trkpt>
      <trkpt lat="59.250423" lon="18.099783">
        <ele>25</ele>
        <time>2019-12-04T16:31:51Z</time>
      </trkpt>
      <trkpt lat="59.250459" lon="18.09981">
        <ele>25</ele>
        <time>2019-12-04T16:31:52Z</time>
      </trkpt>
      <trkpt lat="59.250497" lon="18.099851">
        <ele>24</ele>
        <time>2019-12-04T16:31:53Z</time>
      </trkpt>
      <trkpt lat="59.250531" lon="18.09989">
        <ele>25</ele>
        <time>2019-12-04T16:31:54Z</time>
      </trkpt>
      <trkpt lat="59.250565" lon="18.099928">
        <ele>25</ele>
        <time>2019-12-04T16:31:55Z</time>
      </trkpt>
      <trkpt lat="59.250599" lon="18.09997">
        <ele>25</ele>
        <time>2019-12-04T16:31:56Z</time>
      </trkpt>
      <trkpt lat="59.250631" lon="18.100018">
        <ele>25</ele>
        <time>2019-12-04T16:31:57Z</time>
      </trkpt>
      <trkpt lat="59.250661" lon="18.100077">
        <ele>25</ele>
        <time>2019-12-04T16:31:58Z</time>
      </trkpt>
      <trkpt lat="59.250691" lon="18.100148">
        <ele>25</ele>
        <time>2019-12-04T16:31:59Z</time>
      </trkpt>
      <trkpt lat="59.25072" lon="18.100223">
        <ele>25</ele>
        <time>2019-12-04T16:32:00Z</time>
      </trkpt>
      <trkpt lat="59.250748" lon="18.1003">
        <ele>25</ele>
        <time>2019-12-04T16:32:01Z</time>
      </trkpt>
      <trkpt lat="59.250781" lon="18.100378">
        <ele>25</ele>
        <time>2019-12-04T16:32:02Z</time>
      </trkpt>
      <trkpt lat="59.250818" lon="18.100454">
        <ele>25</ele>
        <time>2019-12-04T16:32:03Z</time>
      </trkpt>
      <trkpt lat="59.25086" lon="18.10053">
        <ele>25</ele>
        <time>2019-12-04T16:32:04Z</time>
      </trkpt>
      <trkpt lat="59.250907" lon="18.100604">
        <ele>25</ele>
        <time>2019-12-04T16:32:05Z</time>
      </trkpt>
      <trkpt lat="59.250959" lon="18.100672">
        <ele>25</ele>
        <time>2019-12-04T16:32:06Z</time>
      </trkpt>
      <trkpt lat="59.251015" lon="18.100734">
        <ele>25</ele>
        <time>2019-12-04T16:32:07Z</time>
      </trkpt>
      <trkpt lat="59.251075" lon="18.10079">
        <ele>25</ele>
        <time>2019-12-04T16:32:08Z</time>
      </trkpt>
      <trkpt lat="59.251137" lon="18.100841">
        <ele>25</ele>
        <time>2019-12-04T16:32:09Z</time>
      </trkpt>
      <trkpt lat="59.251199" lon="18.100886">
        <ele>25</ele>
        <time>2019-12-04T16:32:10Z</time>
      </trkpt>
      <trkpt lat="59.251262" lon="18.100926">
        <ele>25</ele>
        <time>2019-12-04T16:32:11Z</time>
      </trkpt>
      <trkpt lat="59.251327" lon="18.100954">
        <ele>25</ele>
        <time>2019-12-04T16:32:12Z</time>
      </trkpt>
      <trkpt lat="59.251393" lon="18.100962">
        <ele>25</ele>
        <time>2019-12-04T16:32:13Z</time>
      </trkpt>
      <trkpt lat="59.251461" lon="18.10095">
        <ele>25</ele>
        <time>2019-12-04T16:32:14Z</time>
      </trkpt>
      <trkpt lat="59.251527" lon="18.10092">
        <ele>25</ele>
        <time>2019-12-04T16:32:15Z</time>
      </trkpt>
      <trkpt lat="59.251593" lon="18.100884">
        <ele>24</ele>
        <time>2019-12-04T16:32:16Z</time>
      </trkpt>
      <trkpt lat="59.251659" lon="18.100844">
        <ele>24</ele>
        <time>2019-12-04T16:32:17Z</time>
      </trkpt>
      <trkpt lat="59.251727" lon="18.1008">
        <ele>24</ele>
        <time>2019-12-04T16:32:18Z</time>
      </trkpt>
      <trkpt lat="59.251795" lon="18.100756">
        <ele>0</ele>
        <time>2019-12-04T16:32:18Z</time>
      </trkpt>
      <trkpt lat="59.251865" lon="18.10071">
        <ele>24</ele>
        <time>2019-12-04T16:32:19Z</time>
      </trkpt>
      <trkpt lat="59.251935" lon="18.10066">
        <ele>23</ele>
        <time>2019-12-04T16:32:21Z</time>
      </trkpt>
      <trkpt lat="59.252011" lon="18.10061">
        <ele>23</ele>
        <time>2019-12-04T16:32:22Z</time>
      </trkpt>
      <trkpt lat="59.252089" lon="18.10056">
        <ele>23</ele>
        <time>2019-12-04T16:32:23Z</time>
      </trkpt>
      <trkpt lat="59.252167" lon="18.100509">
        <ele>23</ele>
        <time>2019-12-04T16:32:24Z</time>
      </trkpt>
      <trkpt lat="59.252247" lon="18.10046">
        <ele>22</ele>
        <time>2019-12-04T16:32:25Z</time>
      </trkpt>
      <trkpt lat="59.252329" lon="18.100408">
        <ele>22</ele>
        <time>2019-12-04T16:32:26Z</time>
      </trkpt>
      <trkpt lat="59.252412" lon="18.10036">
        <ele>22</ele>
        <time>2019-12-04T16:32:27Z</time>
      </trkpt>
      <trkpt lat="59.252496" lon="18.100314">
        <ele>21</ele>
        <time>2019-12-04T16:32:28Z</time>
      </trkpt>
      <trkpt lat="59.252579" lon="18.100274">
        <ele>21</ele>
        <time>2019-12-04T16:32:29Z</time>
      </trkpt>
      <trkpt lat="59.252662" lon="18.100238">
        <ele>21</ele>
        <time>2019-12-04T16:32:30Z</time>
      </trkpt>
      <trkpt lat="59.252743" lon="18.100208">
        <ele>21</ele>
        <time>2019-12-04T16:32:31Z</time>
      </trkpt>
      <trkpt lat="59.252823" lon="18.100184">
        <ele>21</ele>
        <time>2019-12-04T16:32:32Z</time>
      </trkpt>
      <trkpt lat="59.252902" lon="18.100168">
        <ele>21</ele>
        <time>2019-12-04T16:32:33Z</time>
      </trkpt>
      <trkpt lat="59.25298" lon="18.100156">
        <ele>21</ele>
        <time>2019-12-04T16:32:34Z</time>
      </trkpt>
      <trkpt lat="59.253058" lon="18.100152">
        <ele>22</ele>
        <time>2019-12-04T16:32:35Z</time>
      </trkpt>
      <trkpt lat="59.253132" lon="18.100157">
        <ele>22</ele>
        <time>2019-12-04T16:32:36Z</time>
      </trkpt>
      <trkpt lat="59.253203" lon="18.10018">
        <ele>21</ele>
        <time>2019-12-04T16:32:37Z</time>
      </trkpt>
      <trkpt lat="59.253271" lon="18.10022">
        <ele>21</ele>
        <time>2019-12-04T16:32:38Z</time>
      </trkpt>
      <trkpt lat="59.253335" lon="18.10027">
        <ele>21</ele>
        <time>2019-12-04T16:32:39Z</time>
      </trkpt>
      <trkpt lat="59.253398" lon="18.100325">
        <ele>21</ele>
        <time>2019-12-04T16:32:40Z</time>
      </trkpt>
      <trkpt lat="59.253462" lon="18.100376">
        <ele>21</ele>
        <time>2019-12-04T16:32:41Z</time>
      </trkpt>
      <trkpt lat="59.253525" lon="18.100418">
        <ele>22</ele>
        <time>2019-12-04T16:32:42Z</time>
      </trkpt>
      <trkpt lat="59.253589" lon="18.100456">
        <ele>22</ele>
        <time>2019-12-04T16:32:43Z</time>
      </trkpt>
      <trkpt lat="59.253652" lon="18.100488">
        <ele>22</ele>
        <time>2019-12-04T16:32:44Z</time>
      </trkpt>
      <trkpt lat="59.253714" lon="18.100516">
        <ele>22</ele>
        <time>2019-12-04T16:32:45Z</time>
      </trkpt>
      <trkpt lat="59.253775" lon="18.10054">
        <ele>22</ele>
        <time>2019-12-04T16:32:46Z</time>
      </trkpt>
      <trkpt lat="59.253835" lon="18.100561">
        <ele>22</ele>
        <time>2019-12-04T16:32:47Z</time>
      </trkpt>
      <trkpt lat="59.253894" lon="18.100581">
        <ele>22</ele>
        <time>2019-12-04T16:32:48Z</time>
      </trkpt>
      <trkpt lat="59.25395" lon="18.100602">
        <ele>22</ele>
        <time>2019-12-04T16:32:49Z</time>
      </trkpt>
      <trkpt lat="59.254002" lon="18.10062">
        <ele>22</ele>
        <time>2019-12-04T16:32:50Z</time>
      </trkpt>
      <trkpt lat="59.254055" lon="18.100632">
        <ele>22</ele>
        <time>2019-12-04T16:32:51Z</time>
      </trkpt>
      <trkpt lat="59.254105" lon="18.100634">
        <ele>22</ele>
        <time>2019-12-04T16:32:52Z</time>
      </trkpt>
      <trkpt lat="59.25416" lon="18.100637">
        <ele>22</ele>
        <time>2019-12-04T16:32:53Z</time>
      </trkpt>
      <trkpt lat="59.254218" lon="18.10065">
        <ele>0</ele>
        <time>2019-12-04T16:32:53Z</time>
      </trkpt>
      <trkpt lat="59.254275" lon="18.100668">
        <ele>22</ele>
        <time>2019-12-04T16:32:54Z</time>
      </trkpt>
      <trkpt lat="59.254333" lon="18.100688">
        <ele>22</ele>
        <time>2019-12-04T16:32:56Z</time>
      </trkpt>
      <trkpt lat="59.254392" lon="18.10071">
        <ele>22</ele>
        <time>2019-12-04T16:32:57Z</time>
      </trkpt>
      <trkpt lat="59.254451" lon="18.10073">
        <ele>22</ele>
        <time>2019-12-04T16:32:58Z</time>
      </trkpt>
      <trkpt lat="59.254507" lon="18.100751">
        <ele>22</ele>
        <time>2019-12-04T16:32:59Z</time>
      </trkpt>
      <trkpt lat="59.254565" lon="18.100772">
        <ele>22</ele>
        <time>2019-12-04T16:33:00Z</time>
      </trkpt>
      <trkpt lat="59.254625" lon="18.100792">
        <ele>22</ele>
        <time>2019-12-04T16:33:01Z</time>
      </trkpt>
      <trkpt lat="59.254678" lon="18.100814">
        <ele>22</ele>
        <time>2019-12-04T16:33:02Z</time>
      </trkpt>
      <trkpt lat="59.254733" lon="18.100831">
        <ele>22</ele>
        <time>2019-12-04T16:33:03Z</time>
      </trkpt>
      <trkpt lat="59.254789" lon="18.100844">
        <ele>22</ele>
        <time>2019-12-04T16:33:04Z</time>
      </trkpt>
      <trkpt lat="59.254849" lon="18.10086">
        <ele>22</ele>
        <time>2019-12-04T16:33:05Z</time>
      </trkpt>
      <trkpt lat="59.254903" lon="18.100874">
        <ele>22</ele>
        <time>2019-12-04T16:33:06Z</time>
      </trkpt>
      <trkpt lat="59.254955" lon="18.100891">
        <ele>22</ele>
        <time>2019-12-04T16:33:07Z</time>
      </trkpt>
      <trkpt lat="59.255007" lon="18.100904">
        <ele>22</ele>
        <time>2019-12-04T16:33:08Z</time>
      </trkpt>
      <trkpt lat="59.255061" lon="18.10092">
        <ele>22</ele>
        <time>2019-12-04T16:33:09Z</time>
      </trkpt>
      <trkpt lat="59.255119" lon="18.100933">
        <ele>22</ele>
        <time>2019-12-04T16:33:10Z</time>
      </trkpt>
      <trkpt lat="59.25518" lon="18.100945">
        <ele>22</ele>
        <time>2019-12-04T16:33:11Z</time>
      </trkpt>
      <trkpt lat="59.255238" lon="18.100952">
        <ele>22</ele>
        <time>2019-12-04T16:33:12Z</time>
      </trkpt>
      <trkpt lat="59.255298" lon="18.100955">
        <ele>22</ele>
        <time>2019-12-04T16:33:13Z</time>
      </trkpt>
      <trkpt lat="59.255366" lon="18.100968">
        <ele>22</ele>
        <time>2019-12-04T16:33:14Z</time>
      </trkpt>
      <trkpt lat="59.255433" lon="18.10098">
        <ele>22</ele>
        <time>2019-12-04T16:33:15Z</time>
      </trkpt>
      <trkpt lat="59.255496" lon="18.100994">
        <ele>22</ele>
        <time>2019-12-04T16:33:16Z</time>
      </trkpt>
      <trkpt lat="59.25556" lon="18.101008">
        <ele>22</ele>
        <time>2019-12-04T16:33:17Z</time>
      </trkpt>
      <trkpt lat="59.255621" lon="18.101016">
        <ele>22</ele>
        <time>2019-12-04T16:33:18Z</time>
      </trkpt>
      <trkpt lat="59.255678" lon="18.101021">
        <ele>22</ele>
        <time>2019-12-04T16:33:19Z</time>
      </trkpt>
      <trkpt lat="59.255734" lon="18.101031">
        <ele>22</ele>
        <time>2019-12-04T16:33:20Z</time>
      </trkpt>
      <trkpt lat="59.255792" lon="18.101048">
        <ele>22</ele>
        <time>2019-12-04T16:33:21Z</time>
      </trkpt>
      <trkpt lat="59.255848" lon="18.101057">
        <ele>22</ele>
        <time>2019-12-04T16:33:22Z</time>
      </trkpt>
      <trkpt lat="59.255906" lon="18.101061">
        <ele>22</ele>
        <time>2019-12-04T16:33:23Z</time>
      </trkpt>
      <trkpt lat="59.255966" lon="18.101065">
        <ele>22</ele>
        <time>2019-12-04T16:33:24Z</time>
      </trkpt>
      <trkpt lat="59.256024" lon="18.10107">
        <ele>22</ele>
        <time>2019-12-04T16:33:25Z</time>
      </trkpt>
      <trkpt lat="59.256084" lon="18.101075">
        <ele>22</ele>
        <time>2019-12-04T16:33:26Z</time>
      </trkpt>
      <trkpt lat="59.256142" lon="18.10108">
        <ele>22</ele>
        <time>2019-12-04T16:33:27Z</time>
      </trkpt>
      <trkpt lat="59.256198" lon="18.101082">
        <ele>22</ele>
        <time>2019-12-04T16:33:28Z</time>
      </trkpt>
      <trkpt lat="59.256252" lon="18.101088">
        <ele>23</ele>
        <time>2019-12-04T16:33:29Z</time>
      </trkpt>
      <trkpt lat="59.25631" lon="18.101096">
        <ele>23</ele>
        <time>2019-12-04T16:33:30Z</time>
      </trkpt>
      <trkpt lat="59.25637" lon="18.101099">
        <ele>23</ele>
        <time>2019-12-04T16:33:31Z</time>
      </trkpt>
      <trkpt lat="59.256428" lon="18.101105">
        <ele>23</ele>
        <time>2019-12-04T16:33:32Z</time>
      </trkpt>
      <trkpt lat="59.25649" lon="18.101112">
        <ele>23</ele>
        <time>2019-12-04T16:33:33Z</time>
      </trkpt>
      <trkpt lat="59.256551" lon="18.101116">
        <ele>23</ele>
        <time>2019-12-04T16:33:34Z</time>
      </trkpt>
      <trkpt lat="59.256613" lon="18.101116">
        <ele>23</ele>
        <time>2019-12-04T16:33:35Z</time>
      </trkpt>
      <trkpt lat="59.256675" lon="18.101122">
        <ele>23</ele>
        <time>2019-12-04T16:33:36Z</time>
      </trkpt>
      <trkpt lat="59.256732" lon="18.101125">
        <ele>23</ele>
        <time>2019-12-04T16:33:37Z</time>
      </trkpt>
      <trkpt lat="59.25679" lon="18.101125">
        <ele>23</ele>
        <time>2019-12-04T16:33:38Z</time>
      </trkpt>
      <trkpt lat="59.256847" lon="18.101118">
        <ele>23</ele>
        <time>2019-12-04T16:33:39Z</time>
      </trkpt>
      <trkpt lat="59.256898" lon="18.101098">
        <ele>23</ele>
        <time>2019-12-04T16:33:40Z</time>
      </trkpt>
      <trkpt lat="59.256941" lon="18.10106">
        <ele>23</ele>
        <time>2019-12-04T16:33:41Z</time>
      </trkpt>
      <trkpt lat="59.256974" lon="18.10099">
        <ele>23</ele>
        <time>2019-12-04T16:33:42Z</time>
      </trkpt>
      <trkpt lat="59.257001" lon="18.100888">
        <ele>23</ele>
        <time>2019-12-04T16:33:43Z</time>
      </trkpt>
      <trkpt lat="59.257031" lon="18.100782">
        <ele>23</ele>
        <time>2019-12-04T16:33:44Z</time>
      </trkpt>
      <trkpt lat="59.257059" lon="18.100679">
        <ele>23</ele>
        <time>2019-12-04T16:33:45Z</time>
      </trkpt>
      <trkpt lat="59.257277" lon="18.099888">
        <ele>24</ele>
        <time>2019-12-04T16:33:52Z</time>
      </trkpt>
      <trkpt lat="59.257364" lon="18.099713">
        <ele>24</ele>
        <time>2019-12-04T16:33:54Z</time>
      </trkpt>
      <trkpt lat="59.257429" lon="18.099528">
        <ele>24</ele>
        <time>2019-12-04T16:33:56Z</time>
      </trkpt>
      <trkpt lat="59.257485" lon="18.099369">
        <ele>24</ele>
        <time>2019-12-04T16:33:58Z</time>
      </trkpt>
      <trkpt lat="59.257515" lon="18.099312">
        <ele>24</ele>
        <time>2019-12-04T16:33:59Z</time>
      </trkpt>
      <trkpt lat="59.257548" lon="18.099269">
        <ele>25</ele>
        <time>2019-12-04T16:34:00Z</time>
      </trkpt>
      <trkpt lat="59.257585" lon="18.099239">
        <ele>25</ele>
        <time>2019-12-04T16:34:01Z</time>
      </trkpt>
      <trkpt lat="59.257624" lon="18.099217">
        <ele>25</ele>
        <time>2019-12-04T16:34:02Z</time>
      </trkpt>
      <trkpt lat="59.25771" lon="18.09918">
        <ele>26</ele>
        <time>2019-12-04T16:34:04Z</time>
      </trkpt>
      <trkpt lat="59.257759" lon="18.09917">
        <ele>27</ele>
        <time>2019-12-04T16:34:05Z</time>
      </trkpt>
      <trkpt lat="59.257805" lon="18.099169">
        <ele>28</ele>
        <time>2019-12-04T16:34:06Z</time>
      </trkpt>
      <trkpt lat="59.25785" lon="18.099175">
        <ele>29</ele>
        <time>2019-12-04T16:34:07Z</time>
      </trkpt>
      <trkpt lat="59.257896" lon="18.099187">
        <ele>29</ele>
        <time>2019-12-04T16:34:08Z</time>
      </trkpt>
      <trkpt lat="59.25794" lon="18.0992">
        <ele>30</ele>
        <time>2019-12-04T16:34:09Z</time>
      </trkpt>
      <trkpt lat="59.257984" lon="18.099214">
        <ele>31</ele>
        <time>2019-12-04T16:34:10Z</time>
      </trkpt>
      <trkpt lat="59.258027" lon="18.099224">
        <ele>31</ele>
        <time>2019-12-04T16:34:11Z</time>
      </trkpt>
      <trkpt lat="59.258065" lon="18.099229">
        <ele>31</ele>
        <time>2019-12-04T16:34:12Z</time>
      </trkpt>
      <trkpt lat="59.258099" lon="18.099231">
        <ele>32</ele>
        <time>2019-12-04T16:34:13Z</time>
      </trkpt>
      <trkpt lat="59.258137" lon="18.099229">
        <ele>33</ele>
        <time>2019-12-04T16:34:14Z</time>
      </trkpt>
      <trkpt lat="59.258174" lon="18.099219">
        <ele>34</ele>
        <time>2019-12-04T16:34:15Z</time>
      </trkpt>
      <trkpt lat="59.258219" lon="18.099215">
        <ele>34</ele>
        <time>2019-12-04T16:34:16Z</time>
      </trkpt>
      <trkpt lat="59.258259" lon="18.099211">
        <ele>34</ele>
        <time>2019-12-04T16:34:17Z</time>
      </trkpt>
      <trkpt lat="59.2583" lon="18.099204">
        <ele>35</ele>
        <time>2019-12-04T16:34:18Z</time>
      </trkpt>
      <trkpt lat="59.258349" lon="18.099209">
        <ele>36</ele>
        <time>2019-12-04T16:34:19Z</time>
      </trkpt>
      <trkpt lat="59.258402" lon="18.099214">
        <ele>36</ele>
        <time>2019-12-04T16:34:20Z</time>
      </trkpt>
      <trkpt lat="59.258455" lon="18.09922">
        <ele>36</ele>
        <time>2019-12-04T16:34:21Z</time>
      </trkpt>
      <trkpt lat="59.258505" lon="18.099218">
        <ele>37</ele>
        <time>2019-12-04T16:34:22Z</time>
      </trkpt>
      <trkpt lat="59.258559" lon="18.099214">
        <ele>37</ele>
        <time>2019-12-04T16:34:23Z</time>
      </trkpt>
      <trkpt lat="59.258614" lon="18.099217">
        <ele>37</ele>
        <time>2019-12-04T16:34:24Z</time>
      </trkpt>
      <trkpt lat="59.258667" lon="18.099222">
        <ele>37</ele>
        <time>2019-12-04T16:34:25Z</time>
      </trkpt>
      <trkpt lat="59.258722" lon="18.099221">
        <ele>36</ele>
        <time>2019-12-04T16:34:26Z</time>
      </trkpt>
      <trkpt lat="59.258776" lon="18.099219">
        <ele>36</ele>
        <time>2019-12-04T16:34:27Z</time>
      </trkpt>
      <trkpt lat="59.258829" lon="18.09922">
        <ele>36</ele>
        <time>2019-12-04T16:34:28Z</time>
      </trkpt>
      <trkpt lat="59.25888" lon="18.099216">
        <ele>36</ele>
        <time>2019-12-04T16:34:29Z</time>
      </trkpt>
      <trkpt lat="59.258932" lon="18.099211">
        <ele>35</ele>
        <time>2019-12-04T16:34:30Z</time>
      </trkpt>
      <trkpt lat="59.258988" lon="18.099206">
        <ele>35</ele>
        <time>2019-12-04T16:34:31Z</time>
      </trkpt>
      <trkpt lat="59.259049" lon="18.099208">
        <ele>34</ele>
        <time>2019-12-04T16:34:32Z</time>
      </trkpt>
      <trkpt lat="59.259115" lon="18.099204">
        <ele>33</ele>
        <time>2019-12-04T16:34:33Z</time>
      </trkpt>
      <trkpt lat="59.25918" lon="18.099199">
        <ele>33</ele>
        <time>2019-12-04T16:34:34Z</time>
      </trkpt>
      <trkpt lat="59.259244" lon="18.099184">
        <ele>33</ele>
        <time>2019-12-04T16:34:35Z</time>
      </trkpt>
      <trkpt lat="59.259304" lon="18.09915">
        <ele>32</ele>
        <time>2019-12-04T16:34:36Z</time>
      </trkpt>
      <trkpt lat="59.259362" lon="18.099103">
        <ele>32</ele>
        <time>2019-12-04T16:34:37Z</time>
      </trkpt>
      <trkpt lat="59.259416" lon="18.099043">
        <ele>31</ele>
        <time>2019-12-04T16:34:38Z</time>
      </trkpt>
      <trkpt lat="59.259466" lon="18.098975">
        <ele>31</ele>
        <time>2019-12-04T16:34:39Z</time>
      </trkpt>
      <trkpt lat="59.25951" lon="18.098891">
        <ele>31</ele>
        <time>2019-12-04T16:34:40Z</time>
      </trkpt>
      <trkpt lat="59.259547" lon="18.098792">
        <ele>30</ele>
        <time>2019-12-04T16:34:41Z</time>
      </trkpt>
      <trkpt lat="59.259577" lon="18.098686">
        <ele>30</ele>
        <time>2019-12-04T16:34:42Z</time>
      </trkpt>
      <trkpt lat="59.259603" lon="18.09858">
        <ele>30</ele>
        <time>2019-12-04T16:34:43Z</time>
      </trkpt>
      <trkpt lat="59.259621" lon="18.098474">
        <ele>30</ele>
        <time>2019-12-04T16:34:44Z</time>
      </trkpt>
      <trkpt lat="59.259636" lon="18.098366">
        <ele>30</ele>
        <time>2019-12-04T16:34:45Z</time>
      </trkpt>
      <trkpt lat="59.259647" lon="18.098258">
        <ele>31</ele>
        <time>2019-12-04T16:34:46Z</time>
      </trkpt>
      <trkpt lat="59.259649" lon="18.098144">
        <ele>31</ele>
        <time>2019-12-04T16:34:47Z</time>
      </trkpt>
      <trkpt lat="59.259651" lon="18.098039">
        <ele>31</ele>
        <time>2019-12-04T16:34:48Z</time>
      </trkpt>
      <trkpt lat="59.25966" lon="18.097936">
        <ele>31</ele>
        <time>2019-12-04T16:34:49Z</time>
      </trkpt>
      <trkpt lat="59.259674" lon="18.097838">
        <ele>31</ele>
        <time>2019-12-04T16:34:50Z</time>
      </trkpt>
      <trkpt lat="59.25969" lon="18.097744">
        <ele>31</ele>
        <time>2019-12-04T16:34:51Z</time>
      </trkpt>
      <trkpt lat="59.259706" lon="18.097649">
        <ele>31</ele>
        <time>2019-12-04T16:34:52Z</time>
      </trkpt>
      <trkpt lat="59.259717" lon="18.097546">
        <ele>31</ele>
        <time>2019-12-04T16:34:53Z</time>
      </trkpt>
      <trkpt lat="59.259729" lon="18.097446">
        <ele>31</ele>
        <time>2019-12-04T16:34:54Z</time>
      </trkpt>
      <trkpt lat="59.259746" lon="18.097351">
        <ele>31</ele>
        <time>2019-12-04T16:34:55Z</time>
      </trkpt>
      <trkpt lat="59.259757" lon="18.097247">
        <ele>30</ele>
        <time>2019-12-04T16:34:56Z</time>
      </trkpt>
      <trkpt lat="59.25978" lon="18.09715">
        <ele>30</ele>
        <time>2019-12-04T16:34:57Z</time>
      </trkpt>
      <trkpt lat="59.259826" lon="18.097072">
        <ele>30</ele>
        <time>2019-12-04T16:34:58Z</time>
      </trkpt>
      <trkpt lat="59.259877" lon="18.097004">
        <ele>29</ele>
        <time>2019-12-04T16:34:59Z</time>
      </trkpt>
      <trkpt lat="59.259931" lon="18.09694">
        <ele>28</ele>
        <time>2019-12-04T16:35:00Z</time>
      </trkpt>
      <trkpt lat="59.259986" lon="18.096877">
        <ele>28</ele>
        <time>2019-12-04T16:35:01Z</time>
      </trkpt>
      <trkpt lat="59.260046" lon="18.096814">
        <ele>27</ele>
        <time>2019-12-04T16:35:02Z</time>
      </trkpt>
      <trkpt lat="59.260109" lon="18.09676">
        <ele>27</ele>
        <time>2019-12-04T16:35:03Z</time>
      </trkpt>
      <trkpt lat="59.260174" lon="18.096708">
        <ele>27</ele>
        <time>2019-12-04T16:35:04Z</time>
      </trkpt>
      <trkpt lat="59.260239" lon="18.09666">
        <ele>26</ele>
        <time>2019-12-04T16:35:05Z</time>
      </trkpt>
      <trkpt lat="59.260303" lon="18.096604">
        <ele>26</ele>
        <time>2019-12-04T16:35:06Z</time>
      </trkpt>
      <trkpt lat="59.260354" lon="18.096532">
        <ele>26</ele>
        <time>2019-12-04T16:35:07Z</time>
      </trkpt>
      <trkpt lat="59.260476" lon="18.096456">
        <ele>26</ele>
        <time>2019-12-04T16:35:08Z</time>
      </trkpt>
      <trkpt lat="59.260615" lon="18.096488">
        <ele>27</ele>
        <time>2019-12-04T16:35:11Z</time>
      </trkpt>
      <trkpt lat="59.260672" lon="18.096484">
        <ele>27</ele>
        <time>2019-12-04T16:35:12Z</time>
      </trkpt>
      <trkpt lat="59.260724" lon="18.09648">
        <ele>27</ele>
        <time>2019-12-04T16:35:13Z</time>
      </trkpt>
      <trkpt lat="59.260773" lon="18.096473">
        <ele>27</ele>
        <time>2019-12-04T16:35:14Z</time>
      </trkpt>
      <trkpt lat="59.260819" lon="18.096469">
        <ele>27</ele>
        <time>2019-12-04T16:35:15Z</time>
      </trkpt>
      <trkpt lat="59.260862" lon="18.096461">
        <ele>27</ele>
        <time>2019-12-04T16:35:16Z</time>
      </trkpt>
      <trkpt lat="59.260905" lon="18.096459">
        <ele>27</ele>
        <time>2019-12-04T16:35:17Z</time>
      </trkpt>
      <trkpt lat="59.260947" lon="18.09646">
        <ele>27</ele>
        <time>2019-12-04T16:35:18Z</time>
      </trkpt>
      <trkpt lat="59.26099" lon="18.096469">
        <ele>27</ele>
        <time>2019-12-04T16:35:19Z</time>
      </trkpt>
      <trkpt lat="59.261034" lon="18.096485">
        <ele>27</ele>
        <time>2019-12-04T16:35:20Z</time>
      </trkpt>
      <trkpt lat="59.261079" lon="18.096505">
        <ele>27</ele>
        <time>2019-12-04T16:35:21Z</time>
      </trkpt>
      <trkpt lat="59.261124" lon="18.096531">
        <ele>27</ele>
        <time>2019-12-04T16:35:22Z</time>
      </trkpt>
      <trkpt lat="59.261171" lon="18.096563">
        <ele>27</ele>
        <time>2019-12-04T16:35:23Z</time>
      </trkpt>
      <trkpt lat="59.26122" lon="18.096597">
        <ele>27</ele>
        <time>2019-12-04T16:35:24Z</time>
      </trkpt>
      <trkpt lat="59.26127" lon="18.096636">
        <ele>27</ele>
        <time>2019-12-04T16:35:25Z</time>
      </trkpt>
      <trkpt lat="59.26132" lon="18.096679">
        <ele>26</ele>
        <time>2019-12-04T16:35:26Z</time>
      </trkpt>
      <trkpt lat="59.261369" lon="18.096727">
        <ele>26</ele>
        <time>2019-12-04T16:35:27Z</time>
      </trkpt>
      <trkpt lat="59.261416" lon="18.09678">
        <ele>26</ele>
        <time>2019-12-04T16:35:28Z</time>
      </trkpt>
      <trkpt lat="59.261463" lon="18.096838">
        <ele>26</ele>
        <time>2019-12-04T16:35:29Z</time>
      </trkpt>
      <trkpt lat="59.261507" lon="18.096903">
        <ele>26</ele>
        <time>2019-12-04T16:35:30Z</time>
      </trkpt>
      <trkpt lat="59.26155" lon="18.096972">
        <ele>26</ele>
        <time>2019-12-04T16:35:31Z</time>
      </trkpt>
      <trkpt lat="59.261594" lon="18.097039">
        <ele>26</ele>
        <time>2019-12-04T16:35:32Z</time>
      </trkpt>
      <trkpt lat="59.261638" lon="18.097109">
        <ele>26</ele>
        <time>2019-12-04T16:35:33Z</time>
      </trkpt>
      <trkpt lat="59.26168" lon="18.09718">
        <ele>26</ele>
        <time>2019-12-04T16:35:34Z</time>
      </trkpt>
      <trkpt lat="59.261723" lon="18.097251">
        <ele>25</ele>
        <time>2019-12-04T16:35:35Z</time>
      </trkpt>
      <trkpt lat="59.261766" lon="18.097323">
        <ele>25</ele>
        <time>2019-12-04T16:35:36Z</time>
      </trkpt>
      <trkpt lat="59.261809" lon="18.097391">
        <ele>25</ele>
        <time>2019-12-04T16:35:37Z</time>
      </trkpt>
      <trkpt lat="59.26185" lon="18.097457">
        <ele>25</ele>
        <time>2019-12-04T16:35:38Z</time>
      </trkpt>
      <trkpt lat="59.261892" lon="18.097526">
        <ele>25</ele>
        <time>2019-12-04T16:35:39Z</time>
      </trkpt>
      <trkpt lat="59.261934" lon="18.097594">
        <ele>24</ele>
        <time>2019-12-04T16:35:40Z</time>
      </trkpt>
      <trkpt lat="59.261977" lon="18.097661">
        <ele>24</ele>
        <time>2019-12-04T16:35:41Z</time>
      </trkpt>
      <trkpt lat="59.26202" lon="18.097727">
        <ele>24</ele>
        <time>2019-12-04T16:35:42Z</time>
      </trkpt>
      <trkpt lat="59.262064" lon="18.097794">
        <ele>24</ele>
        <time>2019-12-04T16:35:43Z</time>
      </trkpt>
      <trkpt lat="59.262108" lon="18.097859">
        <ele>24</ele>
        <time>2019-12-04T16:35:44Z</time>
      </trkpt>
      <trkpt lat="59.262151" lon="18.097922">
        <ele>0</ele>
        <time>2019-12-04T16:35:44Z</time>
      </trkpt>
      <trkpt lat="59.262195" lon="18.097981">
        <ele>24</ele>
        <time>2019-12-04T16:35:45Z</time>
      </trkpt>
      <trkpt lat="59.262239" lon="18.098035">
        <ele>24</ele>
        <time>2019-12-04T16:35:47Z</time>
      </trkpt>
      <trkpt lat="59.262287" lon="18.098081">
        <ele>24</ele>
        <time>2019-12-04T16:35:48Z</time>
      </trkpt>
      <trkpt lat="59.262337" lon="18.098115">
        <ele>24</ele>
        <time>2019-12-04T16:35:49Z</time>
      </trkpt>
      <trkpt lat="59.262389" lon="18.098136">
        <ele>24</ele>
        <time>2019-12-04T16:35:50Z</time>
      </trkpt>
      <trkpt lat="59.262441" lon="18.098152">
        <ele>24</ele>
        <time>2019-12-04T16:35:51Z</time>
      </trkpt>
      <trkpt lat="59.26249" lon="18.098161">
        <ele>24</ele>
        <time>2019-12-04T16:35:52Z</time>
      </trkpt>
      <trkpt lat="59.262538" lon="18.098164">
        <ele>24</ele>
        <time>2019-12-04T16:35:53Z</time>
      </trkpt>
      <trkpt lat="59.262587" lon="18.098164">
        <ele>24</ele>
        <time>2019-12-04T16:35:54Z</time>
      </trkpt>
      <trkpt lat="59.262634" lon="18.098163">
        <ele>25</ele>
        <time>2019-12-04T16:35:55Z</time>
      </trkpt>
      <trkpt lat="59.26268" lon="18.098164">
        <ele>25</ele>
        <time>2019-12-04T16:35:56Z</time>
      </trkpt>
      <trkpt lat="59.262726" lon="18.098164">
        <ele>25</ele>
        <time>2019-12-04T16:35:57Z</time>
      </trkpt>
      <trkpt lat="59.26277" lon="18.098163">
        <ele>25</ele>
        <time>2019-12-04T16:35:58Z</time>
      </trkpt>
      <trkpt lat="59.262815" lon="18.098163">
        <ele>25</ele>
        <time>2019-12-04T16:35:59Z</time>
      </trkpt>
      <trkpt lat="59.262861" lon="18.098164">
        <ele>25</ele>
        <time>2019-12-04T16:36:00Z</time>
      </trkpt>
      <trkpt lat="59.262908" lon="18.098164">
        <ele>25</ele>
        <time>2019-12-04T16:36:01Z</time>
      </trkpt>
      <trkpt lat="59.262954" lon="18.09816">
        <ele>26</ele>
        <time>2019-12-04T16:36:02Z</time>
      </trkpt>
      <trkpt lat="59.262998" lon="18.098154">
        <ele>26</ele>
        <time>2019-12-04T16:36:03Z</time>
      </trkpt>
      <trkpt lat="59.263043" lon="18.098152">
        <ele>26</ele>
        <time>2019-12-04T16:36:04Z</time>
      </trkpt>
      <trkpt lat="59.263088" lon="18.098147">
        <ele>26</ele>
        <time>2019-12-04T16:36:05Z</time>
      </trkpt>
      <trkpt lat="59.263129" lon="18.09814">
        <ele>27</ele>
        <time>2019-12-04T16:36:06Z</time>
      </trkpt>
      <trkpt lat="59.263162" lon="18.098132">
        <ele>27</ele>
        <time>2019-12-04T16:36:07Z</time>
      </trkpt>
      <trkpt lat="59.26319" lon="18.098121">
        <ele>27</ele>
        <time>2019-12-04T16:36:08Z</time>
      </trkpt>
      <trkpt lat="59.263217" lon="18.098112">
        <ele>27</ele>
        <time>2019-12-04T16:36:09Z</time>
      </trkpt>
      <trkpt lat="59.263253" lon="18.0981">
        <ele>27</ele>
        <time>2019-12-04T16:36:10Z</time>
      </trkpt>
      <trkpt lat="59.263296" lon="18.098085">
        <ele>28</ele>
        <time>2019-12-04T16:36:11Z</time>
      </trkpt>
      <trkpt lat="59.263336" lon="18.098072">
        <ele>28</ele>
        <time>2019-12-04T16:36:12Z</time>
      </trkpt>
      <trkpt lat="59.263381" lon="18.098059">
        <ele>28</ele>
        <time>2019-12-04T16:36:13Z</time>
      </trkpt>
      <trkpt lat="59.263425" lon="18.098047">
        <ele>28</ele>
        <time>2019-12-04T16:36:14Z</time>
      </trkpt>
      <trkpt lat="59.26347" lon="18.098031">
        <ele>29</ele>
        <time>2019-12-04T16:36:15Z</time>
      </trkpt>
      <trkpt lat="59.263506" lon="18.098012">
        <ele>29</ele>
        <time>2019-12-04T16:36:16Z</time>
      </trkpt>
      <trkpt lat="59.263546" lon="18.098">
        <ele>29</ele>
        <time>2019-12-04T16:36:17Z</time>
      </trkpt>
      <trkpt lat="59.263589" lon="18.097986">
        <ele>29</ele>
        <time>2019-12-04T16:36:18Z</time>
      </trkpt>
      <trkpt lat="59.263631" lon="18.09797">
        <ele>29</ele>
        <time>2019-12-04T16:36:19Z</time>
      </trkpt>
      <trkpt lat="59.263673" lon="18.097958">
        <ele>29</ele>
        <time>2019-12-04T16:36:20Z</time>
      </trkpt>
      <trkpt lat="59.263713" lon="18.097948">
        <ele>30</ele>
        <time>2019-12-04T16:36:21Z</time>
      </trkpt>
      <trkpt lat="59.263753" lon="18.097934">
        <ele>30</ele>
        <time>2019-12-04T16:36:22Z</time>
      </trkpt>
      <trkpt lat="59.26379" lon="18.097922">
        <ele>30</ele>
        <time>2019-12-04T16:36:23Z</time>
      </trkpt>
      <trkpt lat="59.263825" lon="18.09791">
        <ele>30</ele>
        <time>2019-12-04T16:36:24Z</time>
      </trkpt>
      <trkpt lat="59.263862" lon="18.097897">
        <ele>30</ele>
        <time>2019-12-04T16:36:25Z</time>
      </trkpt>
      <trkpt lat="59.263899" lon="18.097884">
        <ele>30</ele>
        <time>2019-12-04T16:36:26Z</time>
      </trkpt>
      <trkpt lat="59.263938" lon="18.097873">
        <ele>31</ele>
        <time>2019-12-04T16:36:27Z</time>
      </trkpt>
      <trkpt lat="59.263979" lon="18.097863">
        <ele>31</ele>
        <time>2019-12-04T16:36:28Z</time>
      </trkpt>
      <trkpt lat="59.264019" lon="18.097853">
        <ele>31</ele>
        <time>2019-12-04T16:36:29Z</time>
      </trkpt>
      <trkpt lat="59.264058" lon="18.097842">
        <ele>31</ele>
        <time>2019-12-04T16:36:30Z</time>
      </trkpt>
      <trkpt lat="59.264097" lon="18.097831">
        <ele>32</ele>
        <time>2019-12-04T16:36:31Z</time>
      </trkpt>
      <trkpt lat="59.264139" lon="18.09782">
        <ele>32</ele>
        <time>2019-12-04T16:36:32Z</time>
      </trkpt>
      <trkpt lat="59.264182" lon="18.097799">
        <ele>32</ele>
        <time>2019-12-04T16:36:33Z</time>
      </trkpt>
      <trkpt lat="59.264226" lon="18.097777">
        <ele>32</ele>
        <time>2019-12-04T16:36:34Z</time>
      </trkpt>
      <trkpt lat="59.26427" lon="18.097756">
        <ele>32</ele>
        <time>2019-12-04T16:36:35Z</time>
      </trkpt>
      <trkpt lat="59.264315" lon="18.097737">
        <ele>32</ele>
        <time>2019-12-04T16:36:36Z</time>
      </trkpt>
      <trkpt lat="59.26436" lon="18.097716">
        <ele>32</ele>
        <time>2019-12-04T16:36:37Z</time>
      </trkpt>
      <trkpt lat="59.264405" lon="18.097695">
        <ele>33</ele>
        <time>2019-12-04T16:36:38Z</time>
      </trkpt>
      <trkpt lat="59.264451" lon="18.097673">
        <ele>33</ele>
        <time>2019-12-04T16:36:39Z</time>
      </trkpt>
      <trkpt lat="59.264499" lon="18.09765">
        <ele>33</ele>
        <time>2019-12-04T16:36:40Z</time>
      </trkpt>
      <trkpt lat="59.264553" lon="18.097627">
        <ele>33</ele>
        <time>2019-12-04T16:36:41Z</time>
      </trkpt>
      <trkpt lat="59.264606" lon="18.097599">
        <ele>0</ele>
        <time>2019-12-04T16:36:41Z</time>
      </trkpt>
      <trkpt lat="59.264657" lon="18.097566">
        <ele>33</ele>
        <time>2019-12-04T16:36:42Z</time>
      </trkpt>
      <trkpt lat="59.264714" lon="18.097536">
        <ele>33</ele>
        <time>2019-12-04T16:36:44Z</time>
      </trkpt>
      <trkpt lat="59.264775" lon="18.097505">
        <ele>33</ele>
        <time>2019-12-04T16:36:45Z</time>
      </trkpt>
      <trkpt lat="59.264835" lon="18.097475">
        <ele>33</ele>
        <time>2019-12-04T16:36:46Z</time>
      </trkpt>
      <trkpt lat="59.264898" lon="18.097446">
        <ele>33</ele>
        <time>2019-12-04T16:36:47Z</time>
      </trkpt>
      <trkpt lat="59.26496" lon="18.097411">
        <ele>34</ele>
        <time>2019-12-04T16:36:48Z</time>
      </trkpt>
      <trkpt lat="59.265022" lon="18.097369">
        <ele>34</ele>
        <time>2019-12-04T16:36:49Z</time>
      </trkpt>
      <trkpt lat="59.265093" lon="18.09734">
        <ele>34</ele>
        <time>2019-12-04T16:36:50Z</time>
      </trkpt>
      <trkpt lat="59.265161" lon="18.097311">
        <ele>34</ele>
        <time>2019-12-04T16:36:51Z</time>
      </trkpt>
      <trkpt lat="59.265221" lon="18.097292">
        <ele>34</ele>
        <time>2019-12-04T16:36:52Z</time>
      </trkpt>
      <trkpt lat="59.265276" lon="18.097297">
        <ele>34</ele>
        <time>2019-12-04T16:36:53Z</time>
      </trkpt>
      <trkpt lat="59.265313" lon="18.097345">
        <ele>34</ele>
        <time>2019-12-04T16:36:54Z</time>
      </trkpt>
      <trkpt lat="59.265332" lon="18.097419">
        <ele>34</ele>
        <time>2019-12-04T16:36:55Z</time>
      </trkpt>
      <trkpt lat="59.265343" lon="18.0975">
        <ele>34</ele>
        <time>2019-12-04T16:36:56Z</time>
      </trkpt>
      <trkpt lat="59.265347" lon="18.097577">
        <ele>34</ele>
        <time>2019-12-04T16:36:57Z</time>
      </trkpt>
      <trkpt lat="59.265274" lon="18.09782">
        <ele>34</ele>
        <time>2019-12-04T16:37:00Z</time>
      </trkpt>
      <trkpt lat="59.26521" lon="18.098027">
        <ele>33</ele>
        <time>2019-12-04T16:37:01Z</time>
      </trkpt>
      <trkpt lat="59.26522" lon="18.098209">
        <ele>34</ele>
        <time>2019-12-04T16:37:02Z</time>
      </trkpt>
      <trkpt lat="59.265404" lon="18.098225">
        <ele>35</ele>
        <time>2019-12-04T16:37:03Z</time>
      </trkpt>
      <trkpt lat="59.26551" lon="18.098187">
        <ele>35</ele>
        <time>2019-12-04T16:37:05Z</time>
      </trkpt>
      <trkpt lat="59.265612" lon="18.098135">
        <ele>35</ele>
        <time>2019-12-04T16:37:08Z</time>
      </trkpt>
      <trkpt lat="59.265648" lon="18.098117">
        <ele>34</ele>
        <time>2019-12-04T16:37:09Z</time>
      </trkpt>
      <trkpt lat="59.265688" lon="18.098093">
        <ele>34</ele>
        <time>2019-12-04T16:37:10Z</time>
      </trkpt>
      <trkpt lat="59.265728" lon="18.098065">
        <ele>34</ele>
        <time>2019-12-04T16:37:11Z</time>
      </trkpt>
      <trkpt lat="59.265766" lon="18.098039">
        <ele>34</ele>
        <time>2019-12-04T16:37:12Z</time>
      </trkpt>
      <trkpt lat="59.265803" lon="18.098014">
        <ele>34</ele>
        <time>2019-12-04T16:37:13Z</time>
      </trkpt>
      <trkpt lat="59.26584" lon="18.097987">
        <ele>33</ele>
        <time>2019-12-04T16:37:14Z</time>
      </trkpt>
      <trkpt lat="59.265876" lon="18.097961">
        <ele>33</ele>
        <time>2019-12-04T16:37:15Z</time>
      </trkpt>
      <trkpt lat="59.265912" lon="18.097936">
        <ele>33</ele>
        <time>2019-12-04T16:37:16Z</time>
      </trkpt>
      <trkpt lat="59.265948" lon="18.097912">
        <ele>33</ele>
        <time>2019-12-04T16:37:17Z</time>
      </trkpt>
      <trkpt lat="59.265984" lon="18.097888">
        <ele>34</ele>
        <time>2019-12-04T16:37:18Z</time>
      </trkpt>
      <trkpt lat="59.26602" lon="18.097864">
        <ele>34</ele>
        <time>2019-12-04T16:37:19Z</time>
      </trkpt>
      <trkpt lat="59.266056" lon="18.097842">
        <ele>34</ele>
        <time>2019-12-04T16:37:20Z</time>
      </trkpt>
      <trkpt lat="59.266089" lon="18.097837">
        <ele>34</ele>
        <time>2019-12-04T16:37:21Z</time>
      </trkpt>
      <trkpt lat="59.266118" lon="18.097856">
        <ele>34</ele>
        <time>2019-12-04T16:37:22Z</time>
      </trkpt>
      <trkpt lat="59.266139" lon="18.097897">
        <ele>34</ele>
        <time>2019-12-04T16:37:23Z</time>
      </trkpt>
      <trkpt lat="59.266153" lon="18.097952">
        <ele>34</ele>
        <time>2019-12-04T16:37:24Z</time>
      </trkpt>
      <trkpt lat="59.266164" lon="18.098003">
        <ele>34</ele>
        <time>2019-12-04T16:37:25Z</time>
      </trkpt>
      <trkpt lat="59.266178" lon="18.098038">
        <ele>34</ele>
        <time>2019-12-04T16:37:26Z</time>
      </trkpt>
      <trkpt lat="59.266214" lon="18.098039">
        <ele>34</ele>
        <time>2019-12-04T16:37:28Z</time>
      </trkpt>
      <trkpt lat="59.26624" lon="18.098033">
        <ele>34</ele>
        <time>2019-12-04T16:37:29Z</time>
      </trkpt>
      <trkpt lat="59.266277" lon="18.098017">
        <ele>35</ele>
        <time>2019-12-04T16:37:30Z</time>
      </trkpt>
      <trkpt lat="59.266317" lon="18.097996">
        <ele>35</ele>
        <time>2019-12-04T16:37:31Z</time>
      </trkpt>
      <trkpt lat="59.266361" lon="18.097979">
        <ele>35</ele>
        <time>2019-12-04T16:37:32Z</time>
      </trkpt>
      <trkpt lat="59.266403" lon="18.097961">
        <ele>35</ele>
        <time>2019-12-04T16:37:33Z</time>
      </trkpt>
      <trkpt lat="59.266442" lon="18.097943">
        <ele>35</ele>
        <time>2019-12-04T16:37:34Z</time>
      </trkpt>
      <trkpt lat="59.266484" lon="18.097926">
        <ele>35</ele>
        <time>2019-12-04T16:37:35Z</time>
      </trkpt>
      <trkpt lat="59.266526" lon="18.097908">
        <ele>35</ele>
        <time>2019-12-04T16:37:36Z</time>
      </trkpt>
      <trkpt lat="59.266568" lon="18.097885">
        <ele>35</ele>
        <time>2019-12-04T16:37:37Z</time>
      </trkpt>
      <trkpt lat="59.266614" lon="18.097862">
        <ele>35</ele>
        <time>2019-12-04T16:37:38Z</time>
      </trkpt>
      <trkpt lat="59.266655" lon="18.097837">
        <ele>35</ele>
        <time>2019-12-04T16:37:39Z</time>
      </trkpt>
      <trkpt lat="59.266698" lon="18.097815">
        <ele>35</ele>
        <time>2019-12-04T16:37:40Z</time>
      </trkpt>
      <trkpt lat="59.26674" lon="18.097792">
        <ele>35</ele>
        <time>2019-12-04T16:37:41Z</time>
      </trkpt>
      <trkpt lat="59.266782" lon="18.09777">
        <ele>35</ele>
        <time>2019-12-04T16:37:42Z</time>
      </trkpt>
      <trkpt lat="59.266823" lon="18.09775">
        <ele>35</ele>
        <time>2019-12-04T16:37:43Z</time>
      </trkpt>
      <trkpt lat="59.266864" lon="18.097728">
        <ele>35</ele>
        <time>2019-12-04T16:37:44Z</time>
      </trkpt>
      <trkpt lat="59.266904" lon="18.097705">
        <ele>36</ele>
        <time>2019-12-04T16:37:45Z</time>
      </trkpt>
      <trkpt lat="59.266949" lon="18.097677">
        <ele>36</ele>
        <time>2019-12-04T16:37:46Z</time>
      </trkpt>
      <trkpt lat="59.267" lon="18.097637">
        <ele>36</ele>
        <time>2019-12-04T16:37:47Z</time>
      </trkpt>
      <trkpt lat="59.267046" lon="18.097604">
        <ele>36</ele>
        <time>2019-12-04T16:37:48Z</time>
      </trkpt>
      <trkpt lat="59.267089" lon="18.097575">
        <ele>36</ele>
        <time>2019-12-04T16:37:49Z</time>
      </trkpt>
      <trkpt lat="59.267132" lon="18.097549">
        <ele>36</ele>
        <time>2019-12-04T16:37:50Z</time>
      </trkpt>
      <trkpt lat="59.267178" lon="18.097519">
        <ele>36</ele>
        <time>2019-12-04T16:37:51Z</time>
      </trkpt>
      <trkpt lat="59.267228" lon="18.097487">
        <ele>36</ele>
        <time>2019-12-04T16:37:52Z</time>
      </trkpt>
      <trkpt lat="59.267281" lon="18.097453">
        <ele>37</ele>
        <time>2019-12-04T16:37:53Z</time>
      </trkpt>
      <trkpt lat="59.267334" lon="18.097417">
        <ele>37</ele>
        <time>2019-12-04T16:37:54Z</time>
      </trkpt>
      <trkpt lat="59.267388" lon="18.09738">
        <ele>37</ele>
        <time>2019-12-04T16:37:55Z</time>
      </trkpt>
      <trkpt lat="59.267439" lon="18.097343">
        <ele>37</ele>
        <time>2019-12-04T16:37:56Z</time>
      </trkpt>
      <trkpt lat="59.267494" lon="18.097305">
        <ele>37</ele>
        <time>2019-12-04T16:37:57Z</time>
      </trkpt>
      <trkpt lat="59.267555" lon="18.097256">
        <ele>37</ele>
        <time>2019-12-04T16:37:58Z</time>
      </trkpt>
      <trkpt lat="59.267608" lon="18.097221">
        <ele>37</ele>
        <time>2019-12-04T16:37:59Z</time>
      </trkpt>
      <trkpt lat="59.26766" lon="18.09719">
        <ele>37</ele>
        <time>2019-12-04T16:38:00Z</time>
      </trkpt>
      <trkpt lat="59.26772" lon="18.097157">
        <ele>37</ele>
        <time>2019-12-04T16:38:01Z</time>
      </trkpt>
      <trkpt lat="59.26778" lon="18.097125">
        <ele>37</ele>
        <time>2019-12-04T16:38:02Z</time>
      </trkpt>
      <trkpt lat="59.267836" lon="18.097093">
        <ele>38</ele>
        <time>2019-12-04T16:38:03Z</time>
      </trkpt>
      <trkpt lat="59.26789" lon="18.097061">
        <ele>38</ele>
        <time>2019-12-04T16:38:04Z</time>
      </trkpt>
      <trkpt lat="59.267942" lon="18.097036">
        <ele>38</ele>
        <time>2019-12-04T16:38:05Z</time>
      </trkpt>
      <trkpt lat="59.267992" lon="18.097015">
        <ele>38</ele>
        <time>2019-12-04T16:38:06Z</time>
      </trkpt>
      <trkpt lat="59.268038" lon="18.096994">
        <ele>38</ele>
        <time>2019-12-04T16:38:07Z</time>
      </trkpt>
      <trkpt lat="59.268091" lon="18.096967">
        <ele>38</ele>
        <time>2019-12-04T16:38:08Z</time>
      </trkpt>
      <trkpt lat="59.268145" lon="18.096935">
        <ele>38</ele>
        <time>2019-12-04T16:38:09Z</time>
      </trkpt>
      <trkpt lat="59.268197" lon="18.096897">
        <ele>38</ele>
        <time>2019-12-04T16:38:10Z</time>
      </trkpt>
      <trkpt lat="59.268248" lon="18.096856">
        <ele>38</ele>
        <time>2019-12-04T16:38:11Z</time>
      </trkpt>
      <trkpt lat="59.268295" lon="18.096817">
        <ele>38</ele>
        <time>2019-12-04T16:38:12Z</time>
      </trkpt>
      <trkpt lat="59.268339" lon="18.096782">
        <ele>38</ele>
        <time>2019-12-04T16:38:13Z</time>
      </trkpt>
      <trkpt lat="59.268386" lon="18.096745">
        <ele>38</ele>
        <time>2019-12-04T16:38:14Z</time>
      </trkpt>
      <trkpt lat="59.268439" lon="18.096706">
        <ele>38</ele>
        <time>2019-12-04T16:38:15Z</time>
      </trkpt>
      <trkpt lat="59.268493" lon="18.096667">
        <ele>38</ele>
        <time>2019-12-04T16:38:16Z</time>
      </trkpt>
      <trkpt lat="59.268547" lon="18.09663">
        <ele>38</ele>
        <time>2019-12-04T16:38:17Z</time>
      </trkpt>
      <trkpt lat="59.2686" lon="18.096596">
        <ele>38</ele>
        <time>2019-12-04T16:38:18Z</time>
      </trkpt>
      <trkpt lat="59.268652" lon="18.096562">
        <ele>38</ele>
        <time>2019-12-04T16:38:19Z</time>
      </trkpt>
      <trkpt lat="59.268705" lon="18.096529">
        <ele>38</ele>
        <time>2019-12-04T16:38:20Z</time>
      </trkpt>
      <trkpt lat="59.268759" lon="18.096496">
        <ele>37</ele>
        <time>2019-12-04T16:38:21Z</time>
      </trkpt>
      <trkpt lat="59.268812" lon="18.096464">
        <ele>37</ele>
        <time>2019-12-04T16:38:22Z</time>
      </trkpt>
      <trkpt lat="59.268862" lon="18.096435">
        <ele>37</ele>
        <time>2019-12-04T16:38:23Z</time>
      </trkpt>
      <trkpt lat="59.268911" lon="18.096409">
        <ele>37</ele>
        <time>2019-12-04T16:38:24Z</time>
      </trkpt>
      <trkpt lat="59.268963" lon="18.096389">
        <ele>37</ele>
        <time>2019-12-04T16:38:25Z</time>
      </trkpt>
      <trkpt lat="59.269015" lon="18.09637">
        <ele>38</ele>
        <time>2019-12-04T16:38:26Z</time>
      </trkpt>
      <trkpt lat="59.269065" lon="18.096353">
        <ele>38</ele>
        <time>2019-12-04T16:38:27Z</time>
      </trkpt>
      <trkpt lat="59.269113" lon="18.096334">
        <ele>38</ele>
        <time>2019-12-04T16:38:28Z</time>
      </trkpt>
      <trkpt lat="59.269158" lon="18.096314">
        <ele>38</ele>
        <time>2019-12-04T16:38:29Z</time>
      </trkpt>
      <trkpt lat="59.269202" lon="18.096293">
        <ele>38</ele>
        <time>2019-12-04T16:38:30Z</time>
      </trkpt>
      <trkpt lat="59.26925" lon="18.096265">
        <ele>38</ele>
        <time>2019-12-04T16:38:31Z</time>
      </trkpt>
      <trkpt lat="59.269301" lon="18.096234">
        <ele>38</ele>
        <time>2019-12-04T16:38:32Z</time>
      </trkpt>
      <trkpt lat="59.269351" lon="18.096204">
        <ele>38</ele>
        <time>2019-12-04T16:38:33Z</time>
      </trkpt>
      <trkpt lat="59.269398" lon="18.096172">
        <ele>38</ele>
        <time>2019-12-04T16:38:34Z</time>
      </trkpt>
      <trkpt lat="59.269448" lon="18.096137">
        <ele>38</ele>
        <time>2019-12-04T16:38:35Z</time>
      </trkpt>
      <trkpt lat="59.269497" lon="18.096107">
        <ele>38</ele>
        <time>2019-12-04T16:38:36Z</time>
      </trkpt>
      <trkpt lat="59.269545" lon="18.096081">
        <ele>38</ele>
        <time>2019-12-04T16:38:37Z</time>
      </trkpt>
      <trkpt lat="59.269587" lon="18.096059">
        <ele>39</ele>
        <time>2019-12-04T16:38:38Z</time>
      </trkpt>
      <trkpt lat="59.269631" lon="18.096037">
        <ele>39</ele>
        <time>2019-12-04T16:38:39Z</time>
      </trkpt>
      <trkpt lat="59.269675" lon="18.09601">
        <ele>39</ele>
        <time>2019-12-04T16:38:40Z</time>
      </trkpt>
      <trkpt lat="59.269722" lon="18.09598">
        <ele>39</ele>
        <time>2019-12-04T16:38:41Z</time>
      </trkpt>
      <trkpt lat="59.269777" lon="18.095946">
        <ele>39</ele>
        <time>2019-12-04T16:38:42Z</time>
      </trkpt>
      <trkpt lat="59.269832" lon="18.095916">
        <ele>39</ele>
        <time>2019-12-04T16:38:43Z</time>
      </trkpt>
      <trkpt lat="59.269889" lon="18.095882">
        <ele>39</ele>
        <time>2019-12-04T16:38:44Z</time>
      </trkpt>
      <trkpt lat="59.269941" lon="18.095845">
        <ele>39</ele>
        <time>2019-12-04T16:38:45Z</time>
      </trkpt>
      <trkpt lat="59.269993" lon="18.09581">
        <ele>39</ele>
        <time>2019-12-04T16:38:46Z</time>
      </trkpt>
      <trkpt lat="59.270046" lon="18.095771">
        <ele>39</ele>
        <time>2019-12-04T16:38:47Z</time>
      </trkpt>
      <trkpt lat="59.270098" lon="18.095731">
        <ele>40</ele>
        <time>2019-12-04T16:38:48Z</time>
      </trkpt>
      <trkpt lat="59.270154" lon="18.095699">
        <ele>40</ele>
        <time>2019-12-04T16:38:49Z</time>
      </trkpt>
      <trkpt lat="59.270212" lon="18.095665">
        <ele>40</ele>
        <time>2019-12-04T16:38:50Z</time>
      </trkpt>
      <trkpt lat="59.270271" lon="18.095632">
        <ele>39</ele>
        <time>2019-12-04T16:38:51Z</time>
      </trkpt>
      <trkpt lat="59.27033" lon="18.095606">
        <ele>39</ele>
        <time>2019-12-04T16:38:52Z</time>
      </trkpt>
      <trkpt lat="59.270393" lon="18.095577">
        <ele>39</ele>
        <time>2019-12-04T16:38:53Z</time>
      </trkpt>
      <trkpt lat="59.270451" lon="18.095558">
        <ele>39</ele>
        <time>2019-12-04T16:38:54Z</time>
      </trkpt>
      <trkpt lat="59.270506" lon="18.095544">
        <ele>39</ele>
        <time>2019-12-04T16:38:55Z</time>
      </trkpt>
      <trkpt lat="59.270562" lon="18.095528">
        <ele>39</ele>
        <time>2019-12-04T16:38:56Z</time>
      </trkpt>
      <trkpt lat="59.270616" lon="18.095503">
        <ele>39</ele>
        <time>2019-12-04T16:38:57Z</time>
      </trkpt>
      <trkpt lat="59.270667" lon="18.095473">
        <ele>39</ele>
        <time>2019-12-04T16:38:58Z</time>
      </trkpt>
      <trkpt lat="59.270719" lon="18.095442">
        <ele>40</ele>
        <time>2019-12-04T16:38:59Z</time>
      </trkpt>
      <trkpt lat="59.270772" lon="18.095403">
        <ele>40</ele>
        <time>2019-12-04T16:39:00Z</time>
      </trkpt>
      <trkpt lat="59.270831" lon="18.095358">
        <ele>40</ele>
        <time>2019-12-04T16:39:01Z</time>
      </trkpt>
      <trkpt lat="59.270892" lon="18.095315">
        <ele>40</ele>
        <time>2019-12-04T16:39:02Z</time>
      </trkpt>
      <trkpt lat="59.270953" lon="18.095277">
        <ele>40</ele>
        <time>2019-12-04T16:39:03Z</time>
      </trkpt>
      <trkpt lat="59.271013" lon="18.095249">
        <ele>40</ele>
        <time>2019-12-04T16:39:04Z</time>
      </trkpt>
      <trkpt lat="59.27107" lon="18.095225">
        <ele>40</ele>
        <time>2019-12-04T16:39:05Z</time>
      </trkpt>
      <trkpt lat="59.271124" lon="18.095201">
        <ele>40</ele>
        <time>2019-12-04T16:39:06Z</time>
      </trkpt>
      <trkpt lat="59.271181" lon="18.095176">
        <ele>40</ele>
        <time>2019-12-04T16:39:07Z</time>
      </trkpt>
      <trkpt lat="59.271241" lon="18.095145">
        <ele>39</ele>
        <time>2019-12-04T16:39:08Z</time>
      </trkpt>
      <trkpt lat="59.271298" lon="18.095121">
        <ele>40</ele>
        <time>2019-12-04T16:39:09Z</time>
      </trkpt>
      <trkpt lat="59.271351" lon="18.095097">
        <ele>40</ele>
        <time>2019-12-04T16:39:10Z</time>
      </trkpt>
      <trkpt lat="59.271398" lon="18.095087">
        <ele>40</ele>
        <time>2019-12-04T16:39:11Z</time>
      </trkpt>
      <trkpt lat="59.271446" lon="18.095073">
        <ele>40</ele>
        <time>2019-12-04T16:39:12Z</time>
      </trkpt>
      <trkpt lat="59.271494" lon="18.095053">
        <ele>40</ele>
        <time>2019-12-04T16:39:13Z</time>
      </trkpt>
      <trkpt lat="59.27154" lon="18.095038">
        <ele>40</ele>
        <time>2019-12-04T16:39:14Z</time>
      </trkpt>
      <trkpt lat="59.271585" lon="18.095023">
        <ele>40</ele>
        <time>2019-12-04T16:39:15Z</time>
      </trkpt>
      <trkpt lat="59.271627" lon="18.095009">
        <ele>40</ele>
        <time>2019-12-04T16:39:16Z</time>
      </trkpt>
      <trkpt lat="59.271676" lon="18.094986">
        <ele>40</ele>
        <time>2019-12-04T16:39:17Z</time>
      </trkpt>
      <trkpt lat="59.271727" lon="18.094959">
        <ele>40</ele>
        <time>2019-12-04T16:39:18Z</time>
      </trkpt>
      <trkpt lat="59.271776" lon="18.094929">
        <ele>40</ele>
        <time>2019-12-04T16:39:19Z</time>
      </trkpt>
      <trkpt lat="59.271821" lon="18.094892">
        <ele>40</ele>
        <time>2019-12-04T16:39:20Z</time>
      </trkpt>
      <trkpt lat="59.271872" lon="18.094854">
        <ele>40</ele>
        <time>2019-12-04T16:39:21Z</time>
      </trkpt>
      <trkpt lat="59.271922" lon="18.094819">
        <ele>40</ele>
        <time>2019-12-04T16:39:22Z</time>
      </trkpt>
      <trkpt lat="59.271978" lon="18.094788">
        <ele>40</ele>
        <time>2019-12-04T16:39:23Z</time>
      </trkpt>
      <trkpt lat="59.272029" lon="18.094763">
        <ele>40</ele>
        <time>2019-12-04T16:39:24Z</time>
      </trkpt>
      <trkpt lat="59.272078" lon="18.094746">
        <ele>39</ele>
        <time>2019-12-04T16:39:25Z</time>
      </trkpt>
      <trkpt lat="59.272126" lon="18.094728">
        <ele>40</ele>
        <time>2019-12-04T16:39:26Z</time>
      </trkpt>
      <trkpt lat="59.272175" lon="18.094712">
        <ele>40</ele>
        <time>2019-12-04T16:39:27Z</time>
      </trkpt>
      <trkpt lat="59.272224" lon="18.094694">
        <ele>40</ele>
        <time>2019-12-04T16:39:28Z</time>
      </trkpt>
      <trkpt lat="59.272272" lon="18.09468">
        <ele>40</ele>
        <time>2019-12-04T16:39:29Z</time>
      </trkpt>
      <trkpt lat="59.27232" lon="18.09467">
        <ele>40</ele>
        <time>2019-12-04T16:39:30Z</time>
      </trkpt>
      <trkpt lat="59.272367" lon="18.094656">
        <ele>40</ele>
        <time>2019-12-04T16:39:31Z</time>
      </trkpt>
      <trkpt lat="59.272414" lon="18.094642">
        <ele>40</ele>
        <time>2019-12-04T16:39:32Z</time>
      </trkpt>
      <trkpt lat="59.272461" lon="18.09463">
        <ele>40</ele>
        <time>2019-12-04T16:39:33Z</time>
      </trkpt>
      <trkpt lat="59.272508" lon="18.094619">
        <ele>41</ele>
        <time>2019-12-04T16:39:34Z</time>
      </trkpt>
      <trkpt lat="59.272555" lon="18.094607">
        <ele>41</ele>
        <time>2019-12-04T16:39:35Z</time>
      </trkpt>
      <trkpt lat="59.272602" lon="18.094595">
        <ele>41</ele>
        <time>2019-12-04T16:39:36Z</time>
      </trkpt>
      <trkpt lat="59.272649" lon="18.094579">
        <ele>41</ele>
        <time>2019-12-04T16:39:37Z</time>
      </trkpt>
      <trkpt lat="59.272695" lon="18.094562">
        <ele>41</ele>
        <time>2019-12-04T16:39:38Z</time>
      </trkpt>
      <trkpt lat="59.272741" lon="18.094545">
        <ele>41</ele>
        <time>2019-12-04T16:39:39Z</time>
      </trkpt>
      <trkpt lat="59.272786" lon="18.094531">
        <ele>41</ele>
        <time>2019-12-04T16:39:40Z</time>
      </trkpt>
      <trkpt lat="59.272832" lon="18.094516">
        <ele>41</ele>
        <time>2019-12-04T16:39:41Z</time>
      </trkpt>
      <trkpt lat="59.272878" lon="18.094501">
        <ele>41</ele>
        <time>2019-12-04T16:39:42Z</time>
      </trkpt>
      <trkpt lat="59.272924" lon="18.094485">
        <ele>41</ele>
        <time>2019-12-04T16:39:43Z</time>
      </trkpt>
      <trkpt lat="59.272972" lon="18.094469">
        <ele>41</ele>
        <time>2019-12-04T16:39:44Z</time>
      </trkpt>
      <trkpt lat="59.27302" lon="18.094453">
        <ele>41</ele>
        <time>2019-12-04T16:39:45Z</time>
      </trkpt>
      <trkpt lat="59.27307" lon="18.094436">
        <ele>40</ele>
        <time>2019-12-04T16:39:46Z</time>
      </trkpt>
      <trkpt lat="59.273122" lon="18.094418">
        <ele>40</ele>
        <time>2019-12-04T16:39:47Z</time>
      </trkpt>
      <trkpt lat="59.273178" lon="18.094404">
        <ele>40</ele>
        <time>2019-12-04T16:39:48Z</time>
      </trkpt>
      <trkpt lat="59.273237" lon="18.09439">
        <ele>40</ele>
        <time>2019-12-04T16:39:49Z</time>
      </trkpt>
      <trkpt lat="59.273298" lon="18.094374">
        <ele>40</ele>
        <time>2019-12-04T16:39:50Z</time>
      </trkpt>
      <trkpt lat="59.273362" lon="18.094351">
        <ele>39</ele>
        <time>2019-12-04T16:39:51Z</time>
      </trkpt>
      <trkpt lat="59.273427" lon="18.094325">
        <ele>39</ele>
        <time>2019-12-04T16:39:52Z</time>
      </trkpt>
      <trkpt lat="59.273493" lon="18.09429">
        <ele>39</ele>
        <time>2019-12-04T16:39:53Z</time>
      </trkpt>
      <trkpt lat="59.273559" lon="18.094245">
        <ele>38</ele>
        <time>2019-12-04T16:39:54Z</time>
      </trkpt>
      <trkpt lat="59.273626" lon="18.094195">
        <ele>38</ele>
        <time>2019-12-04T16:39:55Z</time>
      </trkpt>
      <trkpt lat="59.273695" lon="18.094148">
        <ele>38</ele>
        <time>2019-12-04T16:39:56Z</time>
      </trkpt>
      <trkpt lat="59.273767" lon="18.094107">
        <ele>38</ele>
        <time>2019-12-04T16:39:57Z</time>
      </trkpt>
      <trkpt lat="59.273841" lon="18.094071">
        <ele>37</ele>
        <time>2019-12-04T16:39:58Z</time>
      </trkpt>
      <trkpt lat="59.273917" lon="18.094037">
        <ele>37</ele>
        <time>2019-12-04T16:39:59Z</time>
      </trkpt>
      <trkpt lat="59.273996" lon="18.094002">
        <ele>37</ele>
        <time>2019-12-04T16:40:00Z</time>
      </trkpt>
      <trkpt lat="59.274077" lon="18.093965">
        <ele>36</ele>
        <time>2019-12-04T16:40:01Z</time>
      </trkpt>
      <trkpt lat="59.274158" lon="18.09393">
        <ele>36</ele>
        <time>2019-12-04T16:40:02Z</time>
      </trkpt>
      <trkpt lat="59.274242" lon="18.093894">
        <ele>36</ele>
        <time>2019-12-04T16:40:03Z</time>
      </trkpt>
      <trkpt lat="59.274326" lon="18.093856">
        <ele>35</ele>
        <time>2019-12-04T16:40:04Z</time>
      </trkpt>
      <trkpt lat="59.274411" lon="18.093821">
        <ele>35</ele>
        <time>2019-12-04T16:40:05Z</time>
      </trkpt>
      <trkpt lat="59.274495" lon="18.093787">
        <ele>35</ele>
        <time>2019-12-04T16:40:06Z</time>
      </trkpt>
      <trkpt lat="59.274579" lon="18.093755">
        <ele>35</ele>
        <time>2019-12-04T16:40:07Z</time>
      </trkpt>
      <trkpt lat="59.274662" lon="18.093724">
        <ele>34</ele>
        <time>2019-12-04T16:40:08Z</time>
      </trkpt>
      <trkpt lat="59.274743" lon="18.093691">
        <ele>34</ele>
        <time>2019-12-04T16:40:09Z</time>
      </trkpt>
      <trkpt lat="59.274822" lon="18.093659">
        <ele>34</ele>
        <time>2019-12-04T16:40:10Z</time>
      </trkpt>
      <trkpt lat="59.2749" lon="18.093629">
        <ele>34</ele>
        <time>2019-12-04T16:40:11Z</time>
      </trkpt>
      <trkpt lat="59.274976" lon="18.093603">
        <ele>34</ele>
        <time>2019-12-04T16:40:12Z</time>
      </trkpt>
      <trkpt lat="59.27505" lon="18.093578">
        <ele>34</ele>
        <time>2019-12-04T16:40:13Z</time>
      </trkpt>
      <trkpt lat="59.275125" lon="18.093553">
        <ele>34</ele>
        <time>2019-12-04T16:40:14Z</time>
      </trkpt>
      <trkpt lat="59.275201" lon="18.093527">
        <ele>34</ele>
        <time>2019-12-04T16:40:15Z</time>
      </trkpt>
      <trkpt lat="59.275275" lon="18.093503">
        <ele>34</ele>
        <time>2019-12-04T16:40:16Z</time>
      </trkpt>
      <trkpt lat="59.275349" lon="18.093486">
        <ele>34</ele>
        <time>2019-12-04T16:40:17Z</time>
      </trkpt>
      <trkpt lat="59.275423" lon="18.093464">
        <ele>34</ele>
        <time>2019-12-04T16:40:18Z</time>
      </trkpt>
      <trkpt lat="59.275497" lon="18.093442">
        <ele>34</ele>
        <time>2019-12-04T16:40:19Z</time>
      </trkpt>
      <trkpt lat="59.275571" lon="18.093423">
        <ele>34</ele>
        <time>2019-12-04T16:40:20Z</time>
      </trkpt>
      <trkpt lat="59.275644" lon="18.093406">
        <ele>34</ele>
        <time>2019-12-04T16:40:21Z</time>
      </trkpt>
      <trkpt lat="59.275717" lon="18.093386">
        <ele>34</ele>
        <time>2019-12-04T16:40:22Z</time>
      </trkpt>
      <trkpt lat="59.27579" lon="18.093368">
        <ele>34</ele>
        <time>2019-12-04T16:40:23Z</time>
      </trkpt>
      <trkpt lat="59.275863" lon="18.093348">
        <ele>34</ele>
        <time>2019-12-04T16:40:24Z</time>
      </trkpt>
      <trkpt lat="59.275935" lon="18.093329">
        <ele>34</ele>
        <time>2019-12-04T16:40:25Z</time>
      </trkpt>
      <trkpt lat="59.276006" lon="18.093307">
        <ele>34</ele>
        <time>2019-12-04T16:40:26Z</time>
      </trkpt>
      <trkpt lat="59.276077" lon="18.093288">
        <ele>34</ele>
        <time>2019-12-04T16:40:27Z</time>
      </trkpt>
      <trkpt lat="59.276149" lon="18.093279">
        <ele>34</ele>
        <time>2019-12-04T16:40:28Z</time>
      </trkpt>
      <trkpt lat="59.276219" lon="18.093271">
        <ele>34</ele>
        <time>2019-12-04T16:40:29Z</time>
      </trkpt>
      <trkpt lat="59.276287" lon="18.093255">
        <ele>34</ele>
        <time>2019-12-04T16:40:30Z</time>
      </trkpt>
      <trkpt lat="59.276355" lon="18.093241">
        <ele>34</ele>
        <time>2019-12-04T16:40:31Z</time>
      </trkpt>
      <trkpt lat="59.276421" lon="18.09323">
        <ele>34</ele>
        <time>2019-12-04T16:40:32Z</time>
      </trkpt>
      <trkpt lat="59.276486" lon="18.093219">
        <ele>34</ele>
        <time>2019-12-04T16:40:33Z</time>
      </trkpt>
      <trkpt lat="59.276552" lon="18.093207">
        <ele>34</ele>
        <time>2019-12-04T16:40:34Z</time>
      </trkpt>
      <trkpt lat="59.276617" lon="18.093195">
        <ele>34</ele>
        <time>2019-12-04T16:40:35Z</time>
      </trkpt>
      <trkpt lat="59.276683" lon="18.093184">
        <ele>34</ele>
        <time>2019-12-04T16:40:36Z</time>
      </trkpt>
      <trkpt lat="59.276749" lon="18.093173">
        <ele>34</ele>
        <time>2019-12-04T16:40:37Z</time>
      </trkpt>
      <trkpt lat="59.276814" lon="18.093161">
        <ele>34</ele>
        <time>2019-12-04T16:40:38Z</time>
      </trkpt>
      <trkpt lat="59.276879" lon="18.093146">
        <ele>34</ele>
        <time>2019-12-04T16:40:39Z</time>
      </trkpt>
      <trkpt lat="59.276942" lon="18.093131">
        <ele>34</ele>
        <time>2019-12-04T16:40:40Z</time>
      </trkpt>
      <trkpt lat="59.277005" lon="18.093116">
        <ele>34</ele>
        <time>2019-12-04T16:40:41Z</time>
      </trkpt>
      <trkpt lat="59.277067" lon="18.093097">
        <ele>34</ele>
        <time>2019-12-04T16:40:42Z</time>
      </trkpt>
      <trkpt lat="59.27713" lon="18.093075">
        <ele>34</ele>
        <time>2019-12-04T16:40:43Z</time>
      </trkpt>
      <trkpt lat="59.277194" lon="18.093051">
        <ele>33</ele>
        <time>2019-12-04T16:40:44Z</time>
      </trkpt>
      <trkpt lat="59.277258" lon="18.093028">
        <ele>33</ele>
        <time>2019-12-04T16:40:45Z</time>
      </trkpt>
      <trkpt lat="59.277324" lon="18.093004">
        <ele>33</ele>
        <time>2019-12-04T16:40:46Z</time>
      </trkpt>
      <trkpt lat="59.27739" lon="18.092976">
        <ele>33</ele>
        <time>2019-12-04T16:40:47Z</time>
      </trkpt>
      <trkpt lat="59.277458" lon="18.092948">
        <ele>33</ele>
        <time>2019-12-04T16:40:48Z</time>
      </trkpt>
      <trkpt lat="59.277525" lon="18.09292">
        <ele>33</ele>
        <time>2019-12-04T16:40:49Z</time>
      </trkpt>
      <trkpt lat="59.277593" lon="18.092892">
        <ele>32</ele>
        <time>2019-12-04T16:40:50Z</time>
      </trkpt>
      <trkpt lat="59.277661" lon="18.092866">
        <ele>32</ele>
        <time>2019-12-04T16:40:51Z</time>
      </trkpt>
      <trkpt lat="59.277729" lon="18.092843">
        <ele>32</ele>
        <time>2019-12-04T16:40:52Z</time>
      </trkpt>
      <trkpt lat="59.277797" lon="18.092824">
        <ele>32</ele>
        <time>2019-12-04T16:40:53Z</time>
      </trkpt>
      <trkpt lat="59.277864" lon="18.092805">
        <ele>32</ele>
        <time>2019-12-04T16:40:54Z</time>
      </trkpt>
      <trkpt lat="59.277932" lon="18.092784">
        <ele>32</ele>
        <time>2019-12-04T16:40:55Z</time>
      </trkpt>
      <trkpt lat="59.277999" lon="18.092761">
        <ele>32</ele>
        <time>2019-12-04T16:40:56Z</time>
      </trkpt>
      <trkpt lat="59.278066" lon="18.092737">
        <ele>31</ele>
        <time>2019-12-04T16:40:57Z</time>
      </trkpt>
      <trkpt lat="59.278133" lon="18.092712">
        <ele>31</ele>
        <time>2019-12-04T16:40:58Z</time>
      </trkpt>
      <trkpt lat="59.2782" lon="18.092687">
        <ele>31</ele>
        <time>2019-12-04T16:40:59Z</time>
      </trkpt>
      <trkpt lat="59.278266" lon="18.09266">
        <ele>32</ele>
        <time>2019-12-04T16:41:00Z</time>
      </trkpt>
      <trkpt lat="59.278332" lon="18.092629">
        <ele>32</ele>
        <time>2019-12-04T16:41:01Z</time>
      </trkpt>
      <trkpt lat="59.278399" lon="18.092596">
        <ele>32</ele>
        <time>2019-12-04T16:41:02Z</time>
      </trkpt>
      <trkpt lat="59.278466" lon="18.092566">
        <ele>31</ele>
        <time>2019-12-04T16:41:03Z</time>
      </trkpt>
      <trkpt lat="59.278534" lon="18.092537">
        <ele>31</ele>
        <time>2019-12-04T16:41:04Z</time>
      </trkpt>
      <trkpt lat="59.278603" lon="18.092508">
        <ele>31</ele>
        <time>2019-12-04T16:41:05Z</time>
      </trkpt>
      <trkpt lat="59.278671" lon="18.09248">
        <ele>31</ele>
        <time>2019-12-04T16:41:06Z</time>
      </trkpt>
      <trkpt lat="59.27874" lon="18.092453">
        <ele>31</ele>
        <time>2019-12-04T16:41:07Z</time>
      </trkpt>
      <trkpt lat="59.278808" lon="18.092424">
        <ele>31</ele>
        <time>2019-12-04T16:41:08Z</time>
      </trkpt>
      <trkpt lat="59.278873" lon="18.092396">
        <ele>31</ele>
        <time>2019-12-04T16:41:09Z</time>
      </trkpt>
      <trkpt lat="59.278936" lon="18.092372">
        <ele>31</ele>
        <time>2019-12-04T16:41:10Z</time>
      </trkpt>
      <trkpt lat="59.278994" lon="18.092344">
        <ele>31</ele>
        <time>2019-12-04T16:41:11Z</time>
      </trkpt>
      <trkpt lat="59.279047" lon="18.092316">
        <ele>31</ele>
        <time>2019-12-04T16:41:12Z</time>
      </trkpt>
      <trkpt lat="59.279094" lon="18.092298">
        <ele>31</ele>
        <time>2019-12-04T16:41:13Z</time>
      </trkpt>
      <trkpt lat="59.279134" lon="18.092284">
        <ele>31</ele>
        <time>2019-12-04T16:41:14Z</time>
      </trkpt>
      <trkpt lat="59.279167" lon="18.092276">
        <ele>31</ele>
        <time>2019-12-04T16:41:15Z</time>
      </trkpt>
      <trkpt lat="59.279194" lon="18.092271">
        <ele>31</ele>
        <time>2019-12-04T16:41:16Z</time>
      </trkpt>
      <trkpt lat="59.279218" lon="18.092276">
        <ele>32</ele>
        <time>2019-12-04T16:41:17Z</time>
      </trkpt>
      <trkpt lat="59.279237" lon="18.09228">
        <ele>32</ele>
        <time>2019-12-04T16:41:18Z</time>
      </trkpt>
      <trkpt lat="59.27926" lon="18.092276">
        <ele>32</ele>
        <time>2019-12-04T16:41:20Z</time>
      </trkpt>
      <trkpt lat="59.279263" lon="18.092276">
        <ele>32</ele>
        <time>2019-12-04T16:41:24Z</time>
      </trkpt>
      <trkpt lat="59.279309" lon="18.092268">
        <ele>32</ele>
        <time>2019-12-04T16:41:52Z</time>
      </trkpt>
      <trkpt lat="59.279341" lon="18.092254">
        <ele>32</ele>
        <time>2019-12-04T16:41:53Z</time>
      </trkpt>
      <trkpt lat="59.27938" lon="18.092235">
        <ele>32</ele>
        <time>2019-12-04T16:41:54Z</time>
      </trkpt>
      <trkpt lat="59.279425" lon="18.092214">
        <ele>32</ele>
        <time>2019-12-04T16:41:55Z</time>
      </trkpt>
      <trkpt lat="59.279472" lon="18.09219">
        <ele>32</ele>
        <time>2019-12-04T16:41:56Z</time>
      </trkpt>
      <trkpt lat="59.279521" lon="18.092164">
        <ele>32</ele>
        <time>2019-12-04T16:41:57Z</time>
      </trkpt>
      <trkpt lat="59.27957" lon="18.092139">
        <ele>32</ele>
        <time>2019-12-04T16:41:58Z</time>
      </trkpt>
      <trkpt lat="59.27962" lon="18.092118">
        <ele>32</ele>
        <time>2019-12-04T16:41:59Z</time>
      </trkpt>
      <trkpt lat="59.27967" lon="18.092096">
        <ele>32</ele>
        <time>2019-12-04T16:42:00Z</time>
      </trkpt>
      <trkpt lat="59.279721" lon="18.092066">
        <ele>32</ele>
        <time>2019-12-04T16:42:01Z</time>
      </trkpt>
      <trkpt lat="59.279772" lon="18.092037">
        <ele>32</ele>
        <time>2019-12-04T16:42:02Z</time>
      </trkpt>
      <trkpt lat="59.279824" lon="18.09201">
        <ele>32</ele>
        <time>2019-12-04T16:42:03Z</time>
      </trkpt>
      <trkpt lat="59.279878" lon="18.091984">
        <ele>32</ele>
        <time>2019-12-04T16:42:04Z</time>
      </trkpt>
      <trkpt lat="59.27993" lon="18.091961">
        <ele>32</ele>
        <time>2019-12-04T16:42:05Z</time>
      </trkpt>
      <trkpt lat="59.279982" lon="18.09194">
        <ele>32</ele>
        <time>2019-12-04T16:42:06Z</time>
      </trkpt>
      <trkpt lat="59.280035" lon="18.091921">
        <ele>32</ele>
        <time>2019-12-04T16:42:07Z</time>
      </trkpt>
      <trkpt lat="59.280088" lon="18.091903">
        <ele>32</ele>
        <time>2019-12-04T16:42:08Z</time>
      </trkpt>
      <trkpt lat="59.28014" lon="18.091882">
        <ele>32</ele>
        <time>2019-12-04T16:42:09Z</time>
      </trkpt>
      <trkpt lat="59.280194" lon="18.091863">
        <ele>32</ele>
        <time>2019-12-04T16:42:10Z</time>
      </trkpt>
      <trkpt lat="59.280247" lon="18.091847">
        <ele>32</ele>
        <time>2019-12-04T16:42:11Z</time>
      </trkpt>
      <trkpt lat="59.280299" lon="18.091828">
        <ele>32</ele>
        <time>2019-12-04T16:42:12Z</time>
      </trkpt>
      <trkpt lat="59.28035" lon="18.091809">
        <ele>32</ele>
        <time>2019-12-04T16:42:13Z</time>
      </trkpt>
      <trkpt lat="59.280401" lon="18.091791">
        <ele>32</ele>
        <time>2019-12-04T16:42:14Z</time>
      </trkpt>
      <trkpt lat="59.280451" lon="18.091773">
        <ele>32</ele>
        <time>2019-12-04T16:42:15Z</time>
      </trkpt>
      <trkpt lat="59.280499" lon="18.091755">
        <ele>32</ele>
        <time>2019-12-04T16:42:16Z</time>
      </trkpt>
      <trkpt lat="59.280546" lon="18.091737">
        <ele>32</ele>
        <time>2019-12-04T16:42:17Z</time>
      </trkpt>
      <trkpt lat="59.280596" lon="18.091718">
        <ele>32</ele>
        <time>2019-12-04T16:42:18Z</time>
      </trkpt>
      <trkpt lat="59.280646" lon="18.091703">
        <ele>32</ele>
        <time>2019-12-04T16:42:19Z</time>
      </trkpt>
      <trkpt lat="59.2807" lon="18.091687">
        <ele>32</ele>
        <time>2019-12-04T16:42:20Z</time>
      </trkpt>
      <trkpt lat="59.280752" lon="18.091666">
        <ele>32</ele>
        <time>2019-12-04T16:42:21Z</time>
      </trkpt>
      <trkpt lat="59.280806" lon="18.091644">
        <ele>32</ele>
        <time>2019-12-04T16:42:22Z</time>
      </trkpt>
      <trkpt lat="59.28086" lon="18.091625">
        <ele>32</ele>
        <time>2019-12-04T16:42:23Z</time>
      </trkpt>
      <trkpt lat="59.280912" lon="18.091606">
        <ele>32</ele>
        <time>2019-12-04T16:42:24Z</time>
      </trkpt>
      <trkpt lat="59.280965" lon="18.091589">
        <ele>32</ele>
        <time>2019-12-04T16:42:25Z</time>
      </trkpt>
      <trkpt lat="59.281018" lon="18.091571">
        <ele>32</ele>
        <time>2019-12-04T16:42:26Z</time>
      </trkpt>
      <trkpt lat="59.28107" lon="18.091553">
        <ele>32</ele>
        <time>2019-12-04T16:42:27Z</time>
      </trkpt>
      <trkpt lat="59.281119" lon="18.091537">
        <ele>32</ele>
        <time>2019-12-04T16:42:28Z</time>
      </trkpt>
      <trkpt lat="59.28117" lon="18.091513">
        <ele>31</ele>
        <time>2019-12-04T16:42:29Z</time>
      </trkpt>
      <trkpt lat="59.281217" lon="18.091475">
        <ele>31</ele>
        <time>2019-12-04T16:42:30Z</time>
      </trkpt>
      <trkpt lat="59.281268" lon="18.091431">
        <ele>31</ele>
        <time>2019-12-04T16:42:31Z</time>
      </trkpt>
      <trkpt lat="59.281323" lon="18.091397">
        <ele>31</ele>
        <time>2019-12-04T16:42:32Z</time>
      </trkpt>
      <trkpt lat="59.281378" lon="18.091368">
        <ele>31</ele>
        <time>2019-12-04T16:42:33Z</time>
      </trkpt>
      <trkpt lat="59.281436" lon="18.091345">
        <ele>31</ele>
        <time>2019-12-04T16:42:34Z</time>
      </trkpt>
      <trkpt lat="59.281493" lon="18.091326">
        <ele>31</ele>
        <time>2019-12-04T16:42:35Z</time>
      </trkpt>
      <trkpt lat="59.281552" lon="18.091308">
        <ele>31</ele>
        <time>2019-12-04T16:42:36Z</time>
      </trkpt>
      <trkpt lat="59.281608" lon="18.091288">
        <ele>31</ele>
        <time>2019-12-04T16:42:37Z</time>
      </trkpt>
      <trkpt lat="59.281666" lon="18.09127">
        <ele>31</ele>
        <time>2019-12-04T16:42:38Z</time>
      </trkpt>
      <trkpt lat="59.281722" lon="18.091253">
        <ele>31</ele>
        <time>2019-12-04T16:42:39Z</time>
      </trkpt>
      <trkpt lat="59.28178" lon="18.091235">
        <ele>32</ele>
        <time>2019-12-04T16:42:40Z</time>
      </trkpt>
      <trkpt lat="59.281837" lon="18.091217">
        <ele>32</ele>
        <time>2019-12-04T16:42:41Z</time>
      </trkpt>
      <trkpt lat="59.281894" lon="18.091201">
        <ele>32</ele>
        <time>2019-12-04T16:42:42Z</time>
      </trkpt>
      <trkpt lat="59.281952" lon="18.091187">
        <ele>32</ele>
        <time>2019-12-04T16:42:43Z</time>
      </trkpt>
      <trkpt lat="59.282008" lon="18.091175">
        <ele>32</ele>
        <time>2019-12-04T16:42:44Z</time>
      </trkpt>
      <trkpt lat="59.282064" lon="18.091164">
        <ele>32</ele>
        <time>2019-12-04T16:42:45Z</time>
      </trkpt>
      <trkpt lat="59.282121" lon="18.091154">
        <ele>32</ele>
        <time>2019-12-04T16:42:46Z</time>
      </trkpt>
      <trkpt lat="59.282177" lon="18.091143">
        <ele>32</ele>
        <time>2019-12-04T16:42:47Z</time>
      </trkpt>
      <trkpt lat="59.282232" lon="18.091132">
        <ele>32</ele>
        <time>2019-12-04T16:42:48Z</time>
      </trkpt>
      <trkpt lat="59.282283" lon="18.091132">
        <ele>32</ele>
        <time>2019-12-04T16:42:49Z</time>
      </trkpt>
      <trkpt lat="59.282328" lon="18.091142">
        <ele>32</ele>
        <time>2019-12-04T16:42:50Z</time>
      </trkpt>
      <trkpt lat="59.282374" lon="18.091142">
        <ele>32</ele>
        <time>2019-12-04T16:42:51Z</time>
      </trkpt>
      <trkpt lat="59.282422" lon="18.091126">
        <ele>32</ele>
        <time>2019-12-04T16:42:52Z</time>
      </trkpt>
      <trkpt lat="59.282466" lon="18.091106">
        <ele>32</ele>
        <time>2019-12-04T16:42:53Z</time>
      </trkpt>
      <trkpt lat="59.282512" lon="18.091076">
        <ele>32</ele>
        <time>2019-12-04T16:42:54Z</time>
      </trkpt>
      <trkpt lat="59.282554" lon="18.091042">
        <ele>32</ele>
        <time>2019-12-04T16:42:55Z</time>
      </trkpt>
      <trkpt lat="59.282596" lon="18.091012">
        <ele>33</ele>
        <time>2019-12-04T16:42:56Z</time>
      </trkpt>
      <trkpt lat="59.282636" lon="18.090983">
        <ele>33</ele>
        <time>2019-12-04T16:42:57Z</time>
      </trkpt>
      <trkpt lat="59.282684" lon="18.090953">
        <ele>33</ele>
        <time>2019-12-04T16:42:58Z</time>
      </trkpt>
      <trkpt lat="59.282736" lon="18.090924">
        <ele>33</ele>
        <time>2019-12-04T16:42:59Z</time>
      </trkpt>
      <trkpt lat="59.282788" lon="18.090891">
        <ele>33</ele>
        <time>2019-12-04T16:43:00Z</time>
      </trkpt>
      <trkpt lat="59.282846" lon="18.090858">
        <ele>33</ele>
        <time>2019-12-04T16:43:01Z</time>
      </trkpt>
      <trkpt lat="59.282906" lon="18.09083">
        <ele>34</ele>
        <time>2019-12-04T16:43:02Z</time>
      </trkpt>
      <trkpt lat="59.282968" lon="18.090809">
        <ele>34</ele>
        <time>2019-12-04T16:43:03Z</time>
      </trkpt>
      <trkpt lat="59.28303" lon="18.090785">
        <ele>34</ele>
        <time>2019-12-04T16:43:04Z</time>
      </trkpt>
      <trkpt lat="59.283092" lon="18.090763">
        <ele>34</ele>
        <time>2019-12-04T16:43:05Z</time>
      </trkpt>
      <trkpt lat="59.283151" lon="18.090743">
        <ele>34</ele>
        <time>2019-12-04T16:43:06Z</time>
      </trkpt>
      <trkpt lat="59.283208" lon="18.090714">
        <ele>34</ele>
        <time>2019-12-04T16:43:07Z</time>
      </trkpt>
      <trkpt lat="59.283262" lon="18.090685">
        <ele>34</ele>
        <time>2019-12-04T16:43:08Z</time>
      </trkpt>
      <trkpt lat="59.283317" lon="18.090653">
        <ele>35</ele>
        <time>2019-12-04T16:43:09Z</time>
      </trkpt>
      <trkpt lat="59.283373" lon="18.090622">
        <ele>35</ele>
        <time>2019-12-04T16:43:10Z</time>
      </trkpt>
      <trkpt lat="59.28343" lon="18.090594">
        <ele>35</ele>
        <time>2019-12-04T16:43:11Z</time>
      </trkpt>
      <trkpt lat="59.283488" lon="18.09057">
        <ele>35</ele>
        <time>2019-12-04T16:43:12Z</time>
      </trkpt>
      <trkpt lat="59.28354" lon="18.090536">
        <ele>35</ele>
        <time>2019-12-04T16:43:13Z</time>
      </trkpt>
      <trkpt lat="59.283596" lon="18.090509">
        <ele>35</ele>
        <time>2019-12-04T16:43:14Z</time>
      </trkpt>
      <trkpt lat="59.283651" lon="18.090484">
        <ele>36</ele>
        <time>2019-12-04T16:43:15Z</time>
      </trkpt>
      <trkpt lat="59.283706" lon="18.090459">
        <ele>36</ele>
        <time>2019-12-04T16:43:16Z</time>
      </trkpt>
      <trkpt lat="59.283756" lon="18.090433">
        <ele>36</ele>
        <time>2019-12-04T16:43:17Z</time>
      </trkpt>
      <trkpt lat="59.28381" lon="18.090408">
        <ele>36</ele>
        <time>2019-12-04T16:43:18Z</time>
      </trkpt>
      <trkpt lat="59.283869" lon="18.090383">
        <ele>36</ele>
        <time>2019-12-04T16:43:19Z</time>
      </trkpt>
      <trkpt lat="59.28392" lon="18.090354">
        <ele>37</ele>
        <time>2019-12-04T16:43:20Z</time>
      </trkpt>
      <trkpt lat="59.283974" lon="18.090326">
        <ele>37</ele>
        <time>2019-12-04T16:43:21Z</time>
      </trkpt>
      <trkpt lat="59.284024" lon="18.090293">
        <ele>37</ele>
        <time>2019-12-04T16:43:22Z</time>
      </trkpt>
      <trkpt lat="59.284074" lon="18.090265">
        <ele>38</ele>
        <time>2019-12-04T16:43:23Z</time>
      </trkpt>
      <trkpt lat="59.284126" lon="18.090239">
        <ele>38</ele>
        <time>2019-12-04T16:43:24Z</time>
      </trkpt>
      <trkpt lat="59.284178" lon="18.090212">
        <ele>38</ele>
        <time>2019-12-04T16:43:25Z</time>
      </trkpt>
      <trkpt lat="59.284232" lon="18.090194">
        <ele>38</ele>
        <time>2019-12-04T16:43:26Z</time>
      </trkpt>
      <trkpt lat="59.284288" lon="18.090175">
        <ele>38</ele>
        <time>2019-12-04T16:43:27Z</time>
      </trkpt>
      <trkpt lat="59.284338" lon="18.090141">
        <ele>38</ele>
        <time>2019-12-04T16:43:28Z</time>
      </trkpt>
      <trkpt lat="59.284393" lon="18.090106">
        <ele>39</ele>
        <time>2019-12-04T16:43:29Z</time>
      </trkpt>
      <trkpt lat="59.284447" lon="18.090077">
        <ele>39</ele>
        <time>2019-12-04T16:43:30Z</time>
      </trkpt>
      <trkpt lat="59.284498" lon="18.090045">
        <ele>39</ele>
        <time>2019-12-04T16:43:31Z</time>
      </trkpt>
      <trkpt lat="59.284552" lon="18.090014">
        <ele>39</ele>
        <time>2019-12-04T16:43:32Z</time>
      </trkpt>
      <trkpt lat="59.284604" lon="18.089986">
        <ele>39</ele>
        <time>2019-12-04T16:43:33Z</time>
      </trkpt>
      <trkpt lat="59.284658" lon="18.089963">
        <ele>39</ele>
        <time>2019-12-04T16:43:34Z</time>
      </trkpt>
      <trkpt lat="59.284714" lon="18.08994">
        <ele>38</ele>
        <time>2019-12-04T16:43:35Z</time>
      </trkpt>
      <trkpt lat="59.284773" lon="18.089923">
        <ele>38</ele>
        <time>2019-12-04T16:43:36Z</time>
      </trkpt>
      <trkpt lat="59.284836" lon="18.089897">
        <ele>37</ele>
        <time>2019-12-04T16:43:37Z</time>
      </trkpt>
      <trkpt lat="59.284894" lon="18.089864">
        <ele>37</ele>
        <time>2019-12-04T16:43:38Z</time>
      </trkpt>
      <trkpt lat="59.284952" lon="18.089836">
        <ele>37</ele>
        <time>2019-12-04T16:43:39Z</time>
      </trkpt>
      <trkpt lat="59.285002" lon="18.089805">
        <ele>37</ele>
        <time>2019-12-04T16:43:40Z</time>
      </trkpt>
      <trkpt lat="59.285051" lon="18.089773">
        <ele>38</ele>
        <time>2019-12-04T16:43:41Z</time>
      </trkpt>
      <trkpt lat="59.2851" lon="18.089737">
        <ele>38</ele>
        <time>2019-12-04T16:43:42Z</time>
      </trkpt>
      <trkpt lat="59.28515" lon="18.089711">
        <ele>38</ele>
        <time>2019-12-04T16:43:43Z</time>
      </trkpt>
      <trkpt lat="59.285202" lon="18.089686">
        <ele>38</ele>
        <time>2019-12-04T16:43:44Z</time>
      </trkpt>
      <trkpt lat="59.285256" lon="18.08967">
        <ele>38</ele>
        <time>2019-12-04T16:43:45Z</time>
      </trkpt>
      <trkpt lat="59.285309" lon="18.089639">
        <ele>38</ele>
        <time>2019-12-04T16:43:46Z</time>
      </trkpt>
      <trkpt lat="59.285358" lon="18.089608">
        <ele>38</ele>
        <time>2019-12-04T16:43:47Z</time>
      </trkpt>
      <trkpt lat="59.285408" lon="18.089579">
        <ele>39</ele>
        <time>2019-12-04T16:43:48Z</time>
      </trkpt>
      <trkpt lat="59.28546" lon="18.089553">
        <ele>39</ele>
        <time>2019-12-04T16:43:49Z</time>
      </trkpt>
      <trkpt lat="59.285514" lon="18.08953">
        <ele>39</ele>
        <time>2019-12-04T16:43:50Z</time>
      </trkpt>
      <trkpt lat="59.285566" lon="18.089503">
        <ele>39</ele>
        <time>2019-12-04T16:43:51Z</time>
      </trkpt>
      <trkpt lat="59.28562" lon="18.089479">
        <ele>39</ele>
        <time>2019-12-04T16:43:52Z</time>
      </trkpt>
      <trkpt lat="59.285673" lon="18.089456">
        <ele>39</ele>
        <time>2019-12-04T16:43:53Z</time>
      </trkpt>
      <trkpt lat="59.285724" lon="18.089424">
        <ele>39</ele>
        <time>2019-12-04T16:43:54Z</time>
      </trkpt>
      <trkpt lat="59.285774" lon="18.089394">
        <ele>39</ele>
        <time>2019-12-04T16:43:55Z</time>
      </trkpt>
      <trkpt lat="59.285824" lon="18.089367">
        <ele>40</ele>
        <time>2019-12-04T16:43:56Z</time>
      </trkpt>
      <trkpt lat="59.285872" lon="18.089342">
        <ele>40</ele>
        <time>2019-12-04T16:43:57Z</time>
      </trkpt>
      <trkpt lat="59.285922" lon="18.089318">
        <ele>40</ele>
        <time>2019-12-04T16:43:58Z</time>
      </trkpt>
      <trkpt lat="59.285976" lon="18.089289">
        <ele>39</ele>
        <time>2019-12-04T16:43:59Z</time>
      </trkpt>
      <trkpt lat="59.28603" lon="18.089271">
        <ele>40</ele>
        <time>2019-12-04T16:44:00Z</time>
      </trkpt>
      <trkpt lat="59.286081" lon="18.089249">
        <ele>39</ele>
        <time>2019-12-04T16:44:01Z</time>
      </trkpt>
      <trkpt lat="59.286136" lon="18.089223">
        <ele>39</ele>
        <time>2019-12-04T16:44:02Z</time>
      </trkpt>
      <trkpt lat="59.28619" lon="18.089193">
        <ele>39</ele>
        <time>2019-12-04T16:44:03Z</time>
      </trkpt>
      <trkpt lat="59.286242" lon="18.089162">
        <ele>39</ele>
        <time>2019-12-04T16:44:04Z</time>
      </trkpt>
      <trkpt lat="59.286295" lon="18.089135">
        <ele>39</ele>
        <time>2019-12-04T16:44:05Z</time>
      </trkpt>
      <trkpt lat="59.286353" lon="18.089113">
        <ele>39</ele>
        <time>2019-12-04T16:44:06Z</time>
      </trkpt>
      <trkpt lat="59.286407" lon="18.08909">
        <ele>39</ele>
        <time>2019-12-04T16:44:07Z</time>
      </trkpt>
      <trkpt lat="59.286464" lon="18.089074">
        <ele>39</ele>
        <time>2019-12-04T16:44:08Z</time>
      </trkpt>
      <trkpt lat="59.286522" lon="18.08907">
        <ele>38</ele>
        <time>2019-12-04T16:44:09Z</time>
      </trkpt>
      <trkpt lat="59.286583" lon="18.089064">
        <ele>38</ele>
        <time>2019-12-04T16:44:10Z</time>
      </trkpt>
      <trkpt lat="59.286639" lon="18.089043">
        <ele>38</ele>
        <time>2019-12-04T16:44:11Z</time>
      </trkpt>
      <trkpt lat="59.286694" lon="18.089022">
        <ele>38</ele>
        <time>2019-12-04T16:44:12Z</time>
      </trkpt>
      <trkpt lat="59.286747" lon="18.088998">
        <ele>38</ele>
        <time>2019-12-04T16:44:13Z</time>
      </trkpt>
      <trkpt lat="59.2868" lon="18.088972">
        <ele>39</ele>
        <time>2019-12-04T16:44:14Z</time>
      </trkpt>
      <trkpt lat="59.286852" lon="18.088945">
        <ele>39</ele>
        <time>2019-12-04T16:44:15Z</time>
      </trkpt>
      <trkpt lat="59.286903" lon="18.088922">
        <ele>38</ele>
        <time>2019-12-04T16:44:16Z</time>
      </trkpt>
      <trkpt lat="59.286955" lon="18.088897">
        <ele>38</ele>
        <time>2019-12-04T16:44:17Z</time>
      </trkpt>
      <trkpt lat="59.287011" lon="18.088872">
        <ele>38</ele>
        <time>2019-12-04T16:44:18Z</time>
      </trkpt>
      <trkpt lat="59.287065" lon="18.088843">
        <ele>38</ele>
        <time>2019-12-04T16:44:19Z</time>
      </trkpt>
      <trkpt lat="59.287118" lon="18.088816">
        <ele>37</ele>
        <time>2019-12-04T16:44:20Z</time>
      </trkpt>
      <trkpt lat="59.28717" lon="18.088783">
        <ele>37</ele>
        <time>2019-12-04T16:44:21Z</time>
      </trkpt>
      <trkpt lat="59.287221" lon="18.088758">
        <ele>37</ele>
        <time>2019-12-04T16:44:22Z</time>
      </trkpt>
      <trkpt lat="59.28727" lon="18.088729">
        <ele>37</ele>
        <time>2019-12-04T16:44:23Z</time>
      </trkpt>
      <trkpt lat="59.287314" lon="18.088694">
        <ele>38</ele>
        <time>2019-12-04T16:44:24Z</time>
      </trkpt>
      <trkpt lat="59.287356" lon="18.088669">
        <ele>37</ele>
        <time>2019-12-04T16:44:25Z</time>
      </trkpt>
      <trkpt lat="59.287401" lon="18.088671">
        <ele>37</ele>
        <time>2019-12-04T16:44:26Z</time>
      </trkpt>
      <trkpt lat="59.28744" lon="18.088708">
        <ele>37</ele>
        <time>2019-12-04T16:44:27Z</time>
      </trkpt>
      <trkpt lat="59.287471" lon="18.088794">
        <ele>37</ele>
        <time>2019-12-04T16:44:28Z</time>
      </trkpt>
      <trkpt lat="59.287495" lon="18.088886">
        <ele>37</ele>
        <time>2019-12-04T16:44:29Z</time>
      </trkpt>
      <trkpt lat="59.287519" lon="18.088966">
        <ele>37</ele>
        <time>2019-12-04T16:44:30Z</time>
      </trkpt>
      <trkpt lat="59.287551" lon="18.089031">
        <ele>37</ele>
        <time>2019-12-04T16:44:31Z</time>
      </trkpt>
      <trkpt lat="59.287589" lon="18.08907">
        <ele>37</ele>
        <time>2019-12-04T16:44:32Z</time>
      </trkpt>
      <trkpt lat="59.287634" lon="18.089089">
        <ele>38</ele>
        <time>2019-12-04T16:44:33Z</time>
      </trkpt>
      <trkpt lat="59.287674" lon="18.089089">
        <ele>38</ele>
        <time>2019-12-04T16:44:34Z</time>
      </trkpt>
      <trkpt lat="59.287731" lon="18.089106">
        <ele>38</ele>
        <time>2019-12-04T16:44:35Z</time>
      </trkpt>
      <trkpt lat="59.287787" lon="18.089116">
        <ele>38</ele>
        <time>2019-12-04T16:44:36Z</time>
      </trkpt>
      <trkpt lat="59.28784" lon="18.08911">
        <ele>38</ele>
        <time>2019-12-04T16:44:37Z</time>
      </trkpt>
      <trkpt lat="59.287891" lon="18.089085">
        <ele>38</ele>
        <time>2019-12-04T16:44:38Z</time>
      </trkpt>
      <trkpt lat="59.287938" lon="18.089053">
        <ele>38</ele>
        <time>2019-12-04T16:44:39Z</time>
      </trkpt>
      <trkpt lat="59.287981" lon="18.089011">
        <ele>39</ele>
        <time>2019-12-04T16:44:40Z</time>
      </trkpt>
      <trkpt lat="59.288025" lon="18.088977">
        <ele>39</ele>
        <time>2019-12-04T16:44:41Z</time>
      </trkpt>
      <trkpt lat="59.288071" lon="18.088947">
        <ele>39</ele>
        <time>2019-12-04T16:44:42Z</time>
      </trkpt>
      <trkpt lat="59.288116" lon="18.088917">
        <ele>39</ele>
        <time>2019-12-04T16:44:43Z</time>
      </trkpt>
      <trkpt lat="59.288161" lon="18.08889">
        <ele>39</ele>
        <time>2019-12-04T16:44:44Z</time>
      </trkpt>
      <trkpt lat="59.288207" lon="18.088865">
        <ele>40</ele>
        <time>2019-12-04T16:44:45Z</time>
      </trkpt>
      <trkpt lat="59.288259" lon="18.088845">
        <ele>40</ele>
        <time>2019-12-04T16:44:46Z</time>
      </trkpt>
      <trkpt lat="59.288309" lon="18.088828">
        <ele>40</ele>
        <time>2019-12-04T16:44:47Z</time>
      </trkpt>
      <trkpt lat="59.288355" lon="18.088814">
        <ele>40</ele>
        <time>2019-12-04T16:44:48Z</time>
      </trkpt>
      <trkpt lat="59.288393" lon="18.088799">
        <ele>40</ele>
        <time>2019-12-04T16:44:49Z</time>
      </trkpt>
      <trkpt lat="59.288425" lon="18.088786">
        <ele>40</ele>
        <time>2019-12-04T16:44:50Z</time>
      </trkpt>
      <trkpt lat="59.288453" lon="18.088777">
        <ele>39</ele>
        <time>2019-12-04T16:44:51Z</time>
      </trkpt>
      <trkpt lat="59.288475" lon="18.088766">
        <ele>39</ele>
        <time>2019-12-04T16:44:52Z</time>
      </trkpt>
      <trkpt lat="59.288494" lon="18.088757">
        <ele>39</ele>
        <time>2019-12-04T16:44:53Z</time>
      </trkpt>
      <trkpt lat="59.288513" lon="18.088753">
        <ele>39</ele>
        <time>2019-12-04T16:44:54Z</time>
      </trkpt>
      <trkpt lat="59.288544" lon="18.088739">
        <ele>39</ele>
        <time>2019-12-04T16:44:56Z</time>
      </trkpt>
      <trkpt lat="59.288551" lon="18.088752">
        <ele>37</ele>
        <time>2019-12-04T16:45:03Z</time>
      </trkpt>
      <trkpt lat="59.288605" lon="18.088737">
        <ele>36</ele>
        <time>2019-12-04T16:45:10Z</time>
      </trkpt>
      <trkpt lat="59.288636" lon="18.088728">
        <ele>36</ele>
        <time>2019-12-04T16:45:11Z</time>
      </trkpt>
      <trkpt lat="59.288672" lon="18.088711">
        <ele>36</ele>
        <time>2019-12-04T16:45:12Z</time>
      </trkpt>
      <trkpt lat="59.288704" lon="18.088679">
        <ele>36</ele>
        <time>2019-12-04T16:45:13Z</time>
      </trkpt>
      <trkpt lat="59.28873" lon="18.088626">
        <ele>36</ele>
        <time>2019-12-04T16:45:14Z</time>
      </trkpt>
      <trkpt lat="59.288741" lon="18.088557">
        <ele>36</ele>
        <time>2019-12-04T16:45:15Z</time>
      </trkpt>
      <trkpt lat="59.288749" lon="18.08848">
        <ele>36</ele>
        <time>2019-12-04T16:45:16Z</time>
      </trkpt>
      <trkpt lat="59.288764" lon="18.088403">
        <ele>36</ele>
        <time>2019-12-04T16:45:17Z</time>
      </trkpt>
      <trkpt lat="59.288791" lon="18.088333">
        <ele>36</ele>
        <time>2019-12-04T16:45:18Z</time>
      </trkpt>
      <trkpt lat="59.288828" lon="18.088279">
        <ele>36</ele>
        <time>2019-12-04T16:45:19Z</time>
      </trkpt>
      <trkpt lat="59.288873" lon="18.088244">
        <ele>36</ele>
        <time>2019-12-04T16:45:20Z</time>
      </trkpt>
      <trkpt lat="59.288923" lon="18.088222">
        <ele>36</ele>
        <time>2019-12-04T16:45:21Z</time>
      </trkpt>
      <trkpt lat="59.288976" lon="18.088201">
        <ele>36</ele>
        <time>2019-12-04T16:45:22Z</time>
      </trkpt>
      <trkpt lat="59.28903" lon="18.08818">
        <ele>36</ele>
        <time>2019-12-04T16:45:23Z</time>
      </trkpt>
      <trkpt lat="59.289084" lon="18.088157">
        <ele>36</ele>
        <time>2019-12-04T16:45:24Z</time>
      </trkpt>
      <trkpt lat="59.289138" lon="18.088131">
        <ele>36</ele>
        <time>2019-12-04T16:45:25Z</time>
      </trkpt>
      <trkpt lat="59.289196" lon="18.088103">
        <ele>36</ele>
        <time>2019-12-04T16:45:26Z</time>
      </trkpt>
      <trkpt lat="59.289251" lon="18.088077">
        <ele>36</ele>
        <time>2019-12-04T16:45:27Z</time>
      </trkpt>
      <trkpt lat="59.289307" lon="18.088051">
        <ele>36</ele>
        <time>2019-12-04T16:45:28Z</time>
      </trkpt>
      <trkpt lat="59.289361" lon="18.088024">
        <ele>36</ele>
        <time>2019-12-04T16:45:29Z</time>
      </trkpt>
      <trkpt lat="59.289415" lon="18.087997">
        <ele>36</ele>
        <time>2019-12-04T16:45:30Z</time>
      </trkpt>
      <trkpt lat="59.289469" lon="18.087972">
        <ele>36</ele>
        <time>2019-12-04T16:45:31Z</time>
      </trkpt>
      <trkpt lat="59.289522" lon="18.087947">
        <ele>36</ele>
        <time>2019-12-04T16:45:32Z</time>
      </trkpt>
      <trkpt lat="59.289576" lon="18.087919">
        <ele>36</ele>
        <time>2019-12-04T16:45:33Z</time>
      </trkpt>
      <trkpt lat="59.28963" lon="18.087893">
        <ele>36</ele>
        <time>2019-12-04T16:45:34Z</time>
      </trkpt>
      <trkpt lat="59.289684" lon="18.087869">
        <ele>36</ele>
        <time>2019-12-04T16:45:35Z</time>
      </trkpt>
      <trkpt lat="59.289739" lon="18.087843">
        <ele>36</ele>
        <time>2019-12-04T16:45:36Z</time>
      </trkpt>
      <trkpt lat="59.289793" lon="18.087815">
        <ele>36</ele>
        <time>2019-12-04T16:45:37Z</time>
      </trkpt>
      <trkpt lat="59.289848" lon="18.087789">
        <ele>35</ele>
        <time>2019-12-04T16:45:38Z</time>
      </trkpt>
      <trkpt lat="59.289903" lon="18.087759">
        <ele>36</ele>
        <time>2019-12-04T16:45:39Z</time>
      </trkpt>
      <trkpt lat="59.289954" lon="18.087721">
        <ele>36</ele>
        <time>2019-12-04T16:45:40Z</time>
      </trkpt>
      <trkpt lat="59.290003" lon="18.087677">
        <ele>36</ele>
        <time>2019-12-04T16:45:41Z</time>
      </trkpt>
      <trkpt lat="59.290051" lon="18.087628">
        <ele>36</ele>
        <time>2019-12-04T16:45:42Z</time>
      </trkpt>
      <trkpt lat="59.290099" lon="18.087581">
        <ele>36</ele>
        <time>2019-12-04T16:45:43Z</time>
      </trkpt>
      <trkpt lat="59.290147" lon="18.087539">
        <ele>36</ele>
        <time>2019-12-04T16:45:44Z</time>
      </trkpt>
      <trkpt lat="59.290196" lon="18.0875">
        <ele>36</ele>
        <time>2019-12-04T16:45:45Z</time>
      </trkpt>
      <trkpt lat="59.290244" lon="18.087464">
        <ele>36</ele>
        <time>2019-12-04T16:45:46Z</time>
      </trkpt>
      <trkpt lat="59.290292" lon="18.087431">
        <ele>36</ele>
        <time>2019-12-04T16:45:47Z</time>
      </trkpt>
      <trkpt lat="59.29034" lon="18.087397">
        <ele>36</ele>
        <time>2019-12-04T16:45:48Z</time>
      </trkpt>
      <trkpt lat="59.290387" lon="18.087361">
        <ele>36</ele>
        <time>2019-12-04T16:45:49Z</time>
      </trkpt>
      <trkpt lat="59.290433" lon="18.087325">
        <ele>36</ele>
        <time>2019-12-04T16:45:50Z</time>
      </trkpt>
      <trkpt lat="59.290481" lon="18.087292">
        <ele>36</ele>
        <time>2019-12-04T16:45:51Z</time>
      </trkpt>
      <trkpt lat="59.29053" lon="18.087261">
        <ele>36</ele>
        <time>2019-12-04T16:45:52Z</time>
      </trkpt>
      <trkpt lat="59.290579" lon="18.087232">
        <ele>36</ele>
        <time>2019-12-04T16:45:53Z</time>
      </trkpt>
      <trkpt lat="59.290627" lon="18.087204">
        <ele>36</ele>
        <time>2019-12-04T16:45:54Z</time>
      </trkpt>
      <trkpt lat="59.290677" lon="18.087177">
        <ele>36</ele>
        <time>2019-12-04T16:45:55Z</time>
      </trkpt>
      <trkpt lat="59.290726" lon="18.087153">
        <ele>36</ele>
        <time>2019-12-04T16:45:56Z</time>
      </trkpt>
      <trkpt lat="59.290773" lon="18.087129">
        <ele>36</ele>
        <time>2019-12-04T16:45:57Z</time>
      </trkpt>
      <trkpt lat="59.290817" lon="18.087103">
        <ele>36</ele>
        <time>2019-12-04T16:45:58Z</time>
      </trkpt>
      <trkpt lat="59.290862" lon="18.087078">
        <ele>36</ele>
        <time>2019-12-04T16:45:59Z</time>
      </trkpt>
      <trkpt lat="59.290907" lon="18.087053">
        <ele>36</ele>
        <time>2019-12-04T16:46:00Z</time>
      </trkpt>
      <trkpt lat="59.290952" lon="18.087032">
        <ele>36</ele>
        <time>2019-12-04T16:46:01Z</time>
      </trkpt>
      <trkpt lat="59.290997" lon="18.087011">
        <ele>36</ele>
        <time>2019-12-04T16:46:02Z</time>
      </trkpt>
      <trkpt lat="59.291042" lon="18.086991">
        <ele>36</ele>
        <time>2019-12-04T16:46:03Z</time>
      </trkpt>
      <trkpt lat="59.291086" lon="18.086973">
        <ele>37</ele>
        <time>2019-12-04T16:46:04Z</time>
      </trkpt>
      <trkpt lat="59.291128" lon="18.086953">
        <ele>37</ele>
        <time>2019-12-04T16:46:05Z</time>
      </trkpt>
      <trkpt lat="59.291171" lon="18.08693">
        <ele>37</ele>
        <time>2019-12-04T16:46:06Z</time>
      </trkpt>
      <trkpt lat="59.291213" lon="18.086904">
        <ele>37</ele>
        <time>2019-12-04T16:46:07Z</time>
      </trkpt>
      <trkpt lat="59.291255" lon="18.086879">
        <ele>37</ele>
        <time>2019-12-04T16:46:08Z</time>
      </trkpt>
      <trkpt lat="59.291299" lon="18.086856">
        <ele>37</ele>
        <time>2019-12-04T16:46:09Z</time>
      </trkpt>
      <trkpt lat="59.29134" lon="18.086832">
        <ele>37</ele>
        <time>2019-12-04T16:46:10Z</time>
      </trkpt>
      <trkpt lat="59.291379" lon="18.086806">
        <ele>38</ele>
        <time>2019-12-04T16:46:11Z</time>
      </trkpt>
      <trkpt lat="59.291419" lon="18.086779">
        <ele>38</ele>
        <time>2019-12-04T16:46:12Z</time>
      </trkpt>
      <trkpt lat="59.291459" lon="18.086752">
        <ele>38</ele>
        <time>2019-12-04T16:46:13Z</time>
      </trkpt>
      <trkpt lat="59.291498" lon="18.086727">
        <ele>38</ele>
        <time>2019-12-04T16:46:14Z</time>
      </trkpt>
      <trkpt lat="59.291537" lon="18.086701">
        <ele>38</ele>
        <time>2019-12-04T16:46:15Z</time>
      </trkpt>
      <trkpt lat="59.291575" lon="18.086673">
        <ele>38</ele>
        <time>2019-12-04T16:46:16Z</time>
      </trkpt>
      <trkpt lat="59.291608" lon="18.086643">
        <ele>38</ele>
        <time>2019-12-04T16:46:17Z</time>
      </trkpt>
      <trkpt lat="59.291643" lon="18.086618">
        <ele>38</ele>
        <time>2019-12-04T16:46:18Z</time>
      </trkpt>
      <trkpt lat="59.291677" lon="18.086591">
        <ele>38</ele>
        <time>2019-12-04T16:46:19Z</time>
      </trkpt>
      <trkpt lat="59.291713" lon="18.086563">
        <ele>38</ele>
        <time>2019-12-04T16:46:20Z</time>
      </trkpt>
      <trkpt lat="59.29175" lon="18.086535">
        <ele>38</ele>
        <time>2019-12-04T16:46:21Z</time>
      </trkpt>
      <trkpt lat="59.291783" lon="18.086504">
        <ele>38</ele>
        <time>2019-12-04T16:46:22Z</time>
      </trkpt>
      <trkpt lat="59.291816" lon="18.086476">
        <ele>38</ele>
        <time>2019-12-04T16:46:23Z</time>
      </trkpt>
      <trkpt lat="59.291846" lon="18.086445">
        <ele>38</ele>
        <time>2019-12-04T16:46:24Z</time>
      </trkpt>
      <trkpt lat="59.291876" lon="18.086409">
        <ele>38</ele>
        <time>2019-12-04T16:46:25Z</time>
      </trkpt>
      <trkpt lat="59.29191" lon="18.086381">
        <ele>38</ele>
        <time>2019-12-04T16:46:26Z</time>
      </trkpt>
      <trkpt lat="59.291939" lon="18.086352">
        <ele>38</ele>
        <time>2019-12-04T16:46:27Z</time>
      </trkpt>
      <trkpt lat="59.291967" lon="18.086323">
        <ele>38</ele>
        <time>2019-12-04T16:46:28Z</time>
      </trkpt>
      <trkpt lat="59.292" lon="18.086299">
        <ele>38</ele>
        <time>2019-12-04T16:46:29Z</time>
      </trkpt>
      <trkpt lat="59.292034" lon="18.086265">
        <ele>38</ele>
        <time>2019-12-04T16:46:30Z</time>
      </trkpt>
      <trkpt lat="59.292071" lon="18.086237">
        <ele>38</ele>
        <time>2019-12-04T16:46:31Z</time>
      </trkpt>
      <trkpt lat="59.29211" lon="18.086209">
        <ele>38</ele>
        <time>2019-12-04T16:46:32Z</time>
      </trkpt>
      <trkpt lat="59.292149" lon="18.08618">
        <ele>38</ele>
        <time>2019-12-04T16:46:33Z</time>
      </trkpt>
      <trkpt lat="59.292198" lon="18.086161">
        <ele>39</ele>
        <time>2019-12-04T16:46:34Z</time>
      </trkpt>
      <trkpt lat="59.292252" lon="18.086146">
        <ele>39</ele>
        <time>2019-12-04T16:46:35Z</time>
      </trkpt>
      <trkpt lat="59.292303" lon="18.086129">
        <ele>39</ele>
        <time>2019-12-04T16:46:36Z</time>
      </trkpt>
      <trkpt lat="59.292371" lon="18.086123">
        <ele>39</ele>
        <time>2019-12-04T16:46:37Z</time>
      </trkpt>
      <trkpt lat="59.292423" lon="18.086108">
        <ele>39</ele>
        <time>2019-12-04T16:46:38Z</time>
      </trkpt>
      <trkpt lat="59.292474" lon="18.086087">
        <ele>39</ele>
        <time>2019-12-04T16:46:39Z</time>
      </trkpt>
      <trkpt lat="59.292531" lon="18.086066">
        <ele>38</ele>
        <time>2019-12-04T16:46:40Z</time>
      </trkpt>
      <trkpt lat="59.292585" lon="18.086043">
        <ele>38</ele>
        <time>2019-12-04T16:46:41Z</time>
      </trkpt>
      <trkpt lat="59.29264" lon="18.086024">
        <ele>38</ele>
        <time>2019-12-04T16:46:42Z</time>
      </trkpt>
      <trkpt lat="59.292694" lon="18.086002">
        <ele>38</ele>
        <time>2019-12-04T16:46:43Z</time>
      </trkpt>
      <trkpt lat="59.292749" lon="18.085986">
        <ele>38</ele>
        <time>2019-12-04T16:46:44Z</time>
      </trkpt>
      <trkpt lat="59.292804" lon="18.085966">
        <ele>38</ele>
        <time>2019-12-04T16:46:45Z</time>
      </trkpt>
      <trkpt lat="59.29286" lon="18.08595">
        <ele>39</ele>
        <time>2019-12-04T16:46:46Z</time>
      </trkpt>
      <trkpt lat="59.292916" lon="18.085934">
        <ele>39</ele>
        <time>2019-12-04T16:46:47Z</time>
      </trkpt>
      <trkpt lat="59.292974" lon="18.085921">
        <ele>39</ele>
        <time>2019-12-04T16:46:48Z</time>
      </trkpt>
      <trkpt lat="59.293028" lon="18.085894">
        <ele>39</ele>
        <time>2019-12-04T16:46:49Z</time>
      </trkpt>
      <trkpt lat="59.293083" lon="18.085871">
        <ele>39</ele>
        <time>2019-12-04T16:46:50Z</time>
      </trkpt>
      <trkpt lat="59.293138" lon="18.085853">
        <ele>39</ele>
        <time>2019-12-04T16:46:51Z</time>
      </trkpt>
      <trkpt lat="59.29319" lon="18.085831">
        <ele>39</ele>
        <time>2019-12-04T16:46:52Z</time>
      </trkpt>
      <trkpt lat="59.29324" lon="18.085801">
        <ele>39</ele>
        <time>2019-12-04T16:46:53Z</time>
      </trkpt>
      <trkpt lat="59.293287" lon="18.085771">
        <ele>39</ele>
        <time>2019-12-04T16:46:54Z</time>
      </trkpt>
      <trkpt lat="59.293336" lon="18.085751">
        <ele>39</ele>
        <time>2019-12-04T16:46:55Z</time>
      </trkpt>
      <trkpt lat="59.293387" lon="18.085734">
        <ele>40</ele>
        <time>2019-12-04T16:46:56Z</time>
      </trkpt>
      <trkpt lat="59.293437" lon="18.085718">
        <ele>40</ele>
        <time>2019-12-04T16:46:57Z</time>
      </trkpt>
      <trkpt lat="59.293482" lon="18.085687">
        <ele>41</ele>
        <time>2019-12-04T16:46:58Z</time>
      </trkpt>
      <trkpt lat="59.29353" lon="18.08565">
        <ele>41</ele>
        <time>2019-12-04T16:46:59Z</time>
      </trkpt>
      <trkpt lat="59.293618" lon="18.085557">
        <ele>42</ele>
        <time>2019-12-04T16:47:01Z</time>
      </trkpt>
      <trkpt lat="59.293711" lon="18.085484">
        <ele>42</ele>
        <time>2019-12-04T16:47:03Z</time>
      </trkpt>
      <trkpt lat="59.293759" lon="18.085454">
        <ele>42</ele>
        <time>2019-12-04T16:47:04Z</time>
      </trkpt>
      <trkpt lat="59.293854" lon="18.08539">
        <ele>43</ele>
        <time>2019-12-04T16:47:06Z</time>
      </trkpt>
      <trkpt lat="59.293945" lon="18.085314">
        <ele>43</ele>
        <time>2019-12-04T16:47:08Z</time>
      </trkpt>
      <trkpt lat="59.294032" lon="18.085254">
        <ele>44</ele>
        <time>2019-12-04T16:47:10Z</time>
      </trkpt>
      <trkpt lat="59.294145" lon="18.085175">
        <ele>45</ele>
        <time>2019-12-04T16:47:13Z</time>
      </trkpt>
      <trkpt lat="59.294234" lon="18.085121">
        <ele>45</ele>
        <time>2019-12-04T16:47:15Z</time>
      </trkpt>
      <trkpt lat="59.294349" lon="18.085003">
        <ele>45</ele>
        <time>2019-12-04T16:47:18Z</time>
      </trkpt>
      <trkpt lat="59.294443" lon="18.084909">
        <ele>45</ele>
        <time>2019-12-04T16:47:19Z</time>
      </trkpt>
      <trkpt lat="59.294569" lon="18.08478">
        <ele>45</ele>
        <time>2019-12-04T16:47:22Z</time>
      </trkpt>
      <trkpt lat="59.294687" lon="18.084674">
        <ele>45</ele>
        <time>2019-12-04T16:47:24Z</time>
      </trkpt>
      <trkpt lat="59.294787" lon="18.084645">
        <ele>46</ele>
        <time>2019-12-04T16:47:26Z</time>
      </trkpt>
      <trkpt lat="59.294838" lon="18.084642">
        <ele>46</ele>
        <time>2019-12-04T16:47:27Z</time>
      </trkpt>
      <trkpt lat="59.294898" lon="18.084666">
        <ele>47</ele>
        <time>2019-12-04T16:47:28Z</time>
      </trkpt>
      <trkpt lat="59.294951" lon="18.084672">
        <ele>47</ele>
        <time>2019-12-04T16:47:29Z</time>
      </trkpt>
      <trkpt lat="59.295001" lon="18.084661">
        <ele>47</ele>
        <time>2019-12-04T16:47:30Z</time>
      </trkpt>
      <trkpt lat="59.295052" lon="18.084649">
        <ele>48</ele>
        <time>2019-12-04T16:47:31Z</time>
      </trkpt>
      <trkpt lat="59.295102" lon="18.08463">
        <ele>48</ele>
        <time>2019-12-04T16:47:32Z</time>
      </trkpt>
      <trkpt lat="59.295153" lon="18.084613">
        <ele>48</ele>
        <time>2019-12-04T16:47:33Z</time>
      </trkpt>
      <trkpt lat="59.295203" lon="18.08459">
        <ele>48</ele>
        <time>2019-12-04T16:47:34Z</time>
      </trkpt>
      <trkpt lat="59.295253" lon="18.08457">
        <ele>48</ele>
        <time>2019-12-04T16:47:35Z</time>
      </trkpt>
      <trkpt lat="59.295303" lon="18.084551">
        <ele>47</ele>
        <time>2019-12-04T16:47:36Z</time>
      </trkpt>
      <trkpt lat="59.29535" lon="18.084529">
        <ele>47</ele>
        <time>2019-12-04T16:47:37Z</time>
      </trkpt>
      <trkpt lat="59.295396" lon="18.084507">
        <ele>47</ele>
        <time>2019-12-04T16:47:38Z</time>
      </trkpt>
      <trkpt lat="59.295444" lon="18.084493">
        <ele>47</ele>
        <time>2019-12-04T16:47:39Z</time>
      </trkpt>
      <trkpt lat="59.295494" lon="18.084492">
        <ele>47</ele>
        <time>2019-12-04T16:47:40Z</time>
      </trkpt>
      <trkpt lat="59.295542" lon="18.084482">
        <ele>47</ele>
        <time>2019-12-04T16:47:41Z</time>
      </trkpt>
      <trkpt lat="59.295586" lon="18.084457">
        <ele>47</ele>
        <time>2019-12-04T16:47:42Z</time>
      </trkpt>
      <trkpt lat="59.29563" lon="18.08443">
        <ele>46</ele>
        <time>2019-12-04T16:47:43Z</time>
      </trkpt>
      <trkpt lat="59.295678" lon="18.084409">
        <ele>46</ele>
        <time>2019-12-04T16:47:44Z</time>
      </trkpt>
      <trkpt lat="59.295723" lon="18.084382">
        <ele>46</ele>
        <time>2019-12-04T16:47:45Z</time>
      </trkpt>
      <trkpt lat="59.295769" lon="18.084355">
        <ele>46</ele>
        <time>2019-12-04T16:47:46Z</time>
      </trkpt>
      <trkpt lat="59.295817" lon="18.084335">
        <ele>46</ele>
        <time>2019-12-04T16:47:47Z</time>
      </trkpt>
      <trkpt lat="59.295866" lon="18.084315">
        <ele>46</ele>
        <time>2019-12-04T16:47:48Z</time>
      </trkpt>
      <trkpt lat="59.295916" lon="18.084293">
        <ele>45</ele>
        <time>2019-12-04T16:47:49Z</time>
      </trkpt>
      <trkpt lat="59.295965" lon="18.08427">
        <ele>45</ele>
        <time>2019-12-04T16:47:50Z</time>
      </trkpt>
      <trkpt lat="59.296013" lon="18.084246">
        <ele>45</ele>
        <time>2019-12-04T16:47:51Z</time>
      </trkpt>
      <trkpt lat="59.296061" lon="18.08422">
        <ele>45</ele>
        <time>2019-12-04T16:47:52Z</time>
      </trkpt>
      <trkpt lat="59.296109" lon="18.084194">
        <ele>45</ele>
        <time>2019-12-04T16:47:53Z</time>
      </trkpt>
      <trkpt lat="59.296159" lon="18.08417">
        <ele>45</ele>
        <time>2019-12-04T16:47:54Z</time>
      </trkpt>
      <trkpt lat="59.29621" lon="18.084149">
        <ele>45</ele>
        <time>2019-12-04T16:47:55Z</time>
      </trkpt>
      <trkpt lat="59.29626" lon="18.084132">
        <ele>44</ele>
        <time>2019-12-04T16:47:56Z</time>
      </trkpt>
      <trkpt lat="59.296311" lon="18.084125">
        <ele>44</ele>
        <time>2019-12-04T16:47:57Z</time>
      </trkpt>
      <trkpt lat="59.296359" lon="18.084144">
        <ele>44</ele>
        <time>2019-12-04T16:47:58Z</time>
      </trkpt>
      <trkpt lat="59.2964" lon="18.0842">
        <ele>44</ele>
        <time>2019-12-04T16:47:59Z</time>
      </trkpt>
      <trkpt lat="59.296429" lon="18.084287">
        <ele>44</ele>
        <time>2019-12-04T16:48:00Z</time>
      </trkpt>
      <trkpt lat="59.296451" lon="18.084387">
        <ele>44</ele>
        <time>2019-12-04T16:48:01Z</time>
      </trkpt>
      <trkpt lat="59.296476" lon="18.084487">
        <ele>44</ele>
        <time>2019-12-04T16:48:02Z</time>
      </trkpt>
      <trkpt lat="59.296504" lon="18.084566">
        <ele>44</ele>
        <time>2019-12-04T16:48:03Z</time>
      </trkpt>
      <trkpt lat="59.296538" lon="18.084618">
        <ele>44</ele>
        <time>2019-12-04T16:48:04Z</time>
      </trkpt>
      <trkpt lat="59.296578" lon="18.084641">
        <ele>44</ele>
        <time>2019-12-04T16:48:05Z</time>
      </trkpt>
      <trkpt lat="59.29662" lon="18.084648">
        <ele>44</ele>
        <time>2019-12-04T16:48:06Z</time>
      </trkpt>
      <trkpt lat="59.296664" lon="18.084647">
        <ele>44</ele>
        <time>2019-12-04T16:48:07Z</time>
      </trkpt>
      <trkpt lat="59.296708" lon="18.084645">
        <ele>44</ele>
        <time>2019-12-04T16:48:08Z</time>
      </trkpt>
      <trkpt lat="59.296752" lon="18.084644">
        <ele>43</ele>
        <time>2019-12-04T16:48:09Z</time>
      </trkpt>
      <trkpt lat="59.296798" lon="18.084642">
        <ele>43</ele>
        <time>2019-12-04T16:48:10Z</time>
      </trkpt>
      <trkpt lat="59.296846" lon="18.084641">
        <ele>43</ele>
        <time>2019-12-04T16:48:11Z</time>
      </trkpt>
      <trkpt lat="59.296898" lon="18.084642">
        <ele>43</ele>
        <time>2019-12-04T16:48:12Z</time>
      </trkpt>
      <trkpt lat="59.296954" lon="18.084646">
        <ele>43</ele>
        <time>2019-12-04T16:48:13Z</time>
      </trkpt>
      <trkpt lat="59.297014" lon="18.084644">
        <ele>42</ele>
        <time>2019-12-04T16:48:14Z</time>
      </trkpt>
      <trkpt lat="59.297072" lon="18.084616">
        <ele>42</ele>
        <time>2019-12-04T16:48:15Z</time>
      </trkpt>
      <trkpt lat="59.297123" lon="18.084552">
        <ele>41</ele>
        <time>2019-12-04T16:48:16Z</time>
      </trkpt>
      <trkpt lat="59.297168" lon="18.084459">
        <ele>41</ele>
        <time>2019-12-04T16:48:17Z</time>
      </trkpt>
      <trkpt lat="59.297204" lon="18.084346">
        <ele>40</ele>
        <time>2019-12-04T16:48:18Z</time>
      </trkpt>
      <trkpt lat="59.297233" lon="18.08422">
        <ele>40</ele>
        <time>2019-12-04T16:48:19Z</time>
      </trkpt>
      <trkpt lat="59.297253" lon="18.084085">
        <ele>40</ele>
        <time>2019-12-04T16:48:20Z</time>
      </trkpt>
      <trkpt lat="59.297262" lon="18.083945">
        <ele>41</ele>
        <time>2019-12-04T16:48:21Z</time>
      </trkpt>
      <trkpt lat="59.297265" lon="18.083801">
        <ele>41</ele>
        <time>2019-12-04T16:48:22Z</time>
      </trkpt>
      <trkpt lat="59.29726" lon="18.083671">
        <ele>41</ele>
        <time>2019-12-04T16:48:23Z</time>
      </trkpt>
      <trkpt lat="59.297255" lon="18.083553">
        <ele>41</ele>
        <time>2019-12-04T16:48:24Z</time>
      </trkpt>
      <trkpt lat="59.29726" lon="18.083446">
        <ele>41</ele>
        <time>2019-12-04T16:48:25Z</time>
      </trkpt>
      <trkpt lat="59.297283" lon="18.083357">
        <ele>41</ele>
        <time>2019-12-04T16:48:26Z</time>
      </trkpt>
      <trkpt lat="59.297322" lon="18.083289">
        <ele>41</ele>
        <time>2019-12-04T16:48:27Z</time>
      </trkpt>
      <trkpt lat="59.297365" lon="18.083239">
        <ele>41</ele>
        <time>2019-12-04T16:48:28Z</time>
      </trkpt>
      <trkpt lat="59.297417" lon="18.083196">
        <ele>41</ele>
        <time>2019-12-04T16:48:29Z</time>
      </trkpt>
      <trkpt lat="59.297472" lon="18.083155">
        <ele>41</ele>
        <time>2019-12-04T16:48:30Z</time>
      </trkpt>
      <trkpt lat="59.297528" lon="18.083115">
        <ele>41</ele>
        <time>2019-12-04T16:48:31Z</time>
      </trkpt>
      <trkpt lat="59.297586" lon="18.083076">
        <ele>41</ele>
        <time>2019-12-04T16:48:32Z</time>
      </trkpt>
      <trkpt lat="59.297647" lon="18.083041">
        <ele>41</ele>
        <time>2019-12-04T16:48:33Z</time>
      </trkpt>
      <trkpt lat="59.29771" lon="18.083014">
        <ele>41</ele>
        <time>2019-12-04T16:48:34Z</time>
      </trkpt>
      <trkpt lat="59.297774" lon="18.082997">
        <ele>41</ele>
        <time>2019-12-04T16:48:35Z</time>
      </trkpt>
      <trkpt lat="59.29784" lon="18.082986">
        <ele>41</ele>
        <time>2019-12-04T16:48:36Z</time>
      </trkpt>
      <trkpt lat="59.297911" lon="18.082976">
        <ele>41</ele>
        <time>2019-12-04T16:48:37Z</time>
      </trkpt>
      <trkpt lat="59.29798" lon="18.082957">
        <ele>41</ele>
        <time>2019-12-04T16:48:38Z</time>
      </trkpt>
      <trkpt lat="59.29805" lon="18.082928">
        <ele>41</ele>
        <time>2019-12-04T16:48:39Z</time>
      </trkpt>
      <trkpt lat="59.298122" lon="18.08289">
        <ele>41</ele>
        <time>2019-12-04T16:48:40Z</time>
      </trkpt>
      <trkpt lat="59.298194" lon="18.082843">
        <ele>41</ele>
        <time>2019-12-04T16:48:41Z</time>
      </trkpt>
      <trkpt lat="59.298264" lon="18.08279">
        <ele>41</ele>
        <time>2019-12-04T16:48:42Z</time>
      </trkpt>
      <trkpt lat="59.298331" lon="18.082722">
        <ele>41</ele>
        <time>2019-12-04T16:48:43Z</time>
      </trkpt>
      <trkpt lat="59.298399" lon="18.082662">
        <ele>41</ele>
        <time>2019-12-04T16:48:44Z</time>
      </trkpt>
      <trkpt lat="59.298467" lon="18.082603">
        <ele>41</ele>
        <time>2019-12-04T16:48:45Z</time>
      </trkpt>
      <trkpt lat="59.298536" lon="18.082544">
        <ele>41</ele>
        <time>2019-12-04T16:48:46Z</time>
      </trkpt>
      <trkpt lat="59.298606" lon="18.082489">
        <ele>41</ele>
        <time>2019-12-04T16:48:47Z</time>
      </trkpt>
      <trkpt lat="59.298678" lon="18.082439">
        <ele>41</ele>
        <time>2019-12-04T16:48:48Z</time>
      </trkpt>
      <trkpt lat="59.298748" lon="18.08239">
        <ele>41</ele>
        <time>2019-12-04T16:48:49Z</time>
      </trkpt>
      <trkpt lat="59.29882" lon="18.082342">
        <ele>41</ele>
        <time>2019-12-04T16:48:50Z</time>
      </trkpt>
      <trkpt lat="59.298894" lon="18.082295">
        <ele>40</ele>
        <time>2019-12-04T16:48:51Z</time>
      </trkpt>
      <trkpt lat="59.298965" lon="18.082249">
        <ele>40</ele>
        <time>2019-12-04T16:48:52Z</time>
      </trkpt>
      <trkpt lat="59.299035" lon="18.082212">
        <ele>40</ele>
        <time>2019-12-04T16:48:53Z</time>
      </trkpt>
      <trkpt lat="59.299107" lon="18.082184">
        <ele>40</ele>
        <time>2019-12-04T16:48:54Z</time>
      </trkpt>
      <trkpt lat="59.299174" lon="18.08216">
        <ele>40</ele>
        <time>2019-12-04T16:48:55Z</time>
      </trkpt>
      <trkpt lat="59.299244" lon="18.08215">
        <ele>39</ele>
        <time>2019-12-04T16:48:56Z</time>
      </trkpt>
      <trkpt lat="59.299311" lon="18.082153">
        <ele>40</ele>
        <time>2019-12-04T16:48:57Z</time>
      </trkpt>
      <trkpt lat="59.29938" lon="18.082156">
        <ele>40</ele>
        <time>2019-12-04T16:48:58Z</time>
      </trkpt>
      <trkpt lat="59.299454" lon="18.082141">
        <ele>40</ele>
        <time>2019-12-04T16:48:59Z</time>
      </trkpt>
      <trkpt lat="59.299528" lon="18.082116">
        <ele>40</ele>
        <time>2019-12-04T16:49:00Z</time>
      </trkpt>
      <trkpt lat="59.299604" lon="18.082096">
        <ele>40</ele>
        <time>2019-12-04T16:49:01Z</time>
      </trkpt>
      <trkpt lat="59.299677" lon="18.082067">
        <ele>40</ele>
        <time>2019-12-04T16:49:02Z</time>
      </trkpt>
      <trkpt lat="59.299747" lon="18.082027">
        <ele>40</ele>
        <time>2019-12-04T16:49:03Z</time>
      </trkpt>
      <trkpt lat="59.299817" lon="18.081986">
        <ele>40</ele>
        <time>2019-12-04T16:49:04Z</time>
      </trkpt>
      <trkpt lat="59.299885" lon="18.081942">
        <ele>40</ele>
        <time>2019-12-04T16:49:05Z</time>
      </trkpt>
      <trkpt lat="59.299953" lon="18.081896">
        <ele>40</ele>
        <time>2019-12-04T16:49:06Z</time>
      </trkpt>
      <trkpt lat="59.300018" lon="18.081842">
        <ele>40</ele>
        <time>2019-12-04T16:49:07Z</time>
      </trkpt>
      <trkpt lat="59.300082" lon="18.081788">
        <ele>40</ele>
        <time>2019-12-04T16:49:08Z</time>
      </trkpt>
      <trkpt lat="59.300146" lon="18.081736">
        <ele>41</ele>
        <time>2019-12-04T16:49:09Z</time>
      </trkpt>
      <trkpt lat="59.30021" lon="18.081696">
        <ele>41</ele>
        <time>2019-12-04T16:49:10Z</time>
      </trkpt>
      <trkpt lat="59.300275" lon="18.081659">
        <ele>40</ele>
        <time>2019-12-04T16:49:11Z</time>
      </trkpt>
      <trkpt lat="59.300341" lon="18.081623">
        <ele>40</ele>
        <time>2019-12-04T16:49:12Z</time>
      </trkpt>
      <trkpt lat="59.300405" lon="18.081584">
        <ele>40</ele>
        <time>2019-12-04T16:49:13Z</time>
      </trkpt>
      <trkpt lat="59.300469" lon="18.081543">
        <ele>40</ele>
        <time>2019-12-04T16:49:14Z</time>
      </trkpt>
      <trkpt lat="59.300531" lon="18.081499">
        <ele>40</ele>
        <time>2019-12-04T16:49:15Z</time>
      </trkpt>
      <trkpt lat="59.300594" lon="18.081453">
        <ele>40</ele>
        <time>2019-12-04T16:49:16Z</time>
      </trkpt>
      <trkpt lat="59.300657" lon="18.081407">
        <ele>40</ele>
        <time>2019-12-04T16:49:17Z</time>
      </trkpt>
      <trkpt lat="59.30072" lon="18.081358">
        <ele>39</ele>
        <time>2019-12-04T16:49:18Z</time>
      </trkpt>
      <trkpt lat="59.300782" lon="18.081308">
        <ele>39</ele>
        <time>2019-12-04T16:49:19Z</time>
      </trkpt>
      <trkpt lat="59.300845" lon="18.081252">
        <ele>39</ele>
        <time>2019-12-04T16:49:20Z</time>
      </trkpt>
      <trkpt lat="59.300907" lon="18.081195">
        <ele>39</ele>
        <time>2019-12-04T16:49:21Z</time>
      </trkpt>
      <trkpt lat="59.300968" lon="18.081132">
        <ele>39</ele>
        <time>2019-12-04T16:49:22Z</time>
      </trkpt>
      <trkpt lat="59.301029" lon="18.081069">
        <ele>39</ele>
        <time>2019-12-04T16:49:23Z</time>
      </trkpt>
      <trkpt lat="59.301087" lon="18.081003">
        <ele>39</ele>
        <time>2019-12-04T16:49:24Z</time>
      </trkpt>
      <trkpt lat="59.301145" lon="18.080938">
        <ele>39</ele>
        <time>2019-12-04T16:49:25Z</time>
      </trkpt>
      <trkpt lat="59.301208" lon="18.080878">
        <ele>39</ele>
        <time>2019-12-04T16:49:26Z</time>
      </trkpt>
      <trkpt lat="59.30127" lon="18.08082">
        <ele>39</ele>
        <time>2019-12-04T16:49:27Z</time>
      </trkpt>
      <trkpt lat="59.301332" lon="18.080764">
        <ele>39</ele>
        <time>2019-12-04T16:49:28Z</time>
      </trkpt>
      <trkpt lat="59.301396" lon="18.080712">
        <ele>39</ele>
        <time>2019-12-04T16:49:29Z</time>
      </trkpt>
      <trkpt lat="59.301459" lon="18.080662">
        <ele>39</ele>
        <time>2019-12-04T16:49:30Z</time>
      </trkpt>
      <trkpt lat="59.301523" lon="18.080614">
        <ele>39</ele>
        <time>2019-12-04T16:49:31Z</time>
      </trkpt>
      <trkpt lat="59.301587" lon="18.080565">
        <ele>39</ele>
        <time>2019-12-04T16:49:32Z</time>
      </trkpt>
      <trkpt lat="59.301651" lon="18.080519">
        <ele>39</ele>
        <time>2019-12-04T16:49:33Z</time>
      </trkpt>
      <trkpt lat="59.301713" lon="18.080471">
        <ele>39</ele>
        <time>2019-12-04T16:49:34Z</time>
      </trkpt>
      <trkpt lat="59.301776" lon="18.080425">
        <ele>39</ele>
        <time>2019-12-04T16:49:35Z</time>
      </trkpt>
      <trkpt lat="59.301838" lon="18.080382">
        <ele>39</ele>
        <time>2019-12-04T16:49:36Z</time>
      </trkpt>
      <trkpt lat="59.301901" lon="18.080339">
        <ele>39</ele>
        <time>2019-12-04T16:49:37Z</time>
      </trkpt>
      <trkpt lat="59.301966" lon="18.080297">
        <ele>39</ele>
        <time>2019-12-04T16:49:38Z</time>
      </trkpt>
      <trkpt lat="59.302028" lon="18.080253">
        <ele>39</ele>
        <time>2019-12-04T16:49:39Z</time>
      </trkpt>
      <trkpt lat="59.302089" lon="18.080211">
        <ele>39</ele>
        <time>2019-12-04T16:49:40Z</time>
      </trkpt>
      <trkpt lat="59.30215" lon="18.08017">
        <ele>39</ele>
        <time>2019-12-04T16:49:41Z</time>
      </trkpt>
      <trkpt lat="59.302214" lon="18.080133">
        <ele>39</ele>
        <time>2019-12-04T16:49:42Z</time>
      </trkpt>
      <trkpt lat="59.302279" lon="18.080096">
        <ele>39</ele>
        <time>2019-12-04T16:49:43Z</time>
      </trkpt>
      <trkpt lat="59.302342" lon="18.080056">
        <ele>39</ele>
        <time>2019-12-04T16:49:44Z</time>
      </trkpt>
      <trkpt lat="59.302407" lon="18.080018">
        <ele>38</ele>
        <time>2019-12-04T16:49:45Z</time>
      </trkpt>
      <trkpt lat="59.302473" lon="18.079979">
        <ele>39</ele>
        <time>2019-12-04T16:49:46Z</time>
      </trkpt>
      <trkpt lat="59.30254" lon="18.079946">
        <ele>39</ele>
        <time>2019-12-04T16:49:47Z</time>
      </trkpt>
      <trkpt lat="59.302604" lon="18.079911">
        <ele>40</ele>
        <time>2019-12-04T16:49:48Z</time>
      </trkpt>
      <trkpt lat="59.30267" lon="18.079876">
        <ele>40</ele>
        <time>2019-12-04T16:49:49Z</time>
      </trkpt>
      <trkpt lat="59.302734" lon="18.079837">
        <ele>40</ele>
        <time>2019-12-04T16:49:50Z</time>
      </trkpt>
      <trkpt lat="59.302798" lon="18.079795">
        <ele>40</ele>
        <time>2019-12-04T16:49:51Z</time>
      </trkpt>
      <trkpt lat="59.302862" lon="18.079755">
        <ele>40</ele>
        <time>2019-12-04T16:49:52Z</time>
      </trkpt>
      <trkpt lat="59.302927" lon="18.079715">
        <ele>40</ele>
        <time>2019-12-04T16:49:53Z</time>
      </trkpt>
      <trkpt lat="59.302993" lon="18.079674">
        <ele>40</ele>
        <time>2019-12-04T16:49:54Z</time>
      </trkpt>
      <trkpt lat="59.303058" lon="18.079634">
        <ele>40</ele>
        <time>2019-12-04T16:49:55Z</time>
      </trkpt>
      <trkpt lat="59.303124" lon="18.079593">
        <ele>40</ele>
        <time>2019-12-04T16:49:56Z</time>
      </trkpt>
      <trkpt lat="59.303192" lon="18.079551">
        <ele>40</ele>
        <time>2019-12-04T16:49:57Z</time>
      </trkpt>
      <trkpt lat="59.303259" lon="18.079508">
        <ele>40</ele>
        <time>2019-12-04T16:49:58Z</time>
      </trkpt>
      <trkpt lat="59.303325" lon="18.079467">
        <ele>40</ele>
        <time>2019-12-04T16:49:59Z</time>
      </trkpt>
      <trkpt lat="59.303391" lon="18.079426">
        <ele>40</ele>
        <time>2019-12-04T16:50:00Z</time>
      </trkpt>
      <trkpt lat="59.303457" lon="18.079382">
        <ele>40</ele>
        <time>2019-12-04T16:50:01Z</time>
      </trkpt>
      <trkpt lat="59.303523" lon="18.079338">
        <ele>40</ele>
        <time>2019-12-04T16:50:02Z</time>
      </trkpt>
      <trkpt lat="59.30359" lon="18.079294">
        <ele>39</ele>
        <time>2019-12-04T16:50:03Z</time>
      </trkpt>
      <trkpt lat="59.303658" lon="18.079247">
        <ele>39</ele>
        <time>2019-12-04T16:50:04Z</time>
      </trkpt>
      <trkpt lat="59.303728" lon="18.079202">
        <ele>39</ele>
        <time>2019-12-04T16:50:05Z</time>
      </trkpt>
      <trkpt lat="59.303801" lon="18.079156">
        <ele>38</ele>
        <time>2019-12-04T16:50:06Z</time>
      </trkpt>
      <trkpt lat="59.303876" lon="18.07911">
        <ele>38</ele>
        <time>2019-12-04T16:50:07Z</time>
      </trkpt>
      <trkpt lat="59.303952" lon="18.079066">
        <ele>38</ele>
        <time>2019-12-04T16:50:08Z</time>
      </trkpt>
      <trkpt lat="59.30403" lon="18.079018">
        <ele>37</ele>
        <time>2019-12-04T16:50:09Z</time>
      </trkpt>
      <trkpt lat="59.30411" lon="18.078971">
        <ele>37</ele>
        <time>2019-12-04T16:50:10Z</time>
      </trkpt>
      <trkpt lat="59.304189" lon="18.078922">
        <ele>36</ele>
        <time>2019-12-04T16:50:11Z</time>
      </trkpt>
      <trkpt lat="59.30427" lon="18.07887">
        <ele>36</ele>
        <time>2019-12-04T16:50:12Z</time>
      </trkpt>
      <trkpt lat="59.304351" lon="18.078818">
        <ele>35</ele>
        <time>2019-12-04T16:50:13Z</time>
      </trkpt>
      <trkpt lat="59.304433" lon="18.078766">
        <ele>35</ele>
        <time>2019-12-04T16:50:14Z</time>
      </trkpt>
      <trkpt lat="59.304516" lon="18.078715">
        <ele>34</ele>
        <time>2019-12-04T16:50:15Z</time>
      </trkpt>
      <trkpt lat="59.3046" lon="18.078663">
        <ele>34</ele>
        <time>2019-12-04T16:50:16Z</time>
      </trkpt>
      <trkpt lat="59.304685" lon="18.07861">
        <ele>33</ele>
        <time>2019-12-04T16:50:17Z</time>
      </trkpt>
      <trkpt lat="59.304771" lon="18.078558">
        <ele>33</ele>
        <time>2019-12-04T16:50:18Z</time>
      </trkpt>
      <trkpt lat="59.304857" lon="18.078504">
        <ele>32</ele>
        <time>2019-12-04T16:50:19Z</time>
      </trkpt>
      <trkpt lat="59.304945" lon="18.07845">
        <ele>31</ele>
        <time>2019-12-04T16:50:20Z</time>
      </trkpt>
      <trkpt lat="59.305034" lon="18.078396">
        <ele>31</ele>
        <time>2019-12-04T16:50:21Z</time>
      </trkpt>
      <trkpt lat="59.305123" lon="18.07834">
        <ele>30</ele>
        <time>2019-12-04T16:50:22Z</time>
      </trkpt>
      <trkpt lat="59.305211" lon="18.078286">
        <ele>30</ele>
        <time>2019-12-04T16:50:23Z</time>
      </trkpt>
      <trkpt lat="59.305299" lon="18.078228">
        <ele>29</ele>
        <time>2019-12-04T16:50:24Z</time>
      </trkpt>
      <trkpt lat="59.305386" lon="18.078172">
        <ele>29</ele>
        <time>2019-12-04T16:50:25Z</time>
      </trkpt>
      <trkpt lat="59.305474" lon="18.078114">
        <ele>29</ele>
        <time>2019-12-04T16:50:26Z</time>
      </trkpt>
      <trkpt lat="59.305562" lon="18.078058">
        <ele>28</ele>
        <time>2019-12-04T16:50:27Z</time>
      </trkpt>
      <trkpt lat="59.305651" lon="18.078002">
        <ele>28</ele>
        <time>2019-12-04T16:50:28Z</time>
      </trkpt>
      <trkpt lat="59.30574" lon="18.077946">
        <ele>27</ele>
        <time>2019-12-04T16:50:29Z</time>
      </trkpt>
      <trkpt lat="59.305828" lon="18.077892">
        <ele>27</ele>
        <time>2019-12-04T16:50:30Z</time>
      </trkpt>
      <trkpt lat="59.305917" lon="18.077834">
        <ele>27</ele>
        <time>2019-12-04T16:50:31Z</time>
      </trkpt>
      <trkpt lat="59.306006" lon="18.077779">
        <ele>26</ele>
        <time>2019-12-04T16:50:32Z</time>
      </trkpt>
      <trkpt lat="59.306093" lon="18.07772">
        <ele>26</ele>
        <time>2019-12-04T16:50:33Z</time>
      </trkpt>
      <trkpt lat="59.30618" lon="18.077661">
        <ele>26</ele>
        <time>2019-12-04T16:50:34Z</time>
      </trkpt>
      <trkpt lat="59.306266" lon="18.077602">
        <ele>25</ele>
        <time>2019-12-04T16:50:35Z</time>
      </trkpt>
      <trkpt lat="59.30635" lon="18.077536">
        <ele>25</ele>
        <time>2019-12-04T16:50:36Z</time>
      </trkpt>
      <trkpt lat="59.306432" lon="18.07747">
        <ele>25</ele>
        <time>2019-12-04T16:50:37Z</time>
      </trkpt>
      <trkpt lat="59.306513" lon="18.077408">
        <ele>25</ele>
        <time>2019-12-04T16:50:38Z</time>
      </trkpt>
      <trkpt lat="59.306593" lon="18.077353">
        <ele>25</ele>
        <time>2019-12-04T16:50:39Z</time>
      </trkpt>
      <trkpt lat="59.306673" lon="18.077306">
        <ele>25</ele>
        <time>2019-12-04T16:50:40Z</time>
      </trkpt>
      <trkpt lat="59.306751" lon="18.077266">
        <ele>25</ele>
        <time>2019-12-04T16:50:41Z</time>
      </trkpt>
      <trkpt lat="59.306827" lon="18.077226">
        <ele>25</ele>
        <time>2019-12-04T16:50:42Z</time>
      </trkpt>
      <trkpt lat="59.306902" lon="18.077188">
        <ele>25</ele>
        <time>2019-12-04T16:50:43Z</time>
      </trkpt>
      <trkpt lat="59.306976" lon="18.07715">
        <ele>25</ele>
        <time>2019-12-04T16:50:44Z</time>
      </trkpt>
      <trkpt lat="59.307049" lon="18.077112">
        <ele>25</ele>
        <time>2019-12-04T16:50:45Z</time>
      </trkpt>
      <trkpt lat="59.30712" lon="18.077074">
        <ele>25</ele>
        <time>2019-12-04T16:50:46Z</time>
      </trkpt>
      <trkpt lat="59.30719" lon="18.077036">
        <ele>25</ele>
        <time>2019-12-04T16:50:47Z</time>
      </trkpt>
      <trkpt lat="59.307257" lon="18.077002">
        <ele>25</ele>
        <time>2019-12-04T16:50:48Z</time>
      </trkpt>
      <trkpt lat="59.307318" lon="18.076973">
        <ele>25</ele>
        <time>2019-12-04T16:50:49Z</time>
      </trkpt>
      <trkpt lat="59.307374" lon="18.076948">
        <ele>25</ele>
        <time>2019-12-04T16:50:50Z</time>
      </trkpt>
      <trkpt lat="59.307422" lon="18.076926">
        <ele>25</ele>
        <time>2019-12-04T16:50:51Z</time>
      </trkpt>
      <trkpt lat="59.307467" lon="18.076914">
        <ele>25</ele>
        <time>2019-12-04T16:50:52Z</time>
      </trkpt>
      <trkpt lat="59.307504" lon="18.076906">
        <ele>25</ele>
        <time>2019-12-04T16:50:53Z</time>
      </trkpt>
      <trkpt lat="59.307534" lon="18.076897">
        <ele>25</ele>
        <time>2019-12-04T16:50:54Z</time>
      </trkpt>
      <trkpt lat="59.307555" lon="18.07689">
        <ele>26</ele>
        <time>2019-12-04T16:50:55Z</time>
      </trkpt>
      <trkpt lat="59.307577" lon="18.076876">
        <ele>26</ele>
        <time>2019-12-04T16:50:57Z</time>
      </trkpt>
      <trkpt lat="59.307595" lon="18.07688">
        <ele>26</ele>
        <time>2019-12-04T16:50:59Z</time>
      </trkpt>
      <trkpt lat="59.307602" lon="18.076871">
        <ele>26</ele>
        <time>2019-12-04T16:51:02Z</time>
      </trkpt>
      <trkpt lat="59.307638" lon="18.076806">
        <ele>26</ele>
        <time>2019-12-04T16:51:24Z</time>
      </trkpt>
      <trkpt lat="59.307666" lon="18.076776">
        <ele>26</ele>
        <time>2019-12-04T16:51:25Z</time>
      </trkpt>
      <trkpt lat="59.307701" lon="18.076747">
        <ele>26</ele>
        <time>2019-12-04T16:51:26Z</time>
      </trkpt>
      <trkpt lat="59.307739" lon="18.076722">
        <ele>25</ele>
        <time>2019-12-04T16:51:27Z</time>
      </trkpt>
      <trkpt lat="59.307778" lon="18.076693">
        <ele>25</ele>
        <time>2019-12-04T16:51:28Z</time>
      </trkpt>
      <trkpt lat="59.307818" lon="18.076663">
        <ele>25</ele>
        <time>2019-12-04T16:51:29Z</time>
      </trkpt>
      <trkpt lat="59.307855" lon="18.076629">
        <ele>25</ele>
        <time>2019-12-04T16:51:30Z</time>
      </trkpt>
      <trkpt lat="59.307892" lon="18.076601">
        <ele>25</ele>
        <time>2019-12-04T16:51:31Z</time>
      </trkpt>
      <trkpt lat="59.30793" lon="18.076576">
        <ele>25</ele>
        <time>2019-12-04T16:51:32Z</time>
      </trkpt>
      <trkpt lat="59.307965" lon="18.076553">
        <ele>25</ele>
        <time>2019-12-04T16:51:33Z</time>
      </trkpt>
      <trkpt lat="59.307996" lon="18.076529">
        <ele>25</ele>
        <time>2019-12-04T16:51:34Z</time>
      </trkpt>
      <trkpt lat="59.308022" lon="18.076506">
        <ele>25</ele>
        <time>2019-12-04T16:51:35Z</time>
      </trkpt>
      <trkpt lat="59.30804" lon="18.076478">
        <ele>25</ele>
        <time>2019-12-04T16:51:36Z</time>
      </trkpt>
      <trkpt lat="59.308059" lon="18.076456">
        <ele>25</ele>
        <time>2019-12-04T16:51:37Z</time>
      </trkpt>
      <trkpt lat="59.308079" lon="18.076429">
        <ele>25</ele>
        <time>2019-12-04T16:51:38Z</time>
      </trkpt>
      <trkpt lat="59.308105" lon="18.076398">
        <ele>25</ele>
        <time>2019-12-04T16:51:39Z</time>
      </trkpt>
      <trkpt lat="59.30813" lon="18.076368">
        <ele>25</ele>
        <time>2019-12-04T16:51:40Z</time>
      </trkpt>
      <trkpt lat="59.308158" lon="18.076342">
        <ele>25</ele>
        <time>2019-12-04T16:51:41Z</time>
      </trkpt>
      <trkpt lat="59.308194" lon="18.076317">
        <ele>25</ele>
        <time>2019-12-04T16:51:42Z</time>
      </trkpt>
      <trkpt lat="59.308232" lon="18.076293">
        <ele>25</ele>
        <time>2019-12-04T16:51:43Z</time>
      </trkpt>
      <trkpt lat="59.308273" lon="18.076272">
        <ele>25</ele>
        <time>2019-12-04T16:51:44Z</time>
      </trkpt>
      <trkpt lat="59.30832" lon="18.076251">
        <ele>26</ele>
        <time>2019-12-04T16:51:45Z</time>
      </trkpt>
      <trkpt lat="59.308373" lon="18.076231">
        <ele>25</ele>
        <time>2019-12-04T16:51:46Z</time>
      </trkpt>
      <trkpt lat="59.308423" lon="18.076209">
        <ele>25</ele>
        <time>2019-12-04T16:51:47Z</time>
      </trkpt>
      <trkpt lat="59.308475" lon="18.076189">
        <ele>26</ele>
        <time>2019-12-04T16:51:48Z</time>
      </trkpt>
      <trkpt lat="59.308519" lon="18.07616">
        <ele>26</ele>
        <time>2019-12-04T16:51:49Z</time>
      </trkpt>
      <trkpt lat="59.308574" lon="18.076135">
        <ele>26</ele>
        <time>2019-12-04T16:51:50Z</time>
      </trkpt>
      <trkpt lat="59.308627" lon="18.0761">
        <ele>26</ele>
        <time>2019-12-04T16:51:51Z</time>
      </trkpt>
      <trkpt lat="59.308677" lon="18.076056">
        <ele>26</ele>
        <time>2019-12-04T16:51:52Z</time>
      </trkpt>
      <trkpt lat="59.308734" lon="18.076022">
        <ele>26</ele>
        <time>2019-12-04T16:51:53Z</time>
      </trkpt>
      <trkpt lat="59.308786" lon="18.075991">
        <ele>26</ele>
        <time>2019-12-04T16:51:54Z</time>
      </trkpt>
      <trkpt lat="59.308833" lon="18.075959">
        <ele>26</ele>
        <time>2019-12-04T16:51:55Z</time>
      </trkpt>
      <trkpt lat="59.308882" lon="18.075933">
        <ele>26</ele>
        <time>2019-12-04T16:51:56Z</time>
      </trkpt>
      <trkpt lat="59.308926" lon="18.075911">
        <ele>26</ele>
        <time>2019-12-04T16:51:57Z</time>
      </trkpt>
      <trkpt lat="59.308965" lon="18.075893">
        <ele>26</ele>
        <time>2019-12-04T16:51:58Z</time>
      </trkpt>
      <trkpt lat="59.308999" lon="18.075874">
        <ele>27</ele>
        <time>2019-12-04T16:51:59Z</time>
      </trkpt>
      <trkpt lat="59.309026" lon="18.075858">
        <ele>27</ele>
        <time>2019-12-04T16:52:00Z</time>
      </trkpt>
      <trkpt lat="59.309052" lon="18.075845">
        <ele>27</ele>
        <time>2019-12-04T16:52:01Z</time>
      </trkpt>
      <trkpt lat="59.309074" lon="18.075833">
        <ele>27</ele>
        <time>2019-12-04T16:52:02Z</time>
      </trkpt>
      <trkpt lat="59.309106" lon="18.07581">
        <ele>27</ele>
        <time>2019-12-04T16:52:04Z</time>
      </trkpt>
      <trkpt lat="59.309129" lon="18.07579">
        <ele>27</ele>
        <time>2019-12-04T16:52:06Z</time>
      </trkpt>
      <trkpt lat="59.309155" lon="18.075781">
        <ele>27</ele>
        <time>2019-12-04T16:52:08Z</time>
      </trkpt>
      <trkpt lat="59.309174" lon="18.075772">
        <ele>27</ele>
        <time>2019-12-04T16:52:10Z</time>
      </trkpt>
      <trkpt lat="59.309193" lon="18.075747">
        <ele>28</ele>
        <time>2019-12-04T16:52:14Z</time>
      </trkpt>
      <trkpt lat="59.309214" lon="18.075741">
        <ele>28</ele>
        <time>2019-12-04T16:52:16Z</time>
      </trkpt>
      <trkpt lat="59.309236" lon="18.075727">
        <ele>28</ele>
        <time>2019-12-04T16:52:18Z</time>
      </trkpt>
      <trkpt lat="59.309268" lon="18.075687">
        <ele>28</ele>
        <time>2019-12-04T16:52:20Z</time>
      </trkpt>
      <trkpt lat="59.309293" lon="18.075652">
        <ele>28</ele>
        <time>2019-12-04T16:52:21Z</time>
      </trkpt>
      <trkpt lat="59.309322" lon="18.075623">
        <ele>28</ele>
        <time>2019-12-04T16:52:22Z</time>
      </trkpt>
      <trkpt lat="59.309358" lon="18.075596">
        <ele>28</ele>
        <time>2019-12-04T16:52:23Z</time>
      </trkpt>
      <trkpt lat="59.3094" lon="18.075569">
        <ele>28</ele>
        <time>2019-12-04T16:52:24Z</time>
      </trkpt>
      <trkpt lat="59.309441" lon="18.075537">
        <ele>28</ele>
        <time>2019-12-04T16:52:25Z</time>
      </trkpt>
      <trkpt lat="59.309481" lon="18.075504">
        <ele>29</ele>
        <time>2019-12-04T16:52:26Z</time>
      </trkpt>
      <trkpt lat="59.30952" lon="18.075458">
        <ele>29</ele>
        <time>2019-12-04T16:52:27Z</time>
      </trkpt>
      <trkpt lat="59.309567" lon="18.075424">
        <ele>29</ele>
        <time>2019-12-04T16:52:28Z</time>
      </trkpt>
      <trkpt lat="59.309613" lon="18.075385">
        <ele>29</ele>
        <time>2019-12-04T16:52:29Z</time>
      </trkpt>
      <trkpt lat="59.309663" lon="18.075351">
        <ele>29</ele>
        <time>2019-12-04T16:52:30Z</time>
      </trkpt>
      <trkpt lat="59.309715" lon="18.075321">
        <ele>29</ele>
        <time>2019-12-04T16:52:31Z</time>
      </trkpt>
      <trkpt lat="59.309768" lon="18.075293">
        <ele>29</ele>
        <time>2019-12-04T16:52:32Z</time>
      </trkpt>
      <trkpt lat="59.309823" lon="18.075267">
        <ele>29</ele>
        <time>2019-12-04T16:52:33Z</time>
      </trkpt>
      <trkpt lat="59.309883" lon="18.075241">
        <ele>28</ele>
        <time>2019-12-04T16:52:34Z</time>
      </trkpt>
      <trkpt lat="59.309943" lon="18.075212">
        <ele>28</ele>
        <time>2019-12-04T16:52:35Z</time>
      </trkpt>
      <trkpt lat="59.31002" lon="18.075186">
        <ele>28</ele>
        <time>2019-12-04T16:52:36Z</time>
      </trkpt>
      <trkpt lat="59.310094" lon="18.075163">
        <ele>28</ele>
        <time>2019-12-04T16:52:37Z</time>
      </trkpt>
      <trkpt lat="59.310166" lon="18.075139">
        <ele>27</ele>
        <time>2019-12-04T16:52:38Z</time>
      </trkpt>
      <trkpt lat="59.310238" lon="18.075114">
        <ele>27</ele>
        <time>2019-12-04T16:52:39Z</time>
      </trkpt>
      <trkpt lat="59.310308" lon="18.07509">
        <ele>27</ele>
        <time>2019-12-04T16:52:40Z</time>
      </trkpt>
      <trkpt lat="59.310375" lon="18.075065">
        <ele>27</ele>
        <time>2019-12-04T16:52:41Z</time>
      </trkpt>
      <trkpt lat="59.31044" lon="18.075041">
        <ele>27</ele>
        <time>2019-12-04T16:52:42Z</time>
      </trkpt>
      <trkpt lat="59.310502" lon="18.075024">
        <ele>27</ele>
        <time>2019-12-04T16:52:43Z</time>
      </trkpt>
      <trkpt lat="59.31056" lon="18.074996">
        <ele>27</ele>
        <time>2019-12-04T16:52:44Z</time>
      </trkpt>
      <trkpt lat="59.310618" lon="18.074963">
        <ele>27</ele>
        <time>2019-12-04T16:52:45Z</time>
      </trkpt>
      <trkpt lat="59.310673" lon="18.074931">
        <ele>27</ele>
        <time>2019-12-04T16:52:46Z</time>
      </trkpt>
      <trkpt lat="59.310724" lon="18.074895">
        <ele>27</ele>
        <time>2019-12-04T16:52:47Z</time>
      </trkpt>
      <trkpt lat="59.310772" lon="18.074861">
        <ele>27</ele>
        <time>2019-12-04T16:52:48Z</time>
      </trkpt>
      <trkpt lat="59.310823" lon="18.074839">
        <ele>28</ele>
        <time>2019-12-04T16:52:49Z</time>
      </trkpt>
      <trkpt lat="59.310872" lon="18.07482">
        <ele>28</ele>
        <time>2019-12-04T16:52:50Z</time>
      </trkpt>
      <trkpt lat="59.310916" lon="18.074798">
        <ele>28</ele>
        <time>2019-12-04T16:52:51Z</time>
      </trkpt>
      <trkpt lat="59.310962" lon="18.074779">
        <ele>28</ele>
        <time>2019-12-04T16:52:52Z</time>
      </trkpt>
      <trkpt lat="59.311008" lon="18.074762">
        <ele>29</ele>
        <time>2019-12-04T16:52:53Z</time>
      </trkpt>
      <trkpt lat="59.311052" lon="18.074745">
        <ele>29</ele>
        <time>2019-12-04T16:52:54Z</time>
      </trkpt>
      <trkpt lat="59.311093" lon="18.074724">
        <ele>29</ele>
        <time>2019-12-04T16:52:55Z</time>
      </trkpt>
      <trkpt lat="59.311128" lon="18.074703">
        <ele>29</ele>
        <time>2019-12-04T16:52:56Z</time>
      </trkpt>
      <trkpt lat="59.31116" lon="18.074685">
        <ele>29</ele>
        <time>2019-12-04T16:52:57Z</time>
      </trkpt>
      <trkpt lat="59.311195" lon="18.07467">
        <ele>29</ele>
        <time>2019-12-04T16:52:58Z</time>
      </trkpt>
      <trkpt lat="59.311232" lon="18.074658">
        <ele>29</ele>
        <time>2019-12-04T16:52:59Z</time>
      </trkpt>
      <trkpt lat="59.311266" lon="18.07465">
        <ele>32</ele>
        <time>2019-12-04T16:53:00Z</time>
      </trkpt>
      <trkpt lat="59.31133" lon="18.074664">
        <ele>32</ele>
        <time>2019-12-04T16:53:01Z</time>
      </trkpt>
      <trkpt lat="59.311348" lon="18.074658">
        <ele>32</ele>
        <time>2019-12-04T16:53:02Z</time>
      </trkpt>
      <trkpt lat="59.311374" lon="18.07465">
        <ele>32</ele>
        <time>2019-12-04T16:53:04Z</time>
      </trkpt>
      <trkpt lat="59.311395" lon="18.074634">
        <ele>32</ele>
        <time>2019-12-04T16:53:08Z</time>
      </trkpt>
      <trkpt lat="59.311419" lon="18.074627">
        <ele>32</ele>
        <time>2019-12-04T16:53:10Z</time>
      </trkpt>
      <trkpt lat="59.31145" lon="18.074619">
        <ele>31</ele>
        <time>2019-12-04T16:53:12Z</time>
      </trkpt>
      <trkpt lat="59.311469" lon="18.07461">
        <ele>31</ele>
        <time>2019-12-04T16:53:13Z</time>
      </trkpt>
      <trkpt lat="59.311497" lon="18.074603">
        <ele>31</ele>
        <time>2019-12-04T16:53:14Z</time>
      </trkpt>
      <trkpt lat="59.311532" lon="18.074597">
        <ele>31</ele>
        <time>2019-12-04T16:53:15Z</time>
      </trkpt>
      <trkpt lat="59.311573" lon="18.074588">
        <ele>31</ele>
        <time>2019-12-04T16:53:16Z</time>
      </trkpt>
      <trkpt lat="59.311621" lon="18.074573">
        <ele>31</ele>
        <time>2019-12-04T16:53:17Z</time>
      </trkpt>
      <trkpt lat="59.311683" lon="18.074555">
        <ele>30</ele>
        <time>2019-12-04T16:53:18Z</time>
      </trkpt>
      <trkpt lat="59.311744" lon="18.07453">
        <ele>30</ele>
        <time>2019-12-04T16:53:19Z</time>
      </trkpt>
      <trkpt lat="59.311809" lon="18.074506">
        <ele>31</ele>
        <time>2019-12-04T16:53:20Z</time>
      </trkpt>
      <trkpt lat="59.311877" lon="18.074483">
        <ele>31</ele>
        <time>2019-12-04T16:53:21Z</time>
      </trkpt>
      <trkpt lat="59.311934" lon="18.074446">
        <ele>31</ele>
        <time>2019-12-04T16:53:22Z</time>
      </trkpt>
      <trkpt lat="59.311987" lon="18.074407">
        <ele>31</ele>
        <time>2019-12-04T16:53:23Z</time>
      </trkpt>
      <trkpt lat="59.312047" lon="18.074374">
        <ele>31</ele>
        <time>2019-12-04T16:53:24Z</time>
      </trkpt>
      <trkpt lat="59.312106" lon="18.074333">
        <ele>31</ele>
        <time>2019-12-04T16:53:25Z</time>
      </trkpt>
      <trkpt lat="59.312164" lon="18.074292">
        <ele>31</ele>
        <time>2019-12-04T16:53:26Z</time>
      </trkpt>
      <trkpt lat="59.312223" lon="18.07425">
        <ele>31</ele>
        <time>2019-12-04T16:53:27Z</time>
      </trkpt>
      <trkpt lat="59.312286" lon="18.074223">
        <ele>31</ele>
        <time>2019-12-04T16:53:28Z</time>
      </trkpt>
      <trkpt lat="59.312346" lon="18.074191">
        <ele>31</ele>
        <time>2019-12-04T16:53:29Z</time>
      </trkpt>
      <trkpt lat="59.312411" lon="18.074165">
        <ele>31</ele>
        <time>2019-12-04T16:53:30Z</time>
      </trkpt>
      <trkpt lat="59.312476" lon="18.074136">
        <ele>31</ele>
        <time>2019-12-04T16:53:31Z</time>
      </trkpt>
      <trkpt lat="59.31254" lon="18.074108">
        <ele>31</ele>
        <time>2019-12-04T16:53:32Z</time>
      </trkpt>
      <trkpt lat="59.312605" lon="18.07408">
        <ele>31</ele>
        <time>2019-12-04T16:53:33Z</time>
      </trkpt>
      <trkpt lat="59.312668" lon="18.074048">
        <ele>31</ele>
        <time>2019-12-04T16:53:34Z</time>
      </trkpt>
      <trkpt lat="59.312729" lon="18.074019">
        <ele>31</ele>
        <time>2019-12-04T16:53:35Z</time>
      </trkpt>
      <trkpt lat="59.31279" lon="18.073998">
        <ele>31</ele>
        <time>2019-12-04T16:53:36Z</time>
      </trkpt>
      <trkpt lat="59.312854" lon="18.073986">
        <ele>31</ele>
        <time>2019-12-04T16:53:37Z</time>
      </trkpt>
      <trkpt lat="59.312918" lon="18.073967">
        <ele>31</ele>
        <time>2019-12-04T16:53:38Z</time>
      </trkpt>
      <trkpt lat="59.312982" lon="18.073951">
        <ele>31</ele>
        <time>2019-12-04T16:53:39Z</time>
      </trkpt>
      <trkpt lat="59.313042" lon="18.073928">
        <ele>32</ele>
        <time>2019-12-04T16:53:40Z</time>
      </trkpt>
      <trkpt lat="59.313098" lon="18.073895">
        <ele>32</ele>
        <time>2019-12-04T16:53:41Z</time>
      </trkpt>
      <trkpt lat="59.313154" lon="18.07386">
        <ele>32</ele>
        <time>2019-12-04T16:53:42Z</time>
      </trkpt>
      <trkpt lat="59.313207" lon="18.073828">
        <ele>33</ele>
        <time>2019-12-04T16:53:43Z</time>
      </trkpt>
      <trkpt lat="59.313264" lon="18.073794">
        <ele>33</ele>
        <time>2019-12-04T16:53:44Z</time>
      </trkpt>
      <trkpt lat="59.313316" lon="18.073761">
        <ele>34</ele>
        <time>2019-12-04T16:53:45Z</time>
      </trkpt>
      <trkpt lat="59.313369" lon="18.07373">
        <ele>34</ele>
        <time>2019-12-04T16:53:46Z</time>
      </trkpt>
      <trkpt lat="59.313421" lon="18.073699">
        <ele>34</ele>
        <time>2019-12-04T16:53:47Z</time>
      </trkpt>
      <trkpt lat="59.313472" lon="18.073669">
        <ele>34</ele>
        <time>2019-12-04T16:53:48Z</time>
      </trkpt>
      <trkpt lat="59.313528" lon="18.073661">
        <ele>35</ele>
        <time>2019-12-04T16:53:49Z</time>
      </trkpt>
      <trkpt lat="59.313582" lon="18.073643">
        <ele>35</ele>
        <time>2019-12-04T16:53:50Z</time>
      </trkpt>
      <trkpt lat="59.313629" lon="18.073618">
        <ele>35</ele>
        <time>2019-12-04T16:53:51Z</time>
      </trkpt>
      <trkpt lat="59.313669" lon="18.073577">
        <ele>35</ele>
        <time>2019-12-04T16:53:52Z</time>
      </trkpt>
      <trkpt lat="59.313703" lon="18.073539">
        <ele>35</ele>
        <time>2019-12-04T16:53:53Z</time>
      </trkpt>
      <trkpt lat="59.313737" lon="18.073505">
        <ele>35</ele>
        <time>2019-12-04T16:53:54Z</time>
      </trkpt>
      <trkpt lat="59.313776" lon="18.073479">
        <ele>35</ele>
        <time>2019-12-04T16:53:55Z</time>
      </trkpt>
      <trkpt lat="59.31381" lon="18.073459">
        <ele>35</ele>
        <time>2019-12-04T16:53:56Z</time>
      </trkpt>
      <trkpt lat="59.313841" lon="18.073446">
        <ele>35</ele>
        <time>2019-12-04T16:53:57Z</time>
      </trkpt>
      <trkpt lat="59.313874" lon="18.073429">
        <ele>35</ele>
        <time>2019-12-04T16:53:58Z</time>
      </trkpt>
      <trkpt lat="59.313919" lon="18.073409">
        <ele>35</ele>
        <time>2019-12-04T16:53:59Z</time>
      </trkpt>
      <trkpt lat="59.313962" lon="18.073378">
        <ele>35</ele>
        <time>2019-12-04T16:54:00Z</time>
      </trkpt>
      <trkpt lat="59.314008" lon="18.073357">
        <ele>35</ele>
        <time>2019-12-04T16:54:01Z</time>
      </trkpt>
      <trkpt lat="59.314056" lon="18.073338">
        <ele>35</ele>
        <time>2019-12-04T16:54:02Z</time>
      </trkpt>
      <trkpt lat="59.314123" lon="18.073324">
        <ele>35</ele>
        <time>2019-12-04T16:54:03Z</time>
      </trkpt>
      <trkpt lat="59.314187" lon="18.073315">
        <ele>35</ele>
        <time>2019-12-04T16:54:04Z</time>
      </trkpt>
      <trkpt lat="59.314249" lon="18.07331">
        <ele>35</ele>
        <time>2019-12-04T16:54:05Z</time>
      </trkpt>
      <trkpt lat="59.314309" lon="18.073302">
        <ele>35</ele>
        <time>2019-12-04T16:54:06Z</time>
      </trkpt>
      <trkpt lat="59.31437" lon="18.073288">
        <ele>36</ele>
        <time>2019-12-04T16:54:07Z</time>
      </trkpt>
      <trkpt lat="59.314426" lon="18.073261">
        <ele>36</ele>
        <time>2019-12-04T16:54:08Z</time>
      </trkpt>
      <trkpt lat="59.314479" lon="18.073232">
        <ele>36</ele>
        <time>2019-12-04T16:54:09Z</time>
      </trkpt>
      <trkpt lat="59.314529" lon="18.073214">
        <ele>36</ele>
        <time>2019-12-04T16:54:10Z</time>
      </trkpt>
      <trkpt lat="59.314572" lon="18.073198">
        <ele>37</ele>
        <time>2019-12-04T16:54:11Z</time>
      </trkpt>
      <trkpt lat="59.314617" lon="18.073179">
        <ele>37</ele>
        <time>2019-12-04T16:54:12Z</time>
      </trkpt>
      <trkpt lat="59.31466" lon="18.073168">
        <ele>38</ele>
        <time>2019-12-04T16:54:13Z</time>
      </trkpt>
      <trkpt lat="59.3147" lon="18.07315">
        <ele>38</ele>
        <time>2019-12-04T16:54:14Z</time>
      </trkpt>
      <trkpt lat="59.314738" lon="18.07313">
        <ele>39</ele>
        <time>2019-12-04T16:54:15Z</time>
      </trkpt>
      <trkpt lat="59.31478" lon="18.073111">
        <ele>39</ele>
        <time>2019-12-04T16:54:16Z</time>
      </trkpt>
      <trkpt lat="59.314823" lon="18.073098">
        <ele>39</ele>
        <time>2019-12-04T16:54:17Z</time>
      </trkpt>
      <trkpt lat="59.31487" lon="18.073091">
        <ele>39</ele>
        <time>2019-12-04T16:54:18Z</time>
      </trkpt>
      <trkpt lat="59.314919" lon="18.073071">
        <ele>40</ele>
        <time>2019-12-04T16:54:19Z</time>
      </trkpt>
      <trkpt lat="59.31497" lon="18.073048">
        <ele>39</ele>
        <time>2019-12-04T16:54:20Z</time>
      </trkpt>
      <trkpt lat="59.315019" lon="18.07302">
        <ele>39</ele>
        <time>2019-12-04T16:54:21Z</time>
      </trkpt>
      <trkpt lat="59.315068" lon="18.072991">
        <ele>39</ele>
        <time>2019-12-04T16:54:22Z</time>
      </trkpt>
      <trkpt lat="59.315121" lon="18.072967">
        <ele>39</ele>
        <time>2019-12-04T16:54:23Z</time>
      </trkpt>
      <trkpt lat="59.315175" lon="18.072945">
        <ele>39</ele>
        <time>2019-12-04T16:54:24Z</time>
      </trkpt>
      <trkpt lat="59.315228" lon="18.072926">
        <ele>39</ele>
        <time>2019-12-04T16:54:25Z</time>
      </trkpt>
      <trkpt lat="59.315276" lon="18.072901">
        <ele>39</ele>
        <time>2019-12-04T16:54:26Z</time>
      </trkpt>
      <trkpt lat="59.315325" lon="18.072879">
        <ele>39</ele>
        <time>2019-12-04T16:54:27Z</time>
      </trkpt>
      <trkpt lat="59.315378" lon="18.072853">
        <ele>39</ele>
        <time>2019-12-04T16:54:28Z</time>
      </trkpt>
      <trkpt lat="59.315431" lon="18.072826">
        <ele>39</ele>
        <time>2019-12-04T16:54:29Z</time>
      </trkpt>
      <trkpt lat="59.315484" lon="18.072795">
        <ele>39</ele>
        <time>2019-12-04T16:54:30Z</time>
      </trkpt>
      <trkpt lat="59.315539" lon="18.072764">
        <ele>39</ele>
        <time>2019-12-04T16:54:31Z</time>
      </trkpt>
      <trkpt lat="59.315592" lon="18.07274">
        <ele>39</ele>
        <time>2019-12-04T16:54:32Z</time>
      </trkpt>
      <trkpt lat="59.315633" lon="18.07269">
        <ele>38</ele>
        <time>2019-12-04T16:54:33Z</time>
      </trkpt>
      <trkpt lat="59.315666" lon="18.072626">
        <ele>38</ele>
        <time>2019-12-04T16:54:34Z</time>
      </trkpt>
      <trkpt lat="59.315707" lon="18.072563">
        <ele>38</ele>
        <time>2019-12-04T16:54:35Z</time>
      </trkpt>
      <trkpt lat="59.315749" lon="18.072508">
        <ele>38</ele>
        <time>2019-12-04T16:54:36Z</time>
      </trkpt>
      <trkpt lat="59.315794" lon="18.072462">
        <ele>38</ele>
        <time>2019-12-04T16:54:37Z</time>
      </trkpt>
      <trkpt lat="59.315841" lon="18.072424">
        <ele>38</ele>
        <time>2019-12-04T16:54:38Z</time>
      </trkpt>
      <trkpt lat="59.315887" lon="18.072389">
        <ele>38</ele>
        <time>2019-12-04T16:54:39Z</time>
      </trkpt>
      <trkpt lat="59.315935" lon="18.072363">
        <ele>37</ele>
        <time>2019-12-04T16:54:40Z</time>
      </trkpt>
      <trkpt lat="59.316002" lon="18.072345">
        <ele>37</ele>
        <time>2019-12-04T16:54:41Z</time>
      </trkpt>
      <trkpt lat="59.316052" lon="18.072323">
        <ele>37</ele>
        <time>2019-12-04T16:54:42Z</time>
      </trkpt>
      <trkpt lat="59.316101" lon="18.072302">
        <ele>37</ele>
        <time>2019-12-04T16:54:43Z</time>
      </trkpt>
      <trkpt lat="59.316154" lon="18.072284">
        <ele>37</ele>
        <time>2019-12-04T16:54:44Z</time>
      </trkpt>
      <trkpt lat="59.316206" lon="18.072264">
        <ele>38</ele>
        <time>2019-12-04T16:54:45Z</time>
      </trkpt>
      <trkpt lat="59.316254" lon="18.072253">
        <ele>38</ele>
        <time>2019-12-04T16:54:46Z</time>
      </trkpt>
      <trkpt lat="59.316349" lon="18.072244">
        <ele>38</ele>
        <time>2019-12-04T16:54:48Z</time>
      </trkpt>
      <trkpt lat="59.316439" lon="18.072221">
        <ele>38</ele>
        <time>2019-12-04T16:54:50Z</time>
      </trkpt>
      <trkpt lat="59.316526" lon="18.072171">
        <ele>38</ele>
        <time>2019-12-04T16:54:53Z</time>
      </trkpt>
      <trkpt lat="59.316633" lon="18.072103">
        <ele>38</ele>
        <time>2019-12-04T16:54:57Z</time>
      </trkpt>
      <trkpt lat="59.316709" lon="18.072026">
        <ele>38</ele>
        <time>2019-12-04T16:55:00Z</time>
      </trkpt>
      <trkpt lat="59.316737" lon="18.072004">
        <ele>38</ele>
        <time>2019-12-04T16:55:01Z</time>
      </trkpt>
      <trkpt lat="59.316766" lon="18.071981">
        <ele>38</ele>
        <time>2019-12-04T16:55:02Z</time>
      </trkpt>
      <trkpt lat="59.316799" lon="18.071958">
        <ele>38</ele>
        <time>2019-12-04T16:55:03Z</time>
      </trkpt>
      <trkpt lat="59.316834" lon="18.071936">
        <ele>38</ele>
        <time>2019-12-04T16:55:04Z</time>
      </trkpt>
      <trkpt lat="59.316874" lon="18.071917">
        <ele>38</ele>
        <time>2019-12-04T16:55:05Z</time>
      </trkpt>
      <trkpt lat="59.31692" lon="18.071891">
        <ele>38</ele>
        <time>2019-12-04T16:55:06Z</time>
      </trkpt>
      <trkpt lat="59.316969" lon="18.071858">
        <ele>38</ele>
        <time>2019-12-04T16:55:07Z</time>
      </trkpt>
      <trkpt lat="59.317015" lon="18.071828">
        <ele>38</ele>
        <time>2019-12-04T16:55:08Z</time>
      </trkpt>
      <trkpt lat="59.317063" lon="18.0718">
        <ele>38</ele>
        <time>2019-12-04T16:55:09Z</time>
      </trkpt>
      <trkpt lat="59.317109" lon="18.071773">
        <ele>38</ele>
        <time>2019-12-04T16:55:10Z</time>
      </trkpt>
      <trkpt lat="59.317157" lon="18.071752">
        <ele>38</ele>
        <time>2019-12-04T16:55:11Z</time>
      </trkpt>
      <trkpt lat="59.317207" lon="18.071731">
        <ele>38</ele>
        <time>2019-12-04T16:55:12Z</time>
      </trkpt>
      <trkpt lat="59.317257" lon="18.071712">
        <ele>38</ele>
        <time>2019-12-04T16:55:13Z</time>
      </trkpt>
      <trkpt lat="59.3173" lon="18.071693">
        <ele>38</ele>
        <time>2019-12-04T16:55:14Z</time>
      </trkpt>
      <trkpt lat="59.317343" lon="18.071677">
        <ele>38</ele>
        <time>2019-12-04T16:55:15Z</time>
      </trkpt>
      <trkpt lat="59.317386" lon="18.071662">
        <ele>38</ele>
        <time>2019-12-04T16:55:16Z</time>
      </trkpt>
      <trkpt lat="59.317429" lon="18.071645">
        <ele>38</ele>
        <time>2019-12-04T16:55:17Z</time>
      </trkpt>
      <trkpt lat="59.317475" lon="18.071628">
        <ele>38</ele>
        <time>2019-12-04T16:55:18Z</time>
      </trkpt>
      <trkpt lat="59.317524" lon="18.071606">
        <ele>38</ele>
        <time>2019-12-04T16:55:19Z</time>
      </trkpt>
      <trkpt lat="59.317568" lon="18.07158">
        <ele>38</ele>
        <time>2019-12-04T16:55:20Z</time>
      </trkpt>
      <trkpt lat="59.317611" lon="18.071554">
        <ele>38</ele>
        <time>2019-12-04T16:55:21Z</time>
      </trkpt>
      <trkpt lat="59.31765" lon="18.071528">
        <ele>38</ele>
        <time>2019-12-04T16:55:22Z</time>
      </trkpt>
      <trkpt lat="59.317758" lon="18.071461">
        <ele>38</ele>
        <time>2019-12-04T16:55:25Z</time>
      </trkpt>
      <trkpt lat="59.317801" lon="18.07145">
        <ele>38</ele>
        <time>2019-12-04T16:55:26Z</time>
      </trkpt>
      <trkpt lat="59.317851" lon="18.071445">
        <ele>38</ele>
        <time>2019-12-04T16:55:27Z</time>
      </trkpt>
      <trkpt lat="59.317896" lon="18.071441">
        <ele>39</ele>
        <time>2019-12-04T16:55:28Z</time>
      </trkpt>
      <trkpt lat="59.317942" lon="18.071432">
        <ele>39</ele>
        <time>2019-12-04T16:55:29Z</time>
      </trkpt>
      <trkpt lat="59.317988" lon="18.071419">
        <ele>39</ele>
        <time>2019-12-04T16:55:30Z</time>
      </trkpt>
      <trkpt lat="59.318037" lon="18.07141">
        <ele>39</ele>
        <time>2019-12-04T16:55:31Z</time>
      </trkpt>
      <trkpt lat="59.318089" lon="18.071403">
        <ele>39</ele>
        <time>2019-12-04T16:55:32Z</time>
      </trkpt>
      <trkpt lat="59.318138" lon="18.071386">
        <ele>39</ele>
        <time>2019-12-04T16:55:33Z</time>
      </trkpt>
      <trkpt lat="59.31819" lon="18.071367">
        <ele>39</ele>
        <time>2019-12-04T16:55:34Z</time>
      </trkpt>
      <trkpt lat="59.318238" lon="18.071348">
        <ele>39</ele>
        <time>2019-12-04T16:55:35Z</time>
      </trkpt>
      <trkpt lat="59.318335" lon="18.071297">
        <ele>39</ele>
        <time>2019-12-04T16:55:37Z</time>
      </trkpt>
      <trkpt lat="59.318439" lon="18.071242">
        <ele>39</ele>
        <time>2019-12-04T16:55:39Z</time>
      </trkpt>
      <trkpt lat="59.318556" lon="18.071116">
        <ele>38</ele>
        <time>2019-12-04T16:55:41Z</time>
      </trkpt>
      <trkpt lat="59.318622" lon="18.071068">
        <ele>38</ele>
        <time>2019-12-04T16:55:42Z</time>
      </trkpt>
      <trkpt lat="59.31869" lon="18.071033">
        <ele>38</ele>
        <time>2019-12-04T16:55:43Z</time>
      </trkpt>
      <trkpt lat="59.318757" lon="18.070995">
        <ele>38</ele>
        <time>2019-12-04T16:55:44Z</time>
      </trkpt>
      <trkpt lat="59.31891" lon="18.070936">
        <ele>38</ele>
        <time>2019-12-04T16:55:46Z</time>
      </trkpt>
      <trkpt lat="59.319085" lon="18.070853">
        <ele>38</ele>
        <time>2019-12-04T16:55:48Z</time>
      </trkpt>
      <trkpt lat="59.319251" lon="18.070802">
        <ele>38</ele>
        <time>2019-12-04T16:55:50Z</time>
      </trkpt>
      <trkpt lat="59.319372" lon="18.070763">
        <ele>38</ele>
        <time>2019-12-04T16:55:52Z</time>
      </trkpt>
      <trkpt lat="59.319408" lon="18.070746">
        <ele>38</ele>
        <time>2019-12-04T16:55:53Z</time>
      </trkpt>
      <trkpt lat="59.319444" lon="18.070741">
        <ele>38</ele>
        <time>2019-12-04T16:55:54Z</time>
      </trkpt>
      <trkpt lat="59.319493" lon="18.070742">
        <ele>37</ele>
        <time>2019-12-04T16:55:55Z</time>
      </trkpt>
      <trkpt lat="59.319561" lon="18.070732">
        <ele>37</ele>
        <time>2019-12-04T16:55:56Z</time>
      </trkpt>
      <trkpt lat="59.319608" lon="18.070711">
        <ele>37</ele>
        <time>2019-12-04T16:55:57Z</time>
      </trkpt>
      <trkpt lat="59.319651" lon="18.070692">
        <ele>37</ele>
        <time>2019-12-04T16:55:58Z</time>
      </trkpt>
      <trkpt lat="59.319696" lon="18.070671">
        <ele>37</ele>
        <time>2019-12-04T16:55:59Z</time>
      </trkpt>
      <trkpt lat="59.319733" lon="18.070628">
        <ele>37</ele>
        <time>2019-12-04T16:56:00Z</time>
      </trkpt>
      <trkpt lat="59.319767" lon="18.070589">
        <ele>37</ele>
        <time>2019-12-04T16:56:01Z</time>
      </trkpt>
      <trkpt lat="59.319797" lon="18.070563">
        <ele>37</ele>
        <time>2019-12-04T16:56:02Z</time>
      </trkpt>
      <trkpt lat="59.319827" lon="18.070545">
        <ele>37</ele>
        <time>2019-12-04T16:56:03Z</time>
      </trkpt>
      <trkpt lat="59.319852" lon="18.07052">
        <ele>37</ele>
        <time>2019-12-04T16:56:04Z</time>
      </trkpt>
      <trkpt lat="59.319865" lon="18.070484">
        <ele>36</ele>
        <time>2019-12-04T16:56:05Z</time>
      </trkpt>
      <trkpt lat="59.319877" lon="18.070441">
        <ele>35</ele>
        <time>2019-12-04T16:56:07Z</time>
      </trkpt>
      <trkpt lat="59.319888" lon="18.070405">
        <ele>34</ele>
        <time>2019-12-04T16:56:11Z</time>
      </trkpt>
      <trkpt lat="59.319907" lon="18.070399">
        <ele>33</ele>
        <time>2019-12-04T16:56:12Z</time>
      </trkpt>
      <trkpt lat="59.31993" lon="18.070404">
        <ele>33</ele>
        <time>2019-12-04T16:56:13Z</time>
      </trkpt>
      <trkpt lat="59.319963" lon="18.070446">
        <ele>33</ele>
        <time>2019-12-04T16:56:14Z</time>
      </trkpt>
      <trkpt lat="59.319997" lon="18.07051">
        <ele>33</ele>
        <time>2019-12-04T16:56:15Z</time>
      </trkpt>
      <trkpt lat="59.320027" lon="18.070598">
        <ele>33</ele>
        <time>2019-12-04T16:56:16Z</time>
      </trkpt>
      <trkpt lat="59.320055" lon="18.070705">
        <ele>32</ele>
        <time>2019-12-04T16:56:17Z</time>
      </trkpt>
      <trkpt lat="59.320076" lon="18.070799">
        <ele>33</ele>
        <time>2019-12-04T16:56:18Z</time>
      </trkpt>
      <trkpt lat="59.320091" lon="18.070865">
        <ele>33</ele>
        <time>2019-12-04T16:56:19Z</time>
      </trkpt>
      <trkpt lat="59.320103" lon="18.070917">
        <ele>33</ele>
        <time>2019-12-04T16:56:20Z</time>
      </trkpt>
      <trkpt lat="59.320111" lon="18.070967">
        <ele>32</ele>
        <time>2019-12-04T16:56:21Z</time>
      </trkpt>
      <trkpt lat="59.320124" lon="18.071011">
        <ele>32</ele>
        <time>2019-12-04T16:56:22Z</time>
      </trkpt>
      <trkpt lat="59.320143" lon="18.071047">
        <ele>32</ele>
        <time>2019-12-04T16:56:23Z</time>
      </trkpt>
      <trkpt lat="59.320168" lon="18.071078">
        <ele>32</ele>
        <time>2019-12-04T16:56:24Z</time>
      </trkpt>
      <trkpt lat="59.320195" lon="18.071102">
        <ele>31</ele>
        <time>2019-12-04T16:56:25Z</time>
      </trkpt>
      <trkpt lat="59.320226" lon="18.071128">
        <ele>33</ele>
        <time>2019-12-04T16:56:26Z</time>
      </trkpt>
      <trkpt lat="59.320274" lon="18.071151">
        <ele>34</ele>
        <time>2019-12-04T16:56:27Z</time>
      </trkpt>
      <trkpt lat="59.320311" lon="18.071172">
        <ele>34</ele>
        <time>2019-12-04T16:56:28Z</time>
      </trkpt>
      <trkpt lat="59.320337" lon="18.071195">
        <ele>34</ele>
        <time>2019-12-04T16:56:29Z</time>
      </trkpt>
      <trkpt lat="59.320351" lon="18.071227">
        <ele>33</ele>
        <time>2019-12-04T16:56:31Z</time>
      </trkpt>
      <trkpt lat="59.320376" lon="18.07128">
        <ele>33</ele>
        <time>2019-12-04T16:56:34Z</time>
      </trkpt>
      <trkpt lat="59.320398" lon="18.071312">
        <ele>33</ele>
        <time>2019-12-04T16:56:35Z</time>
      </trkpt>
      <trkpt lat="59.320429" lon="18.071346">
        <ele>33</ele>
        <time>2019-12-04T16:56:36Z</time>
      </trkpt>
      <trkpt lat="59.320464" lon="18.071375">
        <ele>32</ele>
        <time>2019-12-04T16:56:37Z</time>
      </trkpt>
      <trkpt lat="59.320505" lon="18.071405">
        <ele>32</ele>
        <time>2019-12-04T16:56:38Z</time>
      </trkpt>
      <trkpt lat="59.320552" lon="18.071432">
        <ele>32</ele>
        <time>2019-12-04T16:56:39Z</time>
      </trkpt>
      <trkpt lat="59.3206" lon="18.071448">
        <ele>32</ele>
        <time>2019-12-04T16:56:40Z</time>
      </trkpt>
      <trkpt lat="59.320645" lon="18.071447">
        <ele>31</ele>
        <time>2019-12-04T16:56:41Z</time>
      </trkpt>
      <trkpt lat="59.320687" lon="18.071445">
        <ele>31</ele>
        <time>2019-12-04T16:56:42Z</time>
      </trkpt>
      <trkpt lat="59.32073" lon="18.071451">
        <ele>30</ele>
        <time>2019-12-04T16:56:43Z</time>
      </trkpt>
      <trkpt lat="59.320772" lon="18.071464">
        <ele>29</ele>
        <time>2019-12-04T16:56:44Z</time>
      </trkpt>
      <trkpt lat="59.320814" lon="18.071492">
        <ele>29</ele>
        <time>2019-12-04T16:56:45Z</time>
      </trkpt>
      <trkpt lat="59.320852" lon="18.071544">
        <ele>28</ele>
        <time>2019-12-04T16:56:46Z</time>
      </trkpt>
      <trkpt lat="59.320885" lon="18.071618">
        <ele>0</ele>
        <time>2019-12-04T16:56:46Z</time>
      </trkpt>
      <trkpt lat="59.32091" lon="18.071712">
        <ele>28</ele>
        <time>2019-12-04T16:56:47Z</time>
      </trkpt>
      <trkpt lat="59.32093" lon="18.071816">
        <ele>26</ele>
        <time>2019-12-04T16:56:49Z</time>
      </trkpt>
      <trkpt lat="59.320949" lon="18.071925">
        <ele>25</ele>
        <time>2019-12-04T16:56:50Z</time>
      </trkpt>
      <trkpt lat="59.320975" lon="18.072021">
        <ele>25</ele>
        <time>2019-12-04T16:56:51Z</time>
      </trkpt>
      <trkpt lat="59.321013" lon="18.072098">
        <ele>24</ele>
        <time>2019-12-04T16:56:52Z</time>
      </trkpt>
      <trkpt lat="59.321057" lon="18.072148">
        <ele>23</ele>
        <time>2019-12-04T16:56:53Z</time>
      </trkpt>
      <trkpt lat="59.321106" lon="18.072187">
        <ele>22</ele>
        <time>2019-12-04T16:56:54Z</time>
      </trkpt>
      <trkpt lat="59.321162" lon="18.072229">
        <ele>21</ele>
        <time>2019-12-04T16:56:55Z</time>
      </trkpt>
      <trkpt lat="59.32122" lon="18.072271">
        <ele>20</ele>
        <time>2019-12-04T16:56:56Z</time>
      </trkpt>
      <trkpt lat="59.32128" lon="18.072316">
        <ele>19</ele>
        <time>2019-12-04T16:56:57Z</time>
      </trkpt>
      <trkpt lat="59.32134" lon="18.072362">
        <ele>18</ele>
        <time>2019-12-04T16:56:58Z</time>
      </trkpt>
      <trkpt lat="59.321401" lon="18.072407">
        <ele>17</ele>
        <time>2019-12-04T16:56:59Z</time>
      </trkpt>
      <trkpt lat="59.321464" lon="18.072452">
        <ele>16</ele>
        <time>2019-12-04T16:57:00Z</time>
      </trkpt>
      <trkpt lat="59.321527" lon="18.072499">
        <ele>16</ele>
        <time>2019-12-04T16:57:01Z</time>
      </trkpt>
      <trkpt lat="59.321588" lon="18.072544">
        <ele>15</ele>
        <time>2019-12-04T16:57:02Z</time>
      </trkpt>
      <trkpt lat="59.321645" lon="18.072584">
        <ele>15</ele>
        <time>2019-12-04T16:57:03Z</time>
      </trkpt>
      <trkpt lat="59.321692" lon="18.07262">
        <ele>14</ele>
        <time>2019-12-04T16:57:04Z</time>
      </trkpt>
      <trkpt lat="59.321728" lon="18.07265">
        <ele>14</ele>
        <time>2019-12-04T16:57:05Z</time>
      </trkpt>
      <trkpt lat="59.321749" lon="18.072673">
        <ele>13</ele>
        <time>2019-12-04T16:57:06Z</time>
      </trkpt>
      <trkpt lat="59.321776" lon="18.072702">
        <ele>13</ele>
        <time>2019-12-04T16:57:08Z</time>
      </trkpt>
      <trkpt lat="59.321797" lon="18.072721">
        <ele>12</ele>
        <time>2019-12-04T16:57:10Z</time>
      </trkpt>
      <trkpt lat="59.32182" lon="18.072739">
        <ele>12</ele>
        <time>2019-12-04T16:57:13Z</time>
      </trkpt>
      <trkpt lat="59.321847" lon="18.072766">
        <ele>12</ele>
        <time>2019-12-04T16:57:15Z</time>
      </trkpt>
      <trkpt lat="59.321873" lon="18.072787">
        <ele>11</ele>
        <time>2019-12-04T16:57:16Z</time>
      </trkpt>
      <trkpt lat="59.321903" lon="18.072809">
        <ele>11</ele>
        <time>2019-12-04T16:57:17Z</time>
      </trkpt>
      <trkpt lat="59.32193" lon="18.072841">
        <ele>11</ele>
        <time>2019-12-04T16:57:18Z</time>
      </trkpt>
      <trkpt lat="59.321951" lon="18.072891">
        <ele>11</ele>
        <time>2019-12-04T16:57:19Z</time>
      </trkpt>
      <trkpt lat="59.321965" lon="18.072951">
        <ele>11</ele>
        <time>2019-12-04T16:57:20Z</time>
      </trkpt>
      <trkpt lat="59.321973" lon="18.073016">
        <ele>11</ele>
        <time>2019-12-04T16:57:21Z</time>
      </trkpt>
      <trkpt lat="59.321969" lon="18.073086">
        <ele>11</ele>
        <time>2019-12-04T16:57:22Z</time>
      </trkpt>
      <trkpt lat="59.32196" lon="18.073164">
        <ele>11</ele>
        <time>2019-12-04T16:57:23Z</time>
      </trkpt>
      <trkpt lat="59.321949" lon="18.073249">
        <ele>11</ele>
        <time>2019-12-04T16:57:24Z</time>
      </trkpt>
      <trkpt lat="59.321934" lon="18.073337">
        <ele>10</ele>
        <time>2019-12-04T16:57:25Z</time>
      </trkpt>
      <trkpt lat="59.32192" lon="18.073431">
        <ele>10</ele>
        <time>2019-12-04T16:57:26Z</time>
      </trkpt>
      <trkpt lat="59.321907" lon="18.073526">
        <ele>10</ele>
        <time>2019-12-04T16:57:27Z</time>
      </trkpt>
      <trkpt lat="59.321896" lon="18.073623">
        <ele>10</ele>
        <time>2019-12-04T16:57:28Z</time>
      </trkpt>
      <trkpt lat="59.321891" lon="18.073715">
        <ele>10</ele>
        <time>2019-12-04T16:57:29Z</time>
      </trkpt>
      <trkpt lat="59.321898" lon="18.073806">
        <ele>10</ele>
        <time>2019-12-04T16:57:30Z</time>
      </trkpt>
      <trkpt lat="59.321914" lon="18.073895">
        <ele>10</ele>
        <time>2019-12-04T16:57:31Z</time>
      </trkpt>
      <trkpt lat="59.321937" lon="18.073982">
        <ele>10</ele>
        <time>2019-12-04T16:57:32Z</time>
      </trkpt>
      <trkpt lat="59.321966" lon="18.07407">
        <ele>10</ele>
        <time>2019-12-04T16:57:33Z</time>
      </trkpt>
      <trkpt lat="59.322015" lon="18.074153">
        <ele>10</ele>
        <time>2019-12-04T16:57:34Z</time>
      </trkpt>
      <trkpt lat="59.322068" lon="18.074211">
        <ele>9</ele>
        <time>2019-12-04T16:57:35Z</time>
      </trkpt>
      <trkpt lat="59.322119" lon="18.07425">
        <ele>9</ele>
        <time>2019-12-04T16:57:36Z</time>
      </trkpt>
      <trkpt lat="59.32217" lon="18.074281">
        <ele>9</ele>
        <time>2019-12-04T16:57:37Z</time>
      </trkpt>
      <trkpt lat="59.322215" lon="18.07431">
        <ele>9</ele>
        <time>2019-12-04T16:57:38Z</time>
      </trkpt>
      <trkpt lat="59.322264" lon="18.074345">
        <ele>9</ele>
        <time>2019-12-04T16:57:39Z</time>
      </trkpt>
      <trkpt lat="59.322311" lon="18.074383">
        <ele>9</ele>
        <time>2019-12-04T16:57:40Z</time>
      </trkpt>
      <trkpt lat="59.322362" lon="18.074422">
        <ele>9</ele>
        <time>2019-12-04T16:57:41Z</time>
      </trkpt>
      <trkpt lat="59.322412" lon="18.074459">
        <ele>8</ele>
        <time>2019-12-04T16:57:42Z</time>
      </trkpt>
      <trkpt lat="59.322463" lon="18.074499">
        <ele>9</ele>
        <time>2019-12-04T16:57:43Z</time>
      </trkpt>
      <trkpt lat="59.322515" lon="18.074547">
        <ele>9</ele>
        <time>2019-12-04T16:57:44Z</time>
      </trkpt>
      <trkpt lat="59.322566" lon="18.074601">
        <ele>9</ele>
        <time>2019-12-04T16:57:45Z</time>
      </trkpt>
      <trkpt lat="59.322614" lon="18.074663">
        <ele>9</ele>
        <time>2019-12-04T16:57:46Z</time>
      </trkpt>
      <trkpt lat="59.322662" lon="18.074726">
        <ele>9</ele>
        <time>2019-12-04T16:57:47Z</time>
      </trkpt>
      <trkpt lat="59.322706" lon="18.074789">
        <ele>9</ele>
        <time>2019-12-04T16:57:48Z</time>
      </trkpt>
      <trkpt lat="59.322749" lon="18.074846">
        <ele>9</ele>
        <time>2019-12-04T16:57:49Z</time>
      </trkpt>
      <trkpt lat="59.322793" lon="18.0749">
        <ele>9</ele>
        <time>2019-12-04T16:57:50Z</time>
      </trkpt>
      <trkpt lat="59.322836" lon="18.074949">
        <ele>9</ele>
        <time>2019-12-04T16:57:51Z</time>
      </trkpt>
      <trkpt lat="59.322879" lon="18.074994">
        <ele>9</ele>
        <time>2019-12-04T16:57:52Z</time>
      </trkpt>
      <trkpt lat="59.322924" lon="18.075036">
        <ele>9</ele>
        <time>2019-12-04T16:57:53Z</time>
      </trkpt>
      <trkpt lat="59.322972" lon="18.075074">
        <ele>9</ele>
        <time>2019-12-04T16:57:54Z</time>
      </trkpt>
      <trkpt lat="59.323025" lon="18.075104">
        <ele>9</ele>
        <time>2019-12-04T16:57:55Z</time>
      </trkpt>
      <trkpt lat="59.32309" lon="18.075128">
        <ele>8</ele>
        <time>2019-12-04T16:57:56Z</time>
      </trkpt>
      <trkpt lat="59.323157" lon="18.075151">
        <ele>8</ele>
        <time>2019-12-04T16:57:57Z</time>
      </trkpt>
      <trkpt lat="59.323222" lon="18.075173">
        <ele>8</ele>
        <time>2019-12-04T16:57:58Z</time>
      </trkpt>
      <trkpt lat="59.323286" lon="18.075195">
        <ele>8</ele>
        <time>2019-12-04T16:57:59Z</time>
      </trkpt>
      <trkpt lat="59.323349" lon="18.075218">
        <ele>8</ele>
        <time>2019-12-04T16:58:00Z</time>
      </trkpt>
      <trkpt lat="59.323413" lon="18.075243">
        <ele>8</ele>
        <time>2019-12-04T16:58:01Z</time>
      </trkpt>
      <trkpt lat="59.323479" lon="18.075266">
        <ele>7</ele>
        <time>2019-12-04T16:58:02Z</time>
      </trkpt>
      <trkpt lat="59.323545" lon="18.075293">
        <ele>7</ele>
        <time>2019-12-04T16:58:03Z</time>
      </trkpt>
      <trkpt lat="59.323614" lon="18.075325">
        <ele>7</ele>
        <time>2019-12-04T16:58:04Z</time>
      </trkpt>
      <trkpt lat="59.323684" lon="18.075355">
        <ele>7</ele>
        <time>2019-12-04T16:58:05Z</time>
      </trkpt>
      <trkpt lat="59.323757" lon="18.075385">
        <ele>7</ele>
        <time>2019-12-04T16:58:06Z</time>
      </trkpt>
      <trkpt lat="59.323828" lon="18.075414">
        <ele>7</ele>
        <time>2019-12-04T16:58:07Z</time>
      </trkpt>
      <trkpt lat="59.3239" lon="18.075442">
        <ele>7</ele>
        <time>2019-12-04T16:58:08Z</time>
      </trkpt>
      <trkpt lat="59.323968" lon="18.07547">
        <ele>7</ele>
        <time>2019-12-04T16:58:09Z</time>
      </trkpt>
      <trkpt lat="59.324033" lon="18.075495">
        <ele>7</ele>
        <time>2019-12-04T16:58:10Z</time>
      </trkpt>
      <trkpt lat="59.324087" lon="18.075516">
        <ele>7</ele>
        <time>2019-12-04T16:58:11Z</time>
      </trkpt>
      <trkpt lat="59.324132" lon="18.075533">
        <ele>7</ele>
        <time>2019-12-04T16:58:12Z</time>
      </trkpt>
      <trkpt lat="59.324166" lon="18.075545">
        <ele>7</ele>
        <time>2019-12-04T16:58:13Z</time>
      </trkpt>
      <trkpt lat="59.32419" lon="18.075552">
        <ele>7</ele>
        <time>2019-12-04T16:58:14Z</time>
      </trkpt>
      <trkpt lat="59.324221" lon="18.075564">
        <ele>7</ele>
        <time>2019-12-04T16:58:16Z</time>
      </trkpt>
      <trkpt lat="59.324242" lon="18.075573">
        <ele>7</ele>
        <time>2019-12-04T16:58:18Z</time>
      </trkpt>
      <trkpt lat="59.324264" lon="18.07557">
        <ele>7</ele>
        <time>2019-12-04T16:58:20Z</time>
      </trkpt>
      <trkpt lat="59.324296" lon="18.075563">
        <ele>7</ele>
        <time>2019-12-04T16:58:22Z</time>
      </trkpt>
      <trkpt lat="59.324314" lon="18.075564">
        <ele>8</ele>
        <time>2019-12-04T16:58:23Z</time>
      </trkpt>
      <trkpt lat="59.324342" lon="18.075567">
        <ele>8</ele>
        <time>2019-12-04T16:58:25Z</time>
      </trkpt>
      <trkpt lat="59.324375" lon="18.075582">
        <ele>8</ele>
        <time>2019-12-04T16:58:27Z</time>
      </trkpt>
      <trkpt lat="59.324409" lon="18.075599">
        <ele>8</ele>
        <time>2019-12-04T16:58:28Z</time>
      </trkpt>
      <trkpt lat="59.324448" lon="18.075623">
        <ele>9</ele>
        <time>2019-12-04T16:58:29Z</time>
      </trkpt>
      <trkpt lat="59.324496" lon="18.075647">
        <ele>10</ele>
        <time>2019-12-04T16:58:30Z</time>
      </trkpt>
      <trkpt lat="59.324548" lon="18.07567">
        <ele>10</ele>
        <time>2019-12-04T16:58:31Z</time>
      </trkpt>
      <trkpt lat="59.324614" lon="18.075695">
        <ele>11</ele>
        <time>2019-12-04T16:58:32Z</time>
      </trkpt>
      <trkpt lat="59.324679" lon="18.07572">
        <ele>11</ele>
        <time>2019-12-04T16:58:33Z</time>
      </trkpt>
      <trkpt lat="59.324745" lon="18.075744">
        <ele>11</ele>
        <time>2019-12-04T16:58:34Z</time>
      </trkpt>
      <trkpt lat="59.32481" lon="18.075765">
        <ele>11</ele>
        <time>2019-12-04T16:58:35Z</time>
      </trkpt>
      <trkpt lat="59.324876" lon="18.075781">
        <ele>11</ele>
        <time>2019-12-04T16:58:36Z</time>
      </trkpt>
      <trkpt lat="59.324942" lon="18.075794">
        <ele>11</ele>
        <time>2019-12-04T16:58:37Z</time>
      </trkpt>
      <trkpt lat="59.325015" lon="18.075805">
        <ele>11</ele>
        <time>2019-12-04T16:58:38Z</time>
      </trkpt>
      <trkpt lat="59.325085" lon="18.075819">
        <ele>11</ele>
        <time>2019-12-04T16:58:39Z</time>
      </trkpt>
      <trkpt lat="59.32515" lon="18.07583">
        <ele>11</ele>
        <time>2019-12-04T16:58:40Z</time>
      </trkpt>
      <trkpt lat="59.325219" lon="18.07583">
        <ele>11</ele>
        <time>2019-12-04T16:58:41Z</time>
      </trkpt>
      <trkpt lat="59.325288" lon="18.07582">
        <ele>11</ele>
        <time>2019-12-04T16:58:42Z</time>
      </trkpt>
      <trkpt lat="59.325356" lon="18.075805">
        <ele>11</ele>
        <time>2019-12-04T16:58:43Z</time>
      </trkpt>
      <trkpt lat="59.325422" lon="18.075789">
        <ele>11</ele>
        <time>2019-12-04T16:58:44Z</time>
      </trkpt>
      <trkpt lat="59.325491" lon="18.075774">
        <ele>11</ele>
        <time>2019-12-04T16:58:45Z</time>
      </trkpt>
      <trkpt lat="59.325562" lon="18.075757">
        <ele>11</ele>
        <time>2019-12-04T16:58:46Z</time>
      </trkpt>
      <trkpt lat="59.325634" lon="18.07574">
        <ele>12</ele>
        <time>2019-12-04T16:58:47Z</time>
      </trkpt>
      <trkpt lat="59.325708" lon="18.075722">
        <ele>12</ele>
        <time>2019-12-04T16:58:48Z</time>
      </trkpt>
      <trkpt lat="59.325781" lon="18.075702">
        <ele>12</ele>
        <time>2019-12-04T16:58:49Z</time>
      </trkpt>
      <trkpt lat="59.325848" lon="18.075671">
        <ele>12</ele>
        <time>2019-12-04T16:58:50Z</time>
      </trkpt>
      <trkpt lat="59.325911" lon="18.075633">
        <ele>11</ele>
        <time>2019-12-04T16:58:51Z</time>
      </trkpt>
      <trkpt lat="59.325975" lon="18.075589">
        <ele>11</ele>
        <time>2019-12-04T16:58:52Z</time>
      </trkpt>
      <trkpt lat="59.326036" lon="18.075543">
        <ele>11</ele>
        <time>2019-12-04T16:58:53Z</time>
      </trkpt>
      <trkpt lat="59.326094" lon="18.075491">
        <ele>11</ele>
        <time>2019-12-04T16:58:54Z</time>
      </trkpt>
      <trkpt lat="59.326148" lon="18.075433">
        <ele>11</ele>
        <time>2019-12-04T16:58:55Z</time>
      </trkpt>
      <trkpt lat="59.3262" lon="18.075367">
        <ele>10</ele>
        <time>2019-12-04T16:58:56Z</time>
      </trkpt>
      <trkpt lat="59.326249" lon="18.075295">
        <ele>10</ele>
        <time>2019-12-04T16:58:57Z</time>
      </trkpt>
      <trkpt lat="59.326299" lon="18.075219">
        <ele>10</ele>
        <time>2019-12-04T16:58:58Z</time>
      </trkpt>
      <trkpt lat="59.326352" lon="18.075148">
        <ele>10</ele>
        <time>2019-12-04T16:58:59Z</time>
      </trkpt>
      <trkpt lat="59.326406" lon="18.07508">
        <ele>10</ele>
        <time>2019-12-04T16:59:00Z</time>
      </trkpt>
      <trkpt lat="59.326459" lon="18.075012">
        <ele>9</ele>
        <time>2019-12-04T16:59:01Z</time>
      </trkpt>
      <trkpt lat="59.32651" lon="18.074945">
        <ele>9</ele>
        <time>2019-12-04T16:59:02Z</time>
      </trkpt>
      <trkpt lat="59.326563" lon="18.074883">
        <ele>9</ele>
        <time>2019-12-04T16:59:03Z</time>
      </trkpt>
      <trkpt lat="59.326618" lon="18.07483">
        <ele>9</ele>
        <time>2019-12-04T16:59:04Z</time>
      </trkpt>
      <trkpt lat="59.326674" lon="18.074783">
        <ele>9</ele>
        <time>2019-12-04T16:59:05Z</time>
      </trkpt>
      <trkpt lat="59.326728" lon="18.074734">
        <ele>9</ele>
        <time>2019-12-04T16:59:06Z</time>
      </trkpt>
      <trkpt lat="59.326784" lon="18.074681">
        <ele>9</ele>
        <time>2019-12-04T16:59:07Z</time>
      </trkpt>
      <trkpt lat="59.32684" lon="18.074627">
        <ele>9</ele>
        <time>2019-12-04T16:59:08Z</time>
      </trkpt>
      <trkpt lat="59.326896" lon="18.074571">
        <ele>9</ele>
        <time>2019-12-04T16:59:09Z</time>
      </trkpt>
      <trkpt lat="59.326949" lon="18.074507">
        <ele>9</ele>
        <time>2019-12-04T16:59:10Z</time>
      </trkpt>
      <trkpt lat="59.327001" lon="18.074438">
        <ele>9</ele>
        <time>2019-12-04T16:59:11Z</time>
      </trkpt>
      <trkpt lat="59.327052" lon="18.074367">
        <ele>9</ele>
        <time>2019-12-04T16:59:12Z</time>
      </trkpt>
      <trkpt lat="59.327101" lon="18.074298">
        <ele>8</ele>
        <time>2019-12-04T16:59:13Z</time>
      </trkpt>
      <trkpt lat="59.327151" lon="18.074231">
        <ele>8</ele>
        <time>2019-12-04T16:59:14Z</time>
      </trkpt>
      <trkpt lat="59.327203" lon="18.074165">
        <ele>8</ele>
        <time>2019-12-04T16:59:15Z</time>
      </trkpt>
      <trkpt lat="59.327258" lon="18.074101">
        <ele>8</ele>
        <time>2019-12-04T16:59:16Z</time>
      </trkpt>
      <trkpt lat="59.327313" lon="18.074037">
        <ele>8</ele>
        <time>2019-12-04T16:59:17Z</time>
      </trkpt>
      <trkpt lat="59.327368" lon="18.073971">
        <ele>8</ele>
        <time>2019-12-04T16:59:18Z</time>
      </trkpt>
      <trkpt lat="59.327421" lon="18.073906">
        <ele>8</ele>
        <time>2019-12-04T16:59:19Z</time>
      </trkpt>
      <trkpt lat="59.327474" lon="18.07384">
        <ele>8</ele>
        <time>2019-12-04T16:59:20Z</time>
      </trkpt>
      <trkpt lat="59.327527" lon="18.073774">
        <ele>8</ele>
        <time>2019-12-04T16:59:21Z</time>
      </trkpt>
      <trkpt lat="59.327581" lon="18.073711">
        <ele>8</ele>
        <time>2019-12-04T16:59:22Z</time>
      </trkpt>
      <trkpt lat="59.327633" lon="18.073648">
        <ele>8</ele>
        <time>2019-12-04T16:59:23Z</time>
      </trkpt>
      <trkpt lat="59.327684" lon="18.073587">
        <ele>8</ele>
        <time>2019-12-04T16:59:24Z</time>
      </trkpt>
      <trkpt lat="59.327735" lon="18.073526">
        <ele>8</ele>
        <time>2019-12-04T16:59:25Z</time>
      </trkpt>
      <trkpt lat="59.327787" lon="18.073467">
        <ele>7</ele>
        <time>2019-12-04T16:59:26Z</time>
      </trkpt>
      <trkpt lat="59.327837" lon="18.073408">
        <ele>7</ele>
        <time>2019-12-04T16:59:27Z</time>
      </trkpt>
      <trkpt lat="59.327887" lon="18.073351">
        <ele>7</ele>
        <time>2019-12-04T16:59:28Z</time>
      </trkpt>
      <trkpt lat="59.327937" lon="18.073295">
        <ele>7</ele>
        <time>2019-12-04T16:59:29Z</time>
      </trkpt>
      <trkpt lat="59.327984" lon="18.073242">
        <ele>7</ele>
        <time>2019-12-04T16:59:30Z</time>
      </trkpt>
      <trkpt lat="59.32803" lon="18.073192">
        <ele>7</ele>
        <time>2019-12-04T16:59:31Z</time>
      </trkpt>
      <trkpt lat="59.328079" lon="18.073153">
        <ele>7</ele>
        <time>2019-12-04T16:59:32Z</time>
      </trkpt>
      <trkpt lat="59.328135" lon="18.073125">
        <ele>7</ele>
        <time>2019-12-04T16:59:33Z</time>
      </trkpt>
      <trkpt lat="59.328197" lon="18.073103">
        <ele>7</ele>
        <time>2019-12-04T16:59:34Z</time>
      </trkpt>
      <trkpt lat="59.328259" lon="18.07309">
        <ele>8</ele>
        <time>2019-12-04T16:59:35Z</time>
      </trkpt>
      <trkpt lat="59.328319" lon="18.073086">
        <ele>7</ele>
        <time>2019-12-04T16:59:36Z</time>
      </trkpt>
      <trkpt lat="59.328379" lon="18.073091">
        <ele>7</ele>
        <time>2019-12-04T16:59:37Z</time>
      </trkpt>
      <trkpt lat="59.328438" lon="18.073103">
        <ele>0</ele>
        <time>2019-12-04T16:59:37Z</time>
      </trkpt>
      <trkpt lat="59.328497" lon="18.073116">
        <ele>7</ele>
        <time>2019-12-04T16:59:38Z</time>
      </trkpt>
      <trkpt lat="59.328556" lon="18.073129">
        <ele>7</ele>
        <time>2019-12-04T16:59:40Z</time>
      </trkpt>
      <trkpt lat="59.328617" lon="18.073143">
        <ele>7</ele>
        <time>2019-12-04T16:59:41Z</time>
      </trkpt>
      <trkpt lat="59.328677" lon="18.073156">
        <ele>7</ele>
        <time>2019-12-04T16:59:42Z</time>
      </trkpt>
      <trkpt lat="59.328737" lon="18.073171">
        <ele>7</ele>
        <time>2019-12-04T16:59:43Z</time>
      </trkpt>
      <trkpt lat="59.328798" lon="18.073186">
        <ele>7</ele>
        <time>2019-12-04T16:59:44Z</time>
      </trkpt>
      <trkpt lat="59.32886" lon="18.073202">
        <ele>7</ele>
        <time>2019-12-04T16:59:45Z</time>
      </trkpt>
      <trkpt lat="59.328924" lon="18.073218">
        <ele>6</ele>
        <time>2019-12-04T16:59:46Z</time>
      </trkpt>
      <trkpt lat="59.328988" lon="18.073232">
        <ele>6</ele>
        <time>2019-12-04T16:59:47Z</time>
      </trkpt>
      <trkpt lat="59.329052" lon="18.073247">
        <ele>6</ele>
        <time>2019-12-04T16:59:48Z</time>
      </trkpt>
      <trkpt lat="59.329117" lon="18.073263">
        <ele>6</ele>
        <time>2019-12-04T16:59:49Z</time>
      </trkpt>
      <trkpt lat="59.329181" lon="18.07328">
        <ele>6</ele>
        <time>2019-12-04T16:59:50Z</time>
      </trkpt>
      <trkpt lat="59.329246" lon="18.073296">
        <ele>6</ele>
        <time>2019-12-04T16:59:51Z</time>
      </trkpt>
      <trkpt lat="59.32931" lon="18.07331">
        <ele>6</ele>
        <time>2019-12-04T16:59:52Z</time>
      </trkpt>
      <trkpt lat="59.329373" lon="18.073323">
        <ele>6</ele>
        <time>2019-12-04T16:59:53Z</time>
      </trkpt>
      <trkpt lat="59.329435" lon="18.073336">
        <ele>6</ele>
        <time>2019-12-04T16:59:54Z</time>
      </trkpt>
      <trkpt lat="59.329494" lon="18.073358">
        <ele>6</ele>
        <time>2019-12-04T16:59:55Z</time>
      </trkpt>
      <trkpt lat="59.329549" lon="18.073398">
        <ele>5</ele>
        <time>2019-12-04T16:59:56Z</time>
      </trkpt>
      <trkpt lat="59.329591" lon="18.073459">
        <ele>5</ele>
        <time>2019-12-04T16:59:57Z</time>
      </trkpt>
      <trkpt lat="59.329622" lon="18.073539">
        <ele>5</ele>
        <time>2019-12-04T16:59:58Z</time>
      </trkpt>
      <trkpt lat="59.329648" lon="18.07363">
        <ele>6</ele>
        <time>2019-12-04T16:59:59Z</time>
      </trkpt>
      <trkpt lat="59.329671" lon="18.07372">
        <ele>6</ele>
        <time>2019-12-04T17:00:00Z</time>
      </trkpt>
      <trkpt lat="59.329692" lon="18.073804">
        <ele>6</ele>
        <time>2019-12-04T17:00:01Z</time>
      </trkpt>
      <trkpt lat="59.329708" lon="18.07388">
        <ele>6</ele>
        <time>2019-12-04T17:00:02Z</time>
      </trkpt>
      <trkpt lat="59.329717" lon="18.073947">
        <ele>6</ele>
        <time>2019-12-04T17:00:03Z</time>
      </trkpt>
      <trkpt lat="59.329724" lon="18.074007">
        <ele>6</ele>
        <time>2019-12-04T17:00:04Z</time>
      </trkpt>
      <trkpt lat="59.329729" lon="18.074061">
        <ele>6</ele>
        <time>2019-12-04T17:00:05Z</time>
      </trkpt>
      <trkpt lat="59.329736" lon="18.074107">
        <ele>6</ele>
        <time>2019-12-04T17:00:06Z</time>
      </trkpt>
      <trkpt lat="59.329741" lon="18.074147">
        <ele>7</ele>
        <time>2019-12-04T17:00:07Z</time>
      </trkpt>
      <trkpt lat="59.329745" lon="18.074183">
        <ele>7</ele>
        <time>2019-12-04T17:00:08Z</time>
      </trkpt>
      <trkpt lat="59.329758" lon="18.07425">
        <ele>7</ele>
        <time>2019-12-04T17:00:10Z</time>
      </trkpt>
      <trkpt lat="59.329764" lon="18.074283">
        <ele>8</ele>
        <time>2019-12-04T17:00:11Z</time>
      </trkpt>
      <trkpt lat="59.329774" lon="18.074337">
        <ele>8</ele>
        <time>2019-12-04T17:00:13Z</time>
      </trkpt>
      <trkpt lat="59.329771" lon="18.074332">
        <ele>0</ele>
        <time>2019-12-04T17:00:17Z</time>
      </trkpt>
      <trkpt lat="59.329743" lon="18.074324">
        <ele>7</ele>
        <time>2019-12-04T17:00:32Z</time>
      </trkpt>
      <trkpt lat="59.329743" lon="18.074324">
        <ele>0</ele>
        <time>2019-12-04T17:00:35Z</time>
      </trkpt>
      <trkpt lat="59.329748" lon="18.074476">
        <ele>7</ele>
        <time>2019-12-04T17:00:41Z</time>
      </trkpt>
      <trkpt lat="59.329755" lon="18.074552">
        <ele>7</ele>
        <time>2019-12-04T17:00:43Z</time>
      </trkpt>
      <trkpt lat="59.329772" lon="18.074628">
        <ele>7</ele>
        <time>2019-12-04T17:00:44Z</time>
      </trkpt>
      <trkpt lat="59.3298" lon="18.0747">
        <ele>8</ele>
        <time>2019-12-04T17:00:45Z</time>
      </trkpt>
      <trkpt lat="59.329837" lon="18.074761">
        <ele>8</ele>
        <time>2019-12-04T17:00:46Z</time>
      </trkpt>
      <trkpt lat="59.329872" lon="18.074817">
        <ele>8</ele>
        <time>2019-12-04T17:00:47Z</time>
      </trkpt>
      <trkpt lat="59.329903" lon="18.074866">
        <ele>8</ele>
        <time>2019-12-04T17:00:48Z</time>
      </trkpt>
      <trkpt lat="59.329937" lon="18.074912">
        <ele>8</ele>
        <time>2019-12-04T17:00:49Z</time>
      </trkpt>
      <trkpt lat="59.32997" lon="18.074963">
        <ele>8</ele>
        <time>2019-12-04T17:00:50Z</time>
      </trkpt>
      <trkpt lat="59.330004" lon="18.075016">
        <ele>7</ele>
        <time>2019-12-04T17:00:51Z</time>
      </trkpt>
      <trkpt lat="59.330033" lon="18.075075">
        <ele>7</ele>
        <time>2019-12-04T17:00:52Z</time>
      </trkpt>
      <trkpt lat="59.330073" lon="18.075136">
        <ele>7</ele>
        <time>2019-12-04T17:00:53Z</time>
      </trkpt>
      <trkpt lat="59.330159" lon="18.075266">
        <ele>7</ele>
        <time>2019-12-04T17:00:55Z</time>
      </trkpt>
      <trkpt lat="59.330201" lon="18.075336">
        <ele>7</ele>
        <time>2019-12-04T17:00:56Z</time>
      </trkpt>
      <trkpt lat="59.330286" lon="18.075466">
        <ele>8</ele>
        <time>2019-12-04T17:00:58Z</time>
      </trkpt>
      <trkpt lat="59.330367" lon="18.075615">
        <ele>8</ele>
        <time>2019-12-04T17:01:00Z</time>
      </trkpt>
      <trkpt lat="59.330424" lon="18.07567">
        <ele>0</ele>
        <time>2019-12-04T17:01:00Z</time>
      </trkpt>
      <trkpt lat="59.330471" lon="18.07574">
        <ele>8</ele>
        <time>2019-12-04T17:01:01Z</time>
      </trkpt>
      <trkpt lat="59.330519" lon="18.075808">
        <ele>8</ele>
        <time>2019-12-04T17:01:03Z</time>
      </trkpt>
      <trkpt lat="59.330567" lon="18.075878">
        <ele>8</ele>
        <time>2019-12-04T17:01:04Z</time>
      </trkpt>
      <trkpt lat="59.330621" lon="18.075946">
        <ele>8</ele>
        <time>2019-12-04T17:01:05Z</time>
      </trkpt>
      <trkpt lat="59.330678" lon="18.076014">
        <ele>8</ele>
        <time>2019-12-04T17:01:06Z</time>
      </trkpt>
      <trkpt lat="59.330736" lon="18.076095">
        <ele>8</ele>
        <time>2019-12-04T17:01:07Z</time>
      </trkpt>
      <trkpt lat="59.330807" lon="18.076188">
        <ele>8</ele>
        <time>2019-12-04T17:01:08Z</time>
      </trkpt>
      <trkpt lat="59.330876" lon="18.076279">
        <ele>8</ele>
        <time>2019-12-04T17:01:09Z</time>
      </trkpt>
      <trkpt lat="59.330957" lon="18.076384">
        <ele>8</ele>
        <time>2019-12-04T17:01:10Z</time>
      </trkpt>
      <trkpt lat="59.331019" lon="18.076461">
        <ele>8</ele>
        <time>2019-12-04T17:01:11Z</time>
      </trkpt>
      <trkpt lat="59.331086" lon="18.076514">
        <ele>8</ele>
        <time>2019-12-04T17:01:12Z</time>
      </trkpt>
      <trkpt lat="59.331156" lon="18.07656">
        <ele>8</ele>
        <time>2019-12-04T17:01:13Z</time>
      </trkpt>
      <trkpt lat="59.331217" lon="18.076604">
        <ele>8</ele>
        <time>2019-12-04T17:01:14Z</time>
      </trkpt>
      <trkpt lat="59.331267" lon="18.076598">
        <ele>8</ele>
        <time>2019-12-04T17:01:15Z</time>
      </trkpt>
      <trkpt lat="59.331317" lon="18.076548">
        <ele>8</ele>
        <time>2019-12-04T17:01:16Z</time>
      </trkpt>
      <trkpt lat="59.33137" lon="18.076476">
        <ele>8</ele>
        <time>2019-12-04T17:01:17Z</time>
      </trkpt>
      <trkpt lat="59.331416" lon="18.0764">
        <ele>8</ele>
        <time>2019-12-04T17:01:18Z</time>
      </trkpt>
      <trkpt lat="59.331456" lon="18.076322">
        <ele>8</ele>
        <time>2019-12-04T17:01:19Z</time>
      </trkpt>
      <trkpt lat="59.331499" lon="18.076251">
        <ele>8</ele>
        <time>2019-12-04T17:01:20Z</time>
      </trkpt>
      <trkpt lat="59.331544" lon="18.076195">
        <ele>8</ele>
        <time>2019-12-04T17:01:21Z</time>
      </trkpt>
      <trkpt lat="59.331591" lon="18.07615">
        <ele>8</ele>
        <time>2019-12-04T17:01:22Z</time>
      </trkpt>
      <trkpt lat="59.331642" lon="18.076116">
        <ele>8</ele>
        <time>2019-12-04T17:01:23Z</time>
      </trkpt>
      <trkpt lat="59.331696" lon="18.076094">
        <ele>9</ele>
        <time>2019-12-04T17:01:24Z</time>
      </trkpt>
      <trkpt lat="59.33175" lon="18.076085">
        <ele>9</ele>
        <time>2019-12-04T17:01:25Z</time>
      </trkpt>
      <trkpt lat="59.331805" lon="18.076088">
        <ele>9</ele>
        <time>2019-12-04T17:01:26Z</time>
      </trkpt>
      <trkpt lat="59.331857" lon="18.076102">
        <ele>9</ele>
        <time>2019-12-04T17:01:27Z</time>
      </trkpt>
      <trkpt lat="59.331906" lon="18.07612">
        <ele>9</ele>
        <time>2019-12-04T17:01:28Z</time>
      </trkpt>
      <trkpt lat="59.331949" lon="18.076137">
        <ele>9</ele>
        <time>2019-12-04T17:01:29Z</time>
      </trkpt>
      <trkpt lat="59.331991" lon="18.076164">
        <ele>9</ele>
        <time>2019-12-04T17:01:30Z</time>
      </trkpt>
      <trkpt lat="59.332027" lon="18.076194">
        <ele>8</ele>
        <time>2019-12-04T17:01:31Z</time>
      </trkpt>
      <trkpt lat="59.332062" lon="18.07622">
        <ele>8</ele>
        <time>2019-12-04T17:01:32Z</time>
      </trkpt>
      <trkpt lat="59.332096" lon="18.076246">
        <ele>8</ele>
        <time>2019-12-04T17:01:33Z</time>
      </trkpt>
      <trkpt lat="59.332133" lon="18.076272">
        <ele>8</ele>
        <time>2019-12-04T17:01:34Z</time>
      </trkpt>
      <trkpt lat="59.332173" lon="18.076292">
        <ele>8</ele>
        <time>2019-12-04T17:01:35Z</time>
      </trkpt>
      <trkpt lat="59.332214" lon="18.076318">
        <ele>8</ele>
        <time>2019-12-04T17:01:36Z</time>
      </trkpt>
      <trkpt lat="59.332251" lon="18.076365">
        <ele>8</ele>
        <time>2019-12-04T17:01:37Z</time>
      </trkpt>
      <trkpt lat="59.332283" lon="18.07642">
        <ele>8</ele>
        <time>2019-12-04T17:01:38Z</time>
      </trkpt>
      <trkpt lat="59.332309" lon="18.076476">
        <ele>8</ele>
        <time>2019-12-04T17:01:39Z</time>
      </trkpt>
      <trkpt lat="59.332333" lon="18.076532">
        <ele>8</ele>
        <time>2019-12-04T17:01:40Z</time>
      </trkpt>
      <trkpt lat="59.332352" lon="18.076585">
        <ele>8</ele>
        <time>2019-12-04T17:01:41Z</time>
      </trkpt>
      <trkpt lat="59.332367" lon="18.076631">
        <ele>8</ele>
        <time>2019-12-04T17:01:42Z</time>
      </trkpt>
      <trkpt lat="59.332379" lon="18.076676">
        <ele>9</ele>
        <time>2019-12-04T17:01:43Z</time>
      </trkpt>
      <trkpt lat="59.332392" lon="18.076714">
        <ele>9</ele>
        <time>2019-12-04T17:01:44Z</time>
      </trkpt>
      <trkpt lat="59.332405" lon="18.076745">
        <ele>9</ele>
        <time>2019-12-04T17:01:45Z</time>
      </trkpt>
      <trkpt lat="59.332419" lon="18.076778">
        <ele>9</ele>
        <time>2019-12-04T17:01:47Z</time>
      </trkpt>
      <trkpt lat="59.332417" lon="18.076782">
        <ele>0</ele>
        <time>2019-12-04T17:01:49Z</time>
      </trkpt>
      <trkpt lat="59.332435" lon="18.076923">
        <ele>9</ele>
        <time>2019-12-04T17:02:44Z</time>
      </trkpt>
      <trkpt lat="59.332456" lon="18.076992">
        <ele>9</ele>
        <time>2019-12-04T17:02:46Z</time>
      </trkpt>
      <trkpt lat="59.332482" lon="18.077062">
        <ele>9</ele>
        <time>2019-12-04T17:02:47Z</time>
      </trkpt>
      <trkpt lat="59.332514" lon="18.077128">
        <ele>9</ele>
        <time>2019-12-04T17:02:48Z</time>
      </trkpt>
      <trkpt lat="59.332555" lon="18.07718">
        <ele>9</ele>
        <time>2019-12-04T17:02:49Z</time>
      </trkpt>
      <trkpt lat="59.332606" lon="18.077223">
        <ele>9</ele>
        <time>2019-12-04T17:02:50Z</time>
      </trkpt>
      <trkpt lat="59.332659" lon="18.077257">
        <ele>8</ele>
        <time>2019-12-04T17:02:51Z</time>
      </trkpt>
      <trkpt lat="59.33271" lon="18.077282">
        <ele>8</ele>
        <time>2019-12-04T17:02:52Z</time>
      </trkpt>
      <trkpt lat="59.332764" lon="18.077308">
        <ele>8</ele>
        <time>2019-12-04T17:02:53Z</time>
      </trkpt>
      <trkpt lat="59.332813" lon="18.077332">
        <ele>8</ele>
        <time>2019-12-04T17:02:54Z</time>
      </trkpt>
      <trkpt lat="59.332863" lon="18.077361">
        <ele>8</ele>
        <time>2019-12-04T17:02:55Z</time>
      </trkpt>
      <trkpt lat="59.332912" lon="18.077395">
        <ele>8</ele>
        <time>2019-12-04T17:02:56Z</time>
      </trkpt>
      <trkpt lat="59.332965" lon="18.077427">
        <ele>8</ele>
        <time>2019-12-04T17:02:57Z</time>
      </trkpt>
      <trkpt lat="59.333017" lon="18.077456">
        <ele>8</ele>
        <time>2019-12-04T17:02:58Z</time>
      </trkpt>
      <trkpt lat="59.33308" lon="18.077494">
        <ele>8</ele>
        <time>2019-12-04T17:02:59Z</time>
      </trkpt>
      <trkpt lat="59.333139" lon="18.07753">
        <ele>8</ele>
        <time>2019-12-04T17:03:00Z</time>
      </trkpt>
      <trkpt lat="59.333201" lon="18.077576">
        <ele>8</ele>
        <time>2019-12-04T17:03:01Z</time>
      </trkpt>
      <trkpt lat="59.333264" lon="18.077621">
        <ele>8</ele>
        <time>2019-12-04T17:03:02Z</time>
      </trkpt>
      <trkpt lat="59.333324" lon="18.077667">
        <ele>8</ele>
        <time>2019-12-04T17:03:03Z</time>
      </trkpt>
      <trkpt lat="59.333385" lon="18.077714">
        <ele>8</ele>
        <time>2019-12-04T17:03:04Z</time>
      </trkpt>
      <trkpt lat="59.333446" lon="18.077764">
        <ele>8</ele>
        <time>2019-12-04T17:03:05Z</time>
      </trkpt>
      <trkpt lat="59.333505" lon="18.077817">
        <ele>8</ele>
        <time>2019-12-04T17:03:06Z</time>
      </trkpt>
      <trkpt lat="59.333574" lon="18.077873">
        <ele>8</ele>
        <time>2019-12-04T17:03:07Z</time>
      </trkpt>
      <trkpt lat="59.333635" lon="18.077922">
        <ele>7</ele>
        <time>2019-12-04T17:03:08Z</time>
      </trkpt>
      <trkpt lat="59.333682" lon="18.077962">
        <ele>7</ele>
        <time>2019-12-04T17:03:09Z</time>
      </trkpt>
      <trkpt lat="59.333729" lon="18.077994">
        <ele>7</ele>
        <time>2019-12-04T17:03:10Z</time>
      </trkpt>
      <trkpt lat="59.333773" lon="18.078018">
        <ele>7</ele>
        <time>2019-12-04T17:03:11Z</time>
      </trkpt>
      <trkpt lat="59.333812" lon="18.078045">
        <ele>7</ele>
        <time>2019-12-04T17:03:12Z</time>
      </trkpt>
      <trkpt lat="59.333847" lon="18.078076">
        <ele>7</ele>
        <time>2019-12-04T17:03:13Z</time>
      </trkpt>
      <trkpt lat="59.333881" lon="18.078105">
        <ele>7</ele>
        <time>2019-12-04T17:03:14Z</time>
      </trkpt>
      <trkpt lat="59.333916" lon="18.078132">
        <ele>7</ele>
        <time>2019-12-04T17:03:15Z</time>
      </trkpt>
      <trkpt lat="59.333955" lon="18.07816">
        <ele>7</ele>
        <time>2019-12-04T17:03:16Z</time>
      </trkpt>
      <trkpt lat="59.333997" lon="18.07819">
        <ele>7</ele>
        <time>2019-12-04T17:03:17Z</time>
      </trkpt>
      <trkpt lat="59.334043" lon="18.078224">
        <ele>7</ele>
        <time>2019-12-04T17:03:18Z</time>
      </trkpt>
      <trkpt lat="59.334088" lon="18.078266">
        <ele>7</ele>
        <time>2019-12-04T17:03:19Z</time>
      </trkpt>
      <trkpt lat="59.334139" lon="18.078313">
        <ele>6</ele>
        <time>2019-12-04T17:03:20Z</time>
      </trkpt>
      <trkpt lat="59.334188" lon="18.078358">
        <ele>6</ele>
        <time>2019-12-04T17:03:21Z</time>
      </trkpt>
      <trkpt lat="59.33424" lon="18.078396">
        <ele>6</ele>
        <time>2019-12-04T17:03:22Z</time>
      </trkpt>
      <trkpt lat="59.33429" lon="18.078427">
        <ele>6</ele>
        <time>2019-12-04T17:03:23Z</time>
      </trkpt>
      <trkpt lat="59.334344" lon="18.078463">
        <ele>6</ele>
        <time>2019-12-04T17:03:24Z</time>
      </trkpt>
      <trkpt lat="59.334394" lon="18.078501">
        <ele>6</ele>
        <time>2019-12-04T17:03:25Z</time>
      </trkpt>
      <trkpt lat="59.334445" lon="18.078537">
        <ele>6</ele>
        <time>2019-12-04T17:03:26Z</time>
      </trkpt>
      <trkpt lat="59.334495" lon="18.078574">
        <ele>7</ele>
        <time>2019-12-04T17:03:27Z</time>
      </trkpt>
      <trkpt lat="59.334548" lon="18.078609">
        <ele>7</ele>
        <time>2019-12-04T17:03:28Z</time>
      </trkpt>
      <trkpt lat="59.334598" lon="18.078647">
        <ele>7</ele>
        <time>2019-12-04T17:03:29Z</time>
      </trkpt>
      <trkpt lat="59.334648" lon="18.078683">
        <ele>7</ele>
        <time>2019-12-04T17:03:30Z</time>
      </trkpt>
      <trkpt lat="59.334698" lon="18.078716">
        <ele>7</ele>
        <time>2019-12-04T17:03:31Z</time>
      </trkpt>
      <trkpt lat="59.334745" lon="18.078753">
        <ele>7</ele>
        <time>2019-12-04T17:03:32Z</time>
      </trkpt>
      <trkpt lat="59.33479" lon="18.078789">
        <ele>7</ele>
        <time>2019-12-04T17:03:33Z</time>
      </trkpt>
      <trkpt lat="59.334835" lon="18.078823">
        <ele>7</ele>
        <time>2019-12-04T17:03:34Z</time>
      </trkpt>
      <trkpt lat="59.334881" lon="18.078863">
        <ele>8</ele>
        <time>2019-12-04T17:03:35Z</time>
      </trkpt>
      <trkpt lat="59.334926" lon="18.078908">
        <ele>8</ele>
        <time>2019-12-04T17:03:36Z</time>
      </trkpt>
      <trkpt lat="59.33497" lon="18.078949">
        <ele>8</ele>
        <time>2019-12-04T17:03:37Z</time>
      </trkpt>
      <trkpt lat="59.335015" lon="18.078989">
        <ele>8</ele>
        <time>2019-12-04T17:03:38Z</time>
      </trkpt>
      <trkpt lat="59.335058" lon="18.079027">
        <ele>8</ele>
        <time>2019-12-04T17:03:39Z</time>
      </trkpt>
      <trkpt lat="59.335103" lon="18.079069">
        <ele>9</ele>
        <time>2019-12-04T17:03:40Z</time>
      </trkpt>
      <trkpt lat="59.335145" lon="18.079107">
        <ele>9</ele>
        <time>2019-12-04T17:03:41Z</time>
      </trkpt>
      <trkpt lat="59.335185" lon="18.079141">
        <ele>9</ele>
        <time>2019-12-04T17:03:42Z</time>
      </trkpt>
      <trkpt lat="59.335223" lon="18.079176">
        <ele>9</ele>
        <time>2019-12-04T17:03:43Z</time>
      </trkpt>
      <trkpt lat="59.335262" lon="18.079211">
        <ele>10</ele>
        <time>2019-12-04T17:03:44Z</time>
      </trkpt>
      <trkpt lat="59.335301" lon="18.079245">
        <ele>10</ele>
        <time>2019-12-04T17:03:45Z</time>
      </trkpt>
      <trkpt lat="59.335338" lon="18.079279">
        <ele>10</ele>
        <time>2019-12-04T17:03:46Z</time>
      </trkpt>
      <trkpt lat="59.335375" lon="18.079313">
        <ele>10</ele>
        <time>2019-12-04T17:03:47Z</time>
      </trkpt>
      <trkpt lat="59.335414" lon="18.07935">
        <ele>10</ele>
        <time>2019-12-04T17:03:48Z</time>
      </trkpt>
      <trkpt lat="59.335454" lon="18.079378">
        <ele>10</ele>
        <time>2019-12-04T17:03:49Z</time>
      </trkpt>
      <trkpt lat="59.335492" lon="18.079406">
        <ele>11</ele>
        <time>2019-12-04T17:03:50Z</time>
      </trkpt>
      <trkpt lat="59.335529" lon="18.079435">
        <ele>11</ele>
        <time>2019-12-04T17:03:51Z</time>
      </trkpt>
      <trkpt lat="59.335567" lon="18.079461">
        <ele>11</ele>
        <time>2019-12-04T17:03:52Z</time>
      </trkpt>
      <trkpt lat="59.335604" lon="18.079497">
        <ele>11</ele>
        <time>2019-12-04T17:03:53Z</time>
      </trkpt>
      <trkpt lat="59.335637" lon="18.079533">
        <ele>11</ele>
        <time>2019-12-04T17:03:54Z</time>
      </trkpt>
      <trkpt lat="59.335666" lon="18.079567">
        <ele>11</ele>
        <time>2019-12-04T17:03:55Z</time>
      </trkpt>
      <trkpt lat="59.335697" lon="18.079598">
        <ele>11</ele>
        <time>2019-12-04T17:03:56Z</time>
      </trkpt>
      <trkpt lat="59.335726" lon="18.079627">
        <ele>11</ele>
        <time>2019-12-04T17:03:57Z</time>
      </trkpt>
      <trkpt lat="59.335753" lon="18.079654">
        <ele>12</ele>
        <time>2019-12-04T17:03:58Z</time>
      </trkpt>
      <trkpt lat="59.335775" lon="18.079677">
        <ele>12</ele>
        <time>2019-12-04T17:03:59Z</time>
      </trkpt>
      <trkpt lat="59.335791" lon="18.079694">
        <ele>12</ele>
        <time>2019-12-04T17:04:00Z</time>
      </trkpt>
      <trkpt lat="59.335814" lon="18.079722">
        <ele>12</ele>
        <time>2019-12-04T17:04:01Z</time>
      </trkpt>
      <trkpt lat="59.335834" lon="18.079746">
        <ele>12</ele>
        <time>2019-12-04T17:04:04Z</time>
      </trkpt>
      <trkpt lat="59.335868" lon="18.079771">
        <ele>12</ele>
        <time>2019-12-04T17:04:06Z</time>
      </trkpt>
      <trkpt lat="59.335892" lon="18.079789">
        <ele>12</ele>
        <time>2019-12-04T17:04:07Z</time>
      </trkpt>
      <trkpt lat="59.335928" lon="18.079816">
        <ele>12</ele>
        <time>2019-12-04T17:04:08Z</time>
      </trkpt>
      <trkpt lat="59.335975" lon="18.079853">
        <ele>12</ele>
        <time>2019-12-04T17:04:09Z</time>
      </trkpt>
      <trkpt lat="59.336022" lon="18.079892">
        <ele>11</ele>
        <time>2019-12-04T17:04:10Z</time>
      </trkpt>
      <trkpt lat="59.336069" lon="18.079933">
        <ele>11</ele>
        <time>2019-12-04T17:04:11Z</time>
      </trkpt>
      <trkpt lat="59.336112" lon="18.079965">
        <ele>11</ele>
        <time>2019-12-04T17:04:12Z</time>
      </trkpt>
      <trkpt lat="59.336155" lon="18.079997">
        <ele>11</ele>
        <time>2019-12-04T17:04:13Z</time>
      </trkpt>
      <trkpt lat="59.336201" lon="18.080031">
        <ele>11</ele>
        <time>2019-12-04T17:04:14Z</time>
      </trkpt>
      <trkpt lat="59.336247" lon="18.08007">
        <ele>11</ele>
        <time>2019-12-04T17:04:15Z</time>
      </trkpt>
      <trkpt lat="59.336293" lon="18.080106">
        <ele>11</ele>
        <time>2019-12-04T17:04:16Z</time>
      </trkpt>
      <trkpt lat="59.336342" lon="18.080143">
        <ele>11</ele>
        <time>2019-12-04T17:04:17Z</time>
      </trkpt>
      <trkpt lat="59.336403" lon="18.080188">
        <ele>11</ele>
        <time>2019-12-04T17:04:18Z</time>
      </trkpt>
      <trkpt lat="59.336454" lon="18.080225">
        <ele>11</ele>
        <time>2019-12-04T17:04:19Z</time>
      </trkpt>
      <trkpt lat="59.336502" lon="18.080259">
        <ele>11</ele>
        <time>2019-12-04T17:04:20Z</time>
      </trkpt>
      <trkpt lat="59.336552" lon="18.080297">
        <ele>11</ele>
        <time>2019-12-04T17:04:21Z</time>
      </trkpt>
      <trkpt lat="59.336604" lon="18.080336">
        <ele>11</ele>
        <time>2019-12-04T17:04:22Z</time>
      </trkpt>
      <trkpt lat="59.336667" lon="18.080383">
        <ele>11</ele>
        <time>2019-12-04T17:04:23Z</time>
      </trkpt>
      <trkpt lat="59.336727" lon="18.080432">
        <ele>11</ele>
        <time>2019-12-04T17:04:24Z</time>
      </trkpt>
      <trkpt lat="59.336783" lon="18.080478">
        <ele>11</ele>
        <time>2019-12-04T17:04:25Z</time>
      </trkpt>
      <trkpt lat="59.336837" lon="18.080525">
        <ele>11</ele>
        <time>2019-12-04T17:04:26Z</time>
      </trkpt>
      <trkpt lat="59.336889" lon="18.080566">
        <ele>11</ele>
        <time>2019-12-04T17:04:27Z</time>
      </trkpt>
      <trkpt lat="59.336939" lon="18.080605">
        <ele>11</ele>
        <time>2019-12-04T17:04:28Z</time>
      </trkpt>
      <trkpt lat="59.336986" lon="18.08064">
        <ele>11</ele>
        <time>2019-12-04T17:04:29Z</time>
      </trkpt>
      <trkpt lat="59.337033" lon="18.080673">
        <ele>11</ele>
        <time>2019-12-04T17:04:30Z</time>
      </trkpt>
      <trkpt lat="59.337079" lon="18.080712">
        <ele>11</ele>
        <time>2019-12-04T17:04:31Z</time>
      </trkpt>
      <trkpt lat="59.337125" lon="18.080757">
        <ele>11</ele>
        <time>2019-12-04T17:04:32Z</time>
      </trkpt>
      <trkpt lat="59.337173" lon="18.080798">
        <ele>11</ele>
        <time>2019-12-04T17:04:33Z</time>
      </trkpt>
      <trkpt lat="59.337221" lon="18.080834">
        <ele>11</ele>
        <time>2019-12-04T17:04:34Z</time>
      </trkpt>
      <trkpt lat="59.337277" lon="18.08087">
        <ele>11</ele>
        <time>2019-12-04T17:04:35Z</time>
      </trkpt>
      <trkpt lat="59.337332" lon="18.080908">
        <ele>11</ele>
        <time>2019-12-04T17:04:36Z</time>
      </trkpt>
      <trkpt lat="59.337395" lon="18.080962">
        <ele>11</ele>
        <time>2019-12-04T17:04:37Z</time>
      </trkpt>
      <trkpt lat="59.337454" lon="18.08101">
        <ele>10</ele>
        <time>2019-12-04T17:04:38Z</time>
      </trkpt>
      <trkpt lat="59.337513" lon="18.081063">
        <ele>10</ele>
        <time>2019-12-04T17:04:39Z</time>
      </trkpt>
      <trkpt lat="59.337571" lon="18.08112">
        <ele>10</ele>
        <time>2019-12-04T17:04:40Z</time>
      </trkpt>
      <trkpt lat="59.337626" lon="18.081179">
        <ele>10</ele>
        <time>2019-12-04T17:04:41Z</time>
      </trkpt>
      <trkpt lat="59.337679" lon="18.081232">
        <ele>10</ele>
        <time>2019-12-04T17:04:42Z</time>
      </trkpt>
      <trkpt lat="59.337733" lon="18.08128">
        <ele>9</ele>
        <time>2019-12-04T17:04:43Z</time>
      </trkpt>
      <trkpt lat="59.337789" lon="18.081328">
        <ele>9</ele>
        <time>2019-12-04T17:04:44Z</time>
      </trkpt>
      <trkpt lat="59.337849" lon="18.081372">
        <ele>9</ele>
        <time>2019-12-04T17:04:45Z</time>
      </trkpt>
      <trkpt lat="59.337906" lon="18.081412">
        <ele>9</ele>
        <time>2019-12-04T17:04:46Z</time>
      </trkpt>
      <trkpt lat="59.337964" lon="18.08145">
        <ele>9</ele>
        <time>2019-12-04T17:04:47Z</time>
      </trkpt>
      <trkpt lat="59.338023" lon="18.081495">
        <ele>9</ele>
        <time>2019-12-04T17:04:48Z</time>
      </trkpt>
      <trkpt lat="59.33808" lon="18.081543">
        <ele>9</ele>
        <time>2019-12-04T17:04:49Z</time>
      </trkpt>
      <trkpt lat="59.338133" lon="18.081599">
        <ele>9</ele>
        <time>2019-12-04T17:04:50Z</time>
      </trkpt>
      <trkpt lat="59.338185" lon="18.08166">
        <ele>9</ele>
        <time>2019-12-04T17:04:51Z</time>
      </trkpt>
      <trkpt lat="59.338237" lon="18.08172">
        <ele>9</ele>
        <time>2019-12-04T17:04:52Z</time>
      </trkpt>
      <trkpt lat="59.33829" lon="18.081769">
        <ele>9</ele>
        <time>2019-12-04T17:04:53Z</time>
      </trkpt>
      <trkpt lat="59.338344" lon="18.081815">
        <ele>9</ele>
        <time>2019-12-04T17:04:54Z</time>
      </trkpt>
      <trkpt lat="59.338397" lon="18.08186">
        <ele>9</ele>
        <time>2019-12-04T17:04:55Z</time>
      </trkpt>
      <trkpt lat="59.338451" lon="18.081902">
        <ele>9</ele>
        <time>2019-12-04T17:04:56Z</time>
      </trkpt>
      <trkpt lat="59.338503" lon="18.081946">
        <ele>9</ele>
        <time>2019-12-04T17:04:57Z</time>
      </trkpt>
      <trkpt lat="59.338554" lon="18.081984">
        <ele>0</ele>
        <time>2019-12-04T17:04:57Z</time>
      </trkpt>
      <trkpt lat="59.338603" lon="18.082018">
        <ele>9</ele>
        <time>2019-12-04T17:04:58Z</time>
      </trkpt>
      <trkpt lat="59.33865" lon="18.08205">
        <ele>9</ele>
        <time>2019-12-04T17:05:00Z</time>
      </trkpt>
      <trkpt lat="59.338699" lon="18.082085">
        <ele>9</ele>
        <time>2019-12-04T17:05:01Z</time>
      </trkpt>
      <trkpt lat="59.338747" lon="18.082118">
        <ele>9</ele>
        <time>2019-12-04T17:05:02Z</time>
      </trkpt>
      <trkpt lat="59.338795" lon="18.08215">
        <ele>9</ele>
        <time>2019-12-04T17:05:03Z</time>
      </trkpt>
      <trkpt lat="59.338841" lon="18.082184">
        <ele>8</ele>
        <time>2019-12-04T17:05:04Z</time>
      </trkpt>
      <trkpt lat="59.338885" lon="18.08222">
        <ele>8</ele>
        <time>2019-12-04T17:05:05Z</time>
      </trkpt>
      <trkpt lat="59.338929" lon="18.082257">
        <ele>8</ele>
        <time>2019-12-04T17:05:06Z</time>
      </trkpt>
      <trkpt lat="59.338973" lon="18.082292">
        <ele>9</ele>
        <time>2019-12-04T17:05:07Z</time>
      </trkpt>
      <trkpt lat="59.339017" lon="18.082325">
        <ele>9</ele>
        <time>2019-12-04T17:05:08Z</time>
      </trkpt>
      <trkpt lat="59.339061" lon="18.082361">
        <ele>9</ele>
        <time>2019-12-04T17:05:09Z</time>
      </trkpt>
      <trkpt lat="59.339107" lon="18.082403">
        <ele>9</ele>
        <time>2019-12-04T17:05:10Z</time>
      </trkpt>
      <trkpt lat="59.339152" lon="18.082446">
        <ele>9</ele>
        <time>2019-12-04T17:05:11Z</time>
      </trkpt>
      <trkpt lat="59.339195" lon="18.082492">
        <ele>9</ele>
        <time>2019-12-04T17:05:12Z</time>
      </trkpt>
      <trkpt lat="59.339237" lon="18.082542">
        <ele>9</ele>
        <time>2019-12-04T17:05:13Z</time>
      </trkpt>
      <trkpt lat="59.339275" lon="18.08258">
        <ele>10</ele>
        <time>2019-12-04T17:05:14Z</time>
      </trkpt>
      <trkpt lat="59.33931" lon="18.082614">
        <ele>10</ele>
        <time>2019-12-04T17:05:15Z</time>
      </trkpt>
      <trkpt lat="59.339346" lon="18.082646">
        <ele>10</ele>
        <time>2019-12-04T17:05:16Z</time>
      </trkpt>
      <trkpt lat="59.339383" lon="18.08268">
        <ele>10</ele>
        <time>2019-12-04T17:05:17Z</time>
      </trkpt>
      <trkpt lat="59.339427" lon="18.082715">
        <ele>10</ele>
        <time>2019-12-04T17:05:18Z</time>
      </trkpt>
      <trkpt lat="59.339476" lon="18.082745">
        <ele>10</ele>
        <time>2019-12-04T17:05:19Z</time>
      </trkpt>
      <trkpt lat="59.339527" lon="18.082783">
        <ele>11</ele>
        <time>2019-12-04T17:05:20Z</time>
      </trkpt>
      <trkpt lat="59.33958" lon="18.082823">
        <ele>11</ele>
        <time>2019-12-04T17:05:21Z</time>
      </trkpt>
      <trkpt lat="59.33963" lon="18.082862">
        <ele>11</ele>
        <time>2019-12-04T17:05:22Z</time>
      </trkpt>
      <trkpt lat="59.33968" lon="18.082902">
        <ele>11</ele>
        <time>2019-12-04T17:05:23Z</time>
      </trkpt>
      <trkpt lat="59.339732" lon="18.082946">
        <ele>11</ele>
        <time>2019-12-04T17:05:24Z</time>
      </trkpt>
      <trkpt lat="59.339785" lon="18.082992">
        <ele>11</ele>
        <time>2019-12-04T17:05:25Z</time>
      </trkpt>
      <trkpt lat="59.339837" lon="18.083036">
        <ele>11</ele>
        <time>2019-12-04T17:05:26Z</time>
      </trkpt>
      <trkpt lat="59.339887" lon="18.083082">
        <ele>11</ele>
        <time>2019-12-04T17:05:27Z</time>
      </trkpt>
      <trkpt lat="59.339938" lon="18.08313">
        <ele>11</ele>
        <time>2019-12-04T17:05:28Z</time>
      </trkpt>
      <trkpt lat="59.339989" lon="18.083172">
        <ele>11</ele>
        <time>2019-12-04T17:05:29Z</time>
      </trkpt>
      <trkpt lat="59.340042" lon="18.083208">
        <ele>12</ele>
        <time>2019-12-04T17:05:30Z</time>
      </trkpt>
      <trkpt lat="59.340093" lon="18.083244">
        <ele>12</ele>
        <time>2019-12-04T17:05:31Z</time>
      </trkpt>
      <trkpt lat="59.340144" lon="18.083282">
        <ele>12</ele>
        <time>2019-12-04T17:05:32Z</time>
      </trkpt>
      <trkpt lat="59.340196" lon="18.083316">
        <ele>12</ele>
        <time>2019-12-04T17:05:33Z</time>
      </trkpt>
      <trkpt lat="59.34025" lon="18.083348">
        <ele>12</ele>
        <time>2019-12-04T17:05:34Z</time>
      </trkpt>
      <trkpt lat="59.340302" lon="18.083378">
        <ele>12</ele>
        <time>2019-12-04T17:05:35Z</time>
      </trkpt>
      <trkpt lat="59.340358" lon="18.083418">
        <ele>12</ele>
        <time>2019-12-04T17:05:36Z</time>
      </trkpt>
      <trkpt lat="59.340411" lon="18.083462">
        <ele>12</ele>
        <time>2019-12-04T17:05:37Z</time>
      </trkpt>
      <trkpt lat="59.340462" lon="18.083508">
        <ele>12</ele>
        <time>2019-12-04T17:05:38Z</time>
      </trkpt>
      <trkpt lat="59.340504" lon="18.083543">
        <ele>12</ele>
        <time>2019-12-04T17:05:39Z</time>
      </trkpt>
      <trkpt lat="59.340548" lon="18.083609">
        <ele>12</ele>
        <time>2019-12-04T17:05:40Z</time>
      </trkpt>
      <trkpt lat="59.340578" lon="18.083695">
        <ele>12</ele>
        <time>2019-12-04T17:05:41Z</time>
      </trkpt>
      <trkpt lat="59.340603" lon="18.083786">
        <ele>12</ele>
        <time>2019-12-04T17:05:42Z</time>
      </trkpt>
      <trkpt lat="59.340628" lon="18.083892">
        <ele>13</ele>
        <time>2019-12-04T17:05:43Z</time>
      </trkpt>
      <trkpt lat="59.34064" lon="18.083998">
        <ele>13</ele>
        <time>2019-12-04T17:05:44Z</time>
      </trkpt>
      <trkpt lat="59.340636" lon="18.084089">
        <ele>13</ele>
        <time>2019-12-04T17:05:45Z</time>
      </trkpt>
      <trkpt lat="59.340624" lon="18.084186">
        <ele>13</ele>
        <time>2019-12-04T17:05:46Z</time>
      </trkpt>
      <trkpt lat="59.340617" lon="18.084282">
        <ele>13</ele>
        <time>2019-12-04T17:05:47Z</time>
      </trkpt>
      <trkpt lat="59.340608" lon="18.084374">
        <ele>14</ele>
        <time>2019-12-04T17:05:48Z</time>
      </trkpt>
      <trkpt lat="59.340603" lon="18.084468">
        <ele>14</ele>
        <time>2019-12-04T17:05:49Z</time>
      </trkpt>
      <trkpt lat="59.340585" lon="18.08456">
        <ele>14</ele>
        <time>2019-12-04T17:05:50Z</time>
      </trkpt>
      <trkpt lat="59.340567" lon="18.084648">
        <ele>14</ele>
        <time>2019-12-04T17:05:51Z</time>
      </trkpt>
      <trkpt lat="59.34055" lon="18.084734">
        <ele>15</ele>
        <time>2019-12-04T17:05:52Z</time>
      </trkpt>
      <trkpt lat="59.340526" lon="18.084815">
        <ele>15</ele>
        <time>2019-12-04T17:05:53Z</time>
      </trkpt>
      <trkpt lat="59.3405" lon="18.084898">
        <ele>15</ele>
        <time>2019-12-04T17:05:54Z</time>
      </trkpt>
      <trkpt lat="59.340491" lon="18.084982">
        <ele>15</ele>
        <time>2019-12-04T17:05:55Z</time>
      </trkpt>
      <trkpt lat="59.340484" lon="18.085054">
        <ele>15</ele>
        <time>2019-12-04T17:05:56Z</time>
      </trkpt>
      <trkpt lat="59.340486" lon="18.08511">
        <ele>16</ele>
        <time>2019-12-04T17:05:57Z</time>
      </trkpt>
      <trkpt lat="59.340491" lon="18.08515">
        <ele>16</ele>
        <time>2019-12-04T17:05:58Z</time>
      </trkpt>
      <trkpt lat="59.3405" lon="18.085188">
        <ele>16</ele>
        <time>2019-12-04T17:06:00Z</time>
      </trkpt>
    </trkseg>
  </trk>
</gpx>